﻿<?xml version="1.0" encoding="utf-8"?><gpx creator="Garmin Desktop App" version="1.1" xsi:schemaLocation="http://www.topografix.com/GPX/1/1 http://www.topografix.com/GPX/1/1/gpx.xsd http://www.garmin.com/xmlschemas/WaypointExtension/v1 http://www8.garmin.com/xmlschemas/WaypointExtensionv1.xsd http://www.garmin.com/xmlschemas/TrackPointExtension/v1 http://www.garmin.com/xmlschemas/TrackPointExtensionv1.xsd http://www.garmin.com/xmlschemas/GpxExtensions/v3 http://www8.garmin.com/xmlschemas/GpxExtensionsv3.xsd http://www.garmin.com/xmlschemas/ActivityExtension/v1 http://www8.garmin.com/xmlschemas/ActivityExtensionv1.xsd http://www.garmin.com/xmlschemas/AdventuresExtensions/v1 http://www8.garmin.com/xmlschemas/AdventuresExtensionv1.xsd http://www.garmin.com/xmlschemas/PressureExtension/v1 http://www.garmin.com/xmlschemas/PressureExtensionv1.xsd http://www.garmin.com/xmlschemas/TripExtensions/v1 http://www.garmin.com/xmlschemas/TripExtensionsv1.xsd http://www.garmin.com/xmlschemas/TripMetaDataExtensions/v1 http://www.garmin.com/xmlschemas/TripMetaDataExtensionsv1.xsd http://www.garmin.com/xmlschemas/ViaPointTransportationModeExtensions/v1 http://www.garmin.com/xmlschemas/ViaPointTransportationModeExtensionsv1.xsd http://www.garmin.com/xmlschemas/CreationTimeExtension/v1 http://www.garmin.com/xmlschemas/CreationTimeExtensionsv1.xsd http://www.garmin.com/xmlschemas/AccelerationExtension/v1 http://www.garmin.com/xmlschemas/AccelerationExtensionv1.xsd http://www.garmin.com/xmlschemas/PowerExtension/v1 http://www.garmin.com/xmlschemas/PowerExtensionv1.xsd http://www.garmin.com/xmlschemas/VideoExtension/v1 http://www.garmin.com/xmlschemas/VideoExtensionv1.xsd" xmlns="http://www.topografix.com/GPX/1/1" xmlns:xsi="http://www.w3.org/2001/XMLSchema-instance" xmlns:wptx1="http://www.garmin.com/xmlschemas/WaypointExtension/v1" xmlns:gpxtrx="http://www.garmin.com/xmlschemas/GpxExtensions/v3" xmlns:gpxtpx="http://www.garmin.com/xmlschemas/TrackPointExtension/v1" xmlns:gpxx="http://www.garmin.com/xmlschemas/GpxExtensions/v3" xmlns:trp="http://www.garmin.com/xmlschemas/TripExtensions/v1" xmlns:adv="http://www.garmin.com/xmlschemas/AdventuresExtensions/v1" xmlns:prs="http://www.garmin.com/xmlschemas/PressureExtension/v1" xmlns:tmd="http://www.garmin.com/xmlschemas/TripMetaDataExtensions/v1" xmlns:vptm="http://www.garmin.com/xmlschemas/ViaPointTransportationModeExtensions/v1" xmlns:ctx="http://www.garmin.com/xmlschemas/CreationTimeExtension/v1" xmlns:gpxacc="http://www.garmin.com/xmlschemas/AccelerationExtension/v1" xmlns:gpxpx="http://www.garmin.com/xmlschemas/PowerExtension/v1" xmlns:vidx1="http://www.garmin.com/xmlschemas/VideoExtension/v1">

  <metadata>
    <link href="http://www.garmin.com">
      <text>Garmin International</text>
    </link>
    <time>2019-09-02T20:22:23Z</time>
    <bounds maxlat="58.670584000647068" maxlon="-3.068702006712556" minlat="57.482705963775516" minlon="-4.461684040725231" />
  </metadata>

  <trk>
    <name>Track vom: 2019-09-02 09:26</name>
    <extensions>
      <gpxx:TrackExtension>
        <gpxx:DisplayColor>DarkGray</gpxx:DisplayColor>
      </gpxx:TrackExtension>
    </extensions>
    <trkseg>
      <trkpt lat="57.483035959303379" lon="-4.461597036570311">
        <ele>19.359999999999999</ele>
        <time>2019-09-02T08:26:47Z</time>
      </trkpt>
      <trkpt lat="57.483029002323747" lon="-4.461583960801363">
        <ele>12.15</ele>
        <time>2019-09-02T08:27:36Z</time>
      </trkpt>
      <trkpt lat="57.483041994273663" lon="-4.46155596524477">
        <ele>10.23</ele>
        <time>2019-09-02T08:28:07Z</time>
      </trkpt>
      <trkpt lat="57.483039982616901" lon="-4.461578009650111">
        <ele>10.710000000000001</ele>
        <time>2019-09-02T08:28:47Z</time>
      </trkpt>
      <trkpt lat="57.483068984001875" lon="-4.461638024076819">
        <ele>11.19</ele>
        <time>2019-09-02T08:29:06Z</time>
      </trkpt>
      <trkpt lat="57.483005030080676" lon="-4.461680017411709">
        <ele>10.710000000000001</ele>
        <time>2019-09-02T08:29:20Z</time>
      </trkpt>
      <trkpt lat="57.48299203813076" lon="-4.461684040725231">
        <ele>10.23</ele>
        <time>2019-09-02T08:29:45Z</time>
      </trkpt>
      <trkpt lat="57.48277897015214" lon="-4.461364019662142">
        <ele>7.83</ele>
        <time>2019-09-02T08:29:56Z</time>
      </trkpt>
      <trkpt lat="57.482749968767166" lon="-4.461278021335602">
        <ele>6.87</ele>
        <time>2019-09-02T08:30:09Z</time>
      </trkpt>
      <trkpt lat="57.482705963775516" lon="-4.461150029674172">
        <ele>6.87</ele>
        <time>2019-09-02T08:30:11Z</time>
      </trkpt>
      <trkpt lat="57.482723984867334" lon="-4.461111975833774">
        <ele>6.87</ele>
        <time>2019-09-02T08:30:12Z</time>
      </trkpt>
      <trkpt lat="57.482742005959153" lon="-4.461074005812407">
        <ele>6.87</ele>
        <time>2019-09-02T08:30:13Z</time>
      </trkpt>
      <trkpt lat="57.482762960717082" lon="-4.461030000820756">
        <ele>6.87</ele>
        <time>2019-09-02T08:30:14Z</time>
      </trkpt>
      <trkpt lat="57.482785005122423" lon="-4.460982978343964">
        <ele>6.39</ele>
        <time>2019-09-02T08:30:15Z</time>
      </trkpt>
      <trkpt lat="57.482809983193874" lon="-4.4609310105443">
        <ele>6.39</ele>
        <time>2019-09-02T08:30:16Z</time>
      </trkpt>
      <trkpt lat="57.48284200206399" lon="-4.460863033309579">
        <ele>6.39</ele>
        <time>2019-09-02T08:30:17Z</time>
      </trkpt>
      <trkpt lat="57.48288600705564" lon="-4.460769994184375">
        <ele>5.91</ele>
        <time>2019-09-02T08:30:18Z</time>
      </trkpt>
      <trkpt lat="57.482946021482348" lon="-4.460660023614764">
        <ele>5.91</ele>
        <time>2019-09-02T08:30:19Z</time>
      </trkpt>
      <trkpt lat="57.48301399871707" lon="-4.460552986711264">
        <ele>5.42</ele>
        <time>2019-09-02T08:30:20Z</time>
      </trkpt>
      <trkpt lat="57.483585979789495" lon="-4.459779001772404">
        <ele>4.46</ele>
        <time>2019-09-02T08:30:29Z</time>
      </trkpt>
      <trkpt lat="57.483666026964784" lon="-4.459699038416147">
        <ele>4.46</ele>
        <time>2019-09-02T08:30:30Z</time>
      </trkpt>
      <trkpt lat="57.48449700884521" lon="-4.459154969081283">
        <ele>5.42</ele>
        <time>2019-09-02T08:30:40Z</time>
      </trkpt>
      <trkpt lat="57.485186001285911" lon="-4.458806030452251">
        <ele>6.87</ele>
        <time>2019-09-02T08:30:48Z</time>
      </trkpt>
      <trkpt lat="57.485638959333301" lon="-4.458593968302012">
        <ele>7.83</ele>
        <time>2019-09-02T08:30:53Z</time>
      </trkpt>
      <trkpt lat="57.485739961266518" lon="-4.458544012159109">
        <ele>7.35</ele>
        <time>2019-09-02T08:30:54Z</time>
      </trkpt>
      <trkpt lat="57.486918959766626" lon="-4.457932971417904">
        <ele>7.35</ele>
        <time>2019-09-02T08:31:04Z</time>
      </trkpt>
      <trkpt lat="57.488373974338174" lon="-4.457188993692398">
        <ele>5.91</ele>
        <time>2019-09-02T08:31:15Z</time>
      </trkpt>
      <trkpt lat="57.489815996959805" lon="-4.456445015966892">
        <ele>5.91</ele>
        <time>2019-09-02T08:31:26Z</time>
      </trkpt>
      <trkpt lat="57.491377964615822" lon="-4.455643035471439">
        <ele>6.87</ele>
        <time>2019-09-02T08:31:38Z</time>
      </trkpt>
      <trkpt lat="57.492689983919263" lon="-4.454969968646765">
        <ele>6.87</ele>
        <time>2019-09-02T08:31:48Z</time>
      </trkpt>
      <trkpt lat="57.494672974571586" lon="-4.453955003991723">
        <ele>6.87</ele>
        <time>2019-09-02T08:32:01Z</time>
      </trkpt>
      <trkpt lat="57.495763041079044" lon="-4.453397020697594">
        <ele>7.35</ele>
        <time>2019-09-02T08:32:07Z</time>
      </trkpt>
      <trkpt lat="57.497132979333401" lon="-4.452759996056557">
        <ele>9.75</ele>
        <time>2019-09-02T08:32:16Z</time>
      </trkpt>
      <trkpt lat="57.497576968744397" lon="-4.452561009675264">
        <ele>10.710000000000001</ele>
        <time>2019-09-02T08:32:19Z</time>
      </trkpt>
      <trkpt lat="57.498040990903974" lon="-4.452365962788463">
        <ele>12.15</ele>
        <time>2019-09-02T08:32:22Z</time>
      </trkpt>
      <trkpt lat="57.499344041571021" lon="-4.451890038326383">
        <ele>16</ele>
        <time>2019-09-02T08:32:30Z</time>
      </trkpt>
      <trkpt lat="57.500648014247417" lon="-4.452169993892312">
        <ele>22.25</ele>
        <time>2019-09-02T08:32:39Z</time>
      </trkpt>
      <trkpt lat="57.501990040764213" lon="-4.452737029641867">
        <ele>24.170000000000002</ele>
        <time>2019-09-02T08:32:48Z</time>
      </trkpt>
      <trkpt lat="57.503284038975835" lon="-4.453254025429487">
        <ele>25.129999999999999</ele>
        <time>2019-09-02T08:32:57Z</time>
      </trkpt>
      <trkpt lat="57.504073027521372" lon="-4.453570023179054">
        <ele>26.57</ele>
        <time>2019-09-02T08:33:05Z</time>
      </trkpt>
      <trkpt lat="57.504187021404505" lon="-4.453616039827466">
        <ele>26.57</ele>
        <time>2019-09-02T08:33:07Z</time>
      </trkpt>
      <trkpt lat="57.504287017509341" lon="-4.453575974330306">
        <ele>26.57</ele>
        <time>2019-09-02T08:33:08Z</time>
      </trkpt>
      <trkpt lat="57.504313001409173" lon="-4.453488970175386">
        <ele>26.57</ele>
        <time>2019-09-02T08:33:09Z</time>
      </trkpt>
      <trkpt lat="57.504344014450908" lon="-4.453385034576058">
        <ele>26.09</ele>
        <time>2019-09-02T08:33:10Z</time>
      </trkpt>
      <trkpt lat="57.504378966987133" lon="-4.453266011551023">
        <ele>26.09</ele>
        <time>2019-09-02T08:33:11Z</time>
      </trkpt>
      <trkpt lat="57.504418026655912" lon="-4.453133996576071">
        <ele>26.09</ele>
        <time>2019-09-02T08:33:12Z</time>
      </trkpt>
      <trkpt lat="57.504903003573418" lon="-4.451617039740086">
        <ele>26.57</ele>
        <time>2019-09-02T08:33:21Z</time>
      </trkpt>
      <trkpt lat="57.505694003775716" lon="-4.449273962527514">
        <ele>27.530000000000001</ele>
        <time>2019-09-02T08:33:33Z</time>
      </trkpt>
      <trkpt lat="57.505790982395411" lon="-4.449128033593297">
        <ele>27.530000000000001</ele>
        <time>2019-09-02T08:33:34Z</time>
      </trkpt>
      <trkpt lat="57.505892990157008" lon="-4.448974980041385">
        <ele>27.530000000000001</ele>
        <time>2019-09-02T08:33:35Z</time>
      </trkpt>
      <trkpt lat="57.506001032888889" lon="-4.448828967288137">
        <ele>27.530000000000001</ele>
        <time>2019-09-02T08:33:36Z</time>
      </trkpt>
      <trkpt lat="57.507345993071795" lon="-4.447960015386343">
        <ele>28.02</ele>
        <time>2019-09-02T08:33:45Z</time>
      </trkpt>
      <trkpt lat="57.509468039497733" lon="-4.44694303907454">
        <ele>28.98</ele>
        <time>2019-09-02T08:33:58Z</time>
      </trkpt>
      <trkpt lat="57.511430997401476" lon="-4.446078026667237">
        <ele>30.420000000000002</ele>
        <time>2019-09-02T08:34:10Z</time>
      </trkpt>
      <trkpt lat="57.513039987534285" lon="-4.444766007363796">
        <ele>29.940000000000001</ele>
        <time>2019-09-02T08:34:21Z</time>
      </trkpt>
      <trkpt lat="57.513149036094546" lon="-4.444659976288676">
        <ele>29.940000000000001</ele>
        <time>2019-09-02T08:34:22Z</time>
      </trkpt>
      <trkpt lat="57.513744989410043" lon="-4.444077014923096">
        <ele>31.859999999999999</ele>
        <time>2019-09-02T08:34:30Z</time>
      </trkpt>
      <trkpt lat="57.51378295943141" lon="-4.444038961082697">
        <ele>32.340000000000003</ele>
        <time>2019-09-02T08:34:31Z</time>
      </trkpt>
      <trkpt lat="57.513815984129906" lon="-4.444007026031613">
        <ele>32.340000000000003</ele>
        <time>2019-09-02T08:34:32Z</time>
      </trkpt>
      <trkpt lat="57.514008013531566" lon="-4.443820025771856">
        <ele>32.82</ele>
        <time>2019-09-02T08:34:40Z</time>
      </trkpt>
      <trkpt lat="57.513981023803353" lon="-4.443760011345148">
        <ele>32.82</ele>
        <time>2019-09-02T08:34:41Z</time>
      </trkpt>
      <trkpt lat="57.513949004933238" lon="-4.443687004968524">
        <ele>32.82</ele>
        <time>2019-09-02T08:34:42Z</time>
      </trkpt>
      <trkpt lat="57.513903994113207" lon="-4.443583991378546">
        <ele>32.82</ele>
        <time>2019-09-02T08:34:43Z</time>
      </trkpt>
      <trkpt lat="57.51384699717164" lon="-4.443453988060355">
        <ele>33.299999999999997</ele>
        <time>2019-09-02T08:34:44Z</time>
      </trkpt>
      <trkpt lat="57.513311980292201" lon="-4.44224095903337">
        <ele>32.340000000000003</ele>
        <time>2019-09-02T08:34:50Z</time>
      </trkpt>
      <trkpt lat="57.512508993968368" lon="-4.439740972593427">
        <ele>30.420000000000002</ele>
        <time>2019-09-02T08:34:59Z</time>
      </trkpt>
      <trkpt lat="57.51225502230227" lon="-4.437264036387205">
        <ele>29.460000000000001</ele>
        <time>2019-09-02T08:35:07Z</time>
      </trkpt>
      <trkpt lat="57.512499019503593" lon="-4.434425001963973">
        <ele>27.530000000000001</ele>
        <time>2019-09-02T08:35:15Z</time>
      </trkpt>
      <trkpt lat="57.512738993391395" lon="-4.431056985631585">
        <ele>27.530000000000001</ele>
        <time>2019-09-02T08:35:24Z</time>
      </trkpt>
      <trkpt lat="57.512558028101921" lon="-4.42780296318233">
        <ele>28.02</ele>
        <time>2019-09-02T08:35:33Z</time>
      </trkpt>
      <trkpt lat="57.512454008683562" lon="-4.425293002277613">
        <ele>27.050000000000001</ele>
        <time>2019-09-02T08:35:41Z</time>
      </trkpt>
      <trkpt lat="57.512687025591731" lon="-4.421960022300482">
        <ele>28.02</ele>
        <time>2019-09-02T08:35:51Z</time>
      </trkpt>
      <trkpt lat="57.51324400305748" lon="-4.419456012547016">
        <ele>30.899999999999999</ele>
        <time>2019-09-02T08:35:59Z</time>
      </trkpt>
      <trkpt lat="57.513600988313556" lon="-4.416808001697063">
        <ele>35.710000000000001</ele>
        <time>2019-09-02T08:36:08Z</time>
      </trkpt>
      <trkpt lat="57.51386702992022" lon="-4.414442963898182">
        <ele>40.990000000000002</ele>
        <time>2019-09-02T08:36:16Z</time>
      </trkpt>
      <trkpt lat="57.51408202573657" lon="-4.412304991856217">
        <ele>43.399999999999999</ele>
        <time>2019-09-02T08:36:24Z</time>
      </trkpt>
      <trkpt lat="57.514084037393332" lon="-4.41205495968461">
        <ele>42.920000000000002</ele>
        <time>2019-09-02T08:36:25Z</time>
      </trkpt>
      <trkpt lat="57.514067022129893" lon="-4.411810962483287">
        <ele>42.920000000000002</ele>
        <time>2019-09-02T08:36:26Z</time>
      </trkpt>
      <trkpt lat="57.514042966067791" lon="-4.411551961675286">
        <ele>42.920000000000002</ele>
        <time>2019-09-02T08:36:27Z</time>
      </trkpt>
      <trkpt lat="57.513990998268127" lon="-4.411307964473963">
        <ele>42.439999999999998</ele>
        <time>2019-09-02T08:36:28Z</time>
      </trkpt>
      <trkpt lat="57.513934001326561" lon="-4.4110659789294">
        <ele>41.950000000000003</ele>
        <time>2019-09-02T08:36:29Z</time>
      </trkpt>
      <trkpt lat="57.513873986899853" lon="-4.410835979506373">
        <ele>41.469999999999999</ele>
        <time>2019-09-02T08:36:30Z</time>
      </trkpt>
      <trkpt lat="57.513779019936919" lon="-4.410626012831926">
        <ele>40.990000000000002</ele>
        <time>2019-09-02T08:36:31Z</time>
      </trkpt>
      <trkpt lat="57.513679023832083" lon="-4.410433983430266">
        <ele>40.509999999999998</ele>
        <time>2019-09-02T08:36:32Z</time>
      </trkpt>
      <trkpt lat="57.513572992756963" lon="-4.410257041454315">
        <ele>39.549999999999997</ele>
        <time>2019-09-02T08:36:33Z</time>
      </trkpt>
      <trkpt lat="57.51345899887383" lon="-4.410098036751151">
        <ele>38.590000000000003</ele>
        <time>2019-09-02T08:36:34Z</time>
      </trkpt>
      <trkpt lat="57.513343999162316" lon="-4.409937020391226">
        <ele>38.109999999999999</ele>
        <time>2019-09-02T08:36:35Z</time>
      </trkpt>
      <trkpt lat="57.512776963412762" lon="-4.409106960520148">
        <ele>35.710000000000001</ele>
        <time>2019-09-02T08:36:40Z</time>
      </trkpt>
      <trkpt lat="57.512700017541647" lon="-4.40889397636056">
        <ele>35.229999999999997</ele>
        <time>2019-09-02T08:36:41Z</time>
      </trkpt>
      <trkpt lat="57.512622987851501" lon="-4.408680992200971">
        <ele>34.740000000000002</ele>
        <time>2019-09-02T08:36:42Z</time>
      </trkpt>
      <trkpt lat="57.512545036152005" lon="-4.408462978899479">
        <ele>34.259999999999998</ele>
        <time>2019-09-02T08:36:43Z</time>
      </trkpt>
      <trkpt lat="57.512494996190071" lon="-4.408215964213014">
        <ele>33.780000000000001</ele>
        <time>2019-09-02T08:36:44Z</time>
      </trkpt>
      <trkpt lat="57.512453002855182" lon="-4.407951012253761">
        <ele>33.780000000000001</ele>
        <time>2019-09-02T08:36:45Z</time>
      </trkpt>
      <trkpt lat="57.512430036440492" lon="-4.407682958990336">
        <ele>33.299999999999997</ele>
        <time>2019-09-02T08:36:46Z</time>
      </trkpt>
      <trkpt lat="57.512413021177053" lon="-4.407405015081167">
        <ele>33.299999999999997</ele>
        <time>2019-09-02T08:36:47Z</time>
      </trkpt>
      <trkpt lat="57.512402040883899" lon="-4.407136039808393">
        <ele>33.299999999999997</ele>
        <time>2019-09-02T08:36:48Z</time>
      </trkpt>
      <trkpt lat="57.512429030612111" lon="-4.406861029565334">
        <ele>32.82</ele>
        <time>2019-09-02T08:36:49Z</time>
      </trkpt>
      <trkpt lat="57.512456020340323" lon="-4.406589958816767">
        <ele>32.82</ele>
        <time>2019-09-02T08:36:50Z</time>
      </trkpt>
      <trkpt lat="57.512484015896916" lon="-4.406316038221121">
        <ele>32.82</ele>
        <time>2019-09-02T08:36:51Z</time>
      </trkpt>
      <trkpt lat="57.512865979224443" lon="-4.40287996083498">
        <ele>28.98</ele>
        <time>2019-09-02T08:37:03Z</time>
      </trkpt>
      <trkpt lat="57.5130529794842" lon="-4.399226037785411">
        <ele>26.09</ele>
        <time>2019-09-02T08:37:13Z</time>
      </trkpt>
      <trkpt lat="57.513193041086197" lon="-4.396503008902073">
        <ele>28.5</ele>
        <time>2019-09-02T08:37:21Z</time>
      </trkpt>
      <trkpt lat="57.513407031074166" lon="-4.392653033137322">
        <ele>27.050000000000001</ele>
        <time>2019-09-02T08:37:34Z</time>
      </trkpt>
      <trkpt lat="57.513696039095521" lon="-4.389585005119443">
        <ele>28.02</ele>
        <time>2019-09-02T08:37:44Z</time>
      </trkpt>
      <trkpt lat="57.514436999335885" lon="-4.386411029845476">
        <ele>28.98</ele>
        <time>2019-09-02T08:37:55Z</time>
      </trkpt>
      <trkpt lat="57.515527987852693" lon="-4.383667968213558">
        <ele>30.899999999999999</ele>
        <time>2019-09-02T08:38:06Z</time>
      </trkpt>
      <trkpt lat="57.516775969415903" lon="-4.381514992564917">
        <ele>34.740000000000002</ele>
        <time>2019-09-02T08:38:15Z</time>
      </trkpt>
      <trkpt lat="57.518000984564424" lon="-4.379449021071196">
        <ele>42.439999999999998</ele>
        <time>2019-09-02T08:38:25Z</time>
      </trkpt>
      <trkpt lat="57.519247960299253" lon="-4.376977030187845">
        <ele>50.609999999999999</ele>
        <time>2019-09-02T08:38:37Z</time>
      </trkpt>
      <trkpt lat="57.520274994894862" lon="-4.374077981337905">
        <ele>58.780000000000001</ele>
        <time>2019-09-02T08:38:49Z</time>
      </trkpt>
      <trkpt lat="57.521068006753922" lon="-4.371676985174418">
        <ele>62.619999999999997</ele>
        <time>2019-09-02T08:38:57Z</time>
      </trkpt>
      <trkpt lat="57.522022034972906" lon="-4.368772991001606">
        <ele>65.989999999999995</ele>
        <time>2019-09-02T08:39:09Z</time>
      </trkpt>
      <trkpt lat="57.522953012958169" lon="-4.366363026201725">
        <ele>65.030000000000001</ele>
        <time>2019-09-02T08:39:19Z</time>
      </trkpt>
      <trkpt lat="57.523949034512043" lon="-4.364450024440885">
        <ele>64.069999999999993</ele>
        <time>2019-09-02T08:39:27Z</time>
      </trkpt>
      <trkpt lat="57.525273961946368" lon="-4.362235022708774">
        <ele>64.069999999999993</ele>
        <time>2019-09-02T08:39:34Z</time>
      </trkpt>
      <trkpt lat="57.526987977325916" lon="-4.359368998557329">
        <ele>63.100000000000001</ele>
        <time>2019-09-02T08:39:43Z</time>
      </trkpt>
      <trkpt lat="57.528737029060721" lon="-4.356442959979177">
        <ele>64.069999999999993</ele>
        <time>2019-09-02T08:39:54Z</time>
      </trkpt>
      <trkpt lat="57.53045397810638" lon="-4.353944985195994">
        <ele>63.579999999999998</ele>
        <time>2019-09-02T08:40:06Z</time>
      </trkpt>
      <trkpt lat="57.532809963449836" lon="-4.350819960236549">
        <ele>65.510000000000005</ele>
        <time>2019-09-02T08:40:21Z</time>
      </trkpt>
      <trkpt lat="57.53410798497498" lon="-4.34864996932447">
        <ele>65.989999999999995</ele>
        <time>2019-09-02T08:40:30Z</time>
      </trkpt>
      <trkpt lat="57.535129990428686" lon="-4.345701970160008">
        <ele>68.870000000000005</ele>
        <time>2019-09-02T08:40:40Z</time>
      </trkpt>
      <trkpt lat="57.536437986418605" lon="-4.341840008273721">
        <ele>68.870000000000005</ele>
        <time>2019-09-02T08:40:53Z</time>
      </trkpt>
      <trkpt lat="57.537112981081009" lon="-4.340220959857106">
        <ele>70.310000000000002</ele>
        <time>2019-09-02T08:40:59Z</time>
      </trkpt>
      <trkpt lat="57.538298014551401" lon="-4.338492024689913">
        <ele>75.599999999999994</ele>
        <time>2019-09-02T08:41:07Z</time>
      </trkpt>
      <trkpt lat="57.539637023583055" lon="-4.336998034268618">
        <ele>82.329999999999998</ele>
        <time>2019-09-02T08:41:16Z</time>
      </trkpt>
      <trkpt lat="57.54003600217402" lon="-4.336553039029241">
        <ele>83.769999999999996</ele>
        <time>2019-09-02T08:41:21Z</time>
      </trkpt>
      <trkpt lat="57.540090987458825" lon="-4.336569970473647">
        <ele>83.769999999999996</ele>
        <time>2019-09-02T08:41:22Z</time>
      </trkpt>
      <trkpt lat="57.540124012157321" lon="-4.336580028757453">
        <ele>83.769999999999996</ele>
        <time>2019-09-02T08:41:23Z</time>
      </trkpt>
      <trkpt lat="57.540158964693546" lon="-4.336591009050608">
        <ele>83.769999999999996</ele>
        <time>2019-09-02T08:41:24Z</time>
      </trkpt>
      <trkpt lat="57.540204981341958" lon="-4.336605006828904">
        <ele>83.769999999999996</ele>
        <time>2019-09-02T08:41:25Z</time>
      </trkpt>
      <trkpt lat="57.5403150357306" lon="-4.336639037355781">
        <ele>84.25</ele>
        <time>2019-09-02T08:41:26Z</time>
      </trkpt>
      <trkpt lat="57.540341019630432" lon="-4.33668103069067">
        <ele>84.25</ele>
        <time>2019-09-02T08:41:27Z</time>
      </trkpt>
      <trkpt lat="57.540408996865153" lon="-4.336788989603519">
        <ele>84.25</ele>
        <time>2019-09-02T08:41:28Z</time>
      </trkpt>
      <trkpt lat="57.5404860265553" lon="-4.336846992373467">
        <ele>84.730000000000004</ele>
        <time>2019-09-02T08:41:29Z</time>
      </trkpt>
      <trkpt lat="57.540568001568317" lon="-4.336893009021878">
        <ele>84.730000000000004</ele>
        <time>2019-09-02T08:41:30Z</time>
      </trkpt>
      <trkpt lat="57.540648970752954" lon="-4.336884962394834">
        <ele>84.730000000000004</ele>
        <time>2019-09-02T08:41:31Z</time>
      </trkpt>
      <trkpt lat="57.540731029585004" lon="-4.336866019293666">
        <ele>85.209999999999994</ele>
        <time>2019-09-02T08:41:32Z</time>
      </trkpt>
      <trkpt lat="57.540811998769641" lon="-4.336784966289997">
        <ele>85.209999999999994</ele>
        <time>2019-09-02T08:41:33Z</time>
      </trkpt>
      <trkpt lat="57.540893973782659" lon="-4.336702991276979">
        <ele>85.209999999999994</ele>
        <time>2019-09-02T08:41:34Z</time>
      </trkpt>
      <trkpt lat="57.541000004857779" lon="-4.336669966578484">
        <ele>85.209999999999994</ele>
        <time>2019-09-02T08:41:35Z</time>
      </trkpt>
      <trkpt lat="57.541096983477473" lon="-4.33663995936513">
        <ele>85.209999999999994</ele>
        <time>2019-09-02T08:41:36Z</time>
      </trkpt>
      <trkpt lat="57.541195973753929" lon="-4.336609030142427">
        <ele>85.209999999999994</ele>
        <time>2019-09-02T08:41:37Z</time>
      </trkpt>
      <trkpt lat="57.541300999000669" lon="-4.336637025699019">
        <ele>85.689999999999998</ele>
        <time>2019-09-02T08:41:38Z</time>
      </trkpt>
      <trkpt lat="57.541403006762266" lon="-4.336702991276979">
        <ele>85.689999999999998</ele>
        <time>2019-09-02T08:41:39Z</time>
      </trkpt>
      <trkpt lat="57.541509037837386" lon="-4.336771974340081">
        <ele>85.689999999999998</ele>
        <time>2019-09-02T08:41:40Z</time>
      </trkpt>
      <trkpt lat="57.542907977476716" lon="-4.337683003395796">
        <ele>91.939999999999998</ele>
        <time>2019-09-02T08:41:51Z</time>
      </trkpt>
      <trkpt lat="57.545072017237544" lon="-4.338972978293896">
        <ele>101.56</ele>
        <time>2019-09-02T08:42:05Z</time>
      </trkpt>
      <trkpt lat="57.546663992106915" lon="-4.339234996587038">
        <ele>108.29000000000001</ele>
        <time>2019-09-02T08:42:15Z</time>
      </trkpt>
      <trkpt lat="57.548274993896484" lon="-4.338648011907935">
        <ele>116.45999999999999</ele>
        <time>2019-09-02T08:42:25Z</time>
      </trkpt>
      <trkpt lat="57.54949196241796" lon="-4.337663976475596">
        <ele>121.73999999999999</ele>
        <time>2019-09-02T08:42:32Z</time>
      </trkpt>
      <trkpt lat="57.550789983943105" lon="-4.336515991017222">
        <ele>127.98999999999999</ele>
        <time>2019-09-02T08:42:40Z</time>
      </trkpt>
      <trkpt lat="57.552909012883902" lon="-4.334942037239671">
        <ele>138.56999999999999</ele>
        <time>2019-09-02T08:42:52Z</time>
      </trkpt>
      <trkpt lat="57.554084993898869" lon="-4.334502993151546">
        <ele>143.84999999999999</ele>
        <time>2019-09-02T08:43:00Z</time>
      </trkpt>
      <trkpt lat="57.555723991245031" lon="-4.334256984293461">
        <ele>151.53999999999999</ele>
        <time>2019-09-02T08:43:13Z</time>
      </trkpt>
      <trkpt lat="57.557123014703393" lon="-4.334537023678422">
        <ele>157.31</ele>
        <time>2019-09-02T08:43:25Z</time>
      </trkpt>
      <trkpt lat="57.558720018714666" lon="-4.335269015282393">
        <ele>160.68000000000001</ele>
        <time>2019-09-02T08:43:36Z</time>
      </trkpt>
      <trkpt lat="57.560201017186046" lon="-4.336471986025572">
        <ele>164.52000000000001</ele>
        <time>2019-09-02T08:43:46Z</time>
      </trkpt>
      <trkpt lat="57.561601968482137" lon="-4.338189018890262">
        <ele>166.44999999999999</ele>
        <time>2019-09-02T08:43:56Z</time>
      </trkpt>
      <trkpt lat="57.563052037730813" lon="-4.340052986517549">
        <ele>168.37</ele>
        <time>2019-09-02T08:44:05Z</time>
      </trkpt>
      <trkpt lat="57.564384005963802" lon="-4.34177597053349">
        <ele>167.41</ele>
        <time>2019-09-02T08:44:15Z</time>
      </trkpt>
      <trkpt lat="57.565729971975088" lon="-4.343524016439915">
        <ele>165.47999999999999</ele>
        <time>2019-09-02T08:44:26Z</time>
      </trkpt>
      <trkpt lat="57.567068981006742" lon="-4.345254963263869">
        <ele>162.12</ele>
        <time>2019-09-02T08:44:37Z</time>
      </trkpt>
      <trkpt lat="57.568347975611687" lon="-4.346906030550599">
        <ele>158.75</ele>
        <time>2019-09-02T08:44:47Z</time>
      </trkpt>
      <trkpt lat="57.569717997685075" lon="-4.348673019558191">
        <ele>154.43000000000001</ele>
        <time>2019-09-02T08:44:57Z</time>
      </trkpt>
      <trkpt lat="57.571307960897684" lon="-4.350724993273616">
        <ele>146.25999999999999</ele>
        <time>2019-09-02T08:45:08Z</time>
      </trkpt>
      <trkpt lat="57.573390025645494" lon="-4.353410974144936">
        <ele>135.19999999999999</ele>
        <time>2019-09-02T08:45:21Z</time>
      </trkpt>
      <trkpt lat="57.574931960552931" lon="-4.355280976742506">
        <ele>129.43000000000001</ele>
        <time>2019-09-02T08:45:29Z</time>
      </trkpt>
      <trkpt lat="57.57647498510778" lon="-4.356834981590509">
        <ele>124.15000000000001</ele>
        <time>2019-09-02T08:45:37Z</time>
      </trkpt>
      <trkpt lat="57.577898986637592" lon="-4.357969975098968">
        <ele>120.3</ele>
        <time>2019-09-02T08:45:47Z</time>
      </trkpt>
      <trkpt lat="57.579996977001429" lon="-4.35926497913897">
        <ele>114.53</ele>
        <time>2019-09-02T08:46:00Z</time>
      </trkpt>
      <trkpt lat="57.581729013472795" lon="-4.36001599766314">
        <ele>109.73</ele>
        <time>2019-09-02T08:46:09Z</time>
      </trkpt>
      <trkpt lat="57.58399598300457" lon="-4.360544979572296">
        <ele>102.04000000000001</ele>
        <time>2019-09-02T08:46:21Z</time>
      </trkpt>
      <trkpt lat="57.585913008078933" lon="-4.360648998990655">
        <ele>93.870000000000005</ele>
        <time>2019-09-02T08:46:33Z</time>
      </trkpt>
      <trkpt lat="57.587921982631087" lon="-4.360377006232739">
        <ele>86.659999999999997</ele>
        <time>2019-09-02T08:46:45Z</time>
      </trkpt>
      <trkpt lat="57.589817969128489" lon="-4.359791027382016">
        <ele>81.849999999999994</ele>
        <time>2019-09-02T08:46:54Z</time>
      </trkpt>
      <trkpt lat="57.592090973630548" lon="-4.35872501693666">
        <ele>75.120000000000005</ele>
        <time>2019-09-02T08:47:05Z</time>
      </trkpt>
      <trkpt lat="57.594052003696561" lon="-4.357789009809494">
        <ele>67.909999999999997</ele>
        <time>2019-09-02T08:47:16Z</time>
      </trkpt>
      <trkpt lat="57.595968022942543" lon="-4.356874041259289">
        <ele>60.700000000000003</ele>
        <time>2019-09-02T08:47:26Z</time>
      </trkpt>
      <trkpt lat="57.598819965496659" lon="-4.355367980897427">
        <ele>52.530000000000001</ele>
        <time>2019-09-02T08:47:41Z</time>
      </trkpt>
      <trkpt lat="57.600708995014429" lon="-4.354252014309168">
        <ele>46.759999999999998</ele>
        <time>2019-09-02T08:47:52Z</time>
      </trkpt>
      <trkpt lat="57.603405034169555" lon="-4.352842010557652">
        <ele>36.670000000000002</ele>
        <time>2019-09-02T08:48:06Z</time>
      </trkpt>
      <trkpt lat="57.60530998930335" lon="-4.352491982281208">
        <ele>27.530000000000001</ele>
        <time>2019-09-02T08:48:16Z</time>
      </trkpt>
      <trkpt lat="57.607412002980709" lon="-4.352844022214413">
        <ele>19.359999999999999</ele>
        <time>2019-09-02T08:48:28Z</time>
      </trkpt>
      <trkpt lat="57.609258033335209" lon="-4.353860998526216">
        <ele>11.67</ele>
        <time>2019-09-02T08:48:39Z</time>
      </trkpt>
      <trkpt lat="57.611117977648973" lon="-4.355554981157184">
        <ele>4.94</ele>
        <time>2019-09-02T08:48:51Z</time>
      </trkpt>
      <trkpt lat="57.613393999636173" lon="-4.358183965086937">
        <ele>7.83</ele>
        <time>2019-09-02T08:49:06Z</time>
      </trkpt>
      <trkpt lat="57.615871019661427" lon="-4.360618991777301">
        <ele>10.710000000000001</ele>
        <time>2019-09-02T08:49:22Z</time>
      </trkpt>
      <trkpt lat="57.618363965302706" lon="-4.362647999078035">
        <ele>8.789999999999999</ele>
        <time>2019-09-02T08:49:37Z</time>
      </trkpt>
      <trkpt lat="57.620868980884552" lon="-4.364257995039225">
        <ele>6.39</ele>
        <time>2019-09-02T08:49:52Z</time>
      </trkpt>
      <trkpt lat="57.623422024771571" lon="-4.365480998530984">
        <ele>5.91</ele>
        <time>2019-09-02T08:50:07Z</time>
      </trkpt>
      <trkpt lat="57.625009976327419" lon="-4.366043005138636">
        <ele>3.98</ele>
        <time>2019-09-02T08:50:18Z</time>
      </trkpt>
      <trkpt lat="57.627316005527973" lon="-4.366841968148947">
        <ele>3.5</ele>
        <time>2019-09-02T08:50:35Z</time>
      </trkpt>
      <trkpt lat="57.627564026042819" lon="-4.366927966475487">
        <ele>3.98</ele>
        <time>2019-09-02T08:50:38Z</time>
      </trkpt>
      <trkpt lat="57.627613982185721" lon="-4.366945987567306">
        <ele>4.46</ele>
        <time>2019-09-02T08:50:39Z</time>
      </trkpt>
      <trkpt lat="57.627711966633797" lon="-4.367280006408691">
        <ele>4.46</ele>
        <time>2019-09-02T08:50:40Z</time>
      </trkpt>
      <trkpt lat="57.627711966633797" lon="-4.367280006408691">
        <ele>4.94</ele>
        <time>2019-09-02T08:50:41Z</time>
      </trkpt>
      <trkpt lat="57.627730993553996" lon="-4.367357036098838">
        <ele>4.94</ele>
        <time>2019-09-02T08:50:42Z</time>
      </trkpt>
      <trkpt lat="57.627767035737634" lon="-4.367499025538564">
        <ele>4.46</ele>
        <time>2019-09-02T08:50:43Z</time>
      </trkpt>
      <trkpt lat="57.627834007143974" lon="-4.367650989443064">
        <ele>3.98</ele>
        <time>2019-09-02T08:50:44Z</time>
      </trkpt>
      <trkpt lat="57.627905001863837" lon="-4.36770698055625">
        <ele>3.5</ele>
        <time>2019-09-02T08:50:45Z</time>
      </trkpt>
      <trkpt lat="57.628010027110577" lon="-4.367761965841055">
        <ele>3.02</ele>
        <time>2019-09-02T08:50:46Z</time>
      </trkpt>
      <trkpt lat="57.628089990466833" lon="-4.367714021354914">
        <ele>2.54</ele>
        <time>2019-09-02T08:50:47Z</time>
      </trkpt>
      <trkpt lat="57.628172971308231" lon="-4.367654006928206">
        <ele>2.06</ele>
        <time>2019-09-02T08:50:48Z</time>
      </trkpt>
      <trkpt lat="57.628184035420418" lon="-4.367645038291812">
        <ele>2.06</ele>
        <time>2019-09-02T08:50:49Z</time>
      </trkpt>
      <trkpt lat="57.6282540243119" lon="-4.367409003898501">
        <ele>2.06</ele>
        <time>2019-09-02T08:50:50Z</time>
      </trkpt>
      <trkpt lat="57.628455022349954" lon="-4.367222003638744">
        <ele>2.06</ele>
        <time>2019-09-02T08:50:52Z</time>
      </trkpt>
      <trkpt lat="57.628549989312887" lon="-4.367188978940249">
        <ele>2.06</ele>
        <time>2019-09-02T08:50:53Z</time>
      </trkpt>
      <trkpt lat="57.628648979589343" lon="-4.367154026404023">
        <ele>2.54</ele>
        <time>2019-09-02T08:50:54Z</time>
      </trkpt>
      <trkpt lat="57.629524972289801" lon="-4.366814978420734">
        <ele>4.46</ele>
        <time>2019-09-02T08:51:01Z</time>
      </trkpt>
      <trkpt lat="57.631000019609928" lon="-4.365654001012445">
        <ele>5.42</ele>
        <time>2019-09-02T08:51:11Z</time>
      </trkpt>
      <trkpt lat="57.632045997306705" lon="-4.364452036097646">
        <ele>4.94</ele>
        <time>2019-09-02T08:51:16Z</time>
      </trkpt>
      <trkpt lat="57.633107984438539" lon="-4.363018982112408">
        <ele>3.98</ele>
        <time>2019-09-02T08:51:22Z</time>
      </trkpt>
      <trkpt lat="57.634349009022117" lon="-4.361236989498138">
        <ele>3.02</ele>
        <time>2019-09-02T08:51:31Z</time>
      </trkpt>
      <trkpt lat="57.635476961731911" lon="-4.359333962202072">
        <ele>3.02</ele>
        <time>2019-09-02T08:51:41Z</time>
      </trkpt>
      <trkpt lat="57.63680599629879" lon="-4.356244979426265">
        <ele>3.5</ele>
        <time>2019-09-02T08:51:54Z</time>
      </trkpt>
      <trkpt lat="57.637922968715429" lon="-4.353736024349928">
        <ele>2.54</ele>
        <time>2019-09-02T08:52:04Z</time>
      </trkpt>
      <trkpt lat="57.638688990846276" lon="-4.352245973423123">
        <ele>2.06</ele>
        <time>2019-09-02T08:52:10Z</time>
      </trkpt>
      <trkpt lat="57.64002799987793" lon="-4.350070031359792">
        <ele>2.54</ele>
        <time>2019-09-02T08:52:19Z</time>
      </trkpt>
      <trkpt lat="57.641801023855805" lon="-4.347421014681459">
        <ele>3.98</ele>
        <time>2019-09-02T08:52:30Z</time>
      </trkpt>
      <trkpt lat="57.643932960927486" lon="-4.344409983605146">
        <ele>6.39</ele>
        <time>2019-09-02T08:52:43Z</time>
      </trkpt>
      <trkpt lat="57.646158020943403" lon="-4.341930029913783">
        <ele>8.789999999999999</ele>
        <time>2019-09-02T08:52:55Z</time>
      </trkpt>
      <trkpt lat="57.648204965516925" lon="-4.340449031442404">
        <ele>9.27</ele>
        <time>2019-09-02T08:53:05Z</time>
      </trkpt>
      <trkpt lat="57.650130959227681" lon="-4.339899010956287">
        <ele>13.6</ele>
        <time>2019-09-02T08:53:15Z</time>
      </trkpt>
      <trkpt lat="57.652470013126731" lon="-4.339087978005409">
        <ele>19.84</ele>
        <time>2019-09-02T08:53:27Z</time>
      </trkpt>
      <trkpt lat="57.65450899489224" lon="-4.338068990036845">
        <ele>24.170000000000002</ele>
        <time>2019-09-02T08:53:38Z</time>
      </trkpt>
      <trkpt lat="57.656891969963908" lon="-4.336396967992187">
        <ele>23.690000000000001</ele>
        <time>2019-09-02T08:53:51Z</time>
      </trkpt>
      <trkpt lat="57.65869801864028" lon="-4.334760988131166">
        <ele>22.73</ele>
        <time>2019-09-02T08:54:00Z</time>
      </trkpt>
      <trkpt lat="57.660641027614474" lon="-4.33244900777936">
        <ele>22.25</ele>
        <time>2019-09-02T08:54:10Z</time>
      </trkpt>
      <trkpt lat="57.662479011341929" lon="-4.329607039690018">
        <ele>19.84</ele>
        <time>2019-09-02T08:54:21Z</time>
      </trkpt>
      <trkpt lat="57.664017006754875" lon="-4.326633978635073">
        <ele>18.399999999999999</ele>
        <time>2019-09-02T08:54:32Z</time>
      </trkpt>
      <trkpt lat="57.665054015815258" lon="-4.324575969949365">
        <ele>19.359999999999999</ele>
        <time>2019-09-02T08:54:41Z</time>
      </trkpt>
      <trkpt lat="57.666334016248584" lon="-4.322057962417603">
        <ele>19.359999999999999</ele>
        <time>2019-09-02T08:54:52Z</time>
      </trkpt>
      <trkpt lat="57.66798198223114" lon="-4.318970991298556">
        <ele>9.75</ele>
        <time>2019-09-02T08:55:04Z</time>
      </trkpt>
      <trkpt lat="57.669945023953915" lon="-4.315551007166505">
        <ele>4.46</ele>
        <time>2019-09-02T08:55:17Z</time>
      </trkpt>
      <trkpt lat="57.671626014634967" lon="-4.312304025515914">
        <ele>4.94</ele>
        <time>2019-09-02T08:55:29Z</time>
      </trkpt>
      <trkpt lat="57.67287902534008" lon="-4.309580996632576">
        <ele>8.310000000000001</ele>
        <time>2019-09-02T08:55:39Z</time>
      </trkpt>
      <trkpt lat="57.674184003844857" lon="-4.306607013568282">
        <ele>9.75</ele>
        <time>2019-09-02T08:55:50Z</time>
      </trkpt>
      <trkpt lat="57.675519995391369" lon="-4.303360031917691">
        <ele>8.789999999999999</ele>
        <time>2019-09-02T08:56:02Z</time>
      </trkpt>
      <trkpt lat="57.676071021705866" lon="-4.302035020664334">
        <ele>7.35</ele>
        <time>2019-09-02T08:56:08Z</time>
      </trkpt>
      <trkpt lat="57.676145033910871" lon="-4.301856989040971">
        <ele>7.35</ele>
        <time>2019-09-02T08:56:09Z</time>
      </trkpt>
      <trkpt lat="57.676956988871098" lon="-4.299902999773622">
        <ele>7.35</ele>
        <time>2019-09-02T08:56:19Z</time>
      </trkpt>
      <trkpt lat="57.678349977359176" lon="-4.296628022566438">
        <ele>5.91</ele>
        <time>2019-09-02T08:56:33Z</time>
      </trkpt>
      <trkpt lat="57.679722011089325" lon="-4.29345496930182">
        <ele>5.91</ele>
        <time>2019-09-02T08:56:44Z</time>
      </trkpt>
      <trkpt lat="57.681890996173024" lon="-4.28840596228838">
        <ele>3.98</ele>
        <time>2019-09-02T08:57:00Z</time>
      </trkpt>
      <trkpt lat="57.682644026353955" lon="-4.286123989149928">
        <ele>4.46</ele>
        <time>2019-09-02T08:57:07Z</time>
      </trkpt>
      <trkpt lat="57.683289013803005" lon="-4.283040035516024">
        <ele>4.46</ele>
        <time>2019-09-02T08:57:16Z</time>
      </trkpt>
      <trkpt lat="57.683580033481121" lon="-4.279448976740241">
        <ele>3.98</ele>
        <time>2019-09-02T08:57:25Z</time>
      </trkpt>
      <trkpt lat="57.683478025719523" lon="-4.275614004582167">
        <ele>4.46</ele>
        <time>2019-09-02T08:57:34Z</time>
      </trkpt>
      <trkpt lat="57.683155992999673" lon="-4.271669983863831">
        <ele>3.02</ele>
        <time>2019-09-02T08:57:44Z</time>
      </trkpt>
      <trkpt lat="57.683251965790987" lon="-4.267581962049007">
        <ele>3.02</ele>
        <time>2019-09-02T08:57:54Z</time>
      </trkpt>
      <trkpt lat="57.683810032904148" lon="-4.263903982937336">
        <ele>2.54</ele>
        <time>2019-09-02T08:58:03Z</time>
      </trkpt>
      <trkpt lat="57.68463003449142" lon="-4.260874008759856">
        <ele>2.06</ele>
        <time>2019-09-02T08:58:11Z</time>
      </trkpt>
      <trkpt lat="57.686301972717047" lon="-4.255698015913367">
        <ele>4.94</ele>
        <time>2019-09-02T08:58:25Z</time>
      </trkpt>
      <trkpt lat="57.687521958723664" lon="-4.251365996897221">
        <ele>5.42</ele>
        <time>2019-09-02T08:58:36Z</time>
      </trkpt>
      <trkpt lat="57.688496019691229" lon="-4.247407978400588">
        <ele>5.91</ele>
        <time>2019-09-02T08:58:47Z</time>
      </trkpt>
      <trkpt lat="57.689557000994682" lon="-4.243938960134983">
        <ele>7.83</ele>
        <time>2019-09-02T08:58:57Z</time>
      </trkpt>
      <trkpt lat="57.690657963976264" lon="-4.241391029208899">
        <ele>8.789999999999999</ele>
        <time>2019-09-02T08:59:04Z</time>
      </trkpt>
      <trkpt lat="57.691549966111779" lon="-4.239656981080771">
        <ele>12.630000000000001</ele>
        <time>2019-09-02T08:59:10Z</time>
      </trkpt>
      <trkpt lat="57.693389039486647" lon="-4.236442018300295">
        <ele>20.32</ele>
        <time>2019-09-02T08:59:22Z</time>
      </trkpt>
      <trkpt lat="57.695437995716929" lon="-4.233297966420651">
        <ele>22.73</ele>
        <time>2019-09-02T08:59:34Z</time>
      </trkpt>
      <trkpt lat="57.697356026619673" lon="-4.229911006987095">
        <ele>24.649999999999999</ele>
        <time>2019-09-02T08:59:45Z</time>
      </trkpt>
      <trkpt lat="57.699055960401893" lon="-4.22594896517694">
        <ele>26.57</ele>
        <time>2019-09-02T08:59:57Z</time>
      </trkpt>
      <trkpt lat="57.70003798417747" lon="-4.222883032634854">
        <ele>27.050000000000001</ele>
        <time>2019-09-02T09:00:05Z</time>
      </trkpt>
      <trkpt lat="57.701085973531008" lon="-4.218569034710527">
        <ele>21.77</ele>
        <time>2019-09-02T09:00:16Z</time>
      </trkpt>
      <trkpt lat="57.702263966202736" lon="-4.213063968345523">
        <ele>18.879999999999999</ele>
        <time>2019-09-02T09:00:30Z</time>
      </trkpt>
      <trkpt lat="57.70315202884376" lon="-4.209861997514963">
        <ele>21.77</ele>
        <time>2019-09-02T09:00:40Z</time>
      </trkpt>
      <trkpt lat="57.70427000708878" lon="-4.206366995349526">
        <ele>20.809999999999999</ele>
        <time>2019-09-02T09:00:50Z</time>
      </trkpt>
      <trkpt lat="57.705443976446986" lon="-4.201710009947419">
        <ele>18.879999999999999</ele>
        <time>2019-09-02T09:01:02Z</time>
      </trkpt>
      <trkpt lat="57.706084018573165" lon="-4.197992971166968">
        <ele>20.809999999999999</ele>
        <time>2019-09-02T09:01:11Z</time>
      </trkpt>
      <trkpt lat="57.706969985738397" lon="-4.191692965105176">
        <ele>17.440000000000001</ele>
        <time>2019-09-02T09:01:26Z</time>
      </trkpt>
      <trkpt lat="57.707768026739359" lon="-4.187716003507376">
        <ele>15.52</ele>
        <time>2019-09-02T09:01:36Z</time>
      </trkpt>
      <trkpt lat="57.708906959742308" lon="-4.183561010286212">
        <ele>17.440000000000001</ele>
        <time>2019-09-02T09:01:47Z</time>
      </trkpt>
      <trkpt lat="57.710074977949262" lon="-4.17818401940167">
        <ele>12.15</ele>
        <time>2019-09-02T09:02:01Z</time>
      </trkpt>
      <trkpt lat="57.710741003975272" lon="-4.173796009272337">
        <ele>10.23</ele>
        <time>2019-09-02T09:02:12Z</time>
      </trkpt>
      <trkpt lat="57.711477018892765" lon="-4.169194009155035">
        <ele>8.789999999999999</ele>
        <time>2019-09-02T09:02:23Z</time>
      </trkpt>
      <trkpt lat="57.712637996301055" lon="-4.163301028311253">
        <ele>8.310000000000001</ele>
        <time>2019-09-02T09:02:36Z</time>
      </trkpt>
      <trkpt lat="57.713284995406866" lon="-4.160053040832281">
        <ele>10.23</ele>
        <time>2019-09-02T09:02:44Z</time>
      </trkpt>
      <trkpt lat="57.714257966727018" lon="-4.157290030270815">
        <ele>15.039999999999999</ele>
        <time>2019-09-02T09:02:52Z</time>
      </trkpt>
      <trkpt lat="57.715967036783695" lon="-4.152920041233301">
        <ele>16.960000000000001</ele>
        <time>2019-09-02T09:03:06Z</time>
      </trkpt>
      <trkpt lat="57.717128014191985" lon="-4.14900996722281">
        <ele>19.84</ele>
        <time>2019-09-02T09:03:16Z</time>
      </trkpt>
      <trkpt lat="57.719034980982542" lon="-4.142475016415119">
        <ele>18.879999999999999</ele>
        <time>2019-09-02T09:03:33Z</time>
      </trkpt>
      <trkpt lat="57.720742039382458" lon="-4.137681992724538">
        <ele>20.32</ele>
        <time>2019-09-02T09:03:46Z</time>
      </trkpt>
      <trkpt lat="57.722197975963354" lon="-4.133733026683331">
        <ele>21.289999999999999</ele>
        <time>2019-09-02T09:03:57Z</time>
      </trkpt>
      <trkpt lat="57.723513012751937" lon="-4.129734020680189">
        <ele>22.25</ele>
        <time>2019-09-02T09:04:08Z</time>
      </trkpt>
      <trkpt lat="57.724841963499784" lon="-4.125270992517471">
        <ele>21.289999999999999</ele>
        <time>2019-09-02T09:04:20Z</time>
      </trkpt>
      <trkpt lat="57.726780027151108" lon="-4.118057023733854">
        <ele>17.440000000000001</ele>
        <time>2019-09-02T09:04:38Z</time>
      </trkpt>
      <trkpt lat="57.727987021207809" lon="-4.113334994763136">
        <ele>14.08</ele>
        <time>2019-09-02T09:04:50Z</time>
      </trkpt>
      <trkpt lat="57.728736028075218" lon="-4.110240982845426">
        <ele>14.08</ele>
        <time>2019-09-02T09:04:59Z</time>
      </trkpt>
      <trkpt lat="57.730010999366641" lon="-4.105173032730818">
        <ele>16.960000000000001</ele>
        <time>2019-09-02T09:05:13Z</time>
      </trkpt>
      <trkpt lat="57.731370041146874" lon="-4.100640015676618">
        <ele>21.289999999999999</ele>
        <time>2019-09-02T09:05:25Z</time>
      </trkpt>
      <trkpt lat="57.732298001646996" lon="-4.098137011751533">
        <ele>23.690000000000001</ele>
        <time>2019-09-02T09:05:33Z</time>
      </trkpt>
      <trkpt lat="57.733868015930057" lon="-4.094488034024835">
        <ele>26.57</ele>
        <time>2019-09-02T09:05:45Z</time>
      </trkpt>
      <trkpt lat="57.735509024932981" lon="-4.091355968266726">
        <ele>28.02</ele>
        <time>2019-09-02T09:05:57Z</time>
      </trkpt>
      <trkpt lat="57.737151961773634" lon="-4.088540989905596">
        <ele>30.899999999999999</ele>
        <time>2019-09-02T09:06:08Z</time>
      </trkpt>
      <trkpt lat="57.738949041813612" lon="-4.085472039878368">
        <ele>29.460000000000001</ele>
        <time>2019-09-02T09:06:20Z</time>
      </trkpt>
      <trkpt lat="57.740936977788806" lon="-4.082077033817768">
        <ele>28.98</ele>
        <time>2019-09-02T09:06:33Z</time>
      </trkpt>
      <trkpt lat="57.742639007046819" lon="-4.079169016331434">
        <ele>28.5</ele>
        <time>2019-09-02T09:06:45Z</time>
      </trkpt>
      <trkpt lat="57.744241040199995" lon="-4.076434001326561">
        <ele>27.050000000000001</ele>
        <time>2019-09-02T09:06:58Z</time>
      </trkpt>
      <trkpt lat="57.745802002027631" lon="-4.073749026283622">
        <ele>24.649999999999999</ele>
        <time>2019-09-02T09:07:08Z</time>
      </trkpt>
      <trkpt lat="57.747683990746737" lon="-4.070563986897469">
        <ele>21.77</ele>
        <time>2019-09-02T09:07:20Z</time>
      </trkpt>
      <trkpt lat="57.749487021937966" lon="-4.067357992753387">
        <ele>21.289999999999999</ele>
        <time>2019-09-02T09:07:32Z</time>
      </trkpt>
      <trkpt lat="57.752319015562534" lon="-4.062164984643459">
        <ele>19.359999999999999</ele>
        <time>2019-09-02T09:07:50Z</time>
      </trkpt>
      <trkpt lat="57.754386998713017" lon="-4.058349961414933">
        <ele>20.809999999999999</ele>
        <time>2019-09-02T09:08:03Z</time>
      </trkpt>
      <trkpt lat="57.756411982700229" lon="-4.054784970358014">
        <ele>21.289999999999999</ele>
        <time>2019-09-02T09:08:15Z</time>
      </trkpt>
      <trkpt lat="57.758553978055716" lon="-4.050770960748196">
        <ele>18.879999999999999</ele>
        <time>2019-09-02T09:08:28Z</time>
      </trkpt>
      <trkpt lat="57.760515008121729" lon="-4.04691000469029">
        <ele>14.08</ele>
        <time>2019-09-02T09:08:40Z</time>
      </trkpt>
      <trkpt lat="57.76234402321279" lon="-4.042878979817033">
        <ele>12.15</ele>
        <time>2019-09-02T09:08:52Z</time>
      </trkpt>
      <trkpt lat="57.764218971133232" lon="-4.03853296302259">
        <ele>13.119999999999999</ele>
        <time>2019-09-02T09:09:05Z</time>
      </trkpt>
      <trkpt lat="57.766321990638971" lon="-4.033540030941367">
        <ele>15.039999999999999</ele>
        <time>2019-09-02T09:09:20Z</time>
      </trkpt>
      <trkpt lat="57.767211981117725" lon="-4.031405998393893">
        <ele>13.6</ele>
        <time>2019-09-02T09:09:28Z</time>
      </trkpt>
      <trkpt lat="57.767892004922032" lon="-4.029995994642377">
        <ele>13.6</ele>
        <time>2019-09-02T09:09:36Z</time>
      </trkpt>
      <trkpt lat="57.767941039055586" lon="-4.029897004365921">
        <ele>13.6</ele>
        <time>2019-09-02T09:09:37Z</time>
      </trkpt>
      <trkpt lat="57.768085040152073" lon="-4.029774041846395">
        <ele>13.6</ele>
        <time>2019-09-02T09:09:38Z</time>
      </trkpt>
      <trkpt lat="57.768160980194807" lon="-4.02983003295958">
        <ele>14.08</ele>
        <time>2019-09-02T09:09:39Z</time>
      </trkpt>
      <trkpt lat="57.768249996006489" lon="-4.029893986880779">
        <ele>14.08</ele>
        <time>2019-09-02T09:09:40Z</time>
      </trkpt>
      <trkpt lat="57.768783001229167" lon="-4.030123986303806">
        <ele>14.56</ele>
        <time>2019-09-02T09:09:44Z</time>
      </trkpt>
      <trkpt lat="57.768908981233835" lon="-4.030297994613648">
        <ele>14.56</ele>
        <time>2019-09-02T09:09:45Z</time>
      </trkpt>
      <trkpt lat="57.76904602535069" lon="-4.030486000701785">
        <ele>15.039999999999999</ele>
        <time>2019-09-02T09:09:46Z</time>
      </trkpt>
      <trkpt lat="57.770604975521564" lon="-4.032157016918063">
        <ele>18.879999999999999</ele>
        <time>2019-09-02T09:09:56Z</time>
      </trkpt>
      <trkpt lat="57.771598985418677" lon="-4.032680969685316">
        <ele>21.289999999999999</ele>
        <time>2019-09-02T09:10:01Z</time>
      </trkpt>
      <trkpt lat="57.771816998720169" lon="-4.03275397606194">
        <ele>21.77</ele>
        <time>2019-09-02T09:10:02Z</time>
      </trkpt>
      <trkpt lat="57.772040963172913" lon="-4.032788006588817">
        <ele>22.25</ele>
        <time>2019-09-02T09:10:03Z</time>
      </trkpt>
      <trkpt lat="57.773883976042271" lon="-4.032482989132404">
        <ele>27.530000000000001</ele>
        <time>2019-09-02T09:10:11Z</time>
      </trkpt>
      <trkpt lat="57.775359023362398" lon="-4.031273983418942">
        <ele>31.379999999999999</ele>
        <time>2019-09-02T09:10:18Z</time>
      </trkpt>
      <trkpt lat="57.777303038164973" lon="-4.028591020032764">
        <ele>37.630000000000003</ele>
        <time>2019-09-02T09:10:29Z</time>
      </trkpt>
      <trkpt lat="57.779721971601248" lon="-4.025258962064982">
        <ele>37.630000000000003</ele>
        <time>2019-09-02T09:10:42Z</time>
      </trkpt>
      <trkpt lat="57.781052011996508" lon="-4.023982984945178">
        <ele>34.259999999999998</ele>
        <time>2019-09-02T09:10:49Z</time>
      </trkpt>
      <trkpt lat="57.782881027087569" lon="-4.023263985291123">
        <ele>31.379999999999999</ele>
        <time>2019-09-02T09:10:58Z</time>
      </trkpt>
      <trkpt lat="57.784632006660104" lon="-4.023489961400628">
        <ele>32.82</ele>
        <time>2019-09-02T09:11:06Z</time>
      </trkpt>
      <trkpt lat="57.786290030926466" lon="-4.024539040401578">
        <ele>34.740000000000002</ele>
        <time>2019-09-02T09:11:14Z</time>
      </trkpt>
      <trkpt lat="57.788574015721679" lon="-4.026707019656897">
        <ele>32.82</ele>
        <time>2019-09-02T09:11:25Z</time>
      </trkpt>
      <trkpt lat="57.790580978617072" lon="-4.028754970058799">
        <ele>29.460000000000001</ele>
        <time>2019-09-02T09:11:35Z</time>
      </trkpt>
      <trkpt lat="57.793137961998582" lon="-4.031652007251978">
        <ele>26.57</ele>
        <time>2019-09-02T09:11:49Z</time>
      </trkpt>
      <trkpt lat="57.795164035633206" lon="-4.03417001478374">
        <ele>22.73</ele>
        <time>2019-09-02T09:12:00Z</time>
      </trkpt>
      <trkpt lat="57.796746036037803" lon="-4.036393985152245">
        <ele>22.73</ele>
        <time>2019-09-02T09:12:09Z</time>
      </trkpt>
      <trkpt lat="57.798944022506475" lon="-4.039569972082973">
        <ele>24.170000000000002</ele>
        <time>2019-09-02T09:12:22Z</time>
      </trkpt>
      <trkpt lat="57.800740012899041" lon="-4.042322002351284">
        <ele>25.609999999999999</ele>
        <time>2019-09-02T09:12:34Z</time>
      </trkpt>
      <trkpt lat="57.802056977525353" lon="-4.045303026214242">
        <ele>30.420000000000002</ele>
        <time>2019-09-02T09:12:44Z</time>
      </trkpt>
      <trkpt lat="57.803045958280563" lon="-4.048839015886188">
        <ele>38.109999999999999</ele>
        <time>2019-09-02T09:12:54Z</time>
      </trkpt>
      <trkpt lat="57.803612994030118" lon="-4.052568962797523">
        <ele>44.840000000000003</ele>
        <time>2019-09-02T09:13:04Z</time>
      </trkpt>
      <trkpt lat="57.803895967081189" lon="-4.056210983544588">
        <ele>50.609999999999999</ele>
        <time>2019-09-02T09:13:14Z</time>
      </trkpt>
      <trkpt lat="57.804351020604372" lon="-4.059257972985506">
        <ele>54.450000000000003</ele>
        <time>2019-09-02T09:13:24Z</time>
      </trkpt>
      <trkpt lat="57.80518501996994" lon="-4.062273027375341">
        <ele>57.340000000000003</ele>
        <time>2019-09-02T09:13:34Z</time>
      </trkpt>
      <trkpt lat="57.806401988491416" lon="-4.065253967419267">
        <ele>61.18</ele>
        <time>2019-09-02T09:13:44Z</time>
      </trkpt>
      <trkpt lat="57.807945013046265" lon="-4.067769041284919">
        <ele>63.100000000000001</ele>
        <time>2019-09-02T09:13:54Z</time>
      </trkpt>
      <trkpt lat="57.809447972103953" lon="-4.069346012547612">
        <ele>63.100000000000001</ele>
        <time>2019-09-02T09:14:02Z</time>
      </trkpt>
      <trkpt lat="57.811574041843414" lon="-4.070525011047721">
        <ele>60.700000000000003</ele>
        <time>2019-09-02T09:14:11Z</time>
      </trkpt>
      <trkpt lat="57.813202980905771" lon="-4.070693990215659">
        <ele>55.409999999999997</ele>
        <time>2019-09-02T09:14:18Z</time>
      </trkpt>
      <trkpt lat="57.816147040575743" lon="-4.07035100273788">
        <ele>39.07</ele>
        <time>2019-09-02T09:14:31Z</time>
      </trkpt>
      <trkpt lat="57.817844040691853" lon="-4.070903034880757">
        <ele>31.859999999999999</ele>
        <time>2019-09-02T09:14:39Z</time>
      </trkpt>
      <trkpt lat="57.819023039191961" lon="-4.071992011740804">
        <ele>29.460000000000001</ele>
        <time>2019-09-02T09:14:46Z</time>
      </trkpt>
      <trkpt lat="57.820605961605906" lon="-4.074149010702968">
        <ele>26.57</ele>
        <time>2019-09-02T09:14:56Z</time>
      </trkpt>
      <trkpt lat="57.823483971878886" lon="-4.077716013416648">
        <ele>26.09</ele>
        <time>2019-09-02T09:15:12Z</time>
      </trkpt>
      <trkpt lat="57.825164962559938" lon="-4.079149989411235">
        <ele>23.210000000000001</ele>
        <time>2019-09-02T09:15:21Z</time>
      </trkpt>
      <trkpt lat="57.82748700119555" lon="-4.081215960904956">
        <ele>17.920000000000002</ele>
        <time>2019-09-02T09:15:34Z</time>
      </trkpt>
      <trkpt lat="57.828614031895995" lon="-4.083210015669465">
        <ele>14.56</ele>
        <time>2019-09-02T09:15:41Z</time>
      </trkpt>
      <trkpt lat="57.829377958551049" lon="-4.085749983787537">
        <ele>11.19</ele>
        <time>2019-09-02T09:15:48Z</time>
      </trkpt>
      <trkpt lat="57.830255962908268" lon="-4.090528003871441">
        <ele>5.91</ele>
        <time>2019-09-02T09:16:00Z</time>
      </trkpt>
      <trkpt lat="57.830779999494553" lon="-4.094535978510976">
        <ele>7.35</ele>
        <time>2019-09-02T09:16:10Z</time>
      </trkpt>
      <trkpt lat="57.830927018076181" lon="-4.10008697770536">
        <ele>8.789999999999999</ele>
        <time>2019-09-02T09:16:24Z</time>
      </trkpt>
      <trkpt lat="57.830979991704226" lon="-4.10302902571857">
        <ele>12.15</ele>
        <time>2019-09-02T09:16:33Z</time>
      </trkpt>
      <trkpt lat="57.830921988934278" lon="-4.105150988325477">
        <ele>12.15</ele>
        <time>2019-09-02T09:16:42Z</time>
      </trkpt>
      <trkpt lat="57.830766001716256" lon="-4.105775021016598">
        <ele>11.19</ele>
        <time>2019-09-02T09:16:46Z</time>
      </trkpt>
      <trkpt lat="57.830680003389716" lon="-4.105947017669678">
        <ele>11.19</ele>
        <time>2019-09-02T09:16:48Z</time>
      </trkpt>
      <trkpt lat="57.830680003389716" lon="-4.106152039021254">
        <ele>11.19</ele>
        <time>2019-09-02T09:16:49Z</time>
      </trkpt>
      <trkpt lat="57.830680003389716" lon="-4.106283970177174">
        <ele>11.19</ele>
        <time>2019-09-02T09:16:50Z</time>
      </trkpt>
      <trkpt lat="57.830703975632787" lon="-4.106414979323745">
        <ele>11.19</ele>
        <time>2019-09-02T09:16:51Z</time>
      </trkpt>
      <trkpt lat="57.830737000331283" lon="-4.106525033712387">
        <ele>10.710000000000001</ele>
        <time>2019-09-02T09:16:52Z</time>
      </trkpt>
      <trkpt lat="57.830807995051146" lon="-4.106569038704038">
        <ele>10.710000000000001</ele>
        <time>2019-09-02T09:16:53Z</time>
      </trkpt>
      <trkpt lat="57.830885024741292" lon="-4.106595022603869">
        <ele>10.710000000000001</ele>
        <time>2019-09-02T09:16:54Z</time>
      </trkpt>
      <trkpt lat="57.830937998369336" lon="-4.106612037867308">
        <ele>11.19</ele>
        <time>2019-09-02T09:16:55Z</time>
      </trkpt>
      <trkpt lat="57.831018967553973" lon="-4.106502989307046">
        <ele>11.19</ele>
        <time>2019-09-02T09:16:56Z</time>
      </trkpt>
      <trkpt lat="57.831306969746947" lon="-4.106514975428581">
        <ele>10.710000000000001</ele>
        <time>2019-09-02T09:16:58Z</time>
      </trkpt>
      <trkpt lat="57.831402020528913" lon="-4.106600973755121">
        <ele>11.19</ele>
        <time>2019-09-02T09:16:59Z</time>
      </trkpt>
      <trkpt lat="57.83150402829051" lon="-4.106694012880325">
        <ele>10.710000000000001</ele>
        <time>2019-09-02T09:17:00Z</time>
      </trkpt>
      <trkpt lat="57.832517987117171" lon="-4.107616022229195">
        <ele>10.23</ele>
        <time>2019-09-02T09:17:07Z</time>
      </trkpt>
      <trkpt lat="57.834637016057968" lon="-4.10928200930357">
        <ele>7.35</ele>
        <time>2019-09-02T09:17:19Z</time>
      </trkpt>
      <trkpt lat="57.836502995342016" lon="-4.109953986480832">
        <ele>4.46</ele>
        <time>2019-09-02T09:17:28Z</time>
      </trkpt>
      <trkpt lat="57.839791970327497" lon="-4.110324969515204">
        <ele>5.42</ele>
        <time>2019-09-02T09:17:42Z</time>
      </trkpt>
      <trkpt lat="57.843272974714637" lon="-4.11074398085475">
        <ele>11.67</ele>
        <time>2019-09-02T09:17:58Z</time>
      </trkpt>
      <trkpt lat="57.845285972580314" lon="-4.11098001524806">
        <ele>13.119999999999999</ele>
        <time>2019-09-02T09:18:09Z</time>
      </trkpt>
      <trkpt lat="57.848116038367152" lon="-4.111312022432685">
        <ele>14.56</ele>
        <time>2019-09-02T09:18:23Z</time>
      </trkpt>
      <trkpt lat="57.850465988740325" lon="-4.11158099770546">
        <ele>14.08</ele>
        <time>2019-09-02T09:18:35Z</time>
      </trkpt>
      <trkpt lat="57.852887017652392" lon="-4.111684011295438">
        <ele>11.19</ele>
        <time>2019-09-02T09:18:46Z</time>
      </trkpt>
      <trkpt lat="57.855282984673977" lon="-4.111737990751863">
        <ele>9.27</ele>
        <time>2019-09-02T09:18:57Z</time>
      </trkpt>
      <trkpt lat="57.858007019385695" lon="-4.111756011843681">
        <ele>7.35</ele>
        <time>2019-09-02T09:19:10Z</time>
      </trkpt>
      <trkpt lat="57.861109999939799" lon="-4.112018030136824">
        <ele>5.91</ele>
        <time>2019-09-02T09:19:24Z</time>
      </trkpt>
      <trkpt lat="57.864233013242483" lon="-4.112517004832625">
        <ele>6.39</ele>
        <time>2019-09-02T09:19:39Z</time>
      </trkpt>
      <trkpt lat="57.864669961854815" lon="-4.112595040351152">
        <ele>7.35</ele>
        <time>2019-09-02T09:19:44Z</time>
      </trkpt>
      <trkpt lat="57.865456016734242" lon="-4.112743986770511">
        <ele>8.789999999999999</ele>
        <time>2019-09-02T09:19:54Z</time>
      </trkpt>
      <trkpt lat="57.866499982774258" lon="-4.112985972315073">
        <ele>9.27</ele>
        <time>2019-09-02T09:20:01Z</time>
      </trkpt>
      <trkpt lat="57.868175022304058" lon="-4.113170960918069">
        <ele>10.710000000000001</ele>
        <time>2019-09-02T09:20:09Z</time>
      </trkpt>
      <trkpt lat="57.869927007704973" lon="-4.112618006765842">
        <ele>13.119999999999999</ele>
        <time>2019-09-02T09:20:17Z</time>
      </trkpt>
      <trkpt lat="57.87243596278131" lon="-4.111454011872411">
        <ele>15.52</ele>
        <time>2019-09-02T09:20:29Z</time>
      </trkpt>
      <trkpt lat="57.875095959752798" lon="-4.110007965937257">
        <ele>19.84</ele>
        <time>2019-09-02T09:20:42Z</time>
      </trkpt>
      <trkpt lat="57.876747027039528" lon="-4.108209041878581">
        <ele>21.289999999999999</ele>
        <time>2019-09-02T09:20:51Z</time>
      </trkpt>
      <trkpt lat="57.878035996109247" lon="-4.105603024363518">
        <ele>23.690000000000001</ele>
        <time>2019-09-02T09:21:00Z</time>
      </trkpt>
      <trkpt lat="57.879092032089829" lon="-4.102369034662843">
        <ele>25.609999999999999</ele>
        <time>2019-09-02T09:21:09Z</time>
      </trkpt>
      <trkpt lat="57.880417965352535" lon="-4.098224015906453">
        <ele>22.73</ele>
        <time>2019-09-02T09:21:20Z</time>
      </trkpt>
      <trkpt lat="57.881497973576188" lon="-4.094685008749366">
        <ele>22.73</ele>
        <time>2019-09-02T09:21:30Z</time>
      </trkpt>
      <trkpt lat="57.88246700540185" lon="-4.092260962352157">
        <ele>22.73</ele>
        <time>2019-09-02T09:21:38Z</time>
      </trkpt>
      <trkpt lat="57.883877009153366" lon="-4.088946003466845">
        <ele>24.649999999999999</ele>
        <time>2019-09-02T09:21:49Z</time>
      </trkpt>
      <trkpt lat="57.884533982723951" lon="-4.08657300285995">
        <ele>29.460000000000001</ele>
        <time>2019-09-02T09:21:56Z</time>
      </trkpt>
      <trkpt lat="57.885357001796365" lon="-4.082542983815074">
        <ele>33.780000000000001</ele>
        <time>2019-09-02T09:22:07Z</time>
      </trkpt>
      <trkpt lat="57.885951027274132" lon="-4.080082979053259">
        <ele>30.899999999999999</ele>
        <time>2019-09-02T09:22:14Z</time>
      </trkpt>
      <trkpt lat="57.886062003672123" lon="-4.079811992123723">
        <ele>29.940000000000001</ele>
        <time>2019-09-02T09:22:15Z</time>
      </trkpt>
      <trkpt lat="57.886213967576623" lon="-4.079555002972484">
        <ele>28.98</ele>
        <time>2019-09-02T09:22:16Z</time>
      </trkpt>
      <trkpt lat="57.886341037228703" lon="-4.079340007156134">
        <ele>28.02</ele>
        <time>2019-09-02T09:22:17Z</time>
      </trkpt>
      <trkpt lat="57.886520996689796" lon="-4.079150995239615">
        <ele>27.530000000000001</ele>
        <time>2019-09-02T09:22:18Z</time>
      </trkpt>
      <trkpt lat="57.886686958372593" lon="-4.078977992758155">
        <ele>27.530000000000001</ele>
        <time>2019-09-02T09:22:19Z</time>
      </trkpt>
      <trkpt lat="57.886859038844705" lon="-4.078832985833287">
        <ele>27.050000000000001</ele>
        <time>2019-09-02T09:22:20Z</time>
      </trkpt>
      <trkpt lat="57.887046961113811" lon="-4.078735001385212">
        <ele>27.050000000000001</ele>
        <time>2019-09-02T09:22:21Z</time>
      </trkpt>
      <trkpt lat="57.887232033535838" lon="-4.078640034422278">
        <ele>27.050000000000001</ele>
        <time>2019-09-02T09:22:22Z</time>
      </trkpt>
      <trkpt lat="57.887415010482073" lon="-4.078567028045654">
        <ele>27.050000000000001</ele>
        <time>2019-09-02T09:22:23Z</time>
      </trkpt>
      <trkpt lat="57.887415010482073" lon="-4.078567028045654">
        <ele>27.050000000000001</ele>
        <time>2019-09-02T09:22:24Z</time>
      </trkpt>
      <trkpt lat="57.887779036536813" lon="-4.078567028045654">
        <ele>27.530000000000001</ele>
        <time>2019-09-02T09:22:25Z</time>
      </trkpt>
      <trkpt lat="57.889713998883963" lon="-4.078599968925118">
        <ele>29.940000000000001</ele>
        <time>2019-09-02T09:22:36Z</time>
      </trkpt>
      <trkpt lat="57.892242986708879" lon="-4.078756961971521">
        <ele>33.780000000000001</ele>
        <time>2019-09-02T09:22:49Z</time>
      </trkpt>
      <trkpt lat="57.894137967377901" lon="-4.078780012205243">
        <ele>36.189999999999998</ele>
        <time>2019-09-02T09:22:59Z</time>
      </trkpt>
      <trkpt lat="57.894294038414955" lon="-4.078676998615265">
        <ele>36.670000000000002</ele>
        <time>2019-09-02T09:23:00Z</time>
      </trkpt>
      <trkpt lat="57.8944350220263" lon="-4.078521011397243">
        <ele>36.670000000000002</ele>
        <time>2019-09-02T09:23:01Z</time>
      </trkpt>
      <trkpt lat="57.894568964838982" lon="-4.078329987823963">
        <ele>37.149999999999999</ele>
        <time>2019-09-02T09:23:02Z</time>
      </trkpt>
      <trkpt lat="57.894710032269359" lon="-4.078122032806277">
        <ele>37.149999999999999</ele>
        <time>2019-09-02T09:23:03Z</time>
      </trkpt>
      <trkpt lat="57.894861996173859" lon="-4.077896978706121">
        <ele>37.630000000000003</ele>
        <time>2019-09-02T09:23:04Z</time>
      </trkpt>
      <trkpt lat="57.89632698521018" lon="-4.075421970337629">
        <ele>45.32</ele>
        <time>2019-09-02T09:23:13Z</time>
      </trkpt>
      <trkpt lat="57.897773031145334" lon="-4.072959031909704">
        <ele>51.090000000000003</ele>
        <time>2019-09-02T09:23:22Z</time>
      </trkpt>
      <trkpt lat="57.899970011785626" lon="-4.069076031446457">
        <ele>59.740000000000002</ele>
        <time>2019-09-02T09:23:36Z</time>
      </trkpt>
      <trkpt lat="57.902306970208883" lon="-4.065034026280046">
        <ele>67.430000000000007</ele>
        <time>2019-09-02T09:23:50Z</time>
      </trkpt>
      <trkpt lat="57.904361039400101" lon="-4.061471968889237">
        <ele>75.599999999999994</ele>
        <time>2019-09-02T09:24:02Z</time>
      </trkpt>
      <trkpt lat="57.906167004257441" lon="-4.058844996616244">
        <ele>85.209999999999994</ele>
        <time>2019-09-02T09:24:12Z</time>
      </trkpt>
      <trkpt lat="57.906867982819676" lon="-4.058058019727469">
        <ele>89.060000000000002</ele>
        <time>2019-09-02T09:24:17Z</time>
      </trkpt>
      <trkpt lat="57.908125016838312" lon="-4.05673099681735">
        <ele>94.349999999999994</ele>
        <time>2019-09-02T09:24:27Z</time>
      </trkpt>
      <trkpt lat="57.908647041767836" lon="-4.056351967155933">
        <ele>96.75</ele>
        <time>2019-09-02T09:24:31Z</time>
      </trkpt>
      <trkpt lat="57.908772015944123" lon="-4.056274015456438">
        <ele>97.230000000000004</ele>
        <time>2019-09-02T09:24:32Z</time>
      </trkpt>
      <trkpt lat="57.908908976241946" lon="-4.056246019899845">
        <ele>97.709999999999994</ele>
        <time>2019-09-02T09:24:33Z</time>
      </trkpt>
      <trkpt lat="57.909049037843943" lon="-4.0562379732728">
        <ele>98.189999999999998</ele>
        <time>2019-09-02T09:24:34Z</time>
      </trkpt>
      <trkpt lat="57.909198990091681" lon="-4.056231016293168">
        <ele>98.189999999999998</ele>
        <time>2019-09-02T09:24:35Z</time>
      </trkpt>
      <trkpt lat="57.909352965652943" lon="-4.056278960779309">
        <ele>98.670000000000002</ele>
        <time>2019-09-02T09:24:36Z</time>
      </trkpt>
      <trkpt lat="57.90951699949801" lon="-4.056329000741243">
        <ele>98.670000000000002</ele>
        <time>2019-09-02T09:24:37Z</time>
      </trkpt>
      <trkpt lat="57.909684972837567" lon="-4.056380968540907">
        <ele>99.150000000000006</ele>
        <time>2019-09-02T09:24:38Z</time>
      </trkpt>
      <trkpt lat="57.910994980484247" lon="-4.057055963203311">
        <ele>102.04000000000001</ele>
        <time>2019-09-02T09:24:47Z</time>
      </trkpt>
      <trkpt lat="57.912794994190335" lon="-4.058142006397247">
        <ele>100.59999999999999</ele>
        <time>2019-09-02T09:24:58Z</time>
      </trkpt>
      <trkpt lat="57.91456600651145" lon="-4.059538012370467">
        <ele>100.11</ele>
        <time>2019-09-02T09:25:08Z</time>
      </trkpt>
      <trkpt lat="57.916100984439254" lon="-4.060386009514332">
        <ele>101.56</ele>
        <time>2019-09-02T09:25:17Z</time>
      </trkpt>
      <trkpt lat="57.917964030057192" lon="-4.061553021892905">
        <ele>103.95999999999999</ele>
        <time>2019-09-02T09:25:29Z</time>
      </trkpt>
      <trkpt lat="57.919626999646425" lon="-4.06302597373724">
        <ele>104.44</ele>
        <time>2019-09-02T09:25:40Z</time>
      </trkpt>
      <trkpt lat="57.9211410228163" lon="-4.064888013526797">
        <ele>99.629999999999995</ele>
        <time>2019-09-02T09:25:50Z</time>
      </trkpt>
      <trkpt lat="57.921386025846004" lon="-4.065252039581537">
        <ele>99.150000000000006</ele>
        <time>2019-09-02T09:25:52Z</time>
      </trkpt>
      <trkpt lat="57.921486021950841" lon="-4.065476004034281">
        <ele>98.189999999999998</ele>
        <time>2019-09-02T09:25:53Z</time>
      </trkpt>
      <trkpt lat="57.921583000570536" lon="-4.065723018720746">
        <ele>97.709999999999994</ele>
        <time>2019-09-02T09:25:54Z</time>
      </trkpt>
      <trkpt lat="57.922605006024241" lon="-4.068974023684859">
        <ele>90.019999999999996</ele>
        <time>2019-09-02T09:26:05Z</time>
      </trkpt>
      <trkpt lat="57.923738993704319" lon="-4.072621995583177">
        <ele>80.890000000000001</ele>
        <time>2019-09-02T09:26:17Z</time>
      </trkpt>
      <trkpt lat="57.924806009978056" lon="-4.075544010847807">
        <ele>71.760000000000005</ele>
        <time>2019-09-02T09:26:27Z</time>
      </trkpt>
      <trkpt lat="57.925611007958651" lon="-4.076547995209694">
        <ele>68.870000000000005</ele>
        <time>2019-09-02T09:26:32Z</time>
      </trkpt>
      <trkpt lat="57.925794990733266" lon="-4.076666012406349">
        <ele>68.390000000000001</ele>
        <time>2019-09-02T09:26:33Z</time>
      </trkpt>
      <trkpt lat="57.925979979336262" lon="-4.076785035431385">
        <ele>68.390000000000001</ele>
        <time>2019-09-02T09:26:34Z</time>
      </trkpt>
      <trkpt lat="57.926166979596019" lon="-4.076872039586306">
        <ele>68.390000000000001</ele>
        <time>2019-09-02T09:26:35Z</time>
      </trkpt>
      <trkpt lat="57.926363032311201" lon="-4.076920989900827">
        <ele>68.870000000000005</ele>
        <time>2019-09-02T09:26:36Z</time>
      </trkpt>
      <trkpt lat="57.926561012864113" lon="-4.076970024034381">
        <ele>68.870000000000005</ele>
        <time>2019-09-02T09:26:37Z</time>
      </trkpt>
      <trkpt lat="57.926757987588644" lon="-4.076958037912846">
        <ele>69.349999999999994</ele>
        <time>2019-09-02T09:26:38Z</time>
      </trkpt>
      <trkpt lat="57.9269640147686" lon="-4.076931970193982">
        <ele>69.829999999999998</ele>
        <time>2019-09-02T09:26:39Z</time>
      </trkpt>
      <trkpt lat="57.927169036120176" lon="-4.07690498046577">
        <ele>70.310000000000002</ele>
        <time>2019-09-02T09:26:40Z</time>
      </trkpt>
      <trkpt lat="57.92737003415823" lon="-4.076835997402668">
        <ele>71.269999999999996</ele>
        <time>2019-09-02T09:26:41Z</time>
      </trkpt>
      <trkpt lat="57.927564997226" lon="-4.07673398964107">
        <ele>71.760000000000005</ele>
        <time>2019-09-02T09:26:42Z</time>
      </trkpt>
      <trkpt lat="57.92775702662766" lon="-4.076616978272796">
        <ele>72.239999999999995</ele>
        <time>2019-09-02T09:26:43Z</time>
      </trkpt>
      <trkpt lat="57.927937991917133" lon="-4.076456967741251">
        <ele>72.719999999999999</ele>
        <time>2019-09-02T09:26:44Z</time>
      </trkpt>
      <trkpt lat="57.929437011480331" lon="-4.075162969529629">
        <ele>76.560000000000002</ele>
        <time>2019-09-02T09:26:53Z</time>
      </trkpt>
      <trkpt lat="57.930937958881259" lon="-4.074427960440517">
        <ele>75.599999999999994</ele>
        <time>2019-09-02T09:27:02Z</time>
      </trkpt>
      <trkpt lat="57.932025007903576" lon="-4.074769020080566">
        <ele>74.159999999999997</ele>
        <time>2019-09-02T09:27:08Z</time>
      </trkpt>
      <trkpt lat="57.932179989293218" lon="-4.074933975934982">
        <ele>73.680000000000007</ele>
        <time>2019-09-02T09:27:09Z</time>
      </trkpt>
      <trkpt lat="57.932844003662467" lon="-4.07570200972259">
        <ele>71.269999999999996</ele>
        <time>2019-09-02T09:27:13Z</time>
      </trkpt>
      <trkpt lat="57.933956030756235" lon="-4.077835036441684">
        <ele>64.549999999999997</ele>
        <time>2019-09-02T09:27:21Z</time>
      </trkpt>
      <trkpt lat="57.935415990650654" lon="-4.081112025305629">
        <ele>54.93</ele>
        <time>2019-09-02T09:27:33Z</time>
      </trkpt>
      <trkpt lat="57.936411006376147" lon="-4.083251003175974">
        <ele>45.799999999999997</ele>
        <time>2019-09-02T09:27:41Z</time>
      </trkpt>
      <trkpt lat="57.936715018004179" lon="-4.083807980641723">
        <ele>43.399999999999999</ele>
        <time>2019-09-02T09:27:44Z</time>
      </trkpt>
      <trkpt lat="57.936788024380803" lon="-4.083931026980281">
        <ele>42.439999999999998</ele>
        <time>2019-09-02T09:27:45Z</time>
      </trkpt>
      <trkpt lat="57.936923978850245" lon="-4.084021970629692">
        <ele>41.950000000000003</ele>
        <time>2019-09-02T09:27:46Z</time>
      </trkpt>
      <trkpt lat="57.937051970511675" lon="-4.084106963127852">
        <ele>41.469999999999999</ele>
        <time>2019-09-02T09:27:47Z</time>
      </trkpt>
      <trkpt lat="57.937183985486627" lon="-4.084194973111153">
        <ele>40.509999999999998</ele>
        <time>2019-09-02T09:27:48Z</time>
      </trkpt>
      <trkpt lat="57.93731901794672" lon="-4.084232021123171">
        <ele>39.549999999999997</ele>
        <time>2019-09-02T09:27:49Z</time>
      </trkpt>
      <trkpt lat="57.937471987679601" lon="-4.084232021123171">
        <ele>38.590000000000003</ele>
        <time>2019-09-02T09:27:50Z</time>
      </trkpt>
      <trkpt lat="57.937630992382765" lon="-4.084197990596294">
        <ele>37.630000000000003</ele>
        <time>2019-09-02T09:27:51Z</time>
      </trkpt>
      <trkpt lat="57.937793014571071" lon="-4.084119033068419">
        <ele>36.670000000000002</ele>
        <time>2019-09-02T09:27:52Z</time>
      </trkpt>
      <trkpt lat="57.937793014571071" lon="-4.084119033068419">
        <ele>35.710000000000001</ele>
        <time>2019-09-02T09:27:53Z</time>
      </trkpt>
      <trkpt lat="57.938684010878205" lon="-4.083760036155582">
        <ele>30.899999999999999</ele>
        <time>2019-09-02T09:27:58Z</time>
      </trkpt>
      <trkpt lat="57.938830023631454" lon="-4.083760036155582">
        <ele>29.940000000000001</ele>
        <time>2019-09-02T09:27:59Z</time>
      </trkpt>
      <trkpt lat="57.939696041867137" lon="-4.08386598341167">
        <ele>24.170000000000002</ele>
        <time>2019-09-02T09:28:05Z</time>
      </trkpt>
      <trkpt lat="57.939797965809703" lon="-4.083814015612006">
        <ele>23.690000000000001</ele>
        <time>2019-09-02T09:28:06Z</time>
      </trkpt>
      <trkpt lat="57.939891004934907" lon="-4.083760036155582">
        <ele>22.73</ele>
        <time>2019-09-02T09:28:07Z</time>
      </trkpt>
      <trkpt lat="57.939971974119544" lon="-4.083699015900493">
        <ele>22.25</ele>
        <time>2019-09-02T09:28:08Z</time>
      </trkpt>
      <trkpt lat="57.940034000203013" lon="-4.083553003147245">
        <ele>21.77</ele>
        <time>2019-09-02T09:28:09Z</time>
      </trkpt>
      <trkpt lat="57.940108012408018" lon="-4.083382012322545">
        <ele>21.77</ele>
        <time>2019-09-02T09:28:10Z</time>
      </trkpt>
      <trkpt lat="57.940189987421036" lon="-4.083188977092505">
        <ele>22.25</ele>
        <time>2019-09-02T09:28:11Z</time>
      </trkpt>
      <trkpt lat="57.940244972705841" lon="-4.082954032346606">
        <ele>22.25</ele>
        <time>2019-09-02T09:28:12Z</time>
      </trkpt>
      <trkpt lat="57.94028596021235" lon="-4.082680027931929">
        <ele>22.25</ele>
        <time>2019-09-02T09:28:13Z</time>
      </trkpt>
      <trkpt lat="57.940328037366271" lon="-4.082394037395716">
        <ele>22.73</ele>
        <time>2019-09-02T09:28:14Z</time>
      </trkpt>
      <trkpt lat="57.94037003070116" lon="-4.082112992182374">
        <ele>22.73</ele>
        <time>2019-09-02T09:28:15Z</time>
      </trkpt>
      <trkpt lat="57.940411018207669" lon="-4.081834964454174">
        <ele>22.73</ele>
        <time>2019-09-02T09:28:16Z</time>
      </trkpt>
      <trkpt lat="57.940497016534209" lon="-4.081283016130328">
        <ele>22.73</ele>
        <time>2019-09-02T09:28:18Z</time>
      </trkpt>
      <trkpt lat="57.940547978505492" lon="-4.081007000058889">
        <ele>22.73</ele>
        <time>2019-09-02T09:28:19Z</time>
      </trkpt>
      <trkpt lat="57.94069399125874" lon="-4.080136958509684">
        <ele>21.77</ele>
        <time>2019-09-02T09:28:22Z</time>
      </trkpt>
      <trkpt lat="57.940845033153892" lon="-4.079034989699721">
        <ele>20.809999999999999</ele>
        <time>2019-09-02T09:28:26Z</time>
      </trkpt>
      <trkpt lat="57.940889038145542" lon="-4.078811025246978">
        <ele>20.809999999999999</ele>
        <time>2019-09-02T09:28:27Z</time>
      </trkpt>
      <trkpt lat="57.940947040915489" lon="-4.078628970310092">
        <ele>20.32</ele>
        <time>2019-09-02T09:28:28Z</time>
      </trkpt>
      <trkpt lat="57.941017029806972" lon="-4.078483041375876">
        <ele>20.32</ele>
        <time>2019-09-02T09:28:29Z</time>
      </trkpt>
      <trkpt lat="57.941104033961892" lon="-4.078358989208937">
        <ele>20.32</ele>
        <time>2019-09-02T09:28:30Z</time>
      </trkpt>
      <trkpt lat="57.941193971782923" lon="-4.078232003375888">
        <ele>19.84</ele>
        <time>2019-09-02T09:28:31Z</time>
      </trkpt>
      <trkpt lat="57.941291034221649" lon="-4.07812999561429">
        <ele>19.84</ele>
        <time>2019-09-02T09:28:32Z</time>
      </trkpt>
      <trkpt lat="57.941406033933163" lon="-4.078034022822976">
        <ele>19.359999999999999</ele>
        <time>2019-09-02T09:28:33Z</time>
      </trkpt>
      <trkpt lat="57.941528996452689" lon="-4.077946012839675">
        <ele>18.879999999999999</ele>
        <time>2019-09-02T09:28:34Z</time>
      </trkpt>
      <trkpt lat="57.941668974235654" lon="-4.077878035604954">
        <ele>18.399999999999999</ele>
        <time>2019-09-02T09:28:35Z</time>
      </trkpt>
      <trkpt lat="57.941820016130805" lon="-4.07780502922833">
        <ele>17.920000000000002</ele>
        <time>2019-09-02T09:28:36Z</time>
      </trkpt>
      <trkpt lat="57.94303203932941" lon="-4.077390963211656">
        <ele>12.630000000000001</ele>
        <time>2019-09-02T09:28:45Z</time>
      </trkpt>
      <trkpt lat="57.94346203096211" lon="-4.077405966818333">
        <ele>11.19</ele>
        <time>2019-09-02T09:28:48Z</time>
      </trkpt>
      <trkpt lat="57.943602008745074" lon="-4.077460030093789">
        <ele>10.710000000000001</ele>
        <time>2019-09-02T09:28:49Z</time>
      </trkpt>
      <trkpt lat="57.943738969042897" lon="-4.077511997893453">
        <ele>10.23</ele>
        <time>2019-09-02T09:28:50Z</time>
      </trkpt>
      <trkpt lat="57.944096038118005" lon="-4.077766975387931">
        <ele>8.789999999999999</ele>
        <time>2019-09-02T09:28:53Z</time>
      </trkpt>
      <trkpt lat="57.944297958165407" lon="-4.077981971204281">
        <ele>7.83</ele>
        <time>2019-09-02T09:28:55Z</time>
      </trkpt>
      <trkpt lat="57.944383034482598" lon="-4.07810602337122">
        <ele>7.35</ele>
        <time>2019-09-02T09:28:56Z</time>
      </trkpt>
      <trkpt lat="57.944455035030842" lon="-4.078266033902764">
        <ele>6.39</ele>
        <time>2019-09-02T09:28:57Z</time>
      </trkpt>
      <trkpt lat="57.94451697729528" lon="-4.0784299839288">
        <ele>5.91</ele>
        <time>2019-09-02T09:28:58Z</time>
      </trkpt>
      <trkpt lat="57.944585038349032" lon="-4.078606003895402">
        <ele>4.94</ele>
        <time>2019-09-02T09:28:59Z</time>
      </trkpt>
      <trkpt lat="57.944657038897276" lon="-4.07879501581192">
        <ele>4.46</ele>
        <time>2019-09-02T09:29:00Z</time>
      </trkpt>
      <trkpt lat="57.945253998041153" lon="-4.081004988402128">
        <ele>1.58</ele>
        <time>2019-09-02T09:29:08Z</time>
      </trkpt>
      <trkpt lat="57.945893034338951" lon="-4.08309300430119">
        <ele>3.02</ele>
        <time>2019-09-02T09:29:16Z</time>
      </trkpt>
      <trkpt lat="57.945988001301885" lon="-4.083304982632399">
        <ele>3.02</ele>
        <time>2019-09-02T09:29:17Z</time>
      </trkpt>
      <trkpt lat="57.946082968264818" lon="-4.083501035347581">
        <ele>3.98</ele>
        <time>2019-09-02T09:29:18Z</time>
      </trkpt>
      <trkpt lat="57.946176007390022" lon="-4.08369398675859">
        <ele>3.98</ele>
        <time>2019-09-02T09:29:19Z</time>
      </trkpt>
      <trkpt lat="57.946308022364974" lon="-4.083815021440387">
        <ele>4.46</ele>
        <time>2019-09-02T09:29:20Z</time>
      </trkpt>
      <trkpt lat="57.946438025683165" lon="-4.083920968696475">
        <ele>4.94</ele>
        <time>2019-09-02T09:29:21Z</time>
      </trkpt>
      <trkpt lat="57.946572974324226" lon="-4.084032028913498">
        <ele>5.42</ele>
        <time>2019-09-02T09:29:22Z</time>
      </trkpt>
      <trkpt lat="57.946712030097842" lon="-4.08414501696825">
        <ele>5.91</ele>
        <time>2019-09-02T09:29:23Z</time>
      </trkpt>
      <trkpt lat="57.946864999830723" lon="-4.084207965061069">
        <ele>6.39</ele>
        <time>2019-09-02T09:29:24Z</time>
      </trkpt>
      <trkpt lat="57.948053972795606" lon="-4.084318019449711">
        <ele>9.75</ele>
        <time>2019-09-02T09:29:32Z</time>
      </trkpt>
      <trkpt lat="57.949521979317069" lon="-4.084128001704812">
        <ele>9.75</ele>
        <time>2019-09-02T09:29:41Z</time>
      </trkpt>
      <trkpt lat="57.950162021443248" lon="-4.083781996741891">
        <ele>9.75</ele>
        <time>2019-09-02T09:29:45Z</time>
      </trkpt>
      <trkpt lat="57.950314991176128" lon="-4.08365098759532">
        <ele>9.75</ele>
        <time>2019-09-02T09:29:46Z</time>
      </trkpt>
      <trkpt lat="57.950458992272615" lon="-4.083501035347581">
        <ele>9.75</ele>
        <time>2019-09-02T09:29:47Z</time>
      </trkpt>
      <trkpt lat="57.950590001419187" lon="-4.083309005945921">
        <ele>9.75</ele>
        <time>2019-09-02T09:29:48Z</time>
      </trkpt>
      <trkpt lat="57.950716987252235" lon="-4.083124017342925">
        <ele>9.27</ele>
        <time>2019-09-02T09:29:49Z</time>
      </trkpt>
      <trkpt lat="57.951648971065879" lon="-4.081477979198098">
        <ele>6.39</ele>
        <time>2019-09-02T09:29:58Z</time>
      </trkpt>
      <trkpt lat="57.952937018126249" lon="-4.078597035259008">
        <ele>4.94</ele>
        <time>2019-09-02T09:30:12Z</time>
      </trkpt>
      <trkpt lat="57.954295976087451" lon="-4.075471004471183">
        <ele>4.46</ele>
        <time>2019-09-02T09:30:24Z</time>
      </trkpt>
      <trkpt lat="57.95553800649941" lon="-4.072123020887375">
        <ele>5.91</ele>
        <time>2019-09-02T09:30:34Z</time>
      </trkpt>
      <trkpt lat="57.957015987485647" lon="-4.067866019904614">
        <ele>23.690000000000001</ele>
        <time>2019-09-02T09:30:47Z</time>
      </trkpt>
      <trkpt lat="57.958234967663884" lon="-4.064222993329167">
        <ele>35.229999999999997</ele>
        <time>2019-09-02T09:30:58Z</time>
      </trkpt>
      <trkpt lat="57.959202993661165" lon="-4.060588013380766">
        <ele>35.710000000000001</ele>
        <time>2019-09-02T09:31:08Z</time>
      </trkpt>
      <trkpt lat="57.960098013281822" lon="-4.056727979332209">
        <ele>29.460000000000001</ele>
        <time>2019-09-02T09:31:18Z</time>
      </trkpt>
      <trkpt lat="57.960766972973943" lon="-4.053883999586105">
        <ele>20.32</ele>
        <time>2019-09-02T09:31:26Z</time>
      </trkpt>
      <trkpt lat="57.961218003183603" lon="-4.051613006740809">
        <ele>16</ele>
        <time>2019-09-02T09:31:33Z</time>
      </trkpt>
      <trkpt lat="57.961226971819997" lon="-4.051275970414281">
        <ele>15.52</ele>
        <time>2019-09-02T09:31:34Z</time>
      </trkpt>
      <trkpt lat="57.961208028718829" lon="-4.048427967354655">
        <ele>14.56</ele>
        <time>2019-09-02T09:31:42Z</time>
      </trkpt>
      <trkpt lat="57.961167963221669" lon="-4.045224990695715">
        <ele>11.67</ele>
        <time>2019-09-02T09:31:50Z</time>
      </trkpt>
      <trkpt lat="57.961178021505475" lon="-4.039805000647903">
        <ele>10.23</ele>
        <time>2019-09-02T09:32:03Z</time>
      </trkpt>
      <trkpt lat="57.961193025112152" lon="-4.036417035385966">
        <ele>11.19</ele>
        <time>2019-09-02T09:32:12Z</time>
      </trkpt>
      <trkpt lat="57.961312970146537" lon="-4.032485000789166">
        <ele>10.710000000000001</ele>
        <time>2019-09-02T09:32:24Z</time>
      </trkpt>
      <trkpt lat="57.961502987891436" lon="-4.029782004654408">
        <ele>10.23</ele>
        <time>2019-09-02T09:32:32Z</time>
      </trkpt>
      <trkpt lat="57.961785960942507" lon="-4.027866991236806">
        <ele>10.710000000000001</ele>
        <time>2019-09-02T09:32:38Z</time>
      </trkpt>
      <trkpt lat="57.962357020005584" lon="-4.025510000064969">
        <ele>10.23</ele>
        <time>2019-09-02T09:32:45Z</time>
      </trkpt>
      <trkpt lat="57.963126981630921" lon="-4.022885961458087">
        <ele>10.710000000000001</ele>
        <time>2019-09-02T09:32:54Z</time>
      </trkpt>
      <trkpt lat="57.9639380145818" lon="-4.020282961428165">
        <ele>12.630000000000001</ele>
        <time>2019-09-02T09:33:04Z</time>
      </trkpt>
      <trkpt lat="57.964694984257221" lon="-4.017754979431629">
        <ele>14.08</ele>
        <time>2019-09-02T09:33:14Z</time>
      </trkpt>
      <trkpt lat="57.965275011956692" lon="-4.01513303630054">
        <ele>13.6</ele>
        <time>2019-09-02T09:33:23Z</time>
      </trkpt>
      <trkpt lat="57.965927040204406" lon="-4.011926036328077">
        <ele>11.67</ele>
        <time>2019-09-02T09:33:33Z</time>
      </trkpt>
      <trkpt lat="57.966362982988358" lon="-4.009555969387293">
        <ele>11.19</ele>
        <time>2019-09-02T09:33:41Z</time>
      </trkpt>
      <trkpt lat="57.967019034549594" lon="-4.005989972501993">
        <ele>9.27</ele>
        <time>2019-09-02T09:33:53Z</time>
      </trkpt>
      <trkpt lat="57.967735016718507" lon="-4.003306003287435">
        <ele>21.77</ele>
        <time>2019-09-02T09:34:03Z</time>
      </trkpt>
      <trkpt lat="57.96825896948576" lon="-4.001589976251125">
        <ele>23.210000000000001</ele>
        <time>2019-09-02T09:34:09Z</time>
      </trkpt>
      <trkpt lat="57.96834597364068" lon="-4.001298034563661">
        <ele>22.73</ele>
        <time>2019-09-02T09:34:10Z</time>
      </trkpt>
      <trkpt lat="57.969166981056333" lon="-3.998088017106056">
        <ele>20.809999999999999</ele>
        <time>2019-09-02T09:34:20Z</time>
      </trkpt>
      <trkpt lat="57.970271967351437" lon="-3.994024973362684">
        <ele>16.960000000000001</ele>
        <time>2019-09-02T09:34:34Z</time>
      </trkpt>
      <trkpt lat="57.970829028636217" lon="-3.991517024114728">
        <ele>14.56</ele>
        <time>2019-09-02T09:34:44Z</time>
      </trkpt>
      <trkpt lat="57.971420036628842" lon="-3.988822996616364">
        <ele>12.630000000000001</ele>
        <time>2019-09-02T09:34:56Z</time>
      </trkpt>
      <trkpt lat="57.971946001052856" lon="-3.986439015716314">
        <ele>14.08</ele>
        <time>2019-09-02T09:35:08Z</time>
      </trkpt>
      <trkpt lat="57.972433995455503" lon="-3.984376983717084">
        <ele>9.75</ele>
        <time>2019-09-02T09:35:19Z</time>
      </trkpt>
      <trkpt lat="57.972499039024115" lon="-3.984039025381208">
        <ele>9.27</ele>
        <time>2019-09-02T09:35:21Z</time>
      </trkpt>
      <trkpt lat="57.972527034580708" lon="-3.983869040384889">
        <ele>8.789999999999999</ele>
        <time>2019-09-02T09:35:22Z</time>
      </trkpt>
      <trkpt lat="57.972518987953663" lon="-3.983688997104764">
        <ele>8.310000000000001</ele>
        <time>2019-09-02T09:35:23Z</time>
      </trkpt>
      <trkpt lat="57.972494009882212" lon="-3.983512977138162">
        <ele>7.83</ele>
        <time>2019-09-02T09:35:24Z</time>
      </trkpt>
      <trkpt lat="57.972465008497238" lon="-3.98333796299994">
        <ele>7.35</ele>
        <time>2019-09-02T09:35:25Z</time>
      </trkpt>
      <trkpt lat="57.972411029040813" lon="-3.983178958296776">
        <ele>6.87</ele>
        <time>2019-09-02T09:35:26Z</time>
      </trkpt>
      <trkpt lat="57.972356965765357" lon="-3.983020959421992">
        <ele>6.39</ele>
        <time>2019-09-02T09:35:27Z</time>
      </trkpt>
      <trkpt lat="57.971885986626148" lon="-3.981073005124927">
        <ele>4.94</ele>
        <time>2019-09-02T09:35:38Z</time>
      </trkpt>
      <trkpt lat="57.971827983856201" lon="-3.980431035161018">
        <ele>3.98</ele>
        <time>2019-09-02T09:35:41Z</time>
      </trkpt>
      <trkpt lat="57.971811974421144" lon="-3.980222996324301">
        <ele>3.5</ele>
        <time>2019-09-02T09:35:42Z</time>
      </trkpt>
      <trkpt lat="57.971831001341343" lon="-3.980020992457867">
        <ele>3.02</ele>
        <time>2019-09-02T09:35:43Z</time>
      </trkpt>
      <trkpt lat="57.971862014383078" lon="-3.979836003854871">
        <ele>2.54</ele>
        <time>2019-09-02T09:35:44Z</time>
      </trkpt>
      <trkpt lat="57.971914988011122" lon="-3.979668030515313">
        <ele>2.54</ele>
        <time>2019-09-02T09:35:45Z</time>
      </trkpt>
      <trkpt lat="57.971977014094591" lon="-3.979511959478259">
        <ele>1.58</ele>
        <time>2019-09-02T09:35:46Z</time>
      </trkpt>
      <trkpt lat="57.972644967958331" lon="-3.977948985993862">
        <ele>-3.23</ele>
        <time>2019-09-02T09:35:55Z</time>
      </trkpt>
      <trkpt lat="57.973232958465815" lon="-3.976501012220979">
        <ele>-2.27</ele>
        <time>2019-09-02T09:36:04Z</time>
      </trkpt>
      <trkpt lat="57.973490031436086" lon="-3.975849989801645">
        <ele>0.14</ele>
        <time>2019-09-02T09:36:13Z</time>
      </trkpt>
      <trkpt lat="57.973812986165285" lon="-3.974991012364626">
        <ele>1.1</ele>
        <time>2019-09-02T09:36:24Z</time>
      </trkpt>
      <trkpt lat="57.974155973643064" lon="-3.974057016894221">
        <ele>2.06</ele>
        <time>2019-09-02T09:36:32Z</time>
      </trkpt>
      <trkpt lat="57.974197966977954" lon="-3.973936988040805">
        <ele>2.06</ele>
        <time>2019-09-02T09:36:33Z</time>
      </trkpt>
      <trkpt lat="57.974239038303494" lon="-3.973816959187388">
        <ele>2.54</ele>
        <time>2019-09-02T09:36:34Z</time>
      </trkpt>
      <trkpt lat="57.97459602355957" lon="-3.972779028117657">
        <ele>2.54</ele>
        <time>2019-09-02T09:36:42Z</time>
      </trkpt>
      <trkpt lat="57.974642040207982" lon="-3.972646007314324">
        <ele>3.02</ele>
        <time>2019-09-02T09:36:43Z</time>
      </trkpt>
      <trkpt lat="57.975045964121819" lon="-3.97128202021122">
        <ele>4.46</ele>
        <time>2019-09-02T09:36:53Z</time>
      </trkpt>
      <trkpt lat="57.975447960197926" lon="-3.969161985442042">
        <ele>3.5</ele>
        <time>2019-09-02T09:37:05Z</time>
      </trkpt>
      <trkpt lat="57.975711990147829" lon="-3.966928962618113">
        <ele>5.42</ele>
        <time>2019-09-02T09:37:15Z</time>
      </trkpt>
      <trkpt lat="57.975739985704422" lon="-3.966699969023466">
        <ele>5.42</ele>
        <time>2019-09-02T09:37:16Z</time>
      </trkpt>
      <trkpt lat="57.975790025666356" lon="-3.966528978198767">
        <ele>5.42</ele>
        <time>2019-09-02T09:37:17Z</time>
      </trkpt>
      <trkpt lat="57.975837970152497" lon="-3.966364022344351">
        <ele>5.42</ele>
        <time>2019-09-02T09:37:18Z</time>
      </trkpt>
      <trkpt lat="57.975891027599573" lon="-3.966209040954709">
        <ele>5.91</ele>
        <time>2019-09-02T09:37:19Z</time>
      </trkpt>
      <trkpt lat="57.975980965420604" lon="-3.966096974909306">
        <ele>5.91</ele>
        <time>2019-09-02T09:37:20Z</time>
      </trkpt>
      <trkpt lat="57.976075010374188" lon="-3.966002007946372">
        <ele>5.91</ele>
        <time>2019-09-02T09:37:21Z</time>
      </trkpt>
      <trkpt lat="57.976170983165503" lon="-3.965906035155058">
        <ele>5.91</ele>
        <time>2019-09-02T09:37:22Z</time>
      </trkpt>
      <trkpt lat="57.977273035794497" lon="-3.964866008609533">
        <ele>9.27</ele>
        <time>2019-09-02T09:37:33Z</time>
      </trkpt>
      <trkpt lat="57.977380994707346" lon="-3.964750003069639">
        <ele>10.23</ele>
        <time>2019-09-02T09:37:34Z</time>
      </trkpt>
      <trkpt lat="57.977602025493979" lon="-3.964511035010219">
        <ele>11.19</ele>
        <time>2019-09-02T09:37:36Z</time>
      </trkpt>
      <trkpt lat="57.977718031033874" lon="-3.964385977014899">
        <ele>12.15</ele>
        <time>2019-09-02T09:37:37Z</time>
      </trkpt>
      <trkpt lat="57.978593017905951" lon="-3.963168002665043">
        <ele>16</ele>
        <time>2019-09-02T09:37:45Z</time>
      </trkpt>
      <trkpt lat="57.978729978203773" lon="-3.962833983823657">
        <ele>16.960000000000001</ele>
        <time>2019-09-02T09:37:47Z</time>
      </trkpt>
      <trkpt lat="57.978792004287243" lon="-3.962657041847706">
        <ele>17.440000000000001</ele>
        <time>2019-09-02T09:37:48Z</time>
      </trkpt>
      <trkpt lat="57.978842966258526" lon="-3.962465012446046">
        <ele>17.920000000000002</ele>
        <time>2019-09-02T09:37:49Z</time>
      </trkpt>
      <trkpt lat="57.978884037584066" lon="-3.962245993316174">
        <ele>18.399999999999999</ele>
        <time>2019-09-02T09:37:50Z</time>
      </trkpt>
      <trkpt lat="57.978926030918956" lon="-3.962024040520191">
        <ele>19.359999999999999</ele>
        <time>2019-09-02T09:37:51Z</time>
      </trkpt>
      <trkpt lat="57.979186037555337" lon="-3.96062501706183">
        <ele>24.649999999999999</ele>
        <time>2019-09-02T09:37:57Z</time>
      </trkpt>
      <trkpt lat="57.979406984522939" lon="-3.959363959729672">
        <ele>29.940000000000001</ele>
        <time>2019-09-02T09:38:02Z</time>
      </trkpt>
      <trkpt lat="57.979455012828112" lon="-3.959111999720335">
        <ele>30.899999999999999</ele>
        <time>2019-09-02T09:38:03Z</time>
      </trkpt>
      <trkpt lat="57.97951796092093" lon="-3.958874959498644">
        <ele>31.859999999999999</ele>
        <time>2019-09-02T09:38:04Z</time>
      </trkpt>
      <trkpt lat="57.979586021974683" lon="-3.958642026409507">
        <ele>32.82</ele>
        <time>2019-09-02T09:38:05Z</time>
      </trkpt>
      <trkpt lat="57.979662967845798" lon="-3.958430970087647">
        <ele>33.780000000000001</ele>
        <time>2019-09-02T09:38:06Z</time>
      </trkpt>
      <trkpt lat="57.979751983657479" lon="-3.958230977877975">
        <ele>35.229999999999997</ele>
        <time>2019-09-02T09:38:07Z</time>
      </trkpt>
      <trkpt lat="57.979843011125922" lon="-3.958026962354779">
        <ele>36.189999999999998</ele>
        <time>2019-09-02T09:38:08Z</time>
      </trkpt>
      <trkpt lat="57.979933032765985" lon="-3.957823030650616">
        <ele>37.149999999999999</ele>
        <time>2019-09-02T09:38:09Z</time>
      </trkpt>
      <trkpt lat="57.980038980022073" lon="-3.957656985148788">
        <ele>38.590000000000003</ele>
        <time>2019-09-02T09:38:10Z</time>
      </trkpt>
      <trkpt lat="57.980154985561967" lon="-3.957523964345455">
        <ele>39.549999999999997</ele>
        <time>2019-09-02T09:38:11Z</time>
      </trkpt>
      <trkpt lat="57.980276020243764" lon="-3.95740301348269">
        <ele>40.509999999999998</ele>
        <time>2019-09-02T09:38:12Z</time>
      </trkpt>
      <trkpt lat="57.980508031323552" lon="-3.957174019888043">
        <ele>42.439999999999998</ele>
        <time>2019-09-02T09:38:14Z</time>
      </trkpt>
      <trkpt lat="57.980883959680796" lon="-3.956923987716436">
        <ele>44.840000000000003</ele>
        <time>2019-09-02T09:38:17Z</time>
      </trkpt>
      <trkpt lat="57.980995019897819" lon="-3.956913007423282">
        <ele>45.32</ele>
        <time>2019-09-02T09:38:18Z</time>
      </trkpt>
      <trkpt lat="57.981548979878426" lon="-3.956859027966857">
        <ele>47.240000000000002</ele>
        <time>2019-09-02T09:38:22Z</time>
      </trkpt>
      <trkpt lat="57.982432013377547" lon="-3.956785015761852">
        <ele>49.159999999999997</ele>
        <time>2019-09-02T09:38:28Z</time>
      </trkpt>
      <trkpt lat="57.982704006135464" lon="-3.956604972481728">
        <ele>49.649999999999999</ele>
        <time>2019-09-02T09:38:30Z</time>
      </trkpt>
      <trkpt lat="57.982834009453654" lon="-3.956483015790582">
        <ele>50.130000000000003</ele>
        <time>2019-09-02T09:38:31Z</time>
      </trkpt>
      <trkpt lat="57.982956971973181" lon="-3.956331973895431">
        <ele>50.130000000000003</ele>
        <time>2019-09-02T09:38:32Z</time>
      </trkpt>
      <trkpt lat="57.983069960027933" lon="-3.956176992505789">
        <ele>50.609999999999999</ele>
        <time>2019-09-02T09:38:33Z</time>
      </trkpt>
      <trkpt lat="57.983171967789531" lon="-3.955967025831342">
        <ele>50.609999999999999</ele>
        <time>2019-09-02T09:38:34Z</time>
      </trkpt>
      <trkpt lat="57.983280010521412" lon="-3.955744989216328">
        <ele>51.090000000000003</ele>
        <time>2019-09-02T09:38:35Z</time>
      </trkpt>
      <trkpt lat="57.984044020995498" lon="-3.954120995476842">
        <ele>48.68</ele>
        <time>2019-09-02T09:38:42Z</time>
      </trkpt>
      <trkpt lat="57.984145022928715" lon="-3.953888984397054">
        <ele>48.200000000000003</ele>
        <time>2019-09-02T09:38:43Z</time>
      </trkpt>
      <trkpt lat="57.984491027891636" lon="-3.952944008633494">
        <ele>47.719999999999999</ele>
        <time>2019-09-02T09:38:47Z</time>
      </trkpt>
      <trkpt lat="57.984552970156074" lon="-3.952738987281919">
        <ele>47.719999999999999</ele>
        <time>2019-09-02T09:38:48Z</time>
      </trkpt>
      <trkpt lat="57.984606027603149" lon="-3.952475041151047">
        <ele>47.719999999999999</ele>
        <time>2019-09-02T09:38:49Z</time>
      </trkpt>
      <trkpt lat="57.984939040616155" lon="-3.950737975537777">
        <ele>49.159999999999997</ele>
        <time>2019-09-02T09:38:57Z</time>
      </trkpt>
      <trkpt lat="57.985282028093934" lon="-3.948864033445716">
        <ele>52.530000000000001</ele>
        <time>2019-09-02T09:39:07Z</time>
      </trkpt>
      <trkpt lat="57.985465005040169" lon="-3.947888966649771">
        <ele>55.890000000000001</ele>
        <time>2019-09-02T09:39:13Z</time>
      </trkpt>
      <trkpt lat="57.985484031960368" lon="-3.947795005515218">
        <ele>56.369999999999997</ele>
        <time>2019-09-02T09:39:14Z</time>
      </trkpt>
      <trkpt lat="57.985501969233155" lon="-3.94771202467382">
        <ele>56.369999999999997</ele>
        <time>2019-09-02T09:39:15Z</time>
      </trkpt>
      <trkpt lat="57.985438015311956" lon="-3.947589984163642">
        <ele>56.859999999999999</ele>
        <time>2019-09-02T09:39:16Z</time>
      </trkpt>
      <trkpt lat="57.985408008098602" lon="-3.947573974728584">
        <ele>56.859999999999999</ele>
        <time>2019-09-02T09:39:17Z</time>
      </trkpt>
      <trkpt lat="57.985371965914965" lon="-3.947555031627417">
        <ele>57.340000000000003</ele>
        <time>2019-09-02T09:39:18Z</time>
      </trkpt>
      <trkpt lat="57.985332990065217" lon="-3.947533993050456">
        <ele>57.340000000000003</ele>
        <time>2019-09-02T09:39:19Z</time>
      </trkpt>
      <trkpt lat="57.985297031700611" lon="-3.947514966130257">
        <ele>57.340000000000003</ele>
        <time>2019-09-02T09:39:20Z</time>
      </trkpt>
      <trkpt lat="57.985255038365722" lon="-3.947493005543947">
        <ele>57.340000000000003</ele>
        <time>2019-09-02T09:39:21Z</time>
      </trkpt>
      <trkpt lat="57.98520902171731" lon="-3.947468027472496">
        <ele>57.340000000000003</ele>
        <time>2019-09-02T09:39:22Z</time>
      </trkpt>
      <trkpt lat="57.985155964270234" lon="-3.947440031915903">
        <ele>57.340000000000003</ele>
        <time>2019-09-02T09:39:23Z</time>
      </trkpt>
      <trkpt lat="57.985089998692274" lon="-3.947404995560646">
        <ele>56.859999999999999</ele>
        <time>2019-09-02T09:39:24Z</time>
      </trkpt>
      <trkpt lat="57.985019003972411" lon="-3.947367025539279">
        <ele>56.859999999999999</ele>
        <time>2019-09-02T09:39:25Z</time>
      </trkpt>
      <trkpt lat="57.984948009252548" lon="-3.94732897169888">
        <ele>56.859999999999999</ele>
        <time>2019-09-02T09:39:26Z</time>
      </trkpt>
      <trkpt lat="57.984867040067911" lon="-3.94728597253561">
        <ele>55.890000000000001</ele>
        <time>2019-09-02T09:39:27Z</time>
      </trkpt>
      <trkpt lat="57.98477903008461" lon="-3.94724003970623">
        <ele>55.409999999999997</ele>
        <time>2019-09-02T09:39:28Z</time>
      </trkpt>
      <trkpt lat="57.984690014272928" lon="-3.947193017229438">
        <ele>54.93</ele>
        <time>2019-09-02T09:39:29Z</time>
      </trkpt>
      <trkpt lat="57.984599992632866" lon="-3.947144988924265">
        <ele>54.450000000000003</ele>
        <time>2019-09-02T09:39:30Z</time>
      </trkpt>
      <trkpt lat="57.98430897295475" lon="-3.946991013363004">
        <ele>53.009999999999998</ele>
        <time>2019-09-02T09:39:33Z</time>
      </trkpt>
      <trkpt lat="57.984221968799829" lon="-3.946943990886211">
        <ele>52.530000000000001</ele>
        <time>2019-09-02T09:39:34Z</time>
      </trkpt>
      <trkpt lat="57.98405097797513" lon="-3.946853969246149">
        <ele>50.609999999999999</ele>
        <time>2019-09-02T09:39:36Z</time>
      </trkpt>
      <trkpt lat="57.983970008790493" lon="-3.946810970082879">
        <ele>49.649999999999999</ele>
        <time>2019-09-02T09:39:37Z</time>
      </trkpt>
      <trkpt lat="57.983510009944439" lon="-3.946565967053175">
        <ele>40.990000000000002</ele>
        <time>2019-09-02T09:39:43Z</time>
      </trkpt>
      <trkpt lat="57.983230976387858" lon="-3.946418026462197">
        <ele>34.259999999999998</ele>
        <time>2019-09-02T09:39:47Z</time>
      </trkpt>
      <trkpt lat="57.983157970011234" lon="-3.946379972621799">
        <ele>32.82</ele>
        <time>2019-09-02T09:39:48Z</time>
      </trkpt>
      <trkpt lat="57.983098039403558" lon="-3.946348037570715">
        <ele>30.899999999999999</ele>
        <time>2019-09-02T09:39:49Z</time>
      </trkpt>
      <trkpt lat="57.982899975031614" lon="-3.946243012323976">
        <ele>23.210000000000001</ele>
        <time>2019-09-02T09:39:54Z</time>
      </trkpt>
      <trkpt lat="57.982900980859995" lon="-3.946243012323976">
        <ele>21.77</ele>
        <time>2019-09-02T09:39:55Z</time>
      </trkpt>
      <trkpt lat="57.982854964211583" lon="-3.946219040080905">
        <ele>20.32</ele>
        <time>2019-09-02T09:39:56Z</time>
      </trkpt>
      <trkpt lat="57.982830991968513" lon="-3.946205964311957">
        <ele>19.359999999999999</ele>
        <time>2019-09-02T09:39:57Z</time>
      </trkpt>
      <trkpt lat="57.982810037210584" lon="-3.946194984018803">
        <ele>17.920000000000002</ele>
        <time>2019-09-02T09:39:58Z</time>
      </trkpt>
      <trkpt lat="57.982420027256012" lon="-3.945893989875913">
        <ele>6.87</ele>
        <time>2019-09-02T09:40:13Z</time>
      </trkpt>
      <trkpt lat="57.982342997565866" lon="-3.945830035954714">
        <ele>13.119999999999999</ele>
        <time>2019-09-02T09:40:30Z</time>
      </trkpt>
      <trkpt lat="57.982342997565866" lon="-3.945830035954714">
        <ele>13.6</ele>
        <time>2019-09-02T09:40:50Z</time>
      </trkpt>
      <trkpt lat="57.982342997565866" lon="-3.945830035954714">
        <ele>13.6</ele>
        <time>2019-09-02T09:41:09Z</time>
      </trkpt>
      <trkpt lat="57.9819440189749" lon="-3.945440026000142">
        <ele>12.630000000000001</ele>
        <time>2019-09-02T11:24:41Z</time>
      </trkpt>
      <trkpt lat="57.982114003971219" lon="-3.945569023489952">
        <ele>40.990000000000002</ele>
        <time>2019-09-02T11:25:15Z</time>
      </trkpt>
      <trkpt lat="57.982001015916467" lon="-3.945482019335032">
        <ele>29.460000000000001</ele>
        <time>2019-09-02T11:25:59Z</time>
      </trkpt>
      <trkpt lat="57.981974026188254" lon="-3.94541697576642">
        <ele>26.57</ele>
        <time>2019-09-02T11:26:25Z</time>
      </trkpt>
      <trkpt lat="57.98217804171145" lon="-3.945431979373097">
        <ele>26.57</ele>
        <time>2019-09-02T11:26:34Z</time>
      </trkpt>
      <trkpt lat="57.982229003682733" lon="-3.945477996021509">
        <ele>26.09</ele>
        <time>2019-09-02T11:26:50Z</time>
      </trkpt>
      <trkpt lat="57.98222498036921" lon="-3.945483025163412">
        <ele>25.609999999999999</ele>
        <time>2019-09-02T11:27:36Z</time>
      </trkpt>
      <trkpt lat="57.98222498036921" lon="-3.945483025163412">
        <ele>25.609999999999999</ele>
        <time>2019-09-02T11:27:46Z</time>
      </trkpt>
      <trkpt lat="57.982342997565866" lon="-3.945830035954714">
        <ele>26.09</ele>
        <time>2019-09-02T11:27:49Z</time>
      </trkpt>
      <trkpt lat="57.982342997565866" lon="-3.945830035954714">
        <ele>26.57</ele>
        <time>2019-09-02T11:27:50Z</time>
      </trkpt>
      <trkpt lat="57.982620019465685" lon="-3.946061041206121">
        <ele>26.09</ele>
        <time>2019-09-02T11:28:02Z</time>
      </trkpt>
      <trkpt lat="57.982700988650322" lon="-3.946430012583733">
        <ele>26.09</ele>
        <time>2019-09-02T11:28:07Z</time>
      </trkpt>
      <trkpt lat="57.982623958960176" lon="-3.947182036936283">
        <ele>26.09</ele>
        <time>2019-09-02T11:28:13Z</time>
      </trkpt>
      <trkpt lat="57.98260903917253" lon="-3.947326960042119">
        <ele>26.09</ele>
        <time>2019-09-02T11:28:14Z</time>
      </trkpt>
      <trkpt lat="57.982593029737473" lon="-3.947486970573664">
        <ele>26.09</ele>
        <time>2019-09-02T11:28:15Z</time>
      </trkpt>
      <trkpt lat="57.982556987553835" lon="-3.94784496165812">
        <ele>25.609999999999999</ele>
        <time>2019-09-02T11:28:17Z</time>
      </trkpt>
      <trkpt lat="57.982537038624287" lon="-3.94803699105978">
        <ele>25.129999999999999</ele>
        <time>2019-09-02T11:28:18Z</time>
      </trkpt>
      <trkpt lat="57.982518011704087" lon="-3.948224997147918">
        <ele>25.129999999999999</ele>
        <time>2019-09-02T11:28:19Z</time>
      </trkpt>
      <trkpt lat="57.98248297534883" lon="-3.948565972968936">
        <ele>24.649999999999999</ele>
        <time>2019-09-02T11:28:21Z</time>
      </trkpt>
      <trkpt lat="57.982466965913773" lon="-3.948729000985622">
        <ele>24.649999999999999</ele>
        <time>2019-09-02T11:28:22Z</time>
      </trkpt>
      <trkpt lat="57.982450034469366" lon="-3.948889011517167">
        <ele>24.170000000000002</ele>
        <time>2019-09-02T11:28:23Z</time>
      </trkpt>
      <trkpt lat="57.982402006164193" lon="-3.949362002313137">
        <ele>25.609999999999999</ele>
        <time>2019-09-02T11:28:26Z</time>
      </trkpt>
      <trkpt lat="57.982388008385897" lon="-3.949503991752863">
        <ele>26.57</ele>
        <time>2019-09-02T11:28:27Z</time>
      </trkpt>
      <trkpt lat="57.98237300477922" lon="-3.949653021991253">
        <ele>27.050000000000001</ele>
        <time>2019-09-02T11:28:28Z</time>
      </trkpt>
      <trkpt lat="57.982338974252343" lon="-3.949986035004258">
        <ele>28.5</ele>
        <time>2019-09-02T11:28:30Z</time>
      </trkpt>
      <trkpt lat="57.982275020331144" lon="-3.950609983876348">
        <ele>30.420000000000002</ele>
        <time>2019-09-02T11:28:34Z</time>
      </trkpt>
      <trkpt lat="57.982196984812617" lon="-3.950997982174158">
        <ele>32.340000000000003</ele>
        <time>2019-09-02T11:28:37Z</time>
      </trkpt>
      <trkpt lat="57.982163960114121" lon="-3.951111976057291">
        <ele>32.82</ele>
        <time>2019-09-02T11:28:38Z</time>
      </trkpt>
      <trkpt lat="57.982042003422976" lon="-3.95154096186161">
        <ele>35.229999999999997</ele>
        <time>2019-09-02T11:28:42Z</time>
      </trkpt>
      <trkpt lat="57.981610000133514" lon="-3.952691964805126">
        <ele>37.630000000000003</ele>
        <time>2019-09-02T11:28:51Z</time>
      </trkpt>
      <trkpt lat="57.981515033170581" lon="-3.95291299559176">
        <ele>37.630000000000003</ele>
        <time>2019-09-02T11:28:53Z</time>
      </trkpt>
      <trkpt lat="57.981474967673421" lon="-3.953003017231822">
        <ele>37.630000000000003</ele>
        <time>2019-09-02T11:28:54Z</time>
      </trkpt>
      <trkpt lat="57.981440015137196" lon="-3.953082980588079">
        <ele>38.109999999999999</ele>
        <time>2019-09-02T11:28:55Z</time>
      </trkpt>
      <trkpt lat="57.981400033459067" lon="-3.95317199639976">
        <ele>38.109999999999999</ele>
        <time>2019-09-02T11:28:56Z</time>
      </trkpt>
      <trkpt lat="57.981352005153894" lon="-3.953280039131641">
        <ele>38.109999999999999</ele>
        <time>2019-09-02T11:28:57Z</time>
      </trkpt>
      <trkpt lat="57.981302971020341" lon="-3.953393027186394">
        <ele>38.109999999999999</ele>
        <time>2019-09-02T11:28:58Z</time>
      </trkpt>
      <trkpt lat="57.98125603236258" lon="-3.953497968614101">
        <ele>38.109999999999999</ele>
        <time>2019-09-02T11:28:59Z</time>
      </trkpt>
      <trkpt lat="57.981205992400646" lon="-3.953610034659505">
        <ele>37.630000000000003</ele>
        <time>2019-09-02T11:29:00Z</time>
      </trkpt>
      <trkpt lat="57.981155030429363" lon="-3.953725034371018">
        <ele>37.149999999999999</ele>
        <time>2019-09-02T11:29:01Z</time>
      </trkpt>
      <trkpt lat="57.981115970760584" lon="-3.953812960535288">
        <ele>36.189999999999998</ele>
        <time>2019-09-02T11:29:02Z</time>
      </trkpt>
      <trkpt lat="57.98108302988112" lon="-3.953888984397054">
        <ele>35.710000000000001</ele>
        <time>2019-09-02T11:29:03Z</time>
      </trkpt>
      <trkpt lat="57.980916984379292" lon="-3.954258039593697">
        <ele>33.780000000000001</ele>
        <time>2019-09-02T11:29:07Z</time>
      </trkpt>
      <trkpt lat="57.980837021023035" lon="-3.954406986013055">
        <ele>32.340000000000003</ele>
        <time>2019-09-02T11:29:09Z</time>
      </trkpt>
      <trkpt lat="57.980788992717862" lon="-3.954496001824737">
        <ele>31.379999999999999</ele>
        <time>2019-09-02T11:29:10Z</time>
      </trkpt>
      <trkpt lat="57.980739958584309" lon="-3.954585017636418">
        <ele>30.899999999999999</ele>
        <time>2019-09-02T11:29:11Z</time>
      </trkpt>
      <trkpt lat="57.980683967471123" lon="-3.954689037054777">
        <ele>29.940000000000001</ele>
        <time>2019-09-02T11:29:12Z</time>
      </trkpt>
      <trkpt lat="57.980621019378304" lon="-3.95480596460402">
        <ele>28.98</ele>
        <time>2019-09-02T11:29:13Z</time>
      </trkpt>
      <trkpt lat="57.980409041047096" lon="-3.955196980386972">
        <ele>27.050000000000001</ele>
        <time>2019-09-02T11:29:16Z</time>
      </trkpt>
      <trkpt lat="57.980368975549936" lon="-3.955270992591977">
        <ele>26.57</ele>
        <time>2019-09-02T11:29:17Z</time>
      </trkpt>
      <trkpt lat="57.980316001921892" lon="-3.955399990081787">
        <ele>25.609999999999999</ele>
        <time>2019-09-02T11:29:18Z</time>
      </trkpt>
      <trkpt lat="57.980276020243764" lon="-3.955495962873101">
        <ele>24.649999999999999</ele>
        <time>2019-09-02T11:29:19Z</time>
      </trkpt>
      <trkpt lat="57.980232015252113" lon="-3.955601993948221">
        <ele>24.170000000000002</ele>
        <time>2019-09-02T11:29:20Z</time>
      </trkpt>
      <trkpt lat="57.980151968076825" lon="-3.955794023349881">
        <ele>22.25</ele>
        <time>2019-09-02T11:29:22Z</time>
      </trkpt>
      <trkpt lat="57.980110980570316" lon="-3.955894019454718">
        <ele>21.289999999999999</ele>
        <time>2019-09-02T11:29:23Z</time>
      </trkpt>
      <trkpt lat="57.980094971135259" lon="-3.955996027216315">
        <ele>20.809999999999999</ele>
        <time>2019-09-02T11:29:24Z</time>
      </trkpt>
      <trkpt lat="57.980072004720569" lon="-3.956141034141183">
        <ele>19.84</ele>
        <time>2019-09-02T11:29:25Z</time>
      </trkpt>
      <trkpt lat="57.980052977800369" lon="-3.956262990832329">
        <ele>18.879999999999999</ele>
        <time>2019-09-02T11:29:26Z</time>
      </trkpt>
      <trkpt lat="57.980049038305879" lon="-3.956356029957533">
        <ele>17.920000000000002</ele>
        <time>2019-09-02T11:29:27Z</time>
      </trkpt>
      <trkpt lat="57.980051971971989" lon="-3.956442028284073">
        <ele>17.440000000000001</ele>
        <time>2019-09-02T11:29:28Z</time>
      </trkpt>
      <trkpt lat="57.98007502220571" lon="-3.957147030159831">
        <ele>17.440000000000001</ele>
        <time>2019-09-02T11:29:37Z</time>
      </trkpt>
      <trkpt lat="57.980077033862472" lon="-3.957197992131114">
        <ele>17.920000000000002</ele>
        <time>2019-09-02T11:29:38Z</time>
      </trkpt>
      <trkpt lat="57.980078039690852" lon="-3.957236967980862">
        <ele>18.399999999999999</ele>
        <time>2019-09-02T11:29:39Z</time>
      </trkpt>
      <trkpt lat="57.980081979185343" lon="-3.957369988784194">
        <ele>22.25</ele>
        <time>2019-09-02T11:29:50Z</time>
      </trkpt>
      <trkpt lat="57.980083990842104" lon="-3.95742597989738">
        <ele>23.210000000000001</ele>
        <time>2019-09-02T11:29:51Z</time>
      </trkpt>
      <trkpt lat="57.980145011097193" lon="-3.957534022629261">
        <ele>23.690000000000001</ele>
        <time>2019-09-02T11:29:52Z</time>
      </trkpt>
      <trkpt lat="57.980175018310547" lon="-3.957504015415907">
        <ele>24.170000000000002</ele>
        <time>2019-09-02T11:29:53Z</time>
      </trkpt>
      <trkpt lat="57.980222962796688" lon="-3.957455987110734">
        <ele>24.170000000000002</ele>
        <time>2019-09-02T11:29:54Z</time>
      </trkpt>
      <trkpt lat="57.980293035507202" lon="-3.957385998219252">
        <ele>24.649999999999999</ele>
        <time>2019-09-02T11:29:55Z</time>
      </trkpt>
      <trkpt lat="57.98037501052022" lon="-3.957304023206234">
        <ele>24.649999999999999</ele>
        <time>2019-09-02T11:29:56Z</time>
      </trkpt>
      <trkpt lat="57.980650020763278" lon="-3.957079974934459">
        <ele>25.129999999999999</ele>
        <time>2019-09-02T11:29:59Z</time>
      </trkpt>
      <trkpt lat="57.980751022696495" lon="-3.957011997699738">
        <ele>25.129999999999999</ele>
        <time>2019-09-02T11:30:00Z</time>
      </trkpt>
      <trkpt lat="57.980858981609344" lon="-3.956939997151494">
        <ele>25.129999999999999</ele>
        <time>2019-09-02T11:30:01Z</time>
      </trkpt>
      <trkpt lat="57.981952987611294" lon="-3.956838995218277">
        <ele>28.98</ele>
        <time>2019-09-02T11:30:09Z</time>
      </trkpt>
      <trkpt lat="57.982383985072374" lon="-3.956816028803587">
        <ele>30.899999999999999</ele>
        <time>2019-09-02T11:30:12Z</time>
      </trkpt>
      <trkpt lat="57.982617001980543" lon="-3.956661969423294">
        <ele>32.340000000000003</ele>
        <time>2019-09-02T11:30:14Z</time>
      </trkpt>
      <trkpt lat="57.982617001980543" lon="-3.956661969423294">
        <ele>32.82</ele>
        <time>2019-09-02T11:30:15Z</time>
      </trkpt>
      <trkpt lat="57.982841972261667" lon="-3.956473041325808">
        <ele>33.299999999999997</ele>
        <time>2019-09-02T11:30:16Z</time>
      </trkpt>
      <trkpt lat="57.982954038307071" lon="-3.956334991380572">
        <ele>33.299999999999997</ele>
        <time>2019-09-02T11:30:17Z</time>
      </trkpt>
      <trkpt lat="57.98306099139154" lon="-3.956195013597608">
        <ele>33.780000000000001</ele>
        <time>2019-09-02T11:30:18Z</time>
      </trkpt>
      <trkpt lat="57.983156964182854" lon="-3.955998038873076">
        <ele>33.780000000000001</ele>
        <time>2019-09-02T11:30:19Z</time>
      </trkpt>
      <trkpt lat="57.983256038278341" lon="-3.955796035006642">
        <ele>34.259999999999998</ele>
        <time>2019-09-02T11:30:20Z</time>
      </trkpt>
      <trkpt lat="57.983356034383178" lon="-3.955590007826686">
        <ele>34.259999999999998</ele>
        <time>2019-09-02T11:30:21Z</time>
      </trkpt>
      <trkpt lat="57.984423972666264" lon="-3.953164033591747">
        <ele>37.630000000000003</ele>
        <time>2019-09-02T11:30:32Z</time>
      </trkpt>
      <trkpt lat="57.984493961557746" lon="-3.95293596200645">
        <ele>38.109999999999999</ele>
        <time>2019-09-02T11:30:33Z</time>
      </trkpt>
      <trkpt lat="57.984557999297976" lon="-3.952714009210467">
        <ele>39.07</ele>
        <time>2019-09-02T11:30:34Z</time>
      </trkpt>
      <trkpt lat="57.985063008964062" lon="-3.950057029724121">
        <ele>45.799999999999997</ele>
        <time>2019-09-02T11:30:44Z</time>
      </trkpt>
      <trkpt lat="57.985558966174722" lon="-3.947408013045788">
        <ele>49.649999999999999</ele>
        <time>2019-09-02T11:30:54Z</time>
      </trkpt>
      <trkpt lat="57.985969008877873" lon="-3.945118999108672">
        <ele>51.57</ele>
        <time>2019-09-02T11:31:02Z</time>
      </trkpt>
      <trkpt lat="57.98645599745214" lon="-3.942370992153883">
        <ele>52.530000000000001</ele>
        <time>2019-09-02T11:31:11Z</time>
      </trkpt>
      <trkpt lat="57.986833015456796" lon="-3.939631031826139">
        <ele>53.009999999999998</ele>
        <time>2019-09-02T11:31:19Z</time>
      </trkpt>
      <trkpt lat="57.986995037645102" lon="-3.936530984938145">
        <ele>48.68</ele>
        <time>2019-09-02T11:31:27Z</time>
      </trkpt>
      <trkpt lat="57.987185977399349" lon="-3.932398036122322">
        <ele>43.880000000000003</ele>
        <time>2019-09-02T11:31:38Z</time>
      </trkpt>
      <trkpt lat="57.987339030951262" lon="-3.928955001756549">
        <ele>40.990000000000002</ele>
        <time>2019-09-02T11:31:46Z</time>
      </trkpt>
      <trkpt lat="57.98757498152554" lon="-3.923679012805224">
        <ele>34.259999999999998</ele>
        <time>2019-09-02T11:31:58Z</time>
      </trkpt>
      <trkpt lat="57.987782014533877" lon="-3.919038036838174">
        <ele>30.420000000000002</ele>
        <time>2019-09-02T11:32:10Z</time>
      </trkpt>
      <trkpt lat="57.98774597235024" lon="-3.915966991335154">
        <ele>26.57</ele>
        <time>2019-09-02T11:32:19Z</time>
      </trkpt>
      <trkpt lat="57.987634995952249" lon="-3.912268979474902">
        <ele>22.25</ele>
        <time>2019-09-02T11:32:29Z</time>
      </trkpt>
      <trkpt lat="57.988062975928187" lon="-3.908852012827992">
        <ele>27.530000000000001</ele>
        <time>2019-09-02T11:32:39Z</time>
      </trkpt>
      <trkpt lat="57.988315019756556" lon="-3.90667699277401">
        <ele>26.09</ele>
        <time>2019-09-02T11:32:45Z</time>
      </trkpt>
      <trkpt lat="57.988379979506135" lon="-3.903451971709728">
        <ele>18.879999999999999</ele>
        <time>2019-09-02T11:32:53Z</time>
      </trkpt>
      <trkpt lat="57.98849699087441" lon="-3.899940960109234">
        <ele>17.440000000000001</ele>
        <time>2019-09-02T11:33:03Z</time>
      </trkpt>
      <trkpt lat="57.988750962540507" lon="-3.8982970174402">
        <ele>18.879999999999999</ele>
        <time>2019-09-02T11:33:08Z</time>
      </trkpt>
      <trkpt lat="57.989520002156496" lon="-3.896238002926111">
        <ele>20.809999999999999</ele>
        <time>2019-09-02T11:33:15Z</time>
      </trkpt>
      <trkpt lat="57.990650972351432" lon="-3.894818024709821">
        <ele>21.289999999999999</ele>
        <time>2019-09-02T11:33:22Z</time>
      </trkpt>
      <trkpt lat="57.992250993847847" lon="-3.893238035961986">
        <ele>20.809999999999999</ele>
        <time>2019-09-02T11:33:30Z</time>
      </trkpt>
      <trkpt lat="57.993898959830403" lon="-3.891350012272596">
        <ele>23.210000000000001</ele>
        <time>2019-09-02T11:33:38Z</time>
      </trkpt>
      <trkpt lat="57.995538963004947" lon="-3.889341037720442">
        <ele>24.170000000000002</ele>
        <time>2019-09-02T11:33:46Z</time>
      </trkpt>
      <trkpt lat="57.996921977028251" lon="-3.888133959844708">
        <ele>21.77</ele>
        <time>2019-09-02T11:33:54Z</time>
      </trkpt>
      <trkpt lat="57.998383026570082" lon="-3.886900981888175">
        <ele>16.48</ele>
        <time>2019-09-02T11:34:04Z</time>
      </trkpt>
      <trkpt lat="57.999319033697248" lon="-3.88598601333797">
        <ele>17.920000000000002</ele>
        <time>2019-09-02T11:34:11Z</time>
      </trkpt>
      <trkpt lat="57.999438978731632" lon="-3.88581502251327">
        <ele>17.920000000000002</ele>
        <time>2019-09-02T11:34:12Z</time>
      </trkpt>
      <trkpt lat="57.999552972614765" lon="-3.885623998939991">
        <ele>18.399999999999999</ele>
        <time>2019-09-02T11:34:13Z</time>
      </trkpt>
      <trkpt lat="57.999646011739969" lon="-3.885383019223809">
        <ele>18.879999999999999</ele>
        <time>2019-09-02T11:34:14Z</time>
      </trkpt>
      <trkpt lat="57.999745002016425" lon="-3.88512603007257">
        <ele>19.84</ele>
        <time>2019-09-02T11:34:15Z</time>
      </trkpt>
      <trkpt lat="57.999827982857823" lon="-3.884859988465905">
        <ele>19.84</ele>
        <time>2019-09-02T11:34:16Z</time>
      </trkpt>
      <trkpt lat="58.000931963324547" lon="-3.881051000207663">
        <ele>24.170000000000002</ele>
        <time>2019-09-02T11:34:28Z</time>
      </trkpt>
      <trkpt lat="58.002157984301448" lon="-3.876398960128427">
        <ele>24.649999999999999</ele>
        <time>2019-09-02T11:34:41Z</time>
      </trkpt>
      <trkpt lat="58.002886036410928" lon="-3.873573001474142">
        <ele>23.210000000000001</ele>
        <time>2019-09-02T11:34:50Z</time>
      </trkpt>
      <trkpt lat="58.004120020195842" lon="-3.868515025824308">
        <ele>21.77</ele>
        <time>2019-09-02T11:35:05Z</time>
      </trkpt>
      <trkpt lat="58.004985032603145" lon="-3.865414978936315">
        <ele>21.289999999999999</ele>
        <time>2019-09-02T11:35:14Z</time>
      </trkpt>
      <trkpt lat="58.005829006433487" lon="-3.864188035950065">
        <ele>20.809999999999999</ele>
        <time>2019-09-02T11:35:19Z</time>
      </trkpt>
      <trkpt lat="58.007400026544929" lon="-3.862685998901725">
        <ele>20.32</ele>
        <time>2019-09-02T11:35:28Z</time>
      </trkpt>
      <trkpt lat="58.008294962346554" lon="-3.861871026456356">
        <ele>18.879999999999999</ele>
        <time>2019-09-02T11:35:36Z</time>
      </trkpt>
      <trkpt lat="58.009563982486725" lon="-3.860718011856079">
        <ele>18.399999999999999</ele>
        <time>2019-09-02T11:35:49Z</time>
      </trkpt>
      <trkpt lat="58.010368980467319" lon="-3.859599027782679">
        <ele>19.359999999999999</ele>
        <time>2019-09-02T11:35:57Z</time>
      </trkpt>
      <trkpt lat="58.010438969358802" lon="-3.859379002824426">
        <ele>19.359999999999999</ele>
        <time>2019-09-02T11:35:58Z</time>
      </trkpt>
      <trkpt lat="58.010512981563807" lon="-3.859150009229779">
        <ele>19.359999999999999</ele>
        <time>2019-09-02T11:35:59Z</time>
      </trkpt>
      <trkpt lat="58.010667040944099" lon="-3.858670983463526">
        <ele>18.879999999999999</ele>
        <time>2019-09-02T11:36:01Z</time>
      </trkpt>
      <trkpt lat="58.010940961539745" lon="-3.857255028560758">
        <ele>16.960000000000001</ele>
        <time>2019-09-02T11:36:07Z</time>
      </trkpt>
      <trkpt lat="58.011114969849586" lon="-3.855559034273028">
        <ele>15.039999999999999</ele>
        <time>2019-09-02T11:36:16Z</time>
      </trkpt>
      <trkpt lat="58.011150006204844" lon="-3.855225015431643">
        <ele>13.6</ele>
        <time>2019-09-02T11:36:18Z</time>
      </trkpt>
      <trkpt lat="58.011299958452582" lon="-3.8542740046978">
        <ele>12.15</ele>
        <time>2019-09-02T11:36:23Z</time>
      </trkpt>
      <trkpt lat="58.011466003954411" lon="-3.853489961475134">
        <ele>11.67</ele>
        <time>2019-09-02T11:36:27Z</time>
      </trkpt>
      <trkpt lat="58.011518977582455" lon="-3.853336991742253">
        <ele>11.19</ele>
        <time>2019-09-02T11:36:28Z</time>
      </trkpt>
      <trkpt lat="58.01157102920115" lon="-3.853193996474147">
        <ele>10.710000000000001</ele>
        <time>2019-09-02T11:36:29Z</time>
      </trkpt>
      <trkpt lat="58.01165702752769" lon="-3.853107998147607">
        <ele>10.710000000000001</ele>
        <time>2019-09-02T11:36:30Z</time>
      </trkpt>
      <trkpt lat="58.011744031682611" lon="-3.853021999821067">
        <ele>10.710000000000001</ele>
        <time>2019-09-02T11:36:31Z</time>
      </trkpt>
      <trkpt lat="58.011844027787447" lon="-3.852940024808049">
        <ele>10.710000000000001</ele>
        <time>2019-09-02T11:36:32Z</time>
      </trkpt>
      <trkpt lat="58.011948969215155" lon="-3.852940024808049">
        <ele>11.19</ele>
        <time>2019-09-02T11:36:33Z</time>
      </trkpt>
      <trkpt lat="58.012056006118655" lon="-3.852959973737598">
        <ele>11.67</ele>
        <time>2019-09-02T11:36:34Z</time>
      </trkpt>
      <trkpt lat="58.012163965031505" lon="-3.85298796929419">
        <ele>12.15</ele>
        <time>2019-09-02T11:36:35Z</time>
      </trkpt>
      <trkpt lat="58.013256965205073" lon="-3.853331040591002">
        <ele>19.84</ele>
        <time>2019-09-02T11:36:45Z</time>
      </trkpt>
      <trkpt lat="58.015101989731193" lon="-3.854018021374941">
        <ele>20.32</ele>
        <time>2019-09-02T11:37:00Z</time>
      </trkpt>
      <trkpt lat="58.016566978767514" lon="-3.85459503158927">
        <ele>20.809999999999999</ele>
        <time>2019-09-02T11:37:12Z</time>
      </trkpt>
      <trkpt lat="58.018315024673939" lon="-3.855312019586563">
        <ele>19.84</ele>
        <time>2019-09-02T11:37:25Z</time>
      </trkpt>
      <trkpt lat="58.020096011459827" lon="-3.856043005362153">
        <ele>17.920000000000002</ele>
        <time>2019-09-02T11:37:37Z</time>
      </trkpt>
      <trkpt lat="58.021822012960911" lon="-3.856730991974473">
        <ele>16.960000000000001</ele>
        <time>2019-09-02T11:37:49Z</time>
      </trkpt>
      <trkpt lat="58.023684974759817" lon="-3.857446974143386">
        <ele>16.48</ele>
        <time>2019-09-02T11:38:02Z</time>
      </trkpt>
      <trkpt lat="58.023827970027924" lon="-3.857458960264921">
        <ele>16</ele>
        <time>2019-09-02T11:38:03Z</time>
      </trkpt>
      <trkpt lat="58.023965014144778" lon="-3.857453009113669">
        <ele>16</ele>
        <time>2019-09-02T11:38:04Z</time>
      </trkpt>
      <trkpt lat="58.024105997756124" lon="-3.857400035485625">
        <ele>15.52</ele>
        <time>2019-09-02T11:38:05Z</time>
      </trkpt>
      <trkpt lat="58.02424899302423" lon="-3.857346978038549">
        <ele>15.52</ele>
        <time>2019-09-02T11:38:06Z</time>
      </trkpt>
      <trkpt lat="58.024386037141085" lon="-3.857238013297319">
        <ele>15.52</ele>
        <time>2019-09-02T11:38:07Z</time>
      </trkpt>
      <trkpt lat="58.024528026580811" lon="-3.857113961130381">
        <ele>15.52</ele>
        <time>2019-09-02T11:38:08Z</time>
      </trkpt>
      <trkpt lat="58.025781037285924" lon="-3.855837984010577">
        <ele>14.08</ele>
        <time>2019-09-02T11:38:16Z</time>
      </trkpt>
      <trkpt lat="58.027433026582003" lon="-3.854097984731197">
        <ele>14.56</ele>
        <time>2019-09-02T11:38:26Z</time>
      </trkpt>
      <trkpt lat="58.028562990948558" lon="-3.852459993213415">
        <ele>12.15</ele>
        <time>2019-09-02T11:38:34Z</time>
      </trkpt>
      <trkpt lat="58.029690021649003" lon="-3.849855987355113">
        <ele>10.710000000000001</ele>
        <time>2019-09-02T11:38:44Z</time>
      </trkpt>
      <trkpt lat="58.030897015705705" lon="-3.846894996240735">
        <ele>6.87</ele>
        <time>2019-09-02T11:38:56Z</time>
      </trkpt>
      <trkpt lat="58.031680975109339" lon="-3.845309978350997">
        <ele>7.35</ele>
        <time>2019-09-02T11:39:05Z</time>
      </trkpt>
      <trkpt lat="58.03256400860846" lon="-3.843730995431542">
        <ele>7.35</ele>
        <time>2019-09-02T11:39:17Z</time>
      </trkpt>
      <trkpt lat="58.03310195915401" lon="-3.842771016061306">
        <ele>7.83</ele>
        <time>2019-09-02T11:39:28Z</time>
      </trkpt>
      <trkpt lat="58.033138001337647" lon="-3.842705972492695">
        <ele>7.83</ele>
        <time>2019-09-02T11:39:29Z</time>
      </trkpt>
      <trkpt lat="58.033172031864524" lon="-3.842645036056638">
        <ele>7.83</ele>
        <time>2019-09-02T11:39:30Z</time>
      </trkpt>
      <trkpt lat="58.033201033249497" lon="-3.842591978609562">
        <ele>8.310000000000001</ele>
        <time>2019-09-02T11:39:31Z</time>
      </trkpt>
      <trkpt lat="58.033231040462852" lon="-3.842540010809898">
        <ele>8.310000000000001</ele>
        <time>2019-09-02T11:39:32Z</time>
      </trkpt>
      <trkpt lat="58.033261969685555" lon="-3.842485025525093">
        <ele>8.310000000000001</ele>
        <time>2019-09-02T11:39:33Z</time>
      </trkpt>
      <trkpt lat="58.033390967175364" lon="-3.842254020273686">
        <ele>8.310000000000001</ele>
        <time>2019-09-02T11:39:42Z</time>
      </trkpt>
      <trkpt lat="58.033390967175364" lon="-3.842254020273686">
        <ele>8.310000000000001</ele>
        <time>2019-09-02T11:40:34Z</time>
      </trkpt>
      <trkpt lat="58.033390967175364" lon="-3.842254020273686">
        <ele>8.310000000000001</ele>
        <time>2019-09-02T11:41:21Z</time>
      </trkpt>
      <trkpt lat="58.033533040434122" lon="-3.842003988102078">
        <ele>8.310000000000001</ele>
        <time>2019-09-02T11:41:48Z</time>
      </trkpt>
      <trkpt lat="58.033708976581693" lon="-3.841694025322795">
        <ele>7.35</ele>
        <time>2019-09-02T11:41:52Z</time>
      </trkpt>
      <trkpt lat="58.033739989623427" lon="-3.841639962047339">
        <ele>7.35</ele>
        <time>2019-09-02T11:41:53Z</time>
      </trkpt>
      <trkpt lat="58.034012988209724" lon="-3.841159008443356">
        <ele>6.39</ele>
        <time>2019-09-02T11:42:04Z</time>
      </trkpt>
      <trkpt lat="58.034262014552951" lon="-3.840730022639036">
        <ele>4.94</ele>
        <time>2019-09-02T11:42:17Z</time>
      </trkpt>
      <trkpt lat="58.034759983420372" lon="-3.839872973039746">
        <ele>4.46</ele>
        <time>2019-09-02T11:42:29Z</time>
      </trkpt>
      <trkpt lat="58.035389967262745" lon="-3.839017013087869">
        <ele>3.5</ele>
        <time>2019-09-02T11:42:45Z</time>
      </trkpt>
      <trkpt lat="58.035880979150534" lon="-3.838477972894907">
        <ele>3.5</ele>
        <time>2019-09-02T11:42:58Z</time>
      </trkpt>
      <trkpt lat="58.036407027393579" lon="-3.838033983483911">
        <ele>3.98</ele>
        <time>2019-09-02T11:43:11Z</time>
      </trkpt>
      <trkpt lat="58.036670973524451" lon="-3.837696025148034">
        <ele>4.46</ele>
        <time>2019-09-02T11:43:21Z</time>
      </trkpt>
      <trkpt lat="58.036717996001244" lon="-3.837613966315985">
        <ele>4.94</ele>
        <time>2019-09-02T11:43:33Z</time>
      </trkpt>
      <trkpt lat="58.037052014842629" lon="-3.836940983310342">
        <ele>4.94</ele>
        <time>2019-09-02T11:43:40Z</time>
      </trkpt>
      <trkpt lat="58.037715023383498" lon="-3.835555035620928">
        <ele>5.42</ele>
        <time>2019-09-02T11:43:49Z</time>
      </trkpt>
      <trkpt lat="58.038695035502315" lon="-3.834290960803628">
        <ele>3.98</ele>
        <time>2019-09-02T11:43:59Z</time>
      </trkpt>
      <trkpt lat="58.040193971246481" lon="-3.832435961812735">
        <ele>3.02</ele>
        <time>2019-09-02T11:44:10Z</time>
      </trkpt>
      <trkpt lat="58.041472965851426" lon="-3.830080982297659">
        <ele>3.5</ele>
        <time>2019-09-02T11:44:20Z</time>
      </trkpt>
      <trkpt lat="58.042732011526823" lon="-3.827174976468086">
        <ele>6.39</ele>
        <time>2019-09-02T11:44:32Z</time>
      </trkpt>
      <trkpt lat="58.044041013345122" lon="-3.824527971446514">
        <ele>12.630000000000001</ele>
        <time>2019-09-02T11:44:43Z</time>
      </trkpt>
      <trkpt lat="58.045375999063253" lon="-3.821979034692049">
        <ele>17.440000000000001</ele>
        <time>2019-09-02T11:44:54Z</time>
      </trkpt>
      <trkpt lat="58.046561032533646" lon="-3.820183966308832">
        <ele>19.84</ele>
        <time>2019-09-02T11:45:03Z</time>
      </trkpt>
      <trkpt lat="58.048072960227728" lon="-3.818713026121259">
        <ele>24.170000000000002</ele>
        <time>2019-09-02T11:45:14Z</time>
      </trkpt>
      <trkpt lat="58.050100961700082" lon="-3.817239990457892">
        <ele>22.73</ele>
        <time>2019-09-02T11:45:27Z</time>
      </trkpt>
      <trkpt lat="58.051696037873626" lon="-3.815788999199867">
        <ele>20.32</ele>
        <time>2019-09-02T11:45:37Z</time>
      </trkpt>
      <trkpt lat="58.052944019436836" lon="-3.814136004075408">
        <ele>20.809999999999999</ele>
        <time>2019-09-02T11:45:46Z</time>
      </trkpt>
      <trkpt lat="58.054742021486163" lon="-3.81119797937572">
        <ele>33.299999999999997</ele>
        <time>2019-09-02T11:45:59Z</time>
      </trkpt>
      <trkpt lat="58.056554021313787" lon="-3.809479018673301">
        <ele>42.920000000000002</ele>
        <time>2019-09-02T11:46:10Z</time>
      </trkpt>
      <trkpt lat="58.058050023391843" lon="-3.807913027703762">
        <ele>50.609999999999999</ele>
        <time>2019-09-02T11:46:19Z</time>
      </trkpt>
      <trkpt lat="58.059503026306629" lon="-3.805789975449443">
        <ele>54.450000000000003</ele>
        <time>2019-09-02T11:46:29Z</time>
      </trkpt>
      <trkpt lat="58.061777958646417" lon="-3.80228097550571">
        <ele>53.009999999999998</ele>
        <time>2019-09-02T11:46:44Z</time>
      </trkpt>
      <trkpt lat="58.063796991482377" lon="-3.798613976687193">
        <ele>51.090000000000003</ele>
        <time>2019-09-02T11:46:58Z</time>
      </trkpt>
      <trkpt lat="58.065152009949088" lon="-3.796746991574764">
        <ele>49.159999999999997</ele>
        <time>2019-09-02T11:47:07Z</time>
      </trkpt>
      <trkpt lat="58.067018995061517" lon="-3.794916970655322">
        <ele>42.439999999999998</ele>
        <time>2019-09-02T11:47:19Z</time>
      </trkpt>
      <trkpt lat="58.068300001323223" lon="-3.79293498583138">
        <ele>34.259999999999998</ele>
        <time>2019-09-02T11:47:28Z</time>
      </trkpt>
      <trkpt lat="58.069529039785266" lon="-3.79061495885253">
        <ele>27.050000000000001</ele>
        <time>2019-09-02T11:47:38Z</time>
      </trkpt>
      <trkpt lat="58.070030026137829" lon="-3.788435999304056">
        <ele>27.050000000000001</ele>
        <time>2019-09-02T11:47:45Z</time>
      </trkpt>
      <trkpt lat="58.070056010037661" lon="-3.788095023483038">
        <ele>27.050000000000001</ele>
        <time>2019-09-02T11:47:46Z</time>
      </trkpt>
      <trkpt lat="58.070082999765873" lon="-3.787751030176878">
        <ele>27.050000000000001</ele>
        <time>2019-09-02T11:47:47Z</time>
      </trkpt>
      <trkpt lat="58.070067996159196" lon="-3.783249026164413">
        <ele>21.289999999999999</ele>
        <time>2019-09-02T11:48:00Z</time>
      </trkpt>
      <trkpt lat="58.070222977548838" lon="-3.779992992058396">
        <ele>14.08</ele>
        <time>2019-09-02T11:48:10Z</time>
      </trkpt>
      <trkpt lat="58.070777021348476" lon="-3.778028022497892">
        <ele>12.15</ele>
        <time>2019-09-02T11:48:17Z</time>
      </trkpt>
      <trkpt lat="58.071964988484979" lon="-3.775732973590493">
        <ele>10.23</ele>
        <time>2019-09-02T11:48:27Z</time>
      </trkpt>
      <trkpt lat="58.072574017569423" lon="-3.774750027805567">
        <ele>14.56</ele>
        <time>2019-09-02T11:48:34Z</time>
      </trkpt>
      <trkpt lat="58.073818981647491" lon="-3.772911038249731">
        <ele>27.050000000000001</ele>
        <time>2019-09-02T11:48:45Z</time>
      </trkpt>
      <trkpt lat="58.074486013501883" lon="-3.770699976012111">
        <ele>34.259999999999998</ele>
        <time>2019-09-02T11:48:53Z</time>
      </trkpt>
      <trkpt lat="58.07533903978765" lon="-3.76743296161294">
        <ele>45.799999999999997</ele>
        <time>2019-09-02T11:49:05Z</time>
      </trkpt>
      <trkpt lat="58.076428016647696" lon="-3.763291966170073">
        <ele>52.049999999999997</ele>
        <time>2019-09-02T11:49:19Z</time>
      </trkpt>
      <trkpt lat="58.076824983581901" lon="-3.761048968881369">
        <ele>52.049999999999997</ele>
        <time>2019-09-02T11:49:27Z</time>
      </trkpt>
      <trkpt lat="58.077006032690406" lon="-3.759839963167906">
        <ele>48.68</ele>
        <time>2019-09-02T11:49:33Z</time>
      </trkpt>
      <trkpt lat="58.077126983553171" lon="-3.759500999003649">
        <ele>48.200000000000003</ele>
        <time>2019-09-02T11:49:35Z</time>
      </trkpt>
      <trkpt lat="58.077873978763819" lon="-3.757369983941317">
        <ele>46.280000000000001</ele>
        <time>2019-09-02T11:49:45Z</time>
      </trkpt>
      <trkpt lat="58.078486025333405" lon="-3.755741966888309">
        <ele>46.280000000000001</ele>
        <time>2019-09-02T11:49:52Z</time>
      </trkpt>
      <trkpt lat="58.079375009983778" lon="-3.75404697842896">
        <ele>51.57</ele>
        <time>2019-09-02T11:50:01Z</time>
      </trkpt>
      <trkpt lat="58.079468971118331" lon="-3.753836005926132">
        <ele>52.049999999999997</ele>
        <time>2019-09-02T11:50:02Z</time>
      </trkpt>
      <trkpt lat="58.079534014686942" lon="-3.753579016774893">
        <ele>52.530000000000001</ele>
        <time>2019-09-02T11:50:03Z</time>
      </trkpt>
      <trkpt lat="58.079598974436522" lon="-3.753299983218312">
        <ele>53.009999999999998</ele>
        <time>2019-09-02T11:50:04Z</time>
      </trkpt>
      <trkpt lat="58.079665023833513" lon="-3.753019021824002">
        <ele>53.490000000000002</ele>
        <time>2019-09-02T11:50:05Z</time>
      </trkpt>
      <trkpt lat="58.080550990998745" lon="-3.749216990545392">
        <ele>54.93</ele>
        <time>2019-09-02T11:50:18Z</time>
      </trkpt>
      <trkpt lat="58.081225985661149" lon="-3.746473006904125">
        <ele>58.299999999999997</ele>
        <time>2019-09-02T11:50:28Z</time>
      </trkpt>
      <trkpt lat="58.08208798058331" lon="-3.744624964892864">
        <ele>59.259999999999998</ele>
        <time>2019-09-02T11:50:36Z</time>
      </trkpt>
      <trkpt lat="58.082532975822687" lon="-3.74381803907454">
        <ele>58.299999999999997</ele>
        <time>2019-09-02T11:50:40Z</time>
      </trkpt>
      <trkpt lat="58.082622997462749" lon="-3.743560966104269">
        <ele>57.82</ele>
        <time>2019-09-02T11:50:41Z</time>
      </trkpt>
      <trkpt lat="58.082717964425683" lon="-3.743289979174733">
        <ele>57.340000000000003</ele>
        <time>2019-09-02T11:50:42Z</time>
      </trkpt>
      <trkpt lat="58.083429001271725" lon="-3.740718998014927">
        <ele>55.890000000000001</ele>
        <time>2019-09-02T11:50:50Z</time>
      </trkpt>
      <trkpt lat="58.084217989817262" lon="-3.738149022683501">
        <ele>58.299999999999997</ele>
        <time>2019-09-02T11:50:58Z</time>
      </trkpt>
      <trkpt lat="58.085276037454605" lon="-3.7349250074476">
        <ele>65.030000000000001</ele>
        <time>2019-09-02T11:51:08Z</time>
      </trkpt>
      <trkpt lat="58.085965029895306" lon="-3.731117025017738">
        <ele>65.510000000000005</ele>
        <time>2019-09-02T11:51:18Z</time>
      </trkpt>
      <trkpt lat="58.086440032348037" lon="-3.727864008396864">
        <ele>63.579999999999998</ele>
        <time>2019-09-02T11:51:27Z</time>
      </trkpt>
      <trkpt lat="58.087148973718286" lon="-3.723662998527288">
        <ele>63.100000000000001</ele>
        <time>2019-09-02T11:51:39Z</time>
      </trkpt>
      <trkpt lat="58.087760014459491" lon="-3.720073029398918">
        <ele>60.700000000000003</ele>
        <time>2019-09-02T11:51:49Z</time>
      </trkpt>
      <trkpt lat="58.088912023231387" lon="-3.716090032830834">
        <ele>66.950000000000003</ele>
        <time>2019-09-02T11:52:01Z</time>
      </trkpt>
      <trkpt lat="58.090115999802947" lon="-3.713291985914111">
        <ele>69.829999999999998</ele>
        <time>2019-09-02T11:52:11Z</time>
      </trkpt>
      <trkpt lat="58.091234983876348" lon="-3.710802979767323">
        <ele>60.700000000000003</ele>
        <time>2019-09-02T11:52:20Z</time>
      </trkpt>
      <trkpt lat="58.092451030388474" lon="-3.708921996876597">
        <ele>56.369999999999997</ele>
        <time>2019-09-02T11:52:28Z</time>
      </trkpt>
      <trkpt lat="58.093649977818131" lon="-3.707518028095365">
        <ele>58.780000000000001</ele>
        <time>2019-09-02T11:52:37Z</time>
      </trkpt>
      <trkpt lat="58.094605011865497" lon="-3.705493966117501">
        <ele>57.82</ele>
        <time>2019-09-02T11:52:44Z</time>
      </trkpt>
      <trkpt lat="58.095499025657773" lon="-3.701519016176462">
        <ele>53.969999999999999</ele>
        <time>2019-09-02T11:52:55Z</time>
      </trkpt>
      <trkpt lat="58.096593031659722" lon="-3.697037966921926">
        <ele>48.200000000000003</ele>
        <time>2019-09-02T11:53:07Z</time>
      </trkpt>
      <trkpt lat="58.097630962729454" lon="-3.692861013114452">
        <ele>42.920000000000002</ele>
        <time>2019-09-02T11:53:19Z</time>
      </trkpt>
      <trkpt lat="58.098133960738778" lon="-3.690034970641136">
        <ele>39.549999999999997</ele>
        <time>2019-09-02T11:53:29Z</time>
      </trkpt>
      <trkpt lat="58.098560012876987" lon="-3.687358964234591">
        <ele>34.259999999999998</ele>
        <time>2019-09-02T11:53:40Z</time>
      </trkpt>
      <trkpt lat="58.098901994526386" lon="-3.684657979756594">
        <ele>28.5</ele>
        <time>2019-09-02T11:53:51Z</time>
      </trkpt>
      <trkpt lat="58.099203994497657" lon="-3.682839022949338">
        <ele>23.690000000000001</ele>
        <time>2019-09-02T11:54:00Z</time>
      </trkpt>
      <trkpt lat="58.099263003095984" lon="-3.682680018246174">
        <ele>23.210000000000001</ele>
        <time>2019-09-02T11:54:01Z</time>
      </trkpt>
      <trkpt lat="58.099329974502325" lon="-3.68250098079443">
        <ele>22.73</ele>
        <time>2019-09-02T11:54:02Z</time>
      </trkpt>
      <trkpt lat="58.099399041384459" lon="-3.682377012446523">
        <ele>22.25</ele>
        <time>2019-09-02T11:54:03Z</time>
      </trkpt>
      <trkpt lat="58.099479004740715" lon="-3.682233011350036">
        <ele>21.77</ele>
        <time>2019-09-02T11:54:04Z</time>
      </trkpt>
      <trkpt lat="58.099563997238874" lon="-3.682080963626504">
        <ele>20.809999999999999</ele>
        <time>2019-09-02T11:54:05Z</time>
      </trkpt>
      <trkpt lat="58.099801959469914" lon="-3.681595986708999">
        <ele>18.399999999999999</ele>
        <time>2019-09-02T11:54:08Z</time>
      </trkpt>
      <trkpt lat="58.099864991381764" lon="-3.681401023641229">
        <ele>17.440000000000001</ele>
        <time>2019-09-02T11:54:09Z</time>
      </trkpt>
      <trkpt lat="58.100532023236156" lon="-3.679240001365542">
        <ele>5.42</ele>
        <time>2019-09-02T11:54:19Z</time>
      </trkpt>
      <trkpt lat="58.100908035412431" lon="-3.67721501737833">
        <ele>3.5</ele>
        <time>2019-09-02T11:54:27Z</time>
      </trkpt>
      <trkpt lat="58.101526033133268" lon="-3.674827013164759">
        <ele>2.54</ele>
        <time>2019-09-02T11:54:36Z</time>
      </trkpt>
      <trkpt lat="58.10178603976965" lon="-3.673724960535765">
        <ele>2.06</ele>
        <time>2019-09-02T11:54:40Z</time>
      </trkpt>
      <trkpt lat="58.101858962327242" lon="-3.673517005518079">
        <ele>2.06</ele>
        <time>2019-09-02T11:54:41Z</time>
      </trkpt>
      <trkpt lat="58.101957030594349" lon="-3.673321036621928">
        <ele>2.06</ele>
        <time>2019-09-02T11:54:42Z</time>
      </trkpt>
      <trkpt lat="58.102979036048055" lon="-3.67184397764504">
        <ele>1.58</ele>
        <time>2019-09-02T11:54:50Z</time>
      </trkpt>
      <trkpt lat="58.104851972311735" lon="-3.670121999457479">
        <ele>3.5</ele>
        <time>2019-09-02T11:55:01Z</time>
      </trkpt>
      <trkpt lat="58.106835968792439" lon="-3.668349981307983">
        <ele>3.5</ele>
        <time>2019-09-02T11:55:12Z</time>
      </trkpt>
      <trkpt lat="58.108076993376017" lon="-3.666975013911724">
        <ele>3.02</ele>
        <time>2019-09-02T11:55:20Z</time>
      </trkpt>
      <trkpt lat="58.109161024913192" lon="-3.665001997724176">
        <ele>2.06</ele>
        <time>2019-09-02T11:55:27Z</time>
      </trkpt>
      <trkpt lat="58.110592989251018" lon="-3.66245498880744">
        <ele>3.5</ele>
        <time>2019-09-02T11:55:37Z</time>
      </trkpt>
      <trkpt lat="58.111099004745483" lon="-3.661882001906633">
        <ele>3.98</ele>
        <time>2019-09-02T11:55:40Z</time>
      </trkpt>
      <trkpt lat="58.112411024048924" lon="-3.660901989787817">
        <ele>4.46</ele>
        <time>2019-09-02T11:55:47Z</time>
      </trkpt>
      <trkpt lat="58.113494971767068" lon="-3.659491986036301">
        <ele>11.67</ele>
        <time>2019-09-02T11:55:54Z</time>
      </trkpt>
      <trkpt lat="58.114187987521291" lon="-3.657424002885819">
        <ele>17.920000000000002</ele>
        <time>2019-09-02T11:56:01Z</time>
      </trkpt>
      <trkpt lat="58.114599036052823" lon="-3.654426969587803">
        <ele>16.48</ele>
        <time>2019-09-02T11:56:10Z</time>
      </trkpt>
      <trkpt lat="58.115021986886859" lon="-3.65252997726202">
        <ele>12.15</ele>
        <time>2019-09-02T11:56:17Z</time>
      </trkpt>
      <trkpt lat="58.115820027887821" lon="-3.651013020426035">
        <ele>7.35</ele>
        <time>2019-09-02T11:56:25Z</time>
      </trkpt>
      <trkpt lat="58.116241972893476" lon="-3.650471968576312">
        <ele>4.94</ele>
        <time>2019-09-02T11:56:30Z</time>
      </trkpt>
      <trkpt lat="58.116320008412004" lon="-3.650375995784998">
        <ele>4.46</ele>
        <time>2019-09-02T11:56:31Z</time>
      </trkpt>
      <trkpt lat="58.117158031091094" lon="-3.649372011423111">
        <ele>6.87</ele>
        <time>2019-09-02T11:56:41Z</time>
      </trkpt>
      <trkpt lat="58.11783998273313" lon="-3.648480009287596">
        <ele>13.119999999999999</ele>
        <time>2019-09-02T11:56:50Z</time>
      </trkpt>
      <trkpt lat="58.117868984118104" lon="-3.648371966555715">
        <ele>13.6</ele>
        <time>2019-09-02T11:56:51Z</time>
      </trkpt>
      <trkpt lat="58.117898991331458" lon="-3.64823198877275">
        <ele>14.08</ele>
        <time>2019-09-02T11:56:52Z</time>
      </trkpt>
      <trkpt lat="58.117916006594896" lon="-3.648078013211489">
        <ele>15.039999999999999</ele>
        <time>2019-09-02T11:56:53Z</time>
      </trkpt>
      <trkpt lat="58.11792204156518" lon="-3.647893024608493">
        <ele>15.52</ele>
        <time>2019-09-02T11:56:54Z</time>
      </trkpt>
      <trkpt lat="58.117930004373193" lon="-3.647690014913678">
        <ele>16.48</ele>
        <time>2019-09-02T11:56:55Z</time>
      </trkpt>
      <trkpt lat="58.117911983281374" lon="-3.64539697766304">
        <ele>22.25</ele>
        <time>2019-09-02T11:57:04Z</time>
      </trkpt>
      <trkpt lat="58.117944002151489" lon="-3.64515800960362">
        <ele>22.73</ele>
        <time>2019-09-02T11:57:05Z</time>
      </trkpt>
      <trkpt lat="58.117977026849985" lon="-3.644907977432013">
        <ele>23.210000000000001</ele>
        <time>2019-09-02T11:57:06Z</time>
      </trkpt>
      <trkpt lat="58.11803201213479" lon="-3.644694993272424">
        <ele>23.690000000000001</ele>
        <time>2019-09-02T11:57:07Z</time>
      </trkpt>
      <trkpt lat="58.118092026561499" lon="-3.644467005506158">
        <ele>24.649999999999999</ele>
        <time>2019-09-02T11:57:08Z</time>
      </trkpt>
      <trkpt lat="58.118863999843597" lon="-3.641846990212798">
        <ele>38.109999999999999</ele>
        <time>2019-09-02T11:57:19Z</time>
      </trkpt>
      <trkpt lat="58.119379989802837" lon="-3.639756040647626">
        <ele>43.880000000000003</ele>
        <time>2019-09-02T11:57:27Z</time>
      </trkpt>
      <trkpt lat="58.119722977280617" lon="-3.637666013091803">
        <ele>45.32</ele>
        <time>2019-09-02T11:57:35Z</time>
      </trkpt>
      <trkpt lat="58.120010979473591" lon="-3.635732978582382">
        <ele>48.200000000000003</ele>
        <time>2019-09-02T11:57:45Z</time>
      </trkpt>
      <trkpt lat="58.120099995285273" lon="-3.635168038308621">
        <ele>49.649999999999999</ele>
        <time>2019-09-02T11:57:49Z</time>
      </trkpt>
      <trkpt lat="58.120173001661897" lon="-3.634775010868907">
        <ele>49.649999999999999</ele>
        <time>2019-09-02T11:57:53Z</time>
      </trkpt>
      <trkpt lat="58.120192028582096" lon="-3.634673003107309">
        <ele>49.649999999999999</ele>
        <time>2019-09-02T11:57:54Z</time>
      </trkpt>
      <trkpt lat="58.120312979444861" lon="-3.634301014244556">
        <ele>49.649999999999999</ele>
        <time>2019-09-02T11:57:58Z</time>
      </trkpt>
      <trkpt lat="58.120389003306627" lon="-3.634181991219521">
        <ele>49.649999999999999</ele>
        <time>2019-09-02T11:57:59Z</time>
      </trkpt>
      <trkpt lat="58.12043996527791" lon="-3.634187020361424">
        <ele>49.159999999999997</ele>
        <time>2019-09-02T11:58:00Z</time>
      </trkpt>
      <trkpt lat="58.120494028553367" lon="-3.634191965684295">
        <ele>49.159999999999997</ele>
        <time>2019-09-02T11:58:01Z</time>
      </trkpt>
      <trkpt lat="58.120572986081243" lon="-3.634200012311339">
        <ele>48.68</ele>
        <time>2019-09-02T11:58:02Z</time>
      </trkpt>
      <trkpt lat="58.120624031871557" lon="-3.634123988449574">
        <ele>48.200000000000003</ele>
        <time>2019-09-02T11:58:03Z</time>
      </trkpt>
      <trkpt lat="58.120658984407783" lon="-3.634071014821529">
        <ele>48.200000000000003</ele>
        <time>2019-09-02T11:58:04Z</time>
      </trkpt>
      <trkpt lat="58.120658984407783" lon="-3.633874040096998">
        <ele>48.200000000000003</ele>
        <time>2019-09-02T11:58:05Z</time>
      </trkpt>
      <trkpt lat="58.120726961642504" lon="-3.633686034008861">
        <ele>47.719999999999999</ele>
        <time>2019-09-02T11:58:06Z</time>
      </trkpt>
      <trkpt lat="58.120800973847508" lon="-3.633640017360449">
        <ele>48.200000000000003</ele>
        <time>2019-09-02T11:58:07Z</time>
      </trkpt>
      <trkpt lat="58.120884038507938" lon="-3.633587965741754">
        <ele>48.200000000000003</ele>
        <time>2019-09-02T11:58:08Z</time>
      </trkpt>
      <trkpt lat="58.120970958843827" lon="-3.633532980456948">
        <ele>48.200000000000003</ele>
        <time>2019-09-02T11:58:09Z</time>
      </trkpt>
      <trkpt lat="58.12106098048389" lon="-3.633476989343762">
        <ele>48.200000000000003</ele>
        <time>2019-09-02T11:58:10Z</time>
      </trkpt>
      <trkpt lat="58.122148029506207" lon="-3.632909031584859">
        <ele>47.240000000000002</ele>
        <time>2019-09-02T11:58:20Z</time>
      </trkpt>
      <trkpt lat="58.123061992228031" lon="-3.6328050121665">
        <ele>45.32</ele>
        <time>2019-09-02T11:58:29Z</time>
      </trkpt>
      <trkpt lat="58.123669009655714" lon="-3.632838036864996">
        <ele>43.399999999999999</ele>
        <time>2019-09-02T11:58:36Z</time>
      </trkpt>
      <trkpt lat="58.125049006193876" lon="-3.632880030199885">
        <ele>42.920000000000002</ele>
        <time>2019-09-02T11:58:45Z</time>
      </trkpt>
      <trkpt lat="58.12722503207624" lon="-3.632937027141452">
        <ele>54.450000000000003</ele>
        <time>2019-09-02T11:58:58Z</time>
      </trkpt>
      <trkpt lat="58.129003001376987" lon="-3.632578030228615">
        <ele>69.349999999999994</ele>
        <time>2019-09-02T11:59:08Z</time>
      </trkpt>
      <trkpt lat="58.13047201372683" lon="-3.631295012310147">
        <ele>83.769999999999996</ele>
        <time>2019-09-02T11:59:16Z</time>
      </trkpt>
      <trkpt lat="58.131673978641629" lon="-3.629262987524271">
        <ele>98.189999999999998</ele>
        <time>2019-09-02T11:59:24Z</time>
      </trkpt>
      <trkpt lat="58.132518958300352" lon="-3.626560997217894">
        <ele>113.56999999999999</ele>
        <time>2019-09-02T11:59:32Z</time>
      </trkpt>
      <trkpt lat="58.133024973794818" lon="-3.623232962563634">
        <ele>126.55</ele>
        <time>2019-09-02T11:59:40Z</time>
      </trkpt>
      <trkpt lat="58.133597038686275" lon="-3.62023500725627">
        <ele>132.31999999999999</ele>
        <time>2019-09-02T11:59:48Z</time>
      </trkpt>
      <trkpt lat="58.134588031098247" lon="-3.61759596504271">
        <ele>135.19999999999999</ele>
        <time>2019-09-02T11:59:56Z</time>
      </trkpt>
      <trkpt lat="58.135257996618748" lon="-3.614996988326311">
        <ele>146.74000000000001</ele>
        <time>2019-09-02T12:00:03Z</time>
      </trkpt>
      <trkpt lat="58.136374969035387" lon="-3.610738981515169">
        <ele>165.96000000000001</ele>
        <time>2019-09-02T12:00:15Z</time>
      </trkpt>
      <trkpt lat="58.136657020077109" lon="-3.610234977677465">
        <ele>168.37</ele>
        <time>2019-09-02T12:00:17Z</time>
      </trkpt>
      <trkpt lat="58.13680998980999" lon="-3.610005984082818">
        <ele>169.81</ele>
        <time>2019-09-02T12:00:18Z</time>
      </trkpt>
      <trkpt lat="58.136975029483438" lon="-3.6098169721663">
        <ele>170.77000000000001</ele>
        <time>2019-09-02T12:00:19Z</time>
      </trkpt>
      <trkpt lat="58.138022013008595" lon="-3.609110964462161">
        <ele>179.90000000000001</ele>
        <time>2019-09-02T12:00:25Z</time>
      </trkpt>
      <trkpt lat="58.139183996245265" lon="-3.609426962211728">
        <ele>190.96000000000001</ele>
        <time>2019-09-02T12:00:32Z</time>
      </trkpt>
      <trkpt lat="58.139347024261951" lon="-3.609541961923242">
        <ele>192.40000000000001</ele>
        <time>2019-09-02T12:00:33Z</time>
      </trkpt>
      <trkpt lat="58.140787035226822" lon="-3.61091198399663">
        <ele>199.13</ele>
        <time>2019-09-02T12:00:42Z</time>
      </trkpt>
      <trkpt lat="58.141489019617438" lon="-3.611407019197941">
        <ele>200.56999999999999</ele>
        <time>2019-09-02T12:00:48Z</time>
      </trkpt>
      <trkpt lat="58.141575017943978" lon="-3.611444989219308">
        <ele>200.56999999999999</ele>
        <time>2019-09-02T12:00:49Z</time>
      </trkpt>
      <trkpt lat="58.141665039584041" lon="-3.611462004482746">
        <ele>201.05000000000001</ele>
        <time>2019-09-02T12:00:50Z</time>
      </trkpt>
      <trkpt lat="58.141748020425439" lon="-3.611400984227657">
        <ele>201.05000000000001</ele>
        <time>2019-09-02T12:00:51Z</time>
      </trkpt>
      <trkpt lat="58.141829995438457" lon="-3.61134197562933">
        <ele>201.05000000000001</ele>
        <time>2019-09-02T12:00:52Z</time>
      </trkpt>
      <trkpt lat="58.141895961016417" lon="-3.611184982582927">
        <ele>201.05000000000001</ele>
        <time>2019-09-02T12:00:53Z</time>
      </trkpt>
      <trkpt lat="58.141914987936616" lon="-3.611034024506807">
        <ele>201.05000000000001</ele>
        <time>2019-09-02T12:00:54Z</time>
      </trkpt>
      <trkpt lat="58.141935020685196" lon="-3.610872002318502">
        <ele>200.56999999999999</ele>
        <time>2019-09-02T12:00:56Z</time>
      </trkpt>
      <trkpt lat="58.141905013471842" lon="-3.610511999577284">
        <ele>200.09</ele>
        <time>2019-09-02T12:00:57Z</time>
      </trkpt>
      <trkpt lat="58.141846004873514" lon="-3.610356012359262">
        <ele>200.09</ele>
        <time>2019-09-02T12:00:58Z</time>
      </trkpt>
      <trkpt lat="58.141766041517258" lon="-3.610168006271124">
        <ele>200.09</ele>
        <time>2019-09-02T12:00:59Z</time>
      </trkpt>
      <trkpt lat="58.141674008220434" lon="-3.609953010454774">
        <ele>200.09</ele>
        <time>2019-09-02T12:01:00Z</time>
      </trkpt>
      <trkpt lat="58.141036983579397" lon="-3.607845967635512">
        <ele>202.97999999999999</ele>
        <time>2019-09-02T12:01:07Z</time>
      </trkpt>
      <trkpt lat="58.140626018866897" lon="-3.605013974010944">
        <ele>205.86000000000001</ele>
        <time>2019-09-02T12:01:15Z</time>
      </trkpt>
      <trkpt lat="58.140760967507958" lon="-3.602460008114576">
        <ele>210.19</ele>
        <time>2019-09-02T12:01:23Z</time>
      </trkpt>
      <trkpt lat="58.140816958621144" lon="-3.602164965122938">
        <ele>210.66999999999999</ele>
        <time>2019-09-02T12:01:24Z</time>
      </trkpt>
      <trkpt lat="58.140893988311291" lon="-3.601904036477208">
        <ele>211.15000000000001</ele>
        <time>2019-09-02T12:01:25Z</time>
      </trkpt>
      <trkpt lat="58.140973029658198" lon="-3.601670013740659">
        <ele>211.63</ele>
        <time>2019-09-02T12:01:26Z</time>
      </trkpt>
      <trkpt lat="58.141046036034822" lon="-3.601450994610786">
        <ele>211.63</ele>
        <time>2019-09-02T12:01:27Z</time>
      </trkpt>
      <trkpt lat="58.141141002997756" lon="-3.601261982694268">
        <ele>212.11000000000001</ele>
        <time>2019-09-02T12:01:28Z</time>
      </trkpt>
      <trkpt lat="58.141238987445831" lon="-3.601095015183091">
        <ele>212.59</ele>
        <time>2019-09-02T12:01:29Z</time>
      </trkpt>
      <trkpt lat="58.141347030177712" lon="-3.600947996601462">
        <ele>213.06999999999999</ele>
        <time>2019-09-02T12:01:30Z</time>
      </trkpt>
      <trkpt lat="58.141347030177712" lon="-3.600947996601462">
        <ele>213.55000000000001</ele>
        <time>2019-09-02T12:01:31Z</time>
      </trkpt>
      <trkpt lat="58.141579041257501" lon="-3.600654965266585">
        <ele>214.03</ele>
        <time>2019-09-02T12:01:32Z</time>
      </trkpt>
      <trkpt lat="58.141720024868846" lon="-3.600604003295302">
        <ele>214.50999999999999</ele>
        <time>2019-09-02T12:01:33Z</time>
      </trkpt>
      <trkpt lat="58.141865031793714" lon="-3.600552035495639">
        <ele>215.47</ele>
        <time>2019-09-02T12:01:34Z</time>
      </trkpt>
      <trkpt lat="58.142013978213072" lon="-3.600497972220182">
        <ele>215.94999999999999</ele>
        <time>2019-09-02T12:01:35Z</time>
      </trkpt>
      <trkpt lat="58.142329975962639" lon="-3.600516999140382">
        <ele>217.40000000000001</ele>
        <time>2019-09-02T12:01:37Z</time>
      </trkpt>
      <trkpt lat="58.144025970250368" lon="-3.600739035755396">
        <ele>222.19999999999999</ele>
        <time>2019-09-02T12:01:47Z</time>
      </trkpt>
      <trkpt lat="58.144211964681745" lon="-3.600711962208152">
        <ele>222.19999999999999</ele>
        <time>2019-09-02T12:01:48Z</time>
      </trkpt>
      <trkpt lat="58.144396031275392" lon="-3.600653037428856">
        <ele>222.68000000000001</ele>
        <time>2019-09-02T12:01:49Z</time>
      </trkpt>
      <trkpt lat="58.144581019878387" lon="-3.600559998303652">
        <ele>222.68000000000001</ele>
        <time>2019-09-02T12:01:50Z</time>
      </trkpt>
      <trkpt lat="58.144749999046326" lon="-3.600397976115346">
        <ele>222.68000000000001</ele>
        <time>2019-09-02T12:01:51Z</time>
      </trkpt>
      <trkpt lat="58.144920989871025" lon="-3.600236037746072">
        <ele>222.68000000000001</ele>
        <time>2019-09-02T12:01:52Z</time>
      </trkpt>
      <trkpt lat="58.145086029544473" lon="-3.600053982809186">
        <ele>223.16</ele>
        <time>2019-09-02T12:01:53Z</time>
      </trkpt>
      <trkpt lat="58.145248973742127" lon="-3.599852984771133">
        <ele>223.16</ele>
        <time>2019-09-02T12:01:54Z</time>
      </trkpt>
      <trkpt lat="58.146787974983454" lon="-3.598322030156851">
        <ele>222.19999999999999</ele>
        <time>2019-09-02T12:02:03Z</time>
      </trkpt>
      <trkpt lat="58.148228991776705" lon="-3.597087962552905">
        <ele>223.63999999999999</ele>
        <time>2019-09-02T12:02:12Z</time>
      </trkpt>
      <trkpt lat="58.149133985862136" lon="-3.595427004620433">
        <ele>220.28</ele>
        <time>2019-09-02T12:02:20Z</time>
      </trkpt>
      <trkpt lat="58.149521984159946" lon="-3.594328975304961">
        <ele>216.91</ele>
        <time>2019-09-02T12:02:25Z</time>
      </trkpt>
      <trkpt lat="58.150339974090457" lon="-3.590964982286096">
        <ele>206.81999999999999</ele>
        <time>2019-09-02T12:02:35Z</time>
      </trkpt>
      <trkpt lat="58.150848001241684" lon="-3.589795036241412">
        <ele>204.41999999999999</ele>
        <time>2019-09-02T12:02:38Z</time>
      </trkpt>
      <trkpt lat="58.151929015293717" lon="-3.588300962001085">
        <ele>198.65000000000001</ele>
        <time>2019-09-02T12:02:45Z</time>
      </trkpt>
      <trkpt lat="58.153304988518357" lon="-3.587583974003792">
        <ele>191.44</ele>
        <time>2019-09-02T12:02:53Z</time>
      </trkpt>
      <trkpt lat="58.155097039416432" lon="-3.587669972330332">
        <ele>182.31</ele>
        <time>2019-09-02T12:03:02Z</time>
      </trkpt>
      <trkpt lat="58.156983973458409" lon="-3.588674040511251">
        <ele>171.72999999999999</ele>
        <time>2019-09-02T12:03:12Z</time>
      </trkpt>
      <trkpt lat="58.158712992444634" lon="-3.589070001617074">
        <ele>161.16</ele>
        <time>2019-09-02T12:03:21Z</time>
      </trkpt>
      <trkpt lat="58.160145040601492" lon="-3.58843800611794">
        <ele>154.43000000000001</ele>
        <time>2019-09-02T12:03:29Z</time>
      </trkpt>
      <trkpt lat="58.16151799634099" lon="-3.587460005655885">
        <ele>147.22</ele>
        <time>2019-09-02T12:03:37Z</time>
      </trkpt>
      <trkpt lat="58.161827037110925" lon="-3.587221037596464">
        <ele>145.78</ele>
        <time>2019-09-02T12:03:39Z</time>
      </trkpt>
      <trkpt lat="58.162702023983002" lon="-3.585935002192855">
        <ele>142.88999999999999</ele>
        <time>2019-09-02T12:03:46Z</time>
      </trkpt>
      <trkpt lat="58.16289103589952" lon="-3.585424963384867">
        <ele>142.88999999999999</ele>
        <time>2019-09-02T12:03:48Z</time>
      </trkpt>
      <trkpt lat="58.162969993427396" lon="-3.585135033354163">
        <ele>143.37</ele>
        <time>2019-09-02T12:03:49Z</time>
      </trkpt>
      <trkpt lat="58.163150958716869" lon="-3.583829971030355">
        <ele>143.84999999999999</ele>
        <time>2019-09-02T12:03:53Z</time>
      </trkpt>
      <trkpt lat="58.163183983415365" lon="-3.583147013559938">
        <ele>143.84999999999999</ele>
        <time>2019-09-02T12:03:55Z</time>
      </trkpt>
      <trkpt lat="58.163159005343914" lon="-3.582812994718552">
        <ele>144.34</ele>
        <time>2019-09-02T12:03:56Z</time>
      </trkpt>
      <trkpt lat="58.162837978452444" lon="-3.579128980636597">
        <ele>144.81999999999999</ele>
        <time>2019-09-02T12:04:06Z</time>
      </trkpt>
      <trkpt lat="58.162887012585998" lon="-3.575975960120559">
        <ele>143.37</ele>
        <time>2019-09-02T12:04:14Z</time>
      </trkpt>
      <trkpt lat="58.163424963131547" lon="-3.572019031271339">
        <ele>141.44999999999999</ele>
        <time>2019-09-02T12:04:24Z</time>
      </trkpt>
      <trkpt lat="58.163541974499822" lon="-3.568761991336942">
        <ele>140.00999999999999</ele>
        <time>2019-09-02T12:04:32Z</time>
      </trkpt>
      <trkpt lat="58.163262018933892" lon="-3.564988039433956">
        <ele>147.22</ele>
        <time>2019-09-02T12:04:41Z</time>
      </trkpt>
      <trkpt lat="58.16317199729383" lon="-3.563120970502496">
        <ele>152.03</ele>
        <time>2019-09-02T12:04:46Z</time>
      </trkpt>
      <trkpt lat="58.163398979231715" lon="-3.560015978291631">
        <ele>159.72</ele>
        <time>2019-09-02T12:04:54Z</time>
      </trkpt>
      <trkpt lat="58.163875993341208" lon="-3.556604962795973">
        <ele>165.47999999999999</ele>
        <time>2019-09-02T12:05:03Z</time>
      </trkpt>
      <trkpt lat="58.164228033274412" lon="-3.555618999525905">
        <ele>167.41</ele>
        <time>2019-09-02T12:05:06Z</time>
      </trkpt>
      <trkpt lat="58.164373962208629" lon="-3.555324962362647">
        <ele>168.37</ele>
        <time>2019-09-02T12:05:07Z</time>
      </trkpt>
      <trkpt lat="58.165862001478672" lon="-3.552778037264943">
        <ele>176.53999999999999</ele>
        <time>2019-09-02T12:05:16Z</time>
      </trkpt>
      <trkpt lat="58.166693989187479" lon="-3.550231028348208">
        <ele>179.41999999999999</ele>
        <time>2019-09-02T12:05:23Z</time>
      </trkpt>
      <trkpt lat="58.167982036247849" lon="-3.545164000242949">
        <ele>170.28999999999999</ele>
        <time>2019-09-02T12:05:35Z</time>
      </trkpt>
      <trkpt lat="58.169087022542953" lon="-3.540968019515276">
        <ele>164.52000000000001</ele>
        <time>2019-09-02T12:05:46Z</time>
      </trkpt>
      <trkpt lat="58.169601000845432" lon="-3.537854980677366">
        <ele>162.59999999999999</ele>
        <time>2019-09-02T12:05:55Z</time>
      </trkpt>
      <trkpt lat="58.169827982783318" lon="-3.534116987138987">
        <ele>161.16</ele>
        <time>2019-09-02T12:06:04Z</time>
      </trkpt>
      <trkpt lat="58.17019703797996" lon="-3.530671019107103">
        <ele>158.75</ele>
        <time>2019-09-02T12:06:12Z</time>
      </trkpt>
      <trkpt lat="58.1708840187639" lon="-3.527644984424114">
        <ele>155.87</ele>
        <time>2019-09-02T12:06:20Z</time>
      </trkpt>
      <trkpt lat="58.171607963740826" lon="-3.525339961051941">
        <ele>152.99000000000001</ele>
        <time>2019-09-02T12:06:28Z</time>
      </trkpt>
      <trkpt lat="58.172795008867979" lon="-3.523194026201963">
        <ele>148.18000000000001</ele>
        <time>2019-09-02T12:06:36Z</time>
      </trkpt>
      <trkpt lat="58.174621006473899" lon="-3.520795041695237">
        <ele>143.37</ele>
        <time>2019-09-02T12:06:47Z</time>
      </trkpt>
      <trkpt lat="58.174784034490585" lon="-3.520580967888236">
        <ele>143.37</ele>
        <time>2019-09-02T12:06:48Z</time>
      </trkpt>
      <trkpt lat="58.175745019689202" lon="-3.519260985776782">
        <ele>143.84999999999999</ele>
        <time>2019-09-02T12:06:55Z</time>
      </trkpt>
      <trkpt lat="58.177125016227365" lon="-3.517207000404596">
        <ele>138.56999999999999</ele>
        <time>2019-09-02T12:07:06Z</time>
      </trkpt>
      <trkpt lat="58.177421987056732" lon="-3.516667960211635">
        <ele>136.16</ele>
        <time>2019-09-02T12:07:09Z</time>
      </trkpt>
      <trkpt lat="58.177675036713481" lon="-3.516035964712501">
        <ele>133.28</ele>
        <time>2019-09-02T12:07:12Z</time>
      </trkpt>
      <trkpt lat="58.177733039483428" lon="-3.515778975561261">
        <ele>132.31999999999999</ele>
        <time>2019-09-02T12:07:13Z</time>
      </trkpt>
      <trkpt lat="58.177859019488096" lon="-3.515229960903525">
        <ele>129.91999999999999</ele>
        <time>2019-09-02T12:07:15Z</time>
      </trkpt>
      <trkpt lat="58.178274007514119" lon="-3.51218800060451">
        <ele>109.73</ele>
        <time>2019-09-02T12:07:25Z</time>
      </trkpt>
      <trkpt lat="58.17842798307538" lon="-3.511572014540434">
        <ele>104.92</ele>
        <time>2019-09-02T12:07:27Z</time>
      </trkpt>
      <trkpt lat="58.178510963916779" lon="-3.511239001527429">
        <ele>102.52</ele>
        <time>2019-09-02T12:07:28Z</time>
      </trkpt>
      <trkpt lat="58.17943599075079" lon="-3.508900031447411">
        <ele>80.409999999999997</ele>
        <time>2019-09-02T12:07:36Z</time>
      </trkpt>
      <trkpt lat="58.180592022836208" lon="-3.507075039669871">
        <ele>60.219999999999999</ele>
        <time>2019-09-02T12:07:45Z</time>
      </trkpt>
      <trkpt lat="58.181250002235174" lon="-3.506303988397121">
        <ele>51.57</ele>
        <time>2019-09-02T12:07:51Z</time>
      </trkpt>
      <trkpt lat="58.181322002783418" lon="-3.506166022270918">
        <ele>50.609999999999999</ele>
        <time>2019-09-02T12:07:52Z</time>
      </trkpt>
      <trkpt lat="58.181395009160042" lon="-3.506025960668922">
        <ele>49.159999999999997</ele>
        <time>2019-09-02T12:07:53Z</time>
      </trkpt>
      <trkpt lat="58.181470027193427" lon="-3.505882965400815">
        <ele>48.200000000000003</ele>
        <time>2019-09-02T12:07:54Z</time>
      </trkpt>
      <trkpt lat="58.181521994993091" lon="-3.50571901537478">
        <ele>46.759999999999998</ele>
        <time>2019-09-02T12:07:55Z</time>
      </trkpt>
      <trkpt lat="58.181576980277896" lon="-3.505546012893319">
        <ele>45.799999999999997</ele>
        <time>2019-09-02T12:07:56Z</time>
      </trkpt>
      <trkpt lat="58.181613022461534" lon="-3.505347026512027">
        <ele>44.840000000000003</ele>
        <time>2019-09-02T12:07:57Z</time>
      </trkpt>
      <trkpt lat="58.181635988876224" lon="-3.505132030695677">
        <ele>43.880000000000003</ele>
        <time>2019-09-02T12:07:58Z</time>
      </trkpt>
      <trkpt lat="58.181662978604436" lon="-3.504875041544437">
        <ele>42.920000000000002</ele>
        <time>2019-09-02T12:07:59Z</time>
      </trkpt>
      <trkpt lat="58.181669013574719" lon="-3.504656022414565">
        <ele>42.439999999999998</ele>
        <time>2019-09-02T12:08:00Z</time>
      </trkpt>
      <trkpt lat="58.181674964725971" lon="-3.504405990242958">
        <ele>41.469999999999999</ele>
        <time>2019-09-02T12:08:01Z</time>
      </trkpt>
      <trkpt lat="58.181693991646171" lon="-3.503912966698408">
        <ele>39.07</ele>
        <time>2019-09-02T12:08:03Z</time>
      </trkpt>
      <trkpt lat="58.181715030223131" lon="-3.503670981153846">
        <ele>38.109999999999999</ele>
        <time>2019-09-02T12:08:04Z</time>
      </trkpt>
      <trkpt lat="58.181746965274215" lon="-3.503435030579567">
        <ele>36.670000000000002</ele>
        <time>2019-09-02T12:08:05Z</time>
      </trkpt>
      <trkpt lat="58.181797005236149" lon="-3.503213999792934">
        <ele>35.229999999999997</ele>
        <time>2019-09-02T12:08:06Z</time>
      </trkpt>
      <trkpt lat="58.181847967207432" lon="-3.502991041168571">
        <ele>33.299999999999997</ele>
        <time>2019-09-02T12:08:07Z</time>
      </trkpt>
      <trkpt lat="58.181904964148998" lon="-3.502763975411654">
        <ele>31.379999999999999</ele>
        <time>2019-09-02T12:08:08Z</time>
      </trkpt>
      <trkpt lat="58.182591022923589" lon="-3.500487031415105">
        <ele>11.67</ele>
        <time>2019-09-02T12:08:19Z</time>
      </trkpt>
      <trkpt lat="58.182646008208394" lon="-3.500377982854843">
        <ele>10.23</ele>
        <time>2019-09-02T12:08:20Z</time>
      </trkpt>
      <trkpt lat="58.182703005149961" lon="-3.500303970649838">
        <ele>8.789999999999999</ele>
        <time>2019-09-02T12:08:21Z</time>
      </trkpt>
      <trkpt lat="58.182773999869823" lon="-3.500250997021794">
        <ele>7.83</ele>
        <time>2019-09-02T12:08:22Z</time>
      </trkpt>
      <trkpt lat="58.182843988761306" lon="-3.500200035050511">
        <ele>6.39</ele>
        <time>2019-09-02T12:08:23Z</time>
      </trkpt>
      <trkpt lat="58.182928981259465" lon="-3.500162987038493">
        <ele>4.94</ele>
        <time>2019-09-02T12:08:24Z</time>
      </trkpt>
      <trkpt lat="58.183007016777992" lon="-3.500195005908608">
        <ele>3.98</ele>
        <time>2019-09-02T12:08:25Z</time>
      </trkpt>
      <trkpt lat="58.183080023154616" lon="-3.500226018950343">
        <ele>2.54</ele>
        <time>2019-09-02T12:08:26Z</time>
      </trkpt>
      <trkpt lat="58.183165015652776" lon="-3.500260971486569">
        <ele>1.1</ele>
        <time>2019-09-02T12:08:27Z</time>
      </trkpt>
      <trkpt lat="58.183212038129568" lon="-3.500308999791741">
        <ele>0.14</ele>
        <time>2019-09-02T12:08:28Z</time>
      </trkpt>
      <trkpt lat="58.183265011757612" lon="-3.500368008390069">
        <ele>-1.3</ele>
        <time>2019-09-02T12:08:29Z</time>
      </trkpt>
      <trkpt lat="58.183546978980303" lon="-3.500772016122937">
        <ele>-14.279999999999999</ele>
        <time>2019-09-02T12:08:40Z</time>
      </trkpt>
      <trkpt lat="58.183546978980303" lon="-3.500772016122937">
        <ele>-15.720000000000001</ele>
        <time>2019-09-02T12:08:52Z</time>
      </trkpt>
      <trkpt lat="58.183546978980303" lon="-3.500772016122937">
        <ele>-15.720000000000001</ele>
        <time>2019-09-02T12:09:20Z</time>
      </trkpt>
      <trkpt lat="58.183546978980303" lon="-3.500772016122937">
        <ele>-16.690000000000001</ele>
        <time>2019-09-02T12:09:57Z</time>
      </trkpt>
      <trkpt lat="58.183716963976622" lon="-3.500895984470844">
        <ele>-15.24</ele>
        <time>2019-09-02T12:10:08Z</time>
      </trkpt>
      <trkpt lat="58.183775972574949" lon="-3.500909982249141">
        <ele>-14.279999999999999</ele>
        <time>2019-09-02T12:10:09Z</time>
      </trkpt>
      <trkpt lat="58.183842021971941" lon="-3.500923980027437">
        <ele>-13.800000000000001</ele>
        <time>2019-09-02T12:10:10Z</time>
      </trkpt>
      <trkpt lat="58.183965990319848" lon="-3.50095197558403">
        <ele>-12.359999999999999</ele>
        <time>2019-09-02T12:10:12Z</time>
      </trkpt>
      <trkpt lat="58.184045031666756" lon="-3.500968990847468">
        <ele>-11.4</ele>
        <time>2019-09-02T12:10:13Z</time>
      </trkpt>
      <trkpt lat="58.184706028550863" lon="-3.50080001167953">
        <ele>-10.44</ele>
        <time>2019-09-02T12:10:23Z</time>
      </trkpt>
      <trkpt lat="58.184817004948854" lon="-3.500745026394725">
        <ele>-9.960000000000001</ele>
        <time>2019-09-02T12:10:25Z</time>
      </trkpt>
      <trkpt lat="58.184881964698434" lon="-3.500712001696229">
        <ele>-9.48</ele>
        <time>2019-09-02T12:10:26Z</time>
      </trkpt>
      <trkpt lat="58.184904009103775" lon="-3.500664979219437">
        <ele>-8.51</ele>
        <time>2019-09-02T12:10:27Z</time>
      </trkpt>
      <trkpt lat="58.184947008267045" lon="-3.500573029741645">
        <ele>-8.029999999999999</ele>
        <time>2019-09-02T12:10:28Z</time>
      </trkpt>
      <trkpt lat="58.184989001601934" lon="-3.500482002273202">
        <ele>-7.07</ele>
        <time>2019-09-02T12:10:29Z</time>
      </trkpt>
      <trkpt lat="58.185032000765204" lon="-3.500389968976378">
        <ele>-6.59</ele>
        <time>2019-09-02T12:10:30Z</time>
      </trkpt>
      <trkpt lat="58.18502495996654" lon="-3.500316040590406">
        <ele>-5.63</ele>
        <time>2019-09-02T12:10:31Z</time>
      </trkpt>
      <trkpt lat="58.185014985501766" lon="-3.500199029222131">
        <ele>-4.67</ele>
        <time>2019-09-02T12:10:32Z</time>
      </trkpt>
      <trkpt lat="58.185002999380231" lon="-3.500073971226811">
        <ele>-3.71</ele>
        <time>2019-09-02T12:10:33Z</time>
      </trkpt>
      <trkpt lat="58.184989001601934" lon="-3.499917984008789">
        <ele>-2.75</ele>
        <time>2019-09-02T12:10:34Z</time>
      </trkpt>
      <trkpt lat="58.184946002438664" lon="-3.499835003167391">
        <ele>-1.3</ele>
        <time>2019-09-02T12:10:35Z</time>
      </trkpt>
      <trkpt lat="58.184879031032324" lon="-3.499708017334342">
        <ele>0.14</ele>
        <time>2019-09-02T12:10:36Z</time>
      </trkpt>
      <trkpt lat="58.1842499691993" lon="-3.498535975813866">
        <ele>10.710000000000001</ele>
        <time>2019-09-02T12:10:44Z</time>
      </trkpt>
      <trkpt lat="58.184191966429353" lon="-3.498355010524392">
        <ele>13.119999999999999</ele>
        <time>2019-09-02T12:10:46Z</time>
      </trkpt>
      <trkpt lat="58.184172017499804" lon="-3.498293990269303">
        <ele>14.56</ele>
        <time>2019-09-02T12:10:47Z</time>
      </trkpt>
      <trkpt lat="58.184157013893127" lon="-3.498246967792511">
        <ele>16</ele>
        <time>2019-09-02T12:10:48Z</time>
      </trkpt>
      <trkpt lat="58.183998009189963" lon="-3.497600974515081">
        <ele>28.5</ele>
        <time>2019-09-02T12:10:59Z</time>
      </trkpt>
      <trkpt lat="58.184038996696472" lon="-3.497497960925102">
        <ele>30.420000000000002</ele>
        <time>2019-09-02T12:11:01Z</time>
      </trkpt>
      <trkpt lat="58.184084007516503" lon="-3.497437024489045">
        <ele>31.379999999999999</ele>
        <time>2019-09-02T12:11:02Z</time>
      </trkpt>
      <trkpt lat="58.184122983366251" lon="-3.497456973418593">
        <ele>32.340000000000003</ele>
        <time>2019-09-02T12:11:03Z</time>
      </trkpt>
      <trkpt lat="58.184194983914495" lon="-3.497493015602231">
        <ele>32.82</ele>
        <time>2019-09-02T12:11:04Z</time>
      </trkpt>
      <trkpt lat="58.18422700278461" lon="-3.497540960088372">
        <ele>33.780000000000001</ele>
        <time>2019-09-02T12:11:05Z</time>
      </trkpt>
      <trkpt lat="58.184277964755893" lon="-3.497617989778519">
        <ele>34.740000000000002</ele>
        <time>2019-09-02T12:11:06Z</time>
      </trkpt>
      <trkpt lat="58.184616006910801" lon="-3.498155018314719">
        <ele>39.07</ele>
        <time>2019-09-02T12:11:11Z</time>
      </trkpt>
      <trkpt lat="58.184616006910801" lon="-3.498155018314719">
        <ele>40.030000000000001</ele>
        <time>2019-09-02T12:11:12Z</time>
      </trkpt>
      <trkpt lat="58.185540027916431" lon="-3.498713001608849">
        <ele>49.649999999999999</ele>
        <time>2019-09-02T12:11:20Z</time>
      </trkpt>
      <trkpt lat="58.18616297096014" lon="-3.49878097884357">
        <ele>55.890000000000001</ele>
        <time>2019-09-02T12:11:26Z</time>
      </trkpt>
      <trkpt lat="58.186351982876658" lon="-3.498687017709017">
        <ele>57.82</ele>
        <time>2019-09-02T12:11:28Z</time>
      </trkpt>
      <trkpt lat="58.186447033658624" lon="-3.498622979968786">
        <ele>58.299999999999997</ele>
        <time>2019-09-02T12:11:29Z</time>
      </trkpt>
      <trkpt lat="58.187570041045547" lon="-3.497863998636603">
        <ele>68.390000000000001</ele>
        <time>2019-09-02T12:11:39Z</time>
      </trkpt>
      <trkpt lat="58.188328016549349" lon="-3.4972960408777">
        <ele>76.079999999999998</ele>
        <time>2019-09-02T12:11:45Z</time>
      </trkpt>
      <trkpt lat="58.188529014587402" lon="-3.497089007869363">
        <ele>78.969999999999999</ele>
        <time>2019-09-02T12:11:47Z</time>
      </trkpt>
      <trkpt lat="58.188614007085562" lon="-3.496949030086398">
        <ele>79.930000000000007</ele>
        <time>2019-09-02T12:11:48Z</time>
      </trkpt>
      <trkpt lat="58.189117005094886" lon="-3.496125005185604">
        <ele>87.140000000000001</ele>
        <time>2019-09-02T12:11:54Z</time>
      </trkpt>
      <trkpt lat="58.189203003421426" lon="-3.495985027402639">
        <ele>88.579999999999998</ele>
        <time>2019-09-02T12:11:55Z</time>
      </trkpt>
      <trkpt lat="58.189297970384359" lon="-3.495862986892462">
        <ele>90.019999999999996</ele>
        <time>2019-09-02T12:11:56Z</time>
      </trkpt>
      <trkpt lat="58.190076984465122" lon="-3.495027981698513">
        <ele>100.59999999999999</ele>
        <time>2019-09-02T12:12:03Z</time>
      </trkpt>
      <trkpt lat="58.1901799980551" lon="-3.494863025844097">
        <ele>101.56</ele>
        <time>2019-09-02T12:12:04Z</time>
      </trkpt>
      <trkpt lat="58.190263984724879" lon="-3.494662027806044">
        <ele>103</ele>
        <time>2019-09-02T12:12:05Z</time>
      </trkpt>
      <trkpt lat="58.190349983051419" lon="-3.494456000626087">
        <ele>103.95999999999999</ele>
        <time>2019-09-02T12:12:06Z</time>
      </trkpt>
      <trkpt lat="58.19046095944941" lon="-3.494189037010074">
        <ele>104.92</ele>
        <time>2019-09-02T12:12:07Z</time>
      </trkpt>
      <trkpt lat="58.190505970269442" lon="-3.494001030921936">
        <ele>105.88</ele>
        <time>2019-09-02T12:12:08Z</time>
      </trkpt>
      <trkpt lat="58.19056598469615" lon="-3.493748987093568">
        <ele>106.84</ele>
        <time>2019-09-02T12:12:09Z</time>
      </trkpt>
      <trkpt lat="58.190615018829703" lon="-3.493464002385736">
        <ele>107.81</ele>
        <time>2019-09-02T12:12:10Z</time>
      </trkpt>
      <trkpt lat="58.190795984119177" lon="-3.492392040789127">
        <ele>112.61</ele>
        <time>2019-09-02T12:12:14Z</time>
      </trkpt>
      <trkpt lat="58.190863961353898" lon="-3.492179978638887">
        <ele>114.05</ele>
        <time>2019-09-02T12:12:15Z</time>
      </trkpt>
      <trkpt lat="58.190941996872425" lon="-3.49196900613606">
        <ele>115.01000000000001</ele>
        <time>2019-09-02T12:12:16Z</time>
      </trkpt>
      <trkpt lat="58.19101701490581" lon="-3.491762978956103">
        <ele>115.98</ele>
        <time>2019-09-02T12:12:17Z</time>
      </trkpt>
      <trkpt lat="58.191120028495789" lon="-3.491609003394842">
        <ele>117.42</ele>
        <time>2019-09-02T12:12:18Z</time>
      </trkpt>
      <trkpt lat="58.191236034035683" lon="-3.491477994248271">
        <ele>118.86</ele>
        <time>2019-09-02T12:12:19Z</time>
      </trkpt>
      <trkpt lat="58.191362014040351" lon="-3.491334998980165">
        <ele>119.81999999999999</ele>
        <time>2019-09-02T12:12:20Z</time>
      </trkpt>
      <trkpt lat="58.191481959074736" lon="-3.491262998431921">
        <ele>121.26000000000001</ele>
        <time>2019-09-02T12:12:21Z</time>
      </trkpt>
      <trkpt lat="58.191609028726816" lon="-3.491199966520071">
        <ele>122.22</ele>
        <time>2019-09-02T12:12:22Z</time>
      </trkpt>
      <trkpt lat="58.191726040095091" lon="-3.491177000105381">
        <ele>123.19</ele>
        <time>2019-09-02T12:12:23Z</time>
      </trkpt>
      <trkpt lat="58.191826036199927" lon="-3.491157973185182">
        <ele>124.15000000000001</ele>
        <time>2019-09-02T12:12:24Z</time>
      </trkpt>
      <trkpt lat="58.192953988909721" lon="-3.490840969607234">
        <ele>133.75999999999999</ele>
        <time>2019-09-02T12:12:35Z</time>
      </trkpt>
      <trkpt lat="58.194059981033206" lon="-3.489849977195263">
        <ele>141.44999999999999</ele>
        <time>2019-09-02T12:12:47Z</time>
      </trkpt>
      <trkpt lat="58.194837989285588" lon="-3.488525971770287">
        <ele>140.97</ele>
        <time>2019-09-02T12:12:54Z</time>
      </trkpt>
      <trkpt lat="58.195623038336635" lon="-3.485920960083604">
        <ele>144.34</ele>
        <time>2019-09-02T12:13:04Z</time>
      </trkpt>
      <trkpt lat="58.196598021313548" lon="-3.482978995889425">
        <ele>150.58000000000001</ele>
        <time>2019-09-02T12:13:15Z</time>
      </trkpt>
      <trkpt lat="58.197577027603984" lon="-3.48174300044775">
        <ele>151.06</ele>
        <time>2019-09-02T12:13:22Z</time>
      </trkpt>
      <trkpt lat="58.199319960549474" lon="-3.480207016691566">
        <ele>146.74000000000001</ele>
        <time>2019-09-02T12:13:35Z</time>
      </trkpt>
      <trkpt lat="58.200800959020853" lon="-3.479506960138679">
        <ele>142.88999999999999</ele>
        <time>2019-09-02T12:13:46Z</time>
      </trkpt>
      <trkpt lat="58.202356975525618" lon="-3.479058025404811">
        <ele>138.56999999999999</ele>
        <time>2019-09-02T12:13:56Z</time>
      </trkpt>
      <trkpt lat="58.203762033954263" lon="-3.478829031810165">
        <ele>137.13</ele>
        <time>2019-09-02T12:14:07Z</time>
      </trkpt>
      <trkpt lat="58.204717990010977" lon="-3.479064982384443">
        <ele>138.09</ele>
        <time>2019-09-02T12:14:16Z</time>
      </trkpt>
      <trkpt lat="58.204842964187264" lon="-3.479109993204474">
        <ele>138.56999999999999</ele>
        <time>2019-09-02T12:14:17Z</time>
      </trkpt>
      <trkpt lat="58.204954024404287" lon="-3.479223987087607">
        <ele>138.56999999999999</ele>
        <time>2019-09-02T12:14:18Z</time>
      </trkpt>
      <trkpt lat="58.20506801828742" lon="-3.479342004284263">
        <ele>138.09</ele>
        <time>2019-09-02T12:14:19Z</time>
      </trkpt>
      <trkpt lat="58.205187963321805" lon="-3.479464966803789">
        <ele>138.09</ele>
        <time>2019-09-02T12:14:20Z</time>
      </trkpt>
      <trkpt lat="58.205846026539803" lon="-3.480013981461525">
        <ele>137.61000000000001</ele>
        <time>2019-09-02T12:14:25Z</time>
      </trkpt>
      <trkpt lat="58.205986004322767" lon="-3.480032002553344">
        <ele>137.61000000000001</ele>
        <time>2019-09-02T12:14:26Z</time>
      </trkpt>
      <trkpt lat="58.206133022904396" lon="-3.480038959532976">
        <ele>137.61000000000001</ele>
        <time>2019-09-02T12:14:27Z</time>
      </trkpt>
      <trkpt lat="58.207556018605828" lon="-3.479569992050529">
        <ele>135.19999999999999</ele>
        <time>2019-09-02T12:14:36Z</time>
      </trkpt>
      <trkpt lat="58.207864975556731" lon="-3.479434959590435">
        <ele>134.72</ele>
        <time>2019-09-02T12:14:38Z</time>
      </trkpt>
      <trkpt lat="58.208012999966741" lon="-3.479436971247196">
        <ele>134.72</ele>
        <time>2019-09-02T12:14:39Z</time>
      </trkpt>
      <trkpt lat="58.208157001063228" lon="-3.479455998167396">
        <ele>134.24000000000001</ele>
        <time>2019-09-02T12:14:40Z</time>
      </trkpt>
      <trkpt lat="58.208293961361051" lon="-3.479535039514303">
        <ele>134.72</ele>
        <time>2019-09-02T12:14:41Z</time>
      </trkpt>
      <trkpt lat="58.208429999649525" lon="-3.479612991213799">
        <ele>134.72</ele>
        <time>2019-09-02T12:14:42Z</time>
      </trkpt>
      <trkpt lat="58.208566959947348" lon="-3.479692032560706">
        <ele>134.72</ele>
        <time>2019-09-02T12:14:43Z</time>
      </trkpt>
      <trkpt lat="58.208702998235822" lon="-3.479769984260202">
        <ele>134.72</ele>
        <time>2019-09-02T12:14:44Z</time>
      </trkpt>
      <trkpt lat="58.208838030695915" lon="-3.479848019778729">
        <ele>134.24000000000001</ele>
        <time>2019-09-02T12:14:45Z</time>
      </trkpt>
      <trkpt lat="58.208985971286893" lon="-3.479860005900264">
        <ele>134.24000000000001</ele>
        <time>2019-09-02T12:14:46Z</time>
      </trkpt>
      <trkpt lat="58.209138019010425" lon="-3.479866962879896">
        <ele>134.24000000000001</ele>
        <time>2019-09-02T12:14:47Z</time>
      </trkpt>
      <trkpt lat="58.209294006228447" lon="-3.47987299785018">
        <ele>134.24000000000001</ele>
        <time>2019-09-02T12:14:48Z</time>
      </trkpt>
      <trkpt lat="58.210898973047733" lon="-3.4795300103724">
        <ele>131.84</ele>
        <time>2019-09-02T12:14:57Z</time>
      </trkpt>
      <trkpt lat="58.21260997094214" lon="-3.479396989569068">
        <ele>127.98999999999999</ele>
        <time>2019-09-02T12:15:07Z</time>
      </trkpt>
      <trkpt lat="58.212763024494052" lon="-3.479442000389099">
        <ele>127.98999999999999</ele>
        <time>2019-09-02T12:15:08Z</time>
      </trkpt>
      <trkpt lat="58.212912976741791" lon="-3.479522969573736">
        <ele>127.51000000000001</ele>
        <time>2019-09-02T12:15:09Z</time>
      </trkpt>
      <trkpt lat="58.213350009173155" lon="-3.479762021452189">
        <ele>127.03</ele>
        <time>2019-09-02T12:15:12Z</time>
      </trkpt>
      <trkpt lat="58.213500967249274" lon="-3.479797979816794">
        <ele>127.03</ele>
        <time>2019-09-02T12:15:13Z</time>
      </trkpt>
      <trkpt lat="58.213657038286328" lon="-3.479760009795427">
        <ele>127.03</ele>
        <time>2019-09-02T12:15:14Z</time>
      </trkpt>
      <trkpt lat="58.213816964998841" lon="-3.47972203977406">
        <ele>127.03</ele>
        <time>2019-09-02T12:15:15Z</time>
      </trkpt>
      <trkpt lat="58.213977981358767" lon="-3.479682980105281">
        <ele>127.03</ele>
        <time>2019-09-02T12:15:16Z</time>
      </trkpt>
      <trkpt lat="58.214136986061931" lon="-3.47959597595036">
        <ele>127.03</ele>
        <time>2019-09-02T12:15:17Z</time>
      </trkpt>
      <trkpt lat="58.214290961623192" lon="-3.479455998167396">
        <ele>127.03</ele>
        <time>2019-09-02T12:15:18Z</time>
      </trkpt>
      <trkpt lat="58.214446026831865" lon="-3.47931501455605">
        <ele>127.03</ele>
        <time>2019-09-02T12:15:19Z</time>
      </trkpt>
      <trkpt lat="58.214601008221507" lon="-3.479152992367744">
        <ele>127.03</ele>
        <time>2019-09-02T12:15:20Z</time>
      </trkpt>
      <trkpt lat="58.215799033641815" lon="-3.477347027510405">
        <ele>123.67</ele>
        <time>2019-09-02T12:15:28Z</time>
      </trkpt>
      <trkpt lat="58.217129996046424" lon="-3.474083030596376">
        <ele>119.81999999999999</ele>
        <time>2019-09-02T12:15:39Z</time>
      </trkpt>
      <trkpt lat="58.218274964019656" lon="-3.470579981803894">
        <ele>124.15000000000001</ele>
        <time>2019-09-02T12:15:51Z</time>
      </trkpt>
      <trkpt lat="58.219457985833287" lon="-3.466502018272877">
        <ele>126.06999999999999</ele>
        <time>2019-09-02T12:16:05Z</time>
      </trkpt>
      <trkpt lat="58.220357028767467" lon="-3.463946040719748">
        <ele>121.26000000000001</ele>
        <time>2019-09-02T12:16:14Z</time>
      </trkpt>
      <trkpt lat="58.221312984824181" lon="-3.461517971009016">
        <ele>116.94</ele>
        <time>2019-09-02T12:16:22Z</time>
      </trkpt>
      <trkpt lat="58.222210016101599" lon="-3.459077998995781">
        <ele>117.42</ele>
        <time>2019-09-02T12:16:30Z</time>
      </trkpt>
      <trkpt lat="58.223536033183336" lon="-3.456341978162527">
        <ele>112.61</ele>
        <time>2019-09-02T12:16:40Z</time>
      </trkpt>
      <trkpt lat="58.224259978160262" lon="-3.454866008833051">
        <ele>108.77</ele>
        <time>2019-09-02T12:16:46Z</time>
      </trkpt>
      <trkpt lat="58.225729996338487" lon="-3.452989971265197">
        <ele>103</ele>
        <time>2019-09-02T12:16:56Z</time>
      </trkpt>
      <trkpt lat="58.226695004850626" lon="-3.450980996713042">
        <ele>102.52</ele>
        <time>2019-09-02T12:17:04Z</time>
      </trkpt>
      <trkpt lat="58.227080991491675" lon="-3.449513996019959">
        <ele>103</ele>
        <time>2019-09-02T12:17:10Z</time>
      </trkpt>
      <trkpt lat="58.227169001474977" lon="-3.449303023517132">
        <ele>103</ele>
        <time>2019-09-02T12:17:11Z</time>
      </trkpt>
      <trkpt lat="58.2272610347718" lon="-3.44908501021564">
        <ele>103</ele>
        <time>2019-09-02T12:17:12Z</time>
      </trkpt>
      <trkpt lat="58.227362036705017" lon="-3.448938997462392">
        <ele>103</ele>
        <time>2019-09-02T12:17:13Z</time>
      </trkpt>
      <trkpt lat="58.227453986182809" lon="-3.44880597665906">
        <ele>102.52</ele>
        <time>2019-09-02T12:17:14Z</time>
      </trkpt>
      <trkpt lat="58.227581977844238" lon="-3.448691982775927">
        <ele>102.52</ele>
        <time>2019-09-02T12:17:15Z</time>
      </trkpt>
      <trkpt lat="58.227702006697655" lon="-3.448585029691458">
        <ele>102.04000000000001</ele>
        <time>2019-09-02T12:17:16Z</time>
      </trkpt>
      <trkpt lat="58.227825975045562" lon="-3.448474975302815">
        <ele>102.04000000000001</ele>
        <time>2019-09-02T12:17:17Z</time>
      </trkpt>
      <trkpt lat="58.22956002317369" lon="-3.446939997375011">
        <ele>96.269999999999996</ele>
        <time>2019-09-02T12:17:29Z</time>
      </trkpt>
      <trkpt lat="58.229878032580018" lon="-3.446757020428777">
        <ele>94.829999999999998</ele>
        <time>2019-09-02T12:17:31Z</time>
      </trkpt>
      <trkpt lat="58.230043994262815" lon="-3.446704968810082">
        <ele>93.870000000000005</ele>
        <time>2019-09-02T12:17:32Z</time>
      </trkpt>
      <trkpt lat="58.230509022250772" lon="-3.446525009348989">
        <ele>91.939999999999998</ele>
        <time>2019-09-02T12:17:35Z</time>
      </trkpt>
      <trkpt lat="58.230643970891833" lon="-3.446392994374037">
        <ele>91.459999999999994</ele>
        <time>2019-09-02T12:17:36Z</time>
      </trkpt>
      <trkpt lat="58.230779003351927" lon="-3.446261985227466">
        <ele>90.5</ele>
        <time>2019-09-02T12:17:37Z</time>
      </trkpt>
      <trkpt lat="58.231837972998619" lon="-3.445434020832181">
        <ele>87.620000000000005</ele>
        <time>2019-09-02T12:17:45Z</time>
      </trkpt>
      <trkpt lat="58.233388960361481" lon="-3.444796996191144">
        <ele>84.25</ele>
        <time>2019-09-02T12:17:56Z</time>
      </trkpt>
      <trkpt lat="58.234537029638886" lon="-3.44440296292305">
        <ele>81.370000000000005</ele>
        <time>2019-09-02T12:18:05Z</time>
      </trkpt>
      <trkpt lat="58.236040994524956" lon="-3.444135999307036">
        <ele>78.969999999999999</ele>
        <time>2019-09-02T12:18:14Z</time>
      </trkpt>
      <trkpt lat="58.23765903711319" lon="-3.444460965692997">
        <ele>78.480000000000004</ele>
        <time>2019-09-02T12:18:23Z</time>
      </trkpt>
      <trkpt lat="58.240581974387169" lon="-3.445324972271919">
        <ele>87.140000000000001</ele>
        <time>2019-09-02T12:18:37Z</time>
      </trkpt>
      <trkpt lat="58.242358015850186" lon="-3.445297982543707">
        <ele>88.579999999999998</ele>
        <time>2019-09-02T12:18:45Z</time>
      </trkpt>
      <trkpt lat="58.243843037635088" lon="-3.444346971809864">
        <ele>86.659999999999997</ele>
        <time>2019-09-02T12:18:52Z</time>
      </trkpt>
      <trkpt lat="58.24483503587544" lon="-3.443083986639977">
        <ele>84.25</ele>
        <time>2019-09-02T12:18:59Z</time>
      </trkpt>
      <trkpt lat="58.245909009128809" lon="-3.441670965403318">
        <ele>80.409999999999997</ele>
        <time>2019-09-02T12:19:09Z</time>
      </trkpt>
      <trkpt lat="58.247485980391502" lon="-3.439319003373385">
        <ele>63.100000000000001</ele>
        <time>2019-09-02T12:19:23Z</time>
      </trkpt>
      <trkpt lat="58.24825300835073" lon="-3.43718103133142">
        <ele>47.240000000000002</ele>
        <time>2019-09-02T12:19:32Z</time>
      </trkpt>
      <trkpt lat="58.248715018853545" lon="-3.434564033523202">
        <ele>31.379999999999999</ele>
        <time>2019-09-02T12:19:42Z</time>
      </trkpt>
      <trkpt lat="58.248744020238519" lon="-3.431843016296625">
        <ele>20.809999999999999</ele>
        <time>2019-09-02T12:19:50Z</time>
      </trkpt>
      <trkpt lat="58.248583003878593" lon="-3.427783995866776">
        <ele>21.77</ele>
        <time>2019-09-02T12:20:01Z</time>
      </trkpt>
      <trkpt lat="58.248442020267248" lon="-3.424455961212516">
        <ele>26.57</ele>
        <time>2019-09-02T12:20:11Z</time>
      </trkpt>
      <trkpt lat="58.248478984460235" lon="-3.42353998683393">
        <ele>28.5</ele>
        <time>2019-09-02T12:20:14Z</time>
      </trkpt>
      <trkpt lat="58.248519971966743" lon="-3.42325902543962">
        <ele>29.460000000000001</ele>
        <time>2019-09-02T12:20:15Z</time>
      </trkpt>
      <trkpt lat="58.248570011928678" lon="-3.422986026853323">
        <ele>30.420000000000002</ele>
        <time>2019-09-02T12:20:16Z</time>
      </trkpt>
      <trkpt lat="58.248649975284934" lon="-3.422747980803251">
        <ele>31.379999999999999</ele>
        <time>2019-09-02T12:20:17Z</time>
      </trkpt>
      <trkpt lat="58.248749971389771" lon="-3.422539019957185">
        <ele>32.340000000000003</ele>
        <time>2019-09-02T12:20:18Z</time>
      </trkpt>
      <trkpt lat="58.248861031606793" lon="-3.422342967242003">
        <ele>33.299999999999997</ele>
        <time>2019-09-02T12:20:19Z</time>
      </trkpt>
      <trkpt lat="58.248976031318307" lon="-3.422140963375568">
        <ele>33.780000000000001</ele>
        <time>2019-09-02T12:20:20Z</time>
      </trkpt>
      <trkpt lat="58.25035803951323" lon="-3.420336004346609">
        <ele>42.439999999999998</ele>
        <time>2019-09-02T12:20:30Z</time>
      </trkpt>
      <trkpt lat="58.25222896412015" lon="-3.417895026504993">
        <ele>49.649999999999999</ele>
        <time>2019-09-02T12:20:43Z</time>
      </trkpt>
      <trkpt lat="58.253326993435621" lon="-3.415995016694069">
        <ele>58.299999999999997</ele>
        <time>2019-09-02T12:20:52Z</time>
      </trkpt>
      <trkpt lat="58.254393003880978" lon="-3.413200993090868">
        <ele>58.299999999999997</ele>
        <time>2019-09-02T12:21:03Z</time>
      </trkpt>
      <trkpt lat="58.2556679751724" lon="-3.410345027223229">
        <ele>64.069999999999993</ele>
        <time>2019-09-02T12:21:17Z</time>
      </trkpt>
      <trkpt lat="58.25678301975131" lon="-3.40884299017489">
        <ele>70.790000000000006</ele>
        <time>2019-09-02T12:21:27Z</time>
      </trkpt>
      <trkpt lat="58.258223030716181" lon="-3.407372971996665">
        <ele>80.890000000000001</ele>
        <time>2019-09-02T12:21:37Z</time>
      </trkpt>
      <trkpt lat="58.259545024484396" lon="-3.405525013804436">
        <ele>88.099999999999994</ele>
        <time>2019-09-02T12:21:46Z</time>
      </trkpt>
      <trkpt lat="58.260827036574483" lon="-3.403060985729098">
        <ele>88.099999999999994</ele>
        <time>2019-09-02T12:21:55Z</time>
      </trkpt>
      <trkpt lat="58.262717993929982" lon="-3.399264989420772">
        <ele>89.540000000000006</ele>
        <time>2019-09-02T12:22:08Z</time>
      </trkpt>
      <trkpt lat="58.264312986284494" lon="-3.396447999402881">
        <ele>86.659999999999997</ele>
        <time>2019-09-02T12:22:20Z</time>
      </trkpt>
      <trkpt lat="58.265976961702108" lon="-3.394783018156886">
        <ele>79.450000000000003</ele>
        <time>2019-09-02T12:22:30Z</time>
      </trkpt>
      <trkpt lat="58.267667004838586" lon="-3.393669985234737">
        <ele>73.680000000000007</ele>
        <time>2019-09-02T12:22:41Z</time>
      </trkpt>
      <trkpt lat="58.26945997774601" lon="-3.393185008317232">
        <ele>65.510000000000005</ele>
        <time>2019-09-02T12:22:51Z</time>
      </trkpt>
      <trkpt lat="58.271582024171948" lon="-3.392656026408076">
        <ele>59.740000000000002</ele>
        <time>2019-09-02T12:23:02Z</time>
      </trkpt>
      <trkpt lat="58.273238958790898" lon="-3.391790008172393">
        <ele>56.369999999999997</ele>
        <time>2019-09-02T12:23:12Z</time>
      </trkpt>
      <trkpt lat="58.274827999994159" lon="-3.390629030764103">
        <ele>48.68</ele>
        <time>2019-09-02T12:23:23Z</time>
      </trkpt>
      <trkpt lat="58.275750009343028" lon="-3.389494037255645">
        <ele>40.990000000000002</ele>
        <time>2019-09-02T12:23:31Z</time>
      </trkpt>
      <trkpt lat="58.27644101344049" lon="-3.387669967487454">
        <ele>41.469999999999999</ele>
        <time>2019-09-02T12:23:40Z</time>
      </trkpt>
      <trkpt lat="58.27665600925684" lon="-3.385566025972366">
        <ele>50.609999999999999</ele>
        <time>2019-09-02T12:23:48Z</time>
      </trkpt>
      <trkpt lat="58.276554001495242" lon="-3.382937964051962">
        <ele>61.659999999999997</ele>
        <time>2019-09-02T12:23:57Z</time>
      </trkpt>
      <trkpt lat="58.276562970131636" lon="-3.382328012958169">
        <ele>64.549999999999997</ele>
        <time>2019-09-02T12:23:59Z</time>
      </trkpt>
      <trkpt lat="58.276834962889552" lon="-3.378827981650829">
        <ele>77.519999999999996</ele>
        <time>2019-09-02T12:24:10Z</time>
      </trkpt>
      <trkpt lat="58.277120031416416" lon="-3.375070039182901">
        <ele>83.290000000000006</ele>
        <time>2019-09-02T12:24:22Z</time>
      </trkpt>
      <trkpt lat="58.277437034994364" lon="-3.37300599552691">
        <ele>82.329999999999998</ele>
        <time>2019-09-02T12:24:30Z</time>
      </trkpt>
      <trkpt lat="58.27770902775228" lon="-3.371580988168716">
        <ele>80.409999999999997</ele>
        <time>2019-09-02T12:24:36Z</time>
      </trkpt>
      <trkpt lat="58.277782034128904" lon="-3.371355012059212">
        <ele>79.930000000000007</ele>
        <time>2019-09-02T12:24:37Z</time>
      </trkpt>
      <trkpt lat="58.277873983606696" lon="-3.371149990707636">
        <ele>79.450000000000003</ele>
        <time>2019-09-02T12:24:38Z</time>
      </trkpt>
      <trkpt lat="58.277969034388661" lon="-3.370938012376428">
        <ele>78.969999999999999</ele>
        <time>2019-09-02T12:24:39Z</time>
      </trkpt>
      <trkpt lat="58.278087973594666" lon="-3.370767021551728">
        <ele>78.480000000000004</ele>
        <time>2019-09-02T12:24:40Z</time>
      </trkpt>
      <trkpt lat="58.27822501771152" lon="-3.370624026283622">
        <ele>78</ele>
        <time>2019-09-02T12:24:41Z</time>
      </trkpt>
      <trkpt lat="58.278364995494485" lon="-3.370478013530374">
        <ele>77.519999999999996</ele>
        <time>2019-09-02T12:24:42Z</time>
      </trkpt>
      <trkpt lat="58.279518010094762" lon="-3.369461037218571">
        <ele>76.560000000000002</ele>
        <time>2019-09-02T12:24:50Z</time>
      </trkpt>
      <trkpt lat="58.279663017019629" lon="-3.369381995871663">
        <ele>76.560000000000002</ele>
        <time>2019-09-02T12:24:51Z</time>
      </trkpt>
      <trkpt lat="58.279813975095749" lon="-3.369345031678677">
        <ele>76.560000000000002</ele>
        <time>2019-09-02T12:24:52Z</time>
      </trkpt>
      <trkpt lat="58.279967028647661" lon="-3.369338996708393">
        <ele>77.040000000000006</ele>
        <time>2019-09-02T12:24:53Z</time>
      </trkpt>
      <trkpt lat="58.279967028647661" lon="-3.369338996708393">
        <ele>77.040000000000006</ele>
        <time>2019-09-02T12:24:54Z</time>
      </trkpt>
      <trkpt lat="58.280765991657972" lon="-3.369308989495039">
        <ele>75.599999999999994</ele>
        <time>2019-09-02T12:24:59Z</time>
      </trkpt>
      <trkpt lat="58.28213500790298" lon="-3.368695015087724">
        <ele>71.269999999999996</ele>
        <time>2019-09-02T12:25:11Z</time>
      </trkpt>
      <trkpt lat="58.282547984272242" lon="-3.368383040651679">
        <ele>69.829999999999998</ele>
        <time>2019-09-02T12:25:15Z</time>
      </trkpt>
      <trkpt lat="58.282923996448517" lon="-3.367834025993943">
        <ele>69.349999999999994</ele>
        <time>2019-09-02T12:25:19Z</time>
      </trkpt>
      <trkpt lat="58.282985016703606" lon="-3.367635039612651">
        <ele>69.349999999999994</ele>
        <time>2019-09-02T12:25:20Z</time>
      </trkpt>
      <trkpt lat="58.283036984503269" lon="-3.367429012432694">
        <ele>69.829999999999998</ele>
        <time>2019-09-02T12:25:21Z</time>
      </trkpt>
      <trkpt lat="58.283089036121964" lon="-3.367220973595977">
        <ele>70.310000000000002</ele>
        <time>2019-09-02T12:25:22Z</time>
      </trkpt>
      <trkpt lat="58.283136980608106" lon="-3.36699198000133">
        <ele>70.790000000000006</ele>
        <time>2019-09-02T12:25:23Z</time>
      </trkpt>
      <trkpt lat="58.283136980608106" lon="-3.36675301194191">
        <ele>71.269999999999996</ele>
        <time>2019-09-02T12:25:24Z</time>
      </trkpt>
      <trkpt lat="58.283136980608106" lon="-3.366503985598683">
        <ele>72.239999999999995</ele>
        <time>2019-09-02T12:25:25Z</time>
      </trkpt>
      <trkpt lat="58.283116025850177" lon="-3.366248002275825">
        <ele>73.200000000000003</ele>
        <time>2019-09-02T12:25:26Z</time>
      </trkpt>
      <trkpt lat="58.283084006980062" lon="-3.365986989811063">
        <ele>74.159999999999997</ele>
        <time>2019-09-02T12:25:27Z</time>
      </trkpt>
      <trkpt lat="58.283040001988411" lon="-3.365722037851811">
        <ele>75.120000000000005</ele>
        <time>2019-09-02T12:25:28Z</time>
      </trkpt>
      <trkpt lat="58.28299599699676" lon="-3.365454990416765">
        <ele>76.079999999999998</ele>
        <time>2019-09-02T12:25:29Z</time>
      </trkpt>
      <trkpt lat="58.282600035890937" lon="-3.362202979624271">
        <ele>85.209999999999994</ele>
        <time>2019-09-02T12:25:41Z</time>
      </trkpt>
      <trkpt lat="58.282827017828822" lon="-3.360124016180635">
        <ele>85.689999999999998</ele>
        <time>2019-09-02T12:25:48Z</time>
      </trkpt>
      <trkpt lat="58.283264972269535" lon="-3.357987971976399">
        <ele>86.180000000000007</ele>
        <time>2019-09-02T12:25:56Z</time>
      </trkpt>
      <trkpt lat="58.284008027985692" lon="-3.355364017188549">
        <ele>84.25</ele>
        <time>2019-09-02T12:26:07Z</time>
      </trkpt>
      <trkpt lat="58.285083007067442" lon="-3.352041011676192">
        <ele>79.450000000000003</ele>
        <time>2019-09-02T12:26:21Z</time>
      </trkpt>
      <trkpt lat="58.286104006692767" lon="-3.34988602437079">
        <ele>75.599999999999994</ele>
        <time>2019-09-02T12:26:31Z</time>
      </trkpt>
      <trkpt lat="58.287092987447977" lon="-3.347813012078404">
        <ele>72.239999999999995</ele>
        <time>2019-09-02T12:26:40Z</time>
      </trkpt>
      <trkpt lat="58.288525035604835" lon="-3.344812961295247">
        <ele>65.989999999999995</ele>
        <time>2019-09-02T12:26:51Z</time>
      </trkpt>
      <trkpt lat="58.28995699994266" lon="-3.341984990984201">
        <ele>63.579999999999998</ele>
        <time>2019-09-02T12:27:03Z</time>
      </trkpt>
      <trkpt lat="58.290882026776671" lon="-3.339715003967285">
        <ele>62.619999999999997</ele>
        <time>2019-09-02T12:27:11Z</time>
      </trkpt>
      <trkpt lat="58.292072005569935" lon="-3.335894029587507">
        <ele>65.030000000000001</ele>
        <time>2019-09-02T12:27:23Z</time>
      </trkpt>
      <trkpt lat="58.293282017111778" lon="-3.332211021333933">
        <ele>70.790000000000006</ele>
        <time>2019-09-02T12:27:36Z</time>
      </trkpt>
      <trkpt lat="58.294197991490364" lon="-3.329397970810533">
        <ele>76.079999999999998</ele>
        <time>2019-09-02T12:27:46Z</time>
      </trkpt>
      <trkpt lat="58.295622998848557" lon="-3.325199978426099">
        <ele>84.25</ele>
        <time>2019-09-02T12:27:59Z</time>
      </trkpt>
      <trkpt lat="58.296614997088909" lon="-3.3223229739815">
        <ele>78.969999999999999</ele>
        <time>2019-09-02T12:28:09Z</time>
      </trkpt>
      <trkpt lat="58.297727024182677" lon="-3.320091962814331">
        <ele>71.269999999999996</ele>
        <time>2019-09-02T12:28:19Z</time>
      </trkpt>
      <trkpt lat="58.298579966649413" lon="-3.318236041814089">
        <ele>65.510000000000005</ele>
        <time>2019-09-02T12:28:27Z</time>
      </trkpt>
      <trkpt lat="58.299585040658712" lon="-3.31465202383697">
        <ele>63.100000000000001</ele>
        <time>2019-09-02T12:28:40Z</time>
      </trkpt>
      <trkpt lat="58.300234973430634" lon="-3.311547031626105">
        <ele>65.030000000000001</ele>
        <time>2019-09-02T12:28:50Z</time>
      </trkpt>
      <trkpt lat="58.30067602917552" lon="-3.308167029172182">
        <ele>67.430000000000007</ele>
        <time>2019-09-02T12:29:01Z</time>
      </trkpt>
      <trkpt lat="58.301212973892689" lon="-3.30436198040843">
        <ele>70.790000000000006</ele>
        <time>2019-09-02T12:29:14Z</time>
      </trkpt>
      <trkpt lat="58.302082009613514" lon="-3.301247013732791">
        <ele>65.989999999999995</ele>
        <time>2019-09-02T12:29:24Z</time>
      </trkpt>
      <trkpt lat="58.303323034197092" lon="-3.298329021781683">
        <ele>60.219999999999999</ele>
        <time>2019-09-02T12:29:34Z</time>
      </trkpt>
      <trkpt lat="58.304792968556285" lon="-3.295306004583836">
        <ele>53.969999999999999</ele>
        <time>2019-09-02T12:29:46Z</time>
      </trkpt>
      <trkpt lat="58.305711960420012" lon="-3.293518982827663">
        <ele>61.18</ele>
        <time>2019-09-02T12:29:55Z</time>
      </trkpt>
      <trkpt lat="58.306957008317113" lon="-3.29155401326716">
        <ele>65.030000000000001</ele>
        <time>2019-09-02T12:30:05Z</time>
      </trkpt>
      <trkpt lat="58.307481966912746" lon="-3.290082989260554">
        <ele>65.510000000000005</ele>
        <time>2019-09-02T12:30:12Z</time>
      </trkpt>
      <trkpt lat="58.307844987139106" lon="-3.288123970851302">
        <ele>65.510000000000005</ele>
        <time>2019-09-02T12:30:22Z</time>
      </trkpt>
      <trkpt lat="58.307878011837602" lon="-3.287928001955152">
        <ele>65.030000000000001</ele>
        <time>2019-09-02T12:30:23Z</time>
      </trkpt>
      <trkpt lat="58.308194009587169" lon="-3.286117007955909">
        <ele>66.469999999999999</ele>
        <time>2019-09-02T12:30:33Z</time>
      </trkpt>
      <trkpt lat="58.308557029813528" lon="-3.284275000914931">
        <ele>71.269999999999996</ele>
        <time>2019-09-02T12:30:41Z</time>
      </trkpt>
      <trkpt lat="58.309113001450896" lon="-3.281594971194863">
        <ele>75.120000000000005</ele>
        <time>2019-09-02T12:30:50Z</time>
      </trkpt>
      <trkpt lat="58.309632008895278" lon="-3.27982597053051">
        <ele>77.040000000000006</ele>
        <time>2019-09-02T12:30:58Z</time>
      </trkpt>
      <trkpt lat="58.310170965269208" lon="-3.278312031179667">
        <ele>76.079999999999998</ele>
        <time>2019-09-02T12:31:05Z</time>
      </trkpt>
      <trkpt lat="58.310235003009439" lon="-3.278038026764989">
        <ele>76.079999999999998</ele>
        <time>2019-09-02T12:31:06Z</time>
      </trkpt>
      <trkpt lat="58.310245983302593" lon="-3.277725968509913">
        <ele>75.599999999999994</ele>
        <time>2019-09-02T12:31:07Z</time>
      </trkpt>
      <trkpt lat="58.310256041586399" lon="-3.277413994073868">
        <ele>75.599999999999994</ele>
        <time>2019-09-02T12:31:08Z</time>
      </trkpt>
      <trkpt lat="58.310265010222793" lon="-3.277091961354017">
        <ele>75.120000000000005</ele>
        <time>2019-09-02T12:31:09Z</time>
      </trkpt>
      <trkpt lat="58.310273978859186" lon="-3.276777975261211">
        <ele>74.640000000000001</ele>
        <time>2019-09-02T12:31:10Z</time>
      </trkpt>
      <trkpt lat="58.31028101965785" lon="-3.276483016088605">
        <ele>74.640000000000001</ele>
        <time>2019-09-02T12:31:11Z</time>
      </trkpt>
      <trkpt lat="58.310212958604097" lon="-3.273913962766528">
        <ele>76.079999999999998</ele>
        <time>2019-09-02T12:31:20Z</time>
      </trkpt>
      <trkpt lat="58.310198038816452" lon="-3.27361598610878">
        <ele>76.560000000000002</ele>
        <time>2019-09-02T12:31:21Z</time>
      </trkpt>
      <trkpt lat="58.310149004682899" lon="-3.273319015279412">
        <ele>77.040000000000006</ele>
        <time>2019-09-02T12:31:22Z</time>
      </trkpt>
      <trkpt lat="58.310094019398093" lon="-3.273021960631013">
        <ele>77.519999999999996</ele>
        <time>2019-09-02T12:31:23Z</time>
      </trkpt>
      <trkpt lat="58.310037022456527" lon="-3.272718032822013">
        <ele>78</ele>
        <time>2019-09-02T12:31:24Z</time>
      </trkpt>
      <trkpt lat="58.309967033565044" lon="-3.272416032850742">
        <ele>78.480000000000004</ele>
        <time>2019-09-02T12:31:25Z</time>
      </trkpt>
      <trkpt lat="58.309437967836857" lon="-3.270408986136317">
        <ele>82.810000000000002</ele>
        <time>2019-09-02T12:31:33Z</time>
      </trkpt>
      <trkpt lat="58.309150971472263" lon="-3.268066998571158">
        <ele>83.290000000000006</ele>
        <time>2019-09-02T12:31:42Z</time>
      </trkpt>
      <trkpt lat="58.308857018128037" lon="-3.264176035299897">
        <ele>80.409999999999997</ele>
        <time>2019-09-02T12:31:54Z</time>
      </trkpt>
      <trkpt lat="58.308688038960099" lon="-3.262927969917655">
        <ele>79.450000000000003</ele>
        <time>2019-09-02T12:31:58Z</time>
      </trkpt>
      <trkpt lat="58.308597011491656" lon="-3.262667963281274">
        <ele>78.969999999999999</ele>
        <time>2019-09-02T12:31:59Z</time>
      </trkpt>
      <trkpt lat="58.308504978194833" lon="-3.262404017150402">
        <ele>78.480000000000004</ele>
        <time>2019-09-02T12:32:00Z</time>
      </trkpt>
      <trkpt lat="58.308298029005527" lon="-3.261873023584485">
        <ele>77.519999999999996</ele>
        <time>2019-09-02T12:32:02Z</time>
      </trkpt>
      <trkpt lat="58.308170037344098" lon="-3.261621985584498">
        <ele>76.560000000000002</ele>
        <time>2019-09-02T12:32:03Z</time>
      </trkpt>
      <trkpt lat="58.307365039363503" lon="-3.259811997413635">
        <ele>71.269999999999996</ele>
        <time>2019-09-02T12:32:10Z</time>
      </trkpt>
      <trkpt lat="58.307289015501738" lon="-3.259498011320829">
        <ele>70.310000000000002</ele>
        <time>2019-09-02T12:32:11Z</time>
      </trkpt>
      <trkpt lat="58.307246016338468" lon="-3.259167009964585">
        <ele>69.829999999999998</ele>
        <time>2019-09-02T12:32:12Z</time>
      </trkpt>
      <trkpt lat="58.307231012731791" lon="-3.258830979466438">
        <ele>69.829999999999998</ele>
        <time>2019-09-02T12:32:13Z</time>
      </trkpt>
      <trkpt lat="58.307215003296733" lon="-3.258497966453433">
        <ele>69.829999999999998</ele>
        <time>2019-09-02T12:32:14Z</time>
      </trkpt>
      <trkpt lat="58.307211985811591" lon="-3.258170988410711">
        <ele>70.310000000000002</ele>
        <time>2019-09-02T12:32:15Z</time>
      </trkpt>
      <trkpt lat="58.307211985811591" lon="-3.256671968847513">
        <ele>73.680000000000007</ele>
        <time>2019-09-02T12:32:20Z</time>
      </trkpt>
      <trkpt lat="58.307180972769856" lon="-3.256390001624823">
        <ele>74.159999999999997</ele>
        <time>2019-09-02T12:32:21Z</time>
      </trkpt>
      <trkpt lat="58.307148031890392" lon="-3.256100993603468">
        <ele>74.159999999999997</ele>
        <time>2019-09-02T12:32:22Z</time>
      </trkpt>
      <trkpt lat="58.306608991697431" lon="-3.253163974732161">
        <ele>74.640000000000001</ele>
        <time>2019-09-02T12:32:31Z</time>
      </trkpt>
      <trkpt lat="58.306139018386602" lon="-3.250623000785708">
        <ele>71.760000000000005</ele>
        <time>2019-09-02T12:32:39Z</time>
      </trkpt>
      <trkpt lat="58.305988982319832" lon="-3.248352007940412">
        <ele>69.829999999999998</ele>
        <time>2019-09-02T12:32:47Z</time>
      </trkpt>
      <trkpt lat="58.306009015068412" lon="-3.247792012989521">
        <ele>69.349999999999994</ele>
        <time>2019-09-02T12:32:49Z</time>
      </trkpt>
      <trkpt lat="58.306031981483102" lon="-3.247510967776179">
        <ele>68.870000000000005</ele>
        <time>2019-09-02T12:32:50Z</time>
      </trkpt>
      <trkpt lat="58.306099036708474" lon="-3.247250961139798">
        <ele>68.390000000000001</ele>
        <time>2019-09-02T12:32:51Z</time>
      </trkpt>
      <trkpt lat="58.306165002286434" lon="-3.24699598364532">
        <ele>68.390000000000001</ele>
        <time>2019-09-02T12:32:52Z</time>
      </trkpt>
      <trkpt lat="58.30626399256289" lon="-3.246775036677718">
        <ele>67.909999999999997</ele>
        <time>2019-09-02T12:32:53Z</time>
      </trkpt>
      <trkpt lat="58.306375974789262" lon="-3.246559035032988">
        <ele>67.909999999999997</ele>
        <time>2019-09-02T12:32:54Z</time>
      </trkpt>
      <trkpt lat="58.306488962844014" lon="-3.246341021731496">
        <ele>67.909999999999997</ele>
        <time>2019-09-02T12:32:55Z</time>
      </trkpt>
      <trkpt lat="58.306603962555528" lon="-3.246119990944862">
        <ele>67.909999999999997</ele>
        <time>2019-09-02T12:32:56Z</time>
      </trkpt>
      <trkpt lat="58.307313993573189" lon="-3.244826998561621">
        <ele>69.349999999999994</ele>
        <time>2019-09-02T12:33:03Z</time>
      </trkpt>
      <trkpt lat="58.307393034920096" lon="-3.244627006351948">
        <ele>69.829999999999998</ele>
        <time>2019-09-02T12:33:04Z</time>
      </trkpt>
      <trkpt lat="58.307464029639959" lon="-3.244400024414063">
        <ele>69.829999999999998</ele>
        <time>2019-09-02T12:33:05Z</time>
      </trkpt>
      <trkpt lat="58.307512979954481" lon="-3.244144041091204">
        <ele>69.829999999999998</ele>
        <time>2019-09-02T12:33:06Z</time>
      </trkpt>
      <trkpt lat="58.307563019916415" lon="-3.243876993656158">
        <ele>69.829999999999998</ele>
        <time>2019-09-02T12:33:07Z</time>
      </trkpt>
      <trkpt lat="58.307835012674332" lon="-3.241282962262631">
        <ele>67.430000000000007</ele>
        <time>2019-09-02T12:33:15Z</time>
      </trkpt>
      <trkpt lat="58.308223010972142" lon="-3.236835021525621">
        <ele>65.030000000000001</ele>
        <time>2019-09-02T12:33:28Z</time>
      </trkpt>
      <trkpt lat="58.308732965961099" lon="-3.234173012897372">
        <ele>66.469999999999999</ele>
        <time>2019-09-02T12:33:38Z</time>
      </trkpt>
      <trkpt lat="58.309173015877604" lon="-3.231349987909198">
        <ele>65.510000000000005</ele>
        <time>2019-09-02T12:33:46Z</time>
      </trkpt>
      <trkpt lat="58.309717001393437" lon="-3.227880969643593">
        <ele>66.950000000000003</ele>
        <time>2019-09-02T12:33:57Z</time>
      </trkpt>
      <trkpt lat="58.310544965788722" lon="-3.222604980692267">
        <ele>71.269999999999996</ele>
        <time>2019-09-02T12:34:13Z</time>
      </trkpt>
      <trkpt lat="58.31131199374795" lon="-3.218301963061094">
        <ele>71.269999999999996</ele>
        <time>2019-09-02T12:34:26Z</time>
      </trkpt>
      <trkpt lat="58.311995035037398" lon="-3.216659026220441">
        <ele>67.909999999999997</ele>
        <time>2019-09-02T12:34:33Z</time>
      </trkpt>
      <trkpt lat="58.313228012993932" lon="-3.214503033086658">
        <ele>66.469999999999999</ele>
        <time>2019-09-02T12:34:44Z</time>
      </trkpt>
      <trkpt lat="58.314616978168488" lon="-3.212917009368539">
        <ele>64.549999999999997</ele>
        <time>2019-09-02T12:34:55Z</time>
      </trkpt>
      <trkpt lat="58.315895972773433" lon="-3.211177010089159">
        <ele>64.549999999999997</ele>
        <time>2019-09-02T12:35:05Z</time>
      </trkpt>
      <trkpt lat="58.31668202765286" lon="-3.209404991939664">
        <ele>65.989999999999995</ele>
        <time>2019-09-02T12:35:13Z</time>
      </trkpt>
      <trkpt lat="58.317738985642791" lon="-3.206927971914411">
        <ele>67.909999999999997</ele>
        <time>2019-09-02T12:35:23Z</time>
      </trkpt>
      <trkpt lat="58.318964000791311" lon="-3.205232983455062">
        <ele>69.349999999999994</ele>
        <time>2019-09-02T12:35:32Z</time>
      </trkpt>
      <trkpt lat="58.320031017065048" lon="-3.204066976904869">
        <ele>70.310000000000002</ele>
        <time>2019-09-02T12:35:41Z</time>
      </trkpt>
      <trkpt lat="58.321041036397219" lon="-3.202399984002113">
        <ele>70.790000000000006</ele>
        <time>2019-09-02T12:35:50Z</time>
      </trkpt>
      <trkpt lat="58.321836981922388" lon="-3.19996302947402">
        <ele>69.829999999999998</ele>
        <time>2019-09-02T12:35:59Z</time>
      </trkpt>
      <trkpt lat="58.322007972747087" lon="-3.199502024799585">
        <ele>69.349999999999994</ele>
        <time>2019-09-02T12:36:01Z</time>
      </trkpt>
      <trkpt lat="58.322096988558769" lon="-3.199317958205938">
        <ele>69.349999999999994</ele>
        <time>2019-09-02T12:36:02Z</time>
      </trkpt>
      <trkpt lat="58.32218399271369" lon="-3.199137998744845">
        <ele>68.870000000000005</ele>
        <time>2019-09-02T12:36:03Z</time>
      </trkpt>
      <trkpt lat="58.322297986596823" lon="-3.199012018740177">
        <ele>68.870000000000005</ele>
        <time>2019-09-02T12:36:04Z</time>
      </trkpt>
      <trkpt lat="58.322297986596823" lon="-3.199012018740177">
        <ele>68.870000000000005</ele>
        <time>2019-09-02T12:36:05Z</time>
      </trkpt>
      <trkpt lat="58.322555981576443" lon="-3.198809009045363">
        <ele>68.870000000000005</ele>
        <time>2019-09-02T12:36:06Z</time>
      </trkpt>
      <trkpt lat="58.322704005986452" lon="-3.198715969920158">
        <ele>68.870000000000005</ele>
        <time>2019-09-02T12:36:07Z</time>
      </trkpt>
      <trkpt lat="58.324134964495897" lon="-3.197950031608343">
        <ele>70.310000000000002</ele>
        <time>2019-09-02T12:36:16Z</time>
      </trkpt>
      <trkpt lat="58.324533021077514" lon="-3.19766596890986">
        <ele>69.829999999999998</ele>
        <time>2019-09-02T12:36:19Z</time>
      </trkpt>
      <trkpt lat="58.324653971940279" lon="-3.197526996955276">
        <ele>69.349999999999994</ele>
        <time>2019-09-02T12:36:20Z</time>
      </trkpt>
      <trkpt lat="58.324766959995031" lon="-3.197376960888505">
        <ele>69.349999999999994</ele>
        <time>2019-09-02T12:36:21Z</time>
      </trkpt>
      <trkpt lat="58.32486997358501" lon="-3.197210999205709">
        <ele>69.349999999999994</ele>
        <time>2019-09-02T12:36:22Z</time>
      </trkpt>
      <trkpt lat="58.324968041852117" lon="-3.197053000330925">
        <ele>69.349999999999994</ele>
        <time>2019-09-02T12:36:23Z</time>
      </trkpt>
      <trkpt lat="58.325046999379992" lon="-3.196874968707562">
        <ele>69.349999999999994</ele>
        <time>2019-09-02T12:36:24Z</time>
      </trkpt>
      <trkpt lat="58.325659967958927" lon="-3.19549698382616">
        <ele>70.790000000000006</ele>
        <time>2019-09-02T12:36:33Z</time>
      </trkpt>
      <trkpt lat="58.32652498036623" lon="-3.194259982556105">
        <ele>70.310000000000002</ele>
        <time>2019-09-02T12:36:40Z</time>
      </trkpt>
      <trkpt lat="58.327427040785551" lon="-3.192579997703433">
        <ele>70.790000000000006</ele>
        <time>2019-09-02T12:36:47Z</time>
      </trkpt>
      <trkpt lat="58.327536005526781" lon="-3.1923589669168">
        <ele>70.310000000000002</ele>
        <time>2019-09-02T12:36:48Z</time>
      </trkpt>
      <trkpt lat="58.327669026330113" lon="-3.19220800884068">
        <ele>70.310000000000002</ele>
        <time>2019-09-02T12:36:49Z</time>
      </trkpt>
      <trkpt lat="58.327802969142795" lon="-3.192072976380587">
        <ele>69.829999999999998</ele>
        <time>2019-09-02T12:36:50Z</time>
      </trkpt>
      <trkpt lat="58.327938001602888" lon="-3.19195001386106">
        <ele>69.349999999999994</ele>
        <time>2019-09-02T12:36:51Z</time>
      </trkpt>
      <trkpt lat="58.328085020184517" lon="-3.191891005262733">
        <ele>68.870000000000005</ele>
        <time>2019-09-02T12:36:52Z</time>
      </trkpt>
      <trkpt lat="58.328241007402539" lon="-3.191828979179263">
        <ele>68.870000000000005</ele>
        <time>2019-09-02T12:36:53Z</time>
      </trkpt>
      <trkpt lat="58.328381991013885" lon="-3.191817998886108">
        <ele>68.870000000000005</ele>
        <time>2019-09-02T12:36:54Z</time>
      </trkpt>
      <trkpt lat="58.330084020271897" lon="-3.191668968647718">
        <ele>68.870000000000005</ele>
        <time>2019-09-02T12:37:04Z</time>
      </trkpt>
      <trkpt lat="58.332013031467795" lon="-3.191161025315523">
        <ele>66.950000000000003</ele>
        <time>2019-09-02T12:37:14Z</time>
      </trkpt>
      <trkpt lat="58.333280961960554" lon="-3.190261982381344">
        <ele>65.030000000000001</ele>
        <time>2019-09-02T12:37:21Z</time>
      </trkpt>
      <trkpt lat="58.334032986313105" lon="-3.189754039049149">
        <ele>64.549999999999997</ele>
        <time>2019-09-02T12:37:28Z</time>
      </trkpt>
      <trkpt lat="58.335135038942099" lon="-3.188911993056536">
        <ele>65.510000000000005</ele>
        <time>2019-09-02T12:37:37Z</time>
      </trkpt>
      <trkpt lat="58.335538962855935" lon="-3.188537992537022">
        <ele>65.510000000000005</ele>
        <time>2019-09-02T12:37:40Z</time>
      </trkpt>
      <trkpt lat="58.335654968395829" lon="-3.18834001198411">
        <ele>65.510000000000005</ele>
        <time>2019-09-02T12:37:41Z</time>
      </trkpt>
      <trkpt lat="58.335774997249246" lon="-3.188135996460915">
        <ele>65.030000000000001</ele>
        <time>2019-09-02T12:37:42Z</time>
      </trkpt>
      <trkpt lat="58.336867997422814" lon="-3.185612037777901">
        <ele>64.069999999999993</ele>
        <time>2019-09-02T12:37:52Z</time>
      </trkpt>
      <trkpt lat="58.337917998433113" lon="-3.183173993602395">
        <ele>68.390000000000001</ele>
        <time>2019-09-02T12:38:04Z</time>
      </trkpt>
      <trkpt lat="58.338010031729937" lon="-3.182958997786045">
        <ele>68.870000000000005</ele>
        <time>2019-09-02T12:38:05Z</time>
      </trkpt>
      <trkpt lat="58.338140035048127" lon="-3.182796975597739">
        <ele>69.349999999999994</ele>
        <time>2019-09-02T12:38:06Z</time>
      </trkpt>
      <trkpt lat="58.338423008099198" lon="-3.182482989504933">
        <ele>70.790000000000006</ele>
        <time>2019-09-02T12:38:08Z</time>
      </trkpt>
      <trkpt lat="58.338948972523212" lon="-3.181807994842529">
        <ele>72.239999999999995</ele>
        <time>2019-09-02T12:38:12Z</time>
      </trkpt>
      <trkpt lat="58.339046034961939" lon="-3.181629963219166">
        <ele>72.719999999999999</ele>
        <time>2019-09-02T12:38:13Z</time>
      </trkpt>
      <trkpt lat="58.339144019410014" lon="-3.181453021243215">
        <ele>73.200000000000003</ele>
        <time>2019-09-02T12:38:14Z</time>
      </trkpt>
      <trkpt lat="58.339203028008342" lon="-3.181240037083626">
        <ele>73.680000000000007</ele>
        <time>2019-09-02T12:38:15Z</time>
      </trkpt>
      <trkpt lat="58.339234041050076" lon="-3.181001991033554">
        <ele>74.159999999999997</ele>
        <time>2019-09-02T12:38:16Z</time>
      </trkpt>
      <trkpt lat="58.339269999414682" lon="-3.180735027417541">
        <ele>75.120000000000005</ele>
        <time>2019-09-02T12:38:17Z</time>
      </trkpt>
      <trkpt lat="58.339257007464767" lon="-3.180538974702358">
        <ele>75.599999999999994</ele>
        <time>2019-09-02T12:38:18Z</time>
      </trkpt>
      <trkpt lat="58.339242003858089" lon="-3.180296989157796">
        <ele>76.079999999999998</ele>
        <time>2019-09-02T12:38:19Z</time>
      </trkpt>
      <trkpt lat="58.339220965281129" lon="-3.180045029148459">
        <ele>76.560000000000002</ele>
        <time>2019-09-02T12:38:20Z</time>
      </trkpt>
      <trkpt lat="58.339166985824704" lon="-3.17981000058353">
        <ele>77.040000000000006</ele>
        <time>2019-09-02T12:38:21Z</time>
      </trkpt>
      <trkpt lat="58.339110994711518" lon="-3.179568015038967">
        <ele>78</ele>
        <time>2019-09-02T12:38:22Z</time>
      </trkpt>
      <trkpt lat="58.338488973677158" lon="-3.176915980875492">
        <ele>80.890000000000001</ele>
        <time>2019-09-02T12:38:33Z</time>
      </trkpt>
      <trkpt lat="58.338311025872827" lon="-3.175849970430136">
        <ele>83.290000000000006</ele>
        <time>2019-09-02T12:38:38Z</time>
      </trkpt>
      <trkpt lat="58.338314965367317" lon="-3.175609996542335">
        <ele>83.769999999999996</ele>
        <time>2019-09-02T12:38:39Z</time>
      </trkpt>
      <trkpt lat="58.338328041136265" lon="-3.175388965755701">
        <ele>84.25</ele>
        <time>2019-09-02T12:38:40Z</time>
      </trkpt>
      <trkpt lat="58.338341033086181" lon="-3.175174975767732">
        <ele>84.730000000000004</ele>
        <time>2019-09-02T12:38:41Z</time>
      </trkpt>
      <trkpt lat="58.338372968137264" lon="-3.174975989386439">
        <ele>85.209999999999994</ele>
        <time>2019-09-02T12:38:42Z</time>
      </trkpt>
      <trkpt lat="58.338420996442437" lon="-3.174800975248218">
        <ele>85.689999999999998</ele>
        <time>2019-09-02T12:38:43Z</time>
      </trkpt>
      <trkpt lat="58.338470030575991" lon="-3.174626966938376">
        <ele>86.659999999999997</ele>
        <time>2019-09-02T12:38:44Z</time>
      </trkpt>
      <trkpt lat="58.338519986718893" lon="-3.174446001648903">
        <ele>87.140000000000001</ele>
        <time>2019-09-02T12:38:45Z</time>
      </trkpt>
      <trkpt lat="58.338589975610375" lon="-3.174284985288978">
        <ele>87.140000000000001</ele>
        <time>2019-09-02T12:38:46Z</time>
      </trkpt>
      <trkpt lat="58.338669016957283" lon="-3.174105025827885">
        <ele>87.620000000000005</ele>
        <time>2019-09-02T12:38:47Z</time>
      </trkpt>
      <trkpt lat="58.338757026940584" lon="-3.173980973660946">
        <ele>88.099999999999994</ele>
        <time>2019-09-02T12:38:48Z</time>
      </trkpt>
      <trkpt lat="58.338855011388659" lon="-3.173844013363123">
        <ele>88.099999999999994</ele>
        <time>2019-09-02T12:38:49Z</time>
      </trkpt>
      <trkpt lat="58.339909035712481" lon="-3.172555966302753">
        <ele>86.659999999999997</ele>
        <time>2019-09-02T12:38:57Z</time>
      </trkpt>
      <trkpt lat="58.341189036145806" lon="-3.170924009755254">
        <ele>82.329999999999998</ele>
        <time>2019-09-02T12:39:06Z</time>
      </trkpt>
      <trkpt lat="58.342904979363084" lon="-3.168987035751343">
        <ele>77.040000000000006</ele>
        <time>2019-09-02T12:39:18Z</time>
      </trkpt>
      <trkpt lat="58.344247005879879" lon="-3.167567979544401">
        <ele>74.640000000000001</ele>
        <time>2019-09-02T12:39:27Z</time>
      </trkpt>
      <trkpt lat="58.345522982999682" lon="-3.166357968002558">
        <ele>72.239999999999995</ele>
        <time>2019-09-02T12:39:38Z</time>
      </trkpt>
      <trkpt lat="58.34652797318995" lon="-3.164993980899453">
        <ele>68.870000000000005</ele>
        <time>2019-09-02T12:39:47Z</time>
      </trkpt>
      <trkpt lat="58.347212020307779" lon="-3.163644997403026">
        <ele>65.510000000000005</ele>
        <time>2019-09-02T12:39:58Z</time>
      </trkpt>
      <trkpt lat="58.347448976710439" lon="-3.163137976080179">
        <ele>64.549999999999997</ele>
        <time>2019-09-02T12:40:05Z</time>
      </trkpt>
      <trkpt lat="58.347499016672373" lon="-3.163026999682188">
        <ele>64.069999999999993</ele>
        <time>2019-09-02T12:40:07Z</time>
      </trkpt>
      <trkpt lat="58.34751502610743" lon="-3.16298802383244">
        <ele>64.069999999999993</ele>
        <time>2019-09-02T12:40:08Z</time>
      </trkpt>
      <trkpt lat="58.347459034994245" lon="-3.162936978042126">
        <ele>64.069999999999993</ele>
        <time>2019-09-02T12:40:10Z</time>
      </trkpt>
      <trkpt lat="58.347434978932142" lon="-3.162933038547635">
        <ele>64.069999999999993</ele>
        <time>2019-09-02T12:40:11Z</time>
      </trkpt>
      <trkpt lat="58.347406983375549" lon="-3.162929015234113">
        <ele>64.069999999999993</ele>
        <time>2019-09-02T12:40:12Z</time>
      </trkpt>
      <trkpt lat="58.347377981990576" lon="-3.162927003577352">
        <ele>63.579999999999998</ele>
        <time>2019-09-02T12:40:13Z</time>
      </trkpt>
      <trkpt lat="58.347328025847673" lon="-3.162956004962325">
        <ele>63.579999999999998</ele>
        <time>2019-09-02T12:40:14Z</time>
      </trkpt>
      <trkpt lat="58.347281003370881" lon="-3.162982994690538">
        <ele>63.579999999999998</ele>
        <time>2019-09-02T12:40:15Z</time>
      </trkpt>
      <trkpt lat="58.347238004207611" lon="-3.163007972761989">
        <ele>63.579999999999998</ele>
        <time>2019-09-02T12:40:16Z</time>
      </trkpt>
      <trkpt lat="58.347197016701102" lon="-3.163032028824091">
        <ele>63.579999999999998</ele>
        <time>2019-09-02T12:40:17Z</time>
      </trkpt>
      <trkpt lat="58.346909014508128" lon="-3.163192039355636">
        <ele>64.069999999999993</ele>
        <time>2019-09-02T12:40:27Z</time>
      </trkpt>
      <trkpt lat="58.346588993445039" lon="-3.163344003260136">
        <ele>64.549999999999997</ele>
        <time>2019-09-02T12:40:38Z</time>
      </trkpt>
      <trkpt lat="58.346544988453388" lon="-3.163365041837096">
        <ele>64.549999999999997</ele>
        <time>2019-09-02T12:40:40Z</time>
      </trkpt>
      <trkpt lat="58.346523027867079" lon="-3.163376022130251">
        <ele>66.469999999999999</ele>
        <time>2019-09-02T12:40:51Z</time>
      </trkpt>
      <trkpt lat="58.346457984298468" lon="-3.163290023803711">
        <ele>67.909999999999997</ele>
        <time>2019-09-02T12:41:09Z</time>
      </trkpt>
      <trkpt lat="58.346304008737206" lon="-3.163703000172973">
        <ele>77.519999999999996</ele>
        <time>2019-09-02T12:46:32Z</time>
      </trkpt>
      <trkpt lat="58.346318006515503" lon="-3.1637620087713">
        <ele>71.760000000000005</ele>
        <time>2019-09-02T12:46:53Z</time>
      </trkpt>
      <trkpt lat="58.346340972930193" lon="-3.163766032084823">
        <ele>70.790000000000006</ele>
        <time>2019-09-02T12:47:36Z</time>
      </trkpt>
      <trkpt lat="58.346313983201981" lon="-3.163753040134907">
        <ele>70.790000000000006</ele>
        <time>2019-09-02T12:48:17Z</time>
      </trkpt>
      <trkpt lat="58.346313983201981" lon="-3.163733007386327">
        <ele>70.790000000000006</ele>
        <time>2019-09-02T12:48:37Z</time>
      </trkpt>
      <trkpt lat="58.346313983201981" lon="-3.163733007386327">
        <ele>70.790000000000006</ele>
        <time>2019-09-02T12:48:43Z</time>
      </trkpt>
      <trkpt lat="58.346319012343884" lon="-3.16356897354126">
        <ele>70.310000000000002</ele>
        <time>2019-09-02T12:48:56Z</time>
      </trkpt>
      <trkpt lat="58.346324963495135" lon="-3.163534021005034">
        <ele>70.310000000000002</ele>
        <time>2019-09-02T12:49:16Z</time>
      </trkpt>
      <trkpt lat="58.346324963495135" lon="-3.163534021005034">
        <ele>70.310000000000002</ele>
        <time>2019-09-02T12:49:27Z</time>
      </trkpt>
      <trkpt lat="58.346686977893114" lon="-3.163297986611724">
        <ele>67.909999999999997</ele>
        <time>2019-09-02T12:49:38Z</time>
      </trkpt>
      <trkpt lat="58.347113030031323" lon="-3.163079973310232">
        <ele>66.469999999999999</ele>
        <time>2019-09-02T12:49:48Z</time>
      </trkpt>
      <trkpt lat="58.347378987818956" lon="-3.162925997748971">
        <ele>64.069999999999993</ele>
        <time>2019-09-02T12:50:00Z</time>
      </trkpt>
      <trkpt lat="58.347574034705758" lon="-3.16285902634263">
        <ele>64.549999999999997</ele>
        <time>2019-09-02T12:50:08Z</time>
      </trkpt>
      <trkpt lat="58.347609993070364" lon="-3.162783002480865">
        <ele>64.549999999999997</ele>
        <time>2019-09-02T12:50:09Z</time>
      </trkpt>
      <trkpt lat="58.347659027203918" lon="-3.162684012204409">
        <ele>65.030000000000001</ele>
        <time>2019-09-02T12:50:10Z</time>
      </trkpt>
      <trkpt lat="58.34828901104629" lon="-3.161417003720999">
        <ele>65.510000000000005</ele>
        <time>2019-09-02T12:50:18Z</time>
      </trkpt>
      <trkpt lat="58.349159974604845" lon="-3.160416958853602">
        <ele>66.950000000000003</ele>
        <time>2019-09-02T12:50:24Z</time>
      </trkpt>
      <trkpt lat="58.350283987820148" lon="-3.159266039729118">
        <ele>68.390000000000001</ele>
        <time>2019-09-02T12:50:33Z</time>
      </trkpt>
      <trkpt lat="58.351985011249781" lon="-3.157783029600978">
        <ele>72.239999999999995</ele>
        <time>2019-09-02T12:50:47Z</time>
      </trkpt>
      <trkpt lat="58.353467015549541" lon="-3.157168971374631">
        <ele>71.269999999999996</ele>
        <time>2019-09-02T12:50:57Z</time>
      </trkpt>
      <trkpt lat="58.355396026745439" lon="-3.15635098144412">
        <ele>74.640000000000001</ele>
        <time>2019-09-02T12:51:09Z</time>
      </trkpt>
      <trkpt lat="58.357789982110262" lon="-3.155377004295588">
        <ele>78.480000000000004</ele>
        <time>2019-09-02T12:51:23Z</time>
      </trkpt>
      <trkpt lat="58.357933983206749" lon="-3.155241971835494">
        <ele>78.480000000000004</ele>
        <time>2019-09-02T12:51:24Z</time>
      </trkpt>
      <trkpt lat="58.358074966818094" lon="-3.155094031244516">
        <ele>78.969999999999999</ele>
        <time>2019-09-02T12:51:25Z</time>
      </trkpt>
      <trkpt lat="58.358760019764304" lon="-3.154360027983785">
        <ele>81.370000000000005</ele>
        <time>2019-09-02T12:51:30Z</time>
      </trkpt>
      <trkpt lat="58.358905026689172" lon="-3.154273023828864">
        <ele>81.849999999999994</ele>
        <time>2019-09-02T12:51:31Z</time>
      </trkpt>
      <trkpt lat="58.359055984765291" lon="-3.154232958331704">
        <ele>82.329999999999998</ele>
        <time>2019-09-02T12:51:32Z</time>
      </trkpt>
      <trkpt lat="58.359209960326552" lon="-3.154230024665594">
        <ele>82.329999999999998</ele>
        <time>2019-09-02T12:51:33Z</time>
      </trkpt>
      <trkpt lat="58.359367037191987" lon="-3.154227007180452">
        <ele>82.810000000000002</ele>
        <time>2019-09-02T12:51:34Z</time>
      </trkpt>
      <trkpt lat="58.361160010099411" lon="-3.153896005824208">
        <ele>89.060000000000002</ele>
        <time>2019-09-02T12:51:45Z</time>
      </trkpt>
      <trkpt lat="58.361490005627275" lon="-3.153807995840907">
        <ele>90.5</ele>
        <time>2019-09-02T12:51:47Z</time>
      </trkpt>
      <trkpt lat="58.363295970484614" lon="-3.154065990820527">
        <ele>92.900000000000006</ele>
        <time>2019-09-02T12:51:57Z</time>
      </trkpt>
      <trkpt lat="58.365333024412394" lon="-3.154117036610842">
        <ele>92.900000000000006</ele>
        <time>2019-09-02T12:52:07Z</time>
      </trkpt>
      <trkpt lat="58.367462027817965" lon="-3.15389902330935">
        <ele>91.459999999999994</ele>
        <time>2019-09-02T12:52:18Z</time>
      </trkpt>
      <trkpt lat="58.367806021124125" lon="-3.153777988627553">
        <ele>90.5</ele>
        <time>2019-09-02T12:52:20Z</time>
      </trkpt>
      <trkpt lat="58.367964019998908" lon="-3.153661983087659">
        <ele>89.540000000000006</ele>
        <time>2019-09-02T12:52:21Z</time>
      </trkpt>
      <trkpt lat="58.368114978075027" lon="-3.153488980606198">
        <ele>88.579999999999998</ele>
        <time>2019-09-02T12:52:22Z</time>
      </trkpt>
      <trkpt lat="58.36827197112143" lon="-3.153308015316725">
        <ele>87.620000000000005</ele>
        <time>2019-09-02T12:52:23Z</time>
      </trkpt>
      <trkpt lat="58.368429969996214" lon="-3.1531279720366">
        <ele>86.659999999999997</ele>
        <time>2019-09-02T12:52:24Z</time>
      </trkpt>
      <trkpt lat="58.369029024615884" lon="-3.152579963207245">
        <ele>86.180000000000007</ele>
        <time>2019-09-02T12:52:28Z</time>
      </trkpt>
      <trkpt lat="58.369181994348764" lon="-3.152488013729453">
        <ele>86.180000000000007</ele>
        <time>2019-09-02T12:52:29Z</time>
      </trkpt>
      <trkpt lat="58.369333036243916" lon="-3.152411989867687">
        <ele>85.689999999999998</ele>
        <time>2019-09-02T12:52:30Z</time>
      </trkpt>
      <trkpt lat="58.369497992098331" lon="-3.152418024837971">
        <ele>85.689999999999998</ele>
        <time>2019-09-02T12:52:31Z</time>
      </trkpt>
      <trkpt lat="58.36966797709465" lon="-3.152423975989223">
        <ele>85.689999999999998</ele>
        <time>2019-09-02T12:52:32Z</time>
      </trkpt>
      <trkpt lat="58.37170603685081" lon="-3.152475021779537">
        <ele>80.890000000000001</ele>
        <time>2019-09-02T12:52:43Z</time>
      </trkpt>
      <trkpt lat="58.373633958399296" lon="-3.152766041457653">
        <ele>74.640000000000001</ele>
        <time>2019-09-02T12:52:53Z</time>
      </trkpt>
      <trkpt lat="58.373819030821323" lon="-3.15276000648737">
        <ele>74.159999999999997</ele>
        <time>2019-09-02T12:52:54Z</time>
      </trkpt>
      <trkpt lat="58.37400795891881" lon="-3.15274097956717">
        <ele>73.680000000000007</ele>
        <time>2019-09-02T12:52:55Z</time>
      </trkpt>
      <trkpt lat="58.374188002198935" lon="-3.152618017047644">
        <ele>73.680000000000007</ele>
        <time>2019-09-02T12:52:56Z</time>
      </trkpt>
      <trkpt lat="58.374373996630311" lon="-3.152490025386214">
        <ele>73.200000000000003</ele>
        <time>2019-09-02T12:52:57Z</time>
      </trkpt>
      <trkpt lat="58.374563008546829" lon="-3.152361027896404">
        <ele>73.200000000000003</ele>
        <time>2019-09-02T12:52:58Z</time>
      </trkpt>
      <trkpt lat="58.374755959957838" lon="-3.152222977951169">
        <ele>72.719999999999999</ele>
        <time>2019-09-02T12:52:59Z</time>
      </trkpt>
      <trkpt lat="58.376617999747396" lon="-3.15033596009016">
        <ele>72.719999999999999</ele>
        <time>2019-09-02T12:53:10Z</time>
      </trkpt>
      <trkpt lat="58.379036011174321" lon="-3.147907974198461">
        <ele>70.790000000000006</ele>
        <time>2019-09-02T12:53:23Z</time>
      </trkpt>
      <trkpt lat="58.382619023323059" lon="-3.144390005618334">
        <ele>67.430000000000007</ele>
        <time>2019-09-02T12:53:41Z</time>
      </trkpt>
      <trkpt lat="58.384909965097904" lon="-3.141957996413112">
        <ele>67.909999999999997</ele>
        <time>2019-09-02T12:53:53Z</time>
      </trkpt>
      <trkpt lat="58.387117004022002" lon="-3.139465972781181">
        <ele>69.349999999999994</ele>
        <time>2019-09-02T12:54:06Z</time>
      </trkpt>
      <trkpt lat="58.389122961089015" lon="-3.13718399964273">
        <ele>71.760000000000005</ele>
        <time>2019-09-02T12:54:18Z</time>
      </trkpt>
      <trkpt lat="58.390544028952718" lon="-3.135588001459837">
        <ele>72.719999999999999</ele>
        <time>2019-09-02T12:54:29Z</time>
      </trkpt>
      <trkpt lat="58.391803996637464" lon="-3.134143967181444">
        <ele>71.760000000000005</ele>
        <time>2019-09-02T12:54:39Z</time>
      </trkpt>
      <trkpt lat="58.39377399533987" lon="-3.132273964583874">
        <ele>68.870000000000005</ele>
        <time>2019-09-02T12:54:52Z</time>
      </trkpt>
      <trkpt lat="58.39471997693181" lon="-3.131300993263722">
        <ele>67.909999999999997</ele>
        <time>2019-09-02T12:54:58Z</time>
      </trkpt>
      <trkpt lat="58.395795039832592" lon="-3.129227980971336">
        <ele>63.100000000000001</ele>
        <time>2019-09-02T12:55:06Z</time>
      </trkpt>
      <trkpt lat="58.397172018885612" lon="-3.12672296538949">
        <ele>58.780000000000001</ele>
        <time>2019-09-02T12:55:15Z</time>
      </trkpt>
      <trkpt lat="58.398887040093541" lon="-3.123656027019024">
        <ele>55.409999999999997</ele>
        <time>2019-09-02T12:55:26Z</time>
      </trkpt>
      <trkpt lat="58.401547037065029" lon="-3.118961993604899">
        <ele>51.57</ele>
        <time>2019-09-02T12:55:42Z</time>
      </trkpt>
      <trkpt lat="58.401931012049317" lon="-3.11855698004365">
        <ele>50.609999999999999</ele>
        <time>2019-09-02T12:55:44Z</time>
      </trkpt>
      <trkpt lat="58.402136033400893" lon="-3.118395041674376">
        <ele>50.130000000000003</ele>
        <time>2019-09-02T12:55:45Z</time>
      </trkpt>
      <trkpt lat="58.402352035045624" lon="-3.118278030306101">
        <ele>50.130000000000003</ele>
        <time>2019-09-02T12:55:46Z</time>
      </trkpt>
      <trkpt lat="58.403600016608834" lon="-3.117414023727179">
        <ele>50.130000000000003</ele>
        <time>2019-09-02T12:55:52Z</time>
      </trkpt>
      <trkpt lat="58.405233984813094" lon="-3.11576496809721">
        <ele>51.57</ele>
        <time>2019-09-02T12:56:00Z</time>
      </trkpt>
      <trkpt lat="58.4069640096277" lon="-3.11382899992168">
        <ele>48.68</ele>
        <time>2019-09-02T12:56:09Z</time>
      </trkpt>
      <trkpt lat="58.409462990239263" lon="-3.111600000411272">
        <ele>42.439999999999998</ele>
        <time>2019-09-02T12:56:21Z</time>
      </trkpt>
      <trkpt lat="58.412256008014083" lon="-3.109162962064147">
        <ele>38.590000000000003</ele>
        <time>2019-09-02T12:56:34Z</time>
      </trkpt>
      <trkpt lat="58.415431994944811" lon="-3.106376985087991">
        <ele>36.189999999999998</ele>
        <time>2019-09-02T12:56:49Z</time>
      </trkpt>
      <trkpt lat="58.417907003313303" lon="-3.104245970025659">
        <ele>33.780000000000001</ele>
        <time>2019-09-02T12:57:01Z</time>
      </trkpt>
      <trkpt lat="58.420644029974937" lon="-3.101996015757322">
        <ele>28.98</ele>
        <time>2019-09-02T12:57:14Z</time>
      </trkpt>
      <trkpt lat="58.422727016732097" lon="-3.100446034222841">
        <ele>27.050000000000001</ele>
        <time>2019-09-02T12:57:25Z</time>
      </trkpt>
      <trkpt lat="58.42524996958673" lon="-3.098859004676342">
        <ele>28.5</ele>
        <time>2019-09-02T12:57:37Z</time>
      </trkpt>
      <trkpt lat="58.427307978272438" lon="-3.097516978159547">
        <ele>32.82</ele>
        <time>2019-09-02T12:57:47Z</time>
      </trkpt>
      <trkpt lat="58.428918980062008" lon="-3.096037991344929">
        <ele>31.859999999999999</ele>
        <time>2019-09-02T12:57:56Z</time>
      </trkpt>
      <trkpt lat="58.429070021957159" lon="-3.095941012725234">
        <ele>31.859999999999999</ele>
        <time>2019-09-02T12:57:57Z</time>
      </trkpt>
      <trkpt lat="58.429217962548137" lon="-3.095860965549946">
        <ele>31.859999999999999</ele>
        <time>2019-09-02T12:57:58Z</time>
      </trkpt>
      <trkpt lat="58.429366992786527" lon="-3.095833975821734">
        <ele>31.379999999999999</ele>
        <time>2019-09-02T12:57:59Z</time>
      </trkpt>
      <trkpt lat="58.429515017196536" lon="-3.095816960558295">
        <ele>31.379999999999999</ele>
        <time>2019-09-02T12:58:00Z</time>
      </trkpt>
      <trkpt lat="58.429658012464643" lon="-3.095800029113889">
        <ele>31.859999999999999</ele>
        <time>2019-09-02T12:58:01Z</time>
      </trkpt>
      <trkpt lat="58.431163989007473" lon="-3.095539016649127">
        <ele>31.379999999999999</ele>
        <time>2019-09-02T12:58:12Z</time>
      </trkpt>
      <trkpt lat="58.43285595998168" lon="-3.09470702894032">
        <ele>26.09</ele>
        <time>2019-09-02T12:58:26Z</time>
      </trkpt>
      <trkpt lat="58.434102013707161" lon="-3.09406204149127">
        <ele>23.210000000000001</ele>
        <time>2019-09-02T12:58:37Z</time>
      </trkpt>
      <trkpt lat="58.435012036934495" lon="-3.093687035143375">
        <ele>20.809999999999999</ele>
        <time>2019-09-02T12:58:45Z</time>
      </trkpt>
      <trkpt lat="58.435130976140499" lon="-3.093686029314995">
        <ele>20.809999999999999</ele>
        <time>2019-09-02T12:58:46Z</time>
      </trkpt>
      <trkpt lat="58.436620021238923" lon="-3.093787031248212">
        <ele>12.630000000000001</ele>
        <time>2019-09-02T12:58:58Z</time>
      </trkpt>
      <trkpt lat="58.437831038609147" lon="-3.093919968232513">
        <ele>8.310000000000001</ele>
        <time>2019-09-02T12:59:09Z</time>
      </trkpt>
      <trkpt lat="58.437937991693616" lon="-3.093928014859557">
        <ele>7.83</ele>
        <time>2019-09-02T12:59:10Z</time>
      </trkpt>
      <trkpt lat="58.438705019652843" lon="-3.09399800375104">
        <ele>4.46</ele>
        <time>2019-09-02T12:59:18Z</time>
      </trkpt>
      <trkpt lat="58.439227966591716" lon="-3.094053994864225">
        <ele>-1.3</ele>
        <time>2019-09-02T12:59:25Z</time>
      </trkpt>
      <trkpt lat="58.440209990367293" lon="-3.09419397264719">
        <ele>-3.23</ele>
        <time>2019-09-02T12:59:35Z</time>
      </trkpt>
      <trkpt lat="58.440494975075126" lon="-3.094253987073898">
        <ele>-4.19</ele>
        <time>2019-09-02T12:59:38Z</time>
      </trkpt>
      <trkpt lat="58.44103803858161" lon="-3.094368986785412">
        <ele>-7.55</ele>
        <time>2019-09-02T12:59:45Z</time>
      </trkpt>
      <trkpt lat="58.441095035523176" lon="-3.094380972906947">
        <ele>-8.029999999999999</ele>
        <time>2019-09-02T12:59:46Z</time>
      </trkpt>
      <trkpt lat="58.441151026636362" lon="-3.094392959028482">
        <ele>-8.51</ele>
        <time>2019-09-02T12:59:47Z</time>
      </trkpt>
      <trkpt lat="58.44121104106307" lon="-3.09440502896905">
        <ele>-9</ele>
        <time>2019-09-02T12:59:48Z</time>
      </trkpt>
      <trkpt lat="58.441323023289442" lon="-3.094281982630491">
        <ele>-9</ele>
        <time>2019-09-02T12:59:49Z</time>
      </trkpt>
      <trkpt lat="58.441329980269074" lon="-3.094274019822478">
        <ele>-9.48</ele>
        <time>2019-09-02T12:59:50Z</time>
      </trkpt>
      <trkpt lat="58.441429976373911" lon="-3.094152985140681">
        <ele>-9.48</ele>
        <time>2019-09-02T12:59:51Z</time>
      </trkpt>
      <trkpt lat="58.441453026607633" lon="-3.094109985977411">
        <ele>-9</ele>
        <time>2019-09-02T12:59:52Z</time>
      </trkpt>
      <trkpt lat="58.441712027415633" lon="-3.0936339776963">
        <ele>-7.07</ele>
        <time>2019-09-02T12:59:57Z</time>
      </trkpt>
      <trkpt lat="58.442094996571541" lon="-3.092959988862276">
        <ele>-5.63</ele>
        <time>2019-09-02T13:00:04Z</time>
      </trkpt>
      <trkpt lat="58.442150987684727" lon="-3.092864016070962">
        <ele>-5.63</ele>
        <time>2019-09-02T13:00:05Z</time>
      </trkpt>
      <trkpt lat="58.442314015701413" lon="-3.09257903136313">
        <ele>-5.15</ele>
        <time>2019-09-02T13:00:08Z</time>
      </trkpt>
      <trkpt lat="58.442548038437963" lon="-3.09219497255981">
        <ele>-4.67</ele>
        <time>2019-09-02T13:00:13Z</time>
      </trkpt>
      <trkpt lat="58.442588020116091" lon="-3.092132024466991">
        <ele>-4.67</ele>
        <time>2019-09-02T13:00:14Z</time>
      </trkpt>
      <trkpt lat="58.442619033157825" lon="-3.092082990333438">
        <ele>-4.19</ele>
        <time>2019-09-02T13:00:15Z</time>
      </trkpt>
      <trkpt lat="58.44265297986567" lon="-3.092029010877013">
        <ele>-4.19</ele>
        <time>2019-09-02T13:00:16Z</time>
      </trkpt>
      <trkpt lat="58.44269203953445" lon="-3.092093970626593">
        <ele>-4.19</ele>
        <time>2019-09-02T13:00:17Z</time>
      </trkpt>
      <trkpt lat="58.44273503869772" lon="-3.092165971174836">
        <ele>-4.19</ele>
        <time>2019-09-02T13:00:18Z</time>
      </trkpt>
      <trkpt lat="58.442783989012241" lon="-3.092247024178505">
        <ele>-3.71</ele>
        <time>2019-09-02T13:00:19Z</time>
      </trkpt>
      <trkpt lat="58.443343983963132" lon="-3.093369025737047">
        <ele>-1.79</ele>
        <time>2019-09-02T13:00:28Z</time>
      </trkpt>
      <trkpt lat="58.443787973374128" lon="-3.094334034249187">
        <ele>0.14</ele>
        <time>2019-09-02T13:00:34Z</time>
      </trkpt>
      <trkpt lat="58.444043034687638" lon="-3.094732007011771">
        <ele>0.14</ele>
        <time>2019-09-02T13:00:37Z</time>
      </trkpt>
      <trkpt lat="58.444128027185798" lon="-3.094876008108258">
        <ele>0.62</ele>
        <time>2019-09-02T13:00:38Z</time>
      </trkpt>
      <trkpt lat="58.444274039939046" lon="-3.095196029171348">
        <ele>1.58</ele>
        <time>2019-09-02T13:00:40Z</time>
      </trkpt>
      <trkpt lat="58.444345034658909" lon="-3.09535201638937">
        <ele>1.58</ele>
        <time>2019-09-02T13:00:41Z</time>
      </trkpt>
      <trkpt lat="58.444498004391789" lon="-3.095628032460809">
        <ele>2.06</ele>
        <time>2019-09-02T13:00:43Z</time>
      </trkpt>
      <trkpt lat="58.444588026031852" lon="-3.095741020515561">
        <ele>2.06</ele>
        <time>2019-09-02T13:00:44Z</time>
      </trkpt>
      <trkpt lat="58.444687016308308" lon="-3.095835987478495">
        <ele>2.54</ele>
        <time>2019-09-02T13:00:45Z</time>
      </trkpt>
      <trkpt lat="58.444791035726666" lon="-3.095930032432079">
        <ele>3.02</ele>
        <time>2019-09-02T13:00:46Z</time>
      </trkpt>
      <trkpt lat="58.444897988811135" lon="-3.095987029373646">
        <ele>3.02</ele>
        <time>2019-09-02T13:00:47Z</time>
      </trkpt>
      <trkpt lat="58.445501988753676" lon="-3.096099011600018">
        <ele>5.42</ele>
        <time>2019-09-02T13:00:53Z</time>
      </trkpt>
      <trkpt lat="58.445599973201752" lon="-3.096076967194676">
        <ele>5.91</ele>
        <time>2019-09-02T13:00:54Z</time>
      </trkpt>
      <trkpt lat="58.446588031947613" lon="-3.095586039125919">
        <ele>11.67</ele>
        <time>2019-09-02T13:01:05Z</time>
      </trkpt>
      <trkpt lat="58.447878006845713" lon="-3.09488195925951">
        <ele>16.48</ele>
        <time>2019-09-02T13:01:18Z</time>
      </trkpt>
      <trkpt lat="58.44826097600162" lon="-3.094710968434811">
        <ele>16.960000000000001</ele>
        <time>2019-09-02T13:01:22Z</time>
      </trkpt>
      <trkpt lat="58.44834303483367" lon="-3.094710968434811">
        <ele>16.960000000000001</ele>
        <time>2019-09-02T13:01:23Z</time>
      </trkpt>
      <trkpt lat="58.448412017896771" lon="-3.094785986468196">
        <ele>16.960000000000001</ele>
        <time>2019-09-02T13:01:24Z</time>
      </trkpt>
      <trkpt lat="58.448481000959873" lon="-3.094887994229794">
        <ele>16.960000000000001</ele>
        <time>2019-09-02T13:01:25Z</time>
      </trkpt>
      <trkpt lat="58.448555013164878" lon="-3.094995031133294">
        <ele>17.440000000000001</ele>
        <time>2019-09-02T13:01:26Z</time>
      </trkpt>
      <trkpt lat="58.448628019541502" lon="-3.095102990046144">
        <ele>17.440000000000001</ele>
        <time>2019-09-02T13:01:27Z</time>
      </trkpt>
      <trkpt lat="58.448703959584236" lon="-3.095213966444135">
        <ele>16.960000000000001</ele>
        <time>2019-09-02T13:01:28Z</time>
      </trkpt>
      <trkpt lat="58.448961032554507" lon="-3.095590984448791">
        <ele>17.920000000000002</ele>
        <time>2019-09-02T13:01:31Z</time>
      </trkpt>
      <trkpt lat="58.449111990630627" lon="-3.095832969993353">
        <ele>18.399999999999999</ele>
        <time>2019-09-02T13:01:33Z</time>
      </trkpt>
      <trkpt lat="58.449198994785547" lon="-3.095973031595349">
        <ele>18.399999999999999</ele>
        <time>2019-09-02T13:01:34Z</time>
      </trkpt>
      <trkpt lat="58.44928901642561" lon="-3.096118038520217">
        <ele>18.399999999999999</ele>
        <time>2019-09-02T13:01:35Z</time>
      </trkpt>
      <trkpt lat="58.450401965528727" lon="-3.097948981449008">
        <ele>19.84</ele>
        <time>2019-09-02T13:01:46Z</time>
      </trkpt>
      <trkpt lat="58.451854968443513" lon="-3.100332962349057">
        <ele>22.25</ele>
        <time>2019-09-02T13:01:58Z</time>
      </trkpt>
      <trkpt lat="58.453175034373999" lon="-3.102504964917898">
        <ele>21.289999999999999</ele>
        <time>2019-09-02T13:02:09Z</time>
      </trkpt>
      <trkpt lat="58.453897973522544" lon="-3.103686980903149">
        <ele>20.32</ele>
        <time>2019-09-02T13:02:17Z</time>
      </trkpt>
      <trkpt lat="58.454840015619993" lon="-3.105230005457997">
        <ele>20.809999999999999</ele>
        <time>2019-09-02T13:02:29Z</time>
      </trkpt>
      <trkpt lat="58.455994036048651" lon="-3.107122974470258">
        <ele>22.73</ele>
        <time>2019-09-02T13:02:44Z</time>
      </trkpt>
      <trkpt lat="58.456748994067311" lon="-3.108386965468526">
        <ele>25.129999999999999</ele>
        <time>2019-09-02T13:02:54Z</time>
      </trkpt>
      <trkpt lat="58.45786202698946" lon="-3.1100910063833">
        <ele>26.57</ele>
        <time>2019-09-02T13:03:04Z</time>
      </trkpt>
      <trkpt lat="58.459314024075866" lon="-3.112274995073676">
        <ele>28.02</ele>
        <time>2019-09-02T13:03:15Z</time>
      </trkpt>
      <trkpt lat="58.460375005379319" lon="-3.113867975771427">
        <ele>30.420000000000002</ele>
        <time>2019-09-02T13:03:24Z</time>
      </trkpt>
      <trkpt lat="58.461457025259733" lon="-3.1154840067029">
        <ele>31.379999999999999</ele>
        <time>2019-09-02T13:03:34Z</time>
      </trkpt>
      <trkpt lat="58.463281011208892" lon="-3.118236036971211">
        <ele>30.420000000000002</ele>
        <time>2019-09-02T13:03:47Z</time>
      </trkpt>
      <trkpt lat="58.465865990146995" lon="-3.122143009677529">
        <ele>30.420000000000002</ele>
        <time>2019-09-02T13:04:05Z</time>
      </trkpt>
      <trkpt lat="58.467814028263092" lon="-3.125092014670372">
        <ele>31.379999999999999</ele>
        <time>2019-09-02T13:04:18Z</time>
      </trkpt>
      <trkpt lat="58.469480015337467" lon="-3.127613039687276">
        <ele>31.379999999999999</ele>
        <time>2019-09-02T13:04:30Z</time>
      </trkpt>
      <trkpt lat="58.470384003594518" lon="-3.129797028377652">
        <ele>30.899999999999999</ele>
        <time>2019-09-02T13:04:38Z</time>
      </trkpt>
      <trkpt lat="58.472358025610447" lon="-3.134945025667548">
        <ele>33.780000000000001</ele>
        <time>2019-09-02T13:04:54Z</time>
      </trkpt>
      <trkpt lat="58.473155982792377" lon="-3.137068999931216">
        <ele>35.229999999999997</ele>
        <time>2019-09-02T13:05:01Z</time>
      </trkpt>
      <trkpt lat="58.474195003509521" lon="-3.139757998287678">
        <ele>37.630000000000003</ele>
        <time>2019-09-02T13:05:12Z</time>
      </trkpt>
      <trkpt lat="58.47500997595489" lon="-3.141864035278559">
        <ele>40.990000000000002</ele>
        <time>2019-09-02T13:05:22Z</time>
      </trkpt>
      <trkpt lat="58.475885968655348" lon="-3.144169980660081">
        <ele>45.799999999999997</ele>
        <time>2019-09-02T13:05:36Z</time>
      </trkpt>
      <trkpt lat="58.475991999730468" lon="-3.144449014216662">
        <ele>46.280000000000001</ele>
        <time>2019-09-02T13:05:39Z</time>
      </trkpt>
      <trkpt lat="58.47601898945868" lon="-3.144521014764905">
        <ele>46.280000000000001</ele>
        <time>2019-09-02T13:05:40Z</time>
      </trkpt>
      <trkpt lat="58.476101970300078" lon="-3.144517997279763">
        <ele>46.280000000000001</ele>
        <time>2019-09-02T13:05:41Z</time>
      </trkpt>
      <trkpt lat="58.47614698112011" lon="-3.144472986459732">
        <ele>46.759999999999998</ele>
        <time>2019-09-02T13:05:42Z</time>
      </trkpt>
      <trkpt lat="58.476199032738805" lon="-3.144421018660069">
        <ele>46.759999999999998</ele>
        <time>2019-09-02T13:05:43Z</time>
      </trkpt>
      <trkpt lat="58.476258041337132" lon="-3.144356980919838">
        <ele>46.759999999999998</ele>
        <time>2019-09-02T13:05:44Z</time>
      </trkpt>
      <trkpt lat="58.476325012743473" lon="-3.144284980371594">
        <ele>46.759999999999998</ele>
        <time>2019-09-02T13:05:45Z</time>
      </trkpt>
      <trkpt lat="58.476488040760159" lon="-3.144108038395643">
        <ele>46.759999999999998</ele>
        <time>2019-09-02T13:05:47Z</time>
      </trkpt>
      <trkpt lat="58.476798003539443" lon="-3.143821964040399">
        <ele>46.759999999999998</ele>
        <time>2019-09-02T13:05:50Z</time>
      </trkpt>
      <trkpt lat="58.476927001029253" lon="-3.143772007897496">
        <ele>46.280000000000001</ele>
        <time>2019-09-02T13:05:51Z</time>
      </trkpt>
      <trkpt lat="58.477059016004205" lon="-3.143720962107182">
        <ele>46.280000000000001</ele>
        <time>2019-09-02T13:05:52Z</time>
      </trkpt>
      <trkpt lat="58.477325979620218" lon="-3.143617026507855">
        <ele>46.280000000000001</ele>
        <time>2019-09-02T13:05:54Z</time>
      </trkpt>
      <trkpt lat="58.477462017908692" lon="-3.143563969060779">
        <ele>46.280000000000001</ele>
        <time>2019-09-02T13:05:55Z</time>
      </trkpt>
      <trkpt lat="58.477589003741741" lon="-3.143473025411367">
        <ele>46.280000000000001</ele>
        <time>2019-09-02T13:05:56Z</time>
      </trkpt>
      <trkpt lat="58.47771598957479" lon="-3.143363976851106">
        <ele>46.280000000000001</ele>
        <time>2019-09-02T13:05:57Z</time>
      </trkpt>
      <trkpt lat="58.477838030084968" lon="-3.143258029595017">
        <ele>46.280000000000001</ele>
        <time>2019-09-02T13:05:58Z</time>
      </trkpt>
      <trkpt lat="58.479401003569365" lon="-3.141919020563364">
        <ele>45.32</ele>
        <time>2019-09-02T13:06:11Z</time>
      </trkpt>
      <trkpt lat="58.480999013409019" lon="-3.140856027603149">
        <ele>40.990000000000002</ele>
        <time>2019-09-02T13:06:22Z</time>
      </trkpt>
      <trkpt lat="58.482328969985247" lon="-3.140866002067924">
        <ele>38.590000000000003</ele>
        <time>2019-09-02T13:06:30Z</time>
      </trkpt>
      <trkpt lat="58.484251024201512" lon="-3.141772001981735">
        <ele>37.149999999999999</ele>
        <time>2019-09-02T13:06:41Z</time>
      </trkpt>
      <trkpt lat="58.48714797757566" lon="-3.143196003511548">
        <ele>33.299999999999997</ele>
        <time>2019-09-02T13:06:56Z</time>
      </trkpt>
      <trkpt lat="58.488730983808637" lon="-3.143975017592311">
        <ele>32.340000000000003</ele>
        <time>2019-09-02T13:07:03Z</time>
      </trkpt>
      <trkpt lat="58.491062996909022" lon="-3.145121997222304">
        <ele>30.899999999999999</ele>
        <time>2019-09-02T13:07:15Z</time>
      </trkpt>
      <trkpt lat="58.493526019155979" lon="-3.146333014592528">
        <ele>30.420000000000002</ele>
        <time>2019-09-02T13:07:27Z</time>
      </trkpt>
      <trkpt lat="58.496703011915088" lon="-3.147895988076925">
        <ele>23.210000000000001</ele>
        <time>2019-09-02T13:07:42Z</time>
      </trkpt>
      <trkpt lat="58.499359991401434" lon="-3.149202978238463">
        <ele>18.879999999999999</ele>
        <time>2019-09-02T13:07:54Z</time>
      </trkpt>
      <trkpt lat="58.503413982689381" lon="-3.151196027174592">
        <ele>16</ele>
        <time>2019-09-02T13:08:12Z</time>
      </trkpt>
      <trkpt lat="58.506717961281538" lon="-3.15278297290206">
        <ele>13.6</ele>
        <time>2019-09-02T13:08:27Z</time>
      </trkpt>
      <trkpt lat="58.508169036358595" lon="-3.152763023972511">
        <ele>11.19</ele>
        <time>2019-09-02T13:08:34Z</time>
      </trkpt>
      <trkpt lat="58.509382987394929" lon="-3.151874961331487">
        <ele>7.35</ele>
        <time>2019-09-02T13:08:40Z</time>
      </trkpt>
      <trkpt lat="58.510512029752135" lon="-3.150108978152275">
        <ele>5.42</ele>
        <time>2019-09-02T13:08:47Z</time>
      </trkpt>
      <trkpt lat="58.511837963014841" lon="-3.147815018892288">
        <ele>2.54</ele>
        <time>2019-09-02T13:08:57Z</time>
      </trkpt>
      <trkpt lat="58.511999985203147" lon="-3.147633969783783">
        <ele>2.54</ele>
        <time>2019-09-02T13:08:58Z</time>
      </trkpt>
      <trkpt lat="58.514121025800705" lon="-3.145943004637957">
        <ele>3.5</ele>
        <time>2019-09-02T13:09:10Z</time>
      </trkpt>
      <trkpt lat="58.516356982290745" lon="-3.14421197399497">
        <ele>3.5</ele>
        <time>2019-09-02T13:09:21Z</time>
      </trkpt>
      <trkpt lat="58.519036006182432" lon="-3.142560990527272">
        <ele>5.91</ele>
        <time>2019-09-02T13:09:34Z</time>
      </trkpt>
      <trkpt lat="58.521587960422039" lon="-3.141019977629185">
        <ele>8.310000000000001</ele>
        <time>2019-09-02T13:09:46Z</time>
      </trkpt>
      <trkpt lat="58.523891977965832" lon="-3.139627994969487">
        <ele>11.67</ele>
        <time>2019-09-02T13:09:57Z</time>
      </trkpt>
      <trkpt lat="58.525818977504969" lon="-3.138010958209634">
        <ele>14.56</ele>
        <time>2019-09-02T13:10:07Z</time>
      </trkpt>
      <trkpt lat="58.52747599594295" lon="-3.136461982503533">
        <ele>15.52</ele>
        <time>2019-09-02T13:10:17Z</time>
      </trkpt>
      <trkpt lat="58.527616979554296" lon="-3.136242041364312">
        <ele>15.52</ele>
        <time>2019-09-02T13:10:18Z</time>
      </trkpt>
      <trkpt lat="58.529084986075759" lon="-3.133506020531058">
        <ele>12.630000000000001</ele>
        <time>2019-09-02T13:10:28Z</time>
      </trkpt>
      <trkpt lat="58.53093302808702" lon="-3.130011018365622">
        <ele>12.630000000000001</ele>
        <time>2019-09-02T13:10:41Z</time>
      </trkpt>
      <trkpt lat="58.532854998484254" lon="-3.12633496709168">
        <ele>12.630000000000001</ele>
        <time>2019-09-02T13:10:55Z</time>
      </trkpt>
      <trkpt lat="58.533694026991725" lon="-3.124759001657367">
        <ele>15.52</ele>
        <time>2019-09-02T13:11:04Z</time>
      </trkpt>
      <trkpt lat="58.534196019172668" lon="-3.123790975660086">
        <ele>19.359999999999999</ele>
        <time>2019-09-02T13:11:13Z</time>
      </trkpt>
      <trkpt lat="58.534669009968638" lon="-3.122922023758292">
        <ele>23.690000000000001</ele>
        <time>2019-09-02T13:11:21Z</time>
      </trkpt>
      <trkpt lat="58.535440983250737" lon="-3.121463991701603">
        <ele>25.129999999999999</ele>
        <time>2019-09-02T13:11:32Z</time>
      </trkpt>
      <trkpt lat="58.536334997043014" lon="-3.119742013514042">
        <ele>22.25</ele>
        <time>2019-09-02T13:11:40Z</time>
      </trkpt>
      <trkpt lat="58.53802302852273" lon="-3.116512969136238">
        <ele>26.57</ele>
        <time>2019-09-02T13:11:53Z</time>
      </trkpt>
      <trkpt lat="58.540032003074884" lon="-3.112681014463306">
        <ele>28.02</ele>
        <time>2019-09-02T13:12:06Z</time>
      </trkpt>
      <trkpt lat="58.542198976501822" lon="-3.10856600292027">
        <ele>30.420000000000002</ele>
        <time>2019-09-02T13:12:19Z</time>
      </trkpt>
      <trkpt lat="58.54296600446105" lon="-3.106557028368115">
        <ele>34.259999999999998</ele>
        <time>2019-09-02T13:12:25Z</time>
      </trkpt>
      <trkpt lat="58.54365399107337" lon="-3.102749967947602">
        <ele>34.740000000000002</ele>
        <time>2019-09-02T13:12:35Z</time>
      </trkpt>
      <trkpt lat="58.544237958267331" lon="-3.099351022392511">
        <ele>37.149999999999999</ele>
        <time>2019-09-02T13:12:45Z</time>
      </trkpt>
      <trkpt lat="58.544994005933404" lon="-3.096754979342222">
        <ele>38.109999999999999</ele>
        <time>2019-09-02T13:12:54Z</time>
      </trkpt>
      <trkpt lat="58.546349024400115" lon="-3.093258971348405">
        <ele>40.990000000000002</ele>
        <time>2019-09-02T13:13:07Z</time>
      </trkpt>
      <trkpt lat="58.546686982735991" lon="-3.092553969472647">
        <ele>41.469999999999999</ele>
        <time>2019-09-02T13:13:10Z</time>
      </trkpt>
      <trkpt lat="58.546817991882563" lon="-3.092359006404877">
        <ele>41.950000000000003</ele>
        <time>2019-09-02T13:13:11Z</time>
      </trkpt>
      <trkpt lat="58.546958975493908" lon="-3.092180974781513">
        <ele>41.950000000000003</ele>
        <time>2019-09-02T13:13:12Z</time>
      </trkpt>
      <trkpt lat="58.547113034874201" lon="-3.092025993391872">
        <ele>42.439999999999998</ele>
        <time>2019-09-02T13:13:13Z</time>
      </trkpt>
      <trkpt lat="58.547281008213758" lon="-3.0919140111655">
        <ele>42.439999999999998</ele>
        <time>2019-09-02T13:13:14Z</time>
      </trkpt>
      <trkpt lat="58.547457028180361" lon="-3.09180798009038">
        <ele>42.439999999999998</ele>
        <time>2019-09-02T13:13:15Z</time>
      </trkpt>
      <trkpt lat="58.547641010954976" lon="-3.091757018119097">
        <ele>42.920000000000002</ele>
        <time>2019-09-02T13:13:16Z</time>
      </trkpt>
      <trkpt lat="58.547833962365985" lon="-3.091763975098729">
        <ele>42.920000000000002</ele>
        <time>2019-09-02T13:13:17Z</time>
      </trkpt>
      <trkpt lat="58.548028003424406" lon="-3.091778978705406">
        <ele>43.399999999999999</ele>
        <time>2019-09-02T13:13:18Z</time>
      </trkpt>
      <trkpt lat="58.548225983977318" lon="-3.091794988140464">
        <ele>42.920000000000002</ele>
        <time>2019-09-02T13:13:19Z</time>
      </trkpt>
      <trkpt lat="58.549748975783587" lon="-3.091544033959508">
        <ele>42.439999999999998</ele>
        <time>2019-09-02T13:13:26Z</time>
      </trkpt>
      <trkpt lat="58.551789969205856" lon="-3.090161019936204">
        <ele>40.030000000000001</ele>
        <time>2019-09-02T13:13:35Z</time>
      </trkpt>
      <trkpt lat="58.554684994742274" lon="-3.088325969874859">
        <ele>32.82</ele>
        <time>2019-09-02T13:13:49Z</time>
      </trkpt>
      <trkpt lat="58.557110968977213" lon="-3.086813036352396">
        <ele>30.420000000000002</ele>
        <time>2019-09-02T13:14:01Z</time>
      </trkpt>
      <trkpt lat="58.558594984933734" lon="-3.086312972009182">
        <ele>29.940000000000001</ele>
        <time>2019-09-02T13:14:09Z</time>
      </trkpt>
      <trkpt lat="58.560123005881906" lon="-3.08572699315846">
        <ele>23.210000000000001</ele>
        <time>2019-09-02T13:14:17Z</time>
      </trkpt>
      <trkpt lat="58.562055034562945" lon="-3.084064023569226">
        <ele>16</ele>
        <time>2019-09-02T13:14:26Z</time>
      </trkpt>
      <trkpt lat="58.56423701159656" lon="-3.082178011536598">
        <ele>14.56</ele>
        <time>2019-09-02T13:14:37Z</time>
      </trkpt>
      <trkpt lat="58.567011002451181" lon="-3.079760000109673">
        <ele>23.210000000000001</ele>
        <time>2019-09-02T13:14:52Z</time>
      </trkpt>
      <trkpt lat="58.569596987217665" lon="-3.077460005879402">
        <ele>43.399999999999999</ele>
        <time>2019-09-02T13:15:07Z</time>
      </trkpt>
      <trkpt lat="58.571802014485002" lon="-3.075144002214074">
        <ele>51.090000000000003</ele>
        <time>2019-09-02T13:15:20Z</time>
      </trkpt>
      <trkpt lat="58.573186034336686" lon="-3.072733031585813">
        <ele>53.009999999999998</ele>
        <time>2019-09-02T13:15:29Z</time>
      </trkpt>
      <trkpt lat="58.573507983237505" lon="-3.072426002472639">
        <ele>53.969999999999999</ele>
        <time>2019-09-02T13:15:31Z</time>
      </trkpt>
      <trkpt lat="58.573665982112288" lon="-3.072306979447603">
        <ele>54.450000000000003</ele>
        <time>2019-09-02T13:15:32Z</time>
      </trkpt>
      <trkpt lat="58.573830015957355" lon="-3.072274960577488">
        <ele>54.450000000000003</ele>
        <time>2019-09-02T13:15:33Z</time>
      </trkpt>
      <trkpt lat="58.57399296015501" lon="-3.072244031354785">
        <ele>54.93</ele>
        <time>2019-09-02T13:15:34Z</time>
      </trkpt>
      <trkpt lat="58.574155988171697" lon="-3.07221201248467">
        <ele>55.409999999999997</ele>
        <time>2019-09-02T13:15:35Z</time>
      </trkpt>
      <trkpt lat="58.574320022016764" lon="-3.072180999442935">
        <ele>55.890000000000001</ele>
        <time>2019-09-02T13:15:36Z</time>
      </trkpt>
      <trkpt lat="58.574482966214418" lon="-3.072216035798192">
        <ele>55.890000000000001</ele>
        <time>2019-09-02T13:15:37Z</time>
      </trkpt>
      <trkpt lat="58.576611969619989" lon="-3.072779970243573">
        <ele>56.369999999999997</ele>
        <time>2019-09-02T13:15:49Z</time>
      </trkpt>
      <trkpt lat="58.57792398892343" lon="-3.07380298152566">
        <ele>54.450000000000003</ele>
        <time>2019-09-02T13:15:57Z</time>
      </trkpt>
      <trkpt lat="58.579816035926342" lon="-3.075536023825407">
        <ele>45.799999999999997</ele>
        <time>2019-09-02T13:16:09Z</time>
      </trkpt>
      <trkpt lat="58.581689978018403" lon="-3.077720012515783">
        <ele>34.259999999999998</ele>
        <time>2019-09-02T13:16:20Z</time>
      </trkpt>
      <trkpt lat="58.583223028108478" lon="-3.080347990617156">
        <ele>27.050000000000001</ele>
        <time>2019-09-02T13:16:30Z</time>
      </trkpt>
      <trkpt lat="58.584696985781193" lon="-3.082437012344599">
        <ele>23.210000000000001</ele>
        <time>2019-09-02T13:16:40Z</time>
      </trkpt>
      <trkpt lat="58.586287032812834" lon="-3.083284003660083">
        <ele>21.289999999999999</ele>
        <time>2019-09-02T13:16:48Z</time>
      </trkpt>
      <trkpt lat="58.589183986186981" lon="-3.084962982684374">
        <ele>20.32</ele>
        <time>2019-09-02T13:17:03Z</time>
      </trkpt>
      <trkpt lat="58.591853035613894" lon="-3.086558980867267">
        <ele>19.359999999999999</ele>
        <time>2019-09-02T13:17:17Z</time>
      </trkpt>
      <trkpt lat="58.593427995219827" lon="-3.086596028879285">
        <ele>17.920000000000002</ele>
        <time>2019-09-02T13:17:25Z</time>
      </trkpt>
      <trkpt lat="58.594887033104897" lon="-3.086991989985108">
        <ele>18.879999999999999</ele>
        <time>2019-09-02T13:17:33Z</time>
      </trkpt>
      <trkpt lat="58.597437981516123" lon="-3.087695986032486">
        <ele>27.530000000000001</ele>
        <time>2019-09-02T13:17:46Z</time>
      </trkpt>
      <trkpt lat="58.599917013198137" lon="-3.087987005710602">
        <ele>36.670000000000002</ele>
        <time>2019-09-02T13:17:58Z</time>
      </trkpt>
      <trkpt lat="58.601810988038778" lon="-3.088097982108593">
        <ele>41.469999999999999</ele>
        <time>2019-09-02T13:18:08Z</time>
      </trkpt>
      <trkpt lat="58.603575965389609" lon="-3.088414985686541">
        <ele>44.840000000000003</ele>
        <time>2019-09-02T13:18:18Z</time>
      </trkpt>
      <trkpt lat="58.60505897551775" lon="-3.088442981243134">
        <ele>51.57</ele>
        <time>2019-09-02T13:18:26Z</time>
      </trkpt>
      <trkpt lat="58.605249999091029" lon="-3.088311972096562">
        <ele>52.530000000000001</ele>
        <time>2019-09-02T13:18:27Z</time>
      </trkpt>
      <trkpt lat="58.605442028492689" lon="-3.088181968778372">
        <ele>53.969999999999999</ele>
        <time>2019-09-02T13:18:28Z</time>
      </trkpt>
      <trkpt lat="58.605616958811879" lon="-3.087996980175376">
        <ele>54.93</ele>
        <time>2019-09-02T13:18:29Z</time>
      </trkpt>
      <trkpt lat="58.605786021798849" lon="-3.087790030986071">
        <ele>56.369999999999997</ele>
        <time>2019-09-02T13:18:30Z</time>
      </trkpt>
      <trkpt lat="58.605946032330394" lon="-3.087561037391424">
        <ele>57.340000000000003</ele>
        <time>2019-09-02T13:18:31Z</time>
      </trkpt>
      <trkpt lat="58.606087015941739" lon="-3.08729499578476">
        <ele>58.780000000000001</ele>
        <time>2019-09-02T13:18:32Z</time>
      </trkpt>
      <trkpt lat="58.606209978461266" lon="-3.087010011076927">
        <ele>60.219999999999999</ele>
        <time>2019-09-02T13:18:33Z</time>
      </trkpt>
      <trkpt lat="58.606332018971443" lon="-3.086728965863586">
        <ele>61.659999999999997</ele>
        <time>2019-09-02T13:18:34Z</time>
      </trkpt>
      <trkpt lat="58.606440983712673" lon="-3.086433000862598">
        <ele>62.619999999999997</ele>
        <time>2019-09-02T13:18:35Z</time>
      </trkpt>
      <trkpt lat="58.607223015278578" lon="-3.083888003602624">
        <ele>73.200000000000003</ele>
        <time>2019-09-02T13:18:44Z</time>
      </trkpt>
      <trkpt lat="58.608319032937288" lon="-3.081147959455848">
        <ele>83.290000000000006</ele>
        <time>2019-09-02T13:18:54Z</time>
      </trkpt>
      <trkpt lat="58.609481016173959" lon="-3.079003030434251">
        <ele>89.060000000000002</ele>
        <time>2019-09-02T13:19:03Z</time>
      </trkpt>
      <trkpt lat="58.609960963949561" lon="-3.078496009111404">
        <ele>90.5</ele>
        <time>2019-09-02T13:19:06Z</time>
      </trkpt>
      <trkpt lat="58.610123991966248" lon="-3.078385032713413">
        <ele>90.980000000000004</ele>
        <time>2019-09-02T13:19:07Z</time>
      </trkpt>
      <trkpt lat="58.610293976962566" lon="-3.078329963609576">
        <ele>91.459999999999994</ele>
        <time>2019-09-02T13:19:08Z</time>
      </trkpt>
      <trkpt lat="58.610467985272408" lon="-3.07827397249639">
        <ele>91.459999999999994</ele>
        <time>2019-09-02T13:19:09Z</time>
      </trkpt>
      <trkpt lat="58.610648028552532" lon="-3.078215969726443">
        <ele>91.939999999999998</ele>
        <time>2019-09-02T13:19:10Z</time>
      </trkpt>
      <trkpt lat="58.61083896830678" lon="-3.078199960291386">
        <ele>92.420000000000002</ele>
        <time>2019-09-02T13:19:11Z</time>
      </trkpt>
      <trkpt lat="58.611037032678723" lon="-3.078222004696727">
        <ele>92.420000000000002</ele>
        <time>2019-09-02T13:19:12Z</time>
      </trkpt>
      <trkpt lat="58.612764962017536" lon="-3.078745035454631">
        <ele>94.829999999999998</ele>
        <time>2019-09-02T13:19:20Z</time>
      </trkpt>
      <trkpt lat="58.614352997392416" lon="-3.079964015632868">
        <ele>98.670000000000002</ele>
        <time>2019-09-02T13:19:28Z</time>
      </trkpt>
      <trkpt lat="58.617021040990949" lon="-3.082556035369635">
        <ele>96.75</ele>
        <time>2019-09-02T13:19:42Z</time>
      </trkpt>
      <trkpt lat="58.61844596453011" lon="-3.083575023338199">
        <ele>92.900000000000006</ele>
        <time>2019-09-02T13:19:49Z</time>
      </trkpt>
      <trkpt lat="58.620203984901309" lon="-3.084432994946837">
        <ele>87.620000000000005</ele>
        <time>2019-09-02T13:19:57Z</time>
      </trkpt>
      <trkpt lat="58.621743991971016" lon="-3.085185019299388">
        <ele>81.370000000000005</ele>
        <time>2019-09-02T13:20:06Z</time>
      </trkpt>
      <trkpt lat="58.623445015400648" lon="-3.08600896038115">
        <ele>76.560000000000002</ele>
        <time>2019-09-02T13:20:15Z</time>
      </trkpt>
      <trkpt lat="58.624713029712439" lon="-3.086123038083315">
        <ele>72.719999999999999</ele>
        <time>2019-09-02T13:20:22Z</time>
      </trkpt>
      <trkpt lat="58.625934021547437" lon="-3.085306975990534">
        <ele>69.349999999999994</ele>
        <time>2019-09-02T13:20:29Z</time>
      </trkpt>
      <trkpt lat="58.626935994252563" lon="-3.0835369694978">
        <ele>63.579999999999998</ele>
        <time>2019-09-02T13:20:36Z</time>
      </trkpt>
      <trkpt lat="58.627796983346343" lon="-3.08106497861445">
        <ele>57.340000000000003</ele>
        <time>2019-09-02T13:20:44Z</time>
      </trkpt>
      <trkpt lat="58.628829969093204" lon="-3.077966021373868">
        <ele>50.609999999999999</ele>
        <time>2019-09-02T13:20:57Z</time>
      </trkpt>
      <trkpt lat="58.629377977922559" lon="-3.076286958530545">
        <ele>51.090000000000003</ele>
        <time>2019-09-02T13:21:05Z</time>
      </trkpt>
      <trkpt lat="58.630027994513512" lon="-3.073686975985766">
        <ele>46.759999999999998</ele>
        <time>2019-09-02T13:21:14Z</time>
      </trkpt>
      <trkpt lat="58.63030401058495" lon="-3.071372983977199">
        <ele>43.880000000000003</ele>
        <time>2019-09-02T13:21:21Z</time>
      </trkpt>
      <trkpt lat="58.630352038890123" lon="-3.071115994825959">
        <ele>43.880000000000003</ele>
        <time>2019-09-02T13:21:22Z</time>
      </trkpt>
      <trkpt lat="58.63040903583169" lon="-3.070883983746171">
        <ele>43.399999999999999</ele>
        <time>2019-09-02T13:21:23Z</time>
      </trkpt>
      <trkpt lat="58.630496961995959" lon="-3.07068700902164">
        <ele>43.399999999999999</ele>
        <time>2019-09-02T13:21:24Z</time>
      </trkpt>
      <trkpt lat="58.63058497197926" lon="-3.070488022640348">
        <ele>43.399999999999999</ele>
        <time>2019-09-02T13:21:25Z</time>
      </trkpt>
      <trkpt lat="58.630681028589606" lon="-3.070315020158887">
        <ele>42.920000000000002</ele>
        <time>2019-09-02T13:21:26Z</time>
      </trkpt>
      <trkpt lat="58.63079602830112" lon="-3.070185016840696">
        <ele>42.920000000000002</ele>
        <time>2019-09-02T13:21:27Z</time>
      </trkpt>
      <trkpt lat="58.630912033841014" lon="-3.070055013522506">
        <ele>42.439999999999998</ele>
        <time>2019-09-02T13:21:28Z</time>
      </trkpt>
      <trkpt lat="58.631031978875399" lon="-3.069948982447386">
        <ele>42.439999999999998</ele>
        <time>2019-09-02T13:21:29Z</time>
      </trkpt>
      <trkpt lat="58.631166005507112" lon="-3.069885028526187">
        <ele>41.950000000000003</ele>
        <time>2019-09-02T13:21:30Z</time>
      </trkpt>
      <trkpt lat="58.631302965804935" lon="-3.069819984957576">
        <ele>41.950000000000003</ele>
        <time>2019-09-02T13:21:31Z</time>
      </trkpt>
      <trkpt lat="58.632914973422885" lon="-3.069140966981649">
        <ele>36.670000000000002</ele>
        <time>2019-09-02T13:21:42Z</time>
      </trkpt>
      <trkpt lat="58.635167023167014" lon="-3.069041976705194">
        <ele>28.5</ele>
        <time>2019-09-02T13:21:57Z</time>
      </trkpt>
      <trkpt lat="58.636540984734893" lon="-3.068984979763627">
        <ele>23.690000000000001</ele>
        <time>2019-09-02T13:22:08Z</time>
      </trkpt>
      <trkpt lat="58.63767103292048" lon="-3.068933011963964">
        <ele>22.25</ele>
        <time>2019-09-02T13:22:18Z</time>
      </trkpt>
      <trkpt lat="58.63831602036953" lon="-3.068914990872145">
        <ele>23.210000000000001</ele>
        <time>2019-09-02T13:22:29Z</time>
      </trkpt>
      <trkpt lat="58.638946004211903" lon="-3.068868974223733">
        <ele>23.690000000000001</ele>
        <time>2019-09-02T13:22:37Z</time>
      </trkpt>
      <trkpt lat="58.640476036816835" lon="-3.068781970068812">
        <ele>20.809999999999999</ele>
        <time>2019-09-02T13:22:51Z</time>
      </trkpt>
      <trkpt lat="58.64128396846354" lon="-3.068740982562304">
        <ele>17.920000000000002</ele>
        <time>2019-09-02T13:23:00Z</time>
      </trkpt>
      <trkpt lat="58.641960974782705" lon="-3.068702006712556">
        <ele>15.039999999999999</ele>
        <time>2019-09-02T13:23:12Z</time>
      </trkpt>
      <trkpt lat="58.642617026343942" lon="-3.068713992834091">
        <ele>12.630000000000001</ele>
        <time>2019-09-02T13:23:22Z</time>
      </trkpt>
      <trkpt lat="58.642755998298526" lon="-3.068724973127246">
        <ele>11.67</ele>
        <time>2019-09-02T13:23:25Z</time>
      </trkpt>
      <trkpt lat="58.642792962491512" lon="-3.068747017532587">
        <ele>11.67</ele>
        <time>2019-09-02T13:23:26Z</time>
      </trkpt>
      <trkpt lat="58.642981974408031" lon="-3.069111965596676">
        <ele>9.75</ele>
        <time>2019-09-02T13:23:36Z</time>
      </trkpt>
      <trkpt lat="58.64302203990519" lon="-3.069703979417682">
        <ele>10.710000000000001</ele>
        <time>2019-09-02T13:23:47Z</time>
      </trkpt>
      <trkpt lat="58.643106026574969" lon="-3.070129025727511">
        <ele>13.119999999999999</ele>
        <time>2019-09-02T13:24:01Z</time>
      </trkpt>
      <trkpt lat="58.643111977726221" lon="-3.070173030719161">
        <ele>13.6</ele>
        <time>2019-09-02T13:24:17Z</time>
      </trkpt>
      <trkpt lat="58.643067972734571" lon="-3.070287024602294">
        <ele>6.39</ele>
        <time>2019-09-02T14:25:28Z</time>
      </trkpt>
      <trkpt lat="58.643122036010027" lon="-3.070221981033683">
        <ele>18.399999999999999</ele>
        <time>2019-09-02T14:26:04Z</time>
      </trkpt>
      <trkpt lat="58.643122036010027" lon="-3.070256011560559">
        <ele>16</ele>
        <time>2019-09-02T14:26:51Z</time>
      </trkpt>
      <trkpt lat="58.64310996606946" lon="-3.070174036547542">
        <ele>11.19</ele>
        <time>2019-09-02T14:27:16Z</time>
      </trkpt>
      <trkpt lat="58.64310703240335" lon="-3.070174036547542">
        <ele>11.67</ele>
        <time>2019-09-02T14:27:54Z</time>
      </trkpt>
      <trkpt lat="58.64310703240335" lon="-3.070174036547542">
        <ele>11.67</ele>
        <time>2019-09-02T14:28:14Z</time>
      </trkpt>
      <trkpt lat="58.643090017139912" lon="-3.070146040990949">
        <ele>11.19</ele>
        <time>2019-09-02T14:28:34Z</time>
      </trkpt>
      <trkpt lat="58.643054980784655" lon="-3.070058031007648">
        <ele>11.19</ele>
        <time>2019-09-02T14:29:02Z</time>
      </trkpt>
      <trkpt lat="58.643061015754938" lon="-3.069697022438049">
        <ele>6.39</ele>
        <time>2019-09-02T14:29:06Z</time>
      </trkpt>
      <trkpt lat="58.642981974408031" lon="-3.069111965596676">
        <ele>-1.3</ele>
        <time>2019-09-02T14:29:11Z</time>
      </trkpt>
      <trkpt lat="58.642981974408031" lon="-3.069111965596676">
        <ele>-2.75</ele>
        <time>2019-09-02T14:29:12Z</time>
      </trkpt>
      <trkpt lat="58.642965964972973" lon="-3.069068966433406">
        <ele>-6.59</ele>
        <time>2019-09-02T14:29:15Z</time>
      </trkpt>
      <trkpt lat="58.642939981073141" lon="-3.068995038047433">
        <ele>-8.029999999999999</ele>
        <time>2019-09-02T14:29:16Z</time>
      </trkpt>
      <trkpt lat="58.642909973859787" lon="-3.068911973387003">
        <ele>-9</ele>
        <time>2019-09-02T14:29:17Z</time>
      </trkpt>
      <trkpt lat="58.642874015495181" lon="-3.068811977282167">
        <ele>-9.960000000000001</ele>
        <time>2019-09-02T14:29:18Z</time>
      </trkpt>
      <trkpt lat="58.642821963876486" lon="-3.068769983947277">
        <ele>-10.92</ele>
        <time>2019-09-02T14:29:19Z</time>
      </trkpt>
      <trkpt lat="58.642730014398694" lon="-3.068722961470485">
        <ele>-11.4</ele>
        <time>2019-09-02T14:29:20Z</time>
      </trkpt>
      <trkpt lat="58.6426140088588" lon="-3.068712987005711">
        <ele>-11.880000000000001</ele>
        <time>2019-09-02T14:29:21Z</time>
      </trkpt>
      <trkpt lat="58.642513006925583" lon="-3.068705024197698">
        <ele>-11.880000000000001</ele>
        <time>2019-09-02T14:29:22Z</time>
      </trkpt>
      <trkpt lat="58.641555961221457" lon="-3.068727990612388">
        <ele>-6.59</ele>
        <time>2019-09-02T14:29:33Z</time>
      </trkpt>
      <trkpt lat="58.640259029343724" lon="-3.068792028352618">
        <ele>1.1</ele>
        <time>2019-09-02T14:29:44Z</time>
      </trkpt>
      <trkpt lat="58.639109032228589" lon="-3.068856988102198">
        <ele>7.35</ele>
        <time>2019-09-02T14:29:55Z</time>
      </trkpt>
      <trkpt lat="58.638702007010579" lon="-3.068885989487171">
        <ele>10.23</ele>
        <time>2019-09-02T14:30:01Z</time>
      </trkpt>
      <trkpt lat="58.63866001367569" lon="-3.068889006972313">
        <ele>10.710000000000001</ele>
        <time>2019-09-02T14:30:02Z</time>
      </trkpt>
      <trkpt lat="58.638623971492052" lon="-3.068892024457455">
        <ele>11.19</ele>
        <time>2019-09-02T14:30:03Z</time>
      </trkpt>
      <trkpt lat="58.638578960672021" lon="-3.069046000018716">
        <ele>11.67</ele>
        <time>2019-09-02T14:30:04Z</time>
      </trkpt>
      <trkpt lat="58.638595975935459" lon="-3.069112971425057">
        <ele>12.630000000000001</ele>
        <time>2019-09-02T14:30:05Z</time>
      </trkpt>
      <trkpt lat="58.638621959835291" lon="-3.069208022207022">
        <ele>13.119999999999999</ele>
        <time>2019-09-02T14:30:06Z</time>
      </trkpt>
      <trkpt lat="58.638655990362167" lon="-3.069337019696832">
        <ele>13.119999999999999</ele>
        <time>2019-09-02T14:30:07Z</time>
      </trkpt>
      <trkpt lat="58.638694966211915" lon="-3.069487977772951">
        <ele>13.6</ele>
        <time>2019-09-02T14:30:08Z</time>
      </trkpt>
      <trkpt lat="58.639135016128421" lon="-3.070957995951176">
        <ele>14.56</ele>
        <time>2019-09-02T14:30:15Z</time>
      </trkpt>
      <trkpt lat="58.639901960268617" lon="-3.073520008474588">
        <ele>14.56</ele>
        <time>2019-09-02T14:30:26Z</time>
      </trkpt>
      <trkpt lat="58.640822041779757" lon="-3.076556017622352">
        <ele>13.6</ele>
        <time>2019-09-02T14:30:37Z</time>
      </trkpt>
      <trkpt lat="58.642113022506237" lon="-3.080818969756365">
        <ele>13.119999999999999</ele>
        <time>2019-09-02T14:30:51Z</time>
      </trkpt>
      <trkpt lat="58.642830010503531" lon="-3.083271011710167">
        <ele>13.6</ele>
        <time>2019-09-02T14:30:59Z</time>
      </trkpt>
      <trkpt lat="58.642879966646433" lon="-3.083554990589619">
        <ele>13.6</ele>
        <time>2019-09-02T14:31:00Z</time>
      </trkpt>
      <trkpt lat="58.64291600883007" lon="-3.083851039409638">
        <ele>13.6</ele>
        <time>2019-09-02T14:31:01Z</time>
      </trkpt>
      <trkpt lat="58.642910979688168" lon="-3.084177011623979">
        <ele>13.6</ele>
        <time>2019-09-02T14:31:02Z</time>
      </trkpt>
      <trkpt lat="58.642905028536916" lon="-3.084521004930139">
        <ele>13.119999999999999</ele>
        <time>2019-09-02T14:31:03Z</time>
      </trkpt>
      <trkpt lat="58.6426140088588" lon="-3.086764002218843">
        <ele>14.08</ele>
        <time>2019-09-02T14:31:09Z</time>
      </trkpt>
      <trkpt lat="58.642288036644459" lon="-3.089810991659761">
        <ele>16</ele>
        <time>2019-09-02T14:31:17Z</time>
      </trkpt>
      <trkpt lat="58.641938008368015" lon="-3.094380972906947">
        <ele>20.32</ele>
        <time>2019-09-02T14:31:29Z</time>
      </trkpt>
      <trkpt lat="58.641612958163023" lon="-3.098578965291381">
        <ele>22.25</ele>
        <time>2019-09-02T14:31:41Z</time>
      </trkpt>
      <trkpt lat="58.641500975936651" lon="-3.100556004792452">
        <ele>21.77</ele>
        <time>2019-09-02T14:31:47Z</time>
      </trkpt>
      <trkpt lat="58.641500975936651" lon="-3.100883988663554">
        <ele>21.77</ele>
        <time>2019-09-02T14:31:48Z</time>
      </trkpt>
      <trkpt lat="58.641543975099921" lon="-3.101215995848179">
        <ele>21.289999999999999</ele>
        <time>2019-09-02T14:31:49Z</time>
      </trkpt>
      <trkpt lat="58.641613963991404" lon="-3.101532999426127">
        <ele>20.809999999999999</ele>
        <time>2019-09-02T14:31:50Z</time>
      </trkpt>
      <trkpt lat="58.641684958711267" lon="-3.101858971640468">
        <ele>20.32</ele>
        <time>2019-09-02T14:31:51Z</time>
      </trkpt>
      <trkpt lat="58.64177699200809" lon="-3.102187961339951">
        <ele>19.359999999999999</ele>
        <time>2019-09-02T14:31:52Z</time>
      </trkpt>
      <trkpt lat="58.64263404160738" lon="-3.10519203543663">
        <ele>13.6</ele>
        <time>2019-09-02T14:32:02Z</time>
      </trkpt>
      <trkpt lat="58.643149025738239" lon="-3.107086010277271">
        <ele>10.710000000000001</ele>
        <time>2019-09-02T14:32:09Z</time>
      </trkpt>
      <trkpt lat="58.643178027123213" lon="-3.10734199360013">
        <ele>10.23</ele>
        <time>2019-09-02T14:32:10Z</time>
      </trkpt>
      <trkpt lat="58.643191019073129" lon="-3.107597976922989">
        <ele>9.75</ele>
        <time>2019-09-02T14:32:11Z</time>
      </trkpt>
      <trkpt lat="58.643176015466452" lon="-3.107852032408118">
        <ele>9.27</ele>
        <time>2019-09-02T14:32:12Z</time>
      </trkpt>
      <trkpt lat="58.643125975504518" lon="-3.108091000467539">
        <ele>8.789999999999999</ele>
        <time>2019-09-02T14:32:13Z</time>
      </trkpt>
      <trkpt lat="58.643074007704854" lon="-3.108327034860849">
        <ele>8.789999999999999</ele>
        <time>2019-09-02T14:32:14Z</time>
      </trkpt>
      <trkpt lat="58.64297904074192" lon="-3.108516968786717">
        <ele>8.310000000000001</ele>
        <time>2019-09-02T14:32:15Z</time>
      </trkpt>
      <trkpt lat="58.642874015495181" lon="-3.108704974874854">
        <ele>8.310000000000001</ele>
        <time>2019-09-02T14:32:16Z</time>
      </trkpt>
      <trkpt lat="58.642761027440429" lon="-3.108906978741288">
        <ele>8.310000000000001</ele>
        <time>2019-09-02T14:32:17Z</time>
      </trkpt>
      <trkpt lat="58.641440961509943" lon="-3.111245026811957">
        <ele>6.87</ele>
        <time>2019-09-02T14:32:27Z</time>
      </trkpt>
      <trkpt lat="58.63962896168232" lon="-3.114337027072907">
        <ele>9.27</ele>
        <time>2019-09-02T14:32:39Z</time>
      </trkpt>
      <trkpt lat="58.638603016734123" lon="-3.11651598662138">
        <ele>13.6</ele>
        <time>2019-09-02T14:32:48Z</time>
      </trkpt>
      <trkpt lat="58.638552976772189" lon="-3.116755038499832">
        <ele>14.08</ele>
        <time>2019-09-02T14:32:49Z</time>
      </trkpt>
      <trkpt lat="58.638512995094061" lon="-3.11700901016593">
        <ele>14.08</ele>
        <time>2019-09-02T14:32:50Z</time>
      </trkpt>
      <trkpt lat="58.638494974002242" lon="-3.117295000702143">
        <ele>14.08</ele>
        <time>2019-09-02T14:32:51Z</time>
      </trkpt>
      <trkpt lat="58.638476030901074" lon="-3.117604041472077">
        <ele>14.56</ele>
        <time>2019-09-02T14:32:52Z</time>
      </trkpt>
      <trkpt lat="58.638453986495733" lon="-3.117949962615967">
        <ele>14.56</ele>
        <time>2019-09-02T14:32:53Z</time>
      </trkpt>
      <trkpt lat="58.638463038951159" lon="-3.118294961750507">
        <ele>14.56</ele>
        <time>2019-09-02T14:32:54Z</time>
      </trkpt>
      <trkpt lat="58.638565968722105" lon="-3.122363034635782">
        <ele>15.039999999999999</ele>
        <time>2019-09-02T14:33:05Z</time>
      </trkpt>
      <trkpt lat="58.638647021725774" lon="-3.126511992886663">
        <ele>13.119999999999999</ele>
        <time>2019-09-02T14:33:16Z</time>
      </trkpt>
      <trkpt lat="58.638549037277699" lon="-3.129383968189359">
        <ele>12.630000000000001</ele>
        <time>2019-09-02T14:33:23Z</time>
      </trkpt>
      <trkpt lat="58.63840595819056" lon="-3.131777001544833">
        <ele>14.08</ele>
        <time>2019-09-02T14:33:30Z</time>
      </trkpt>
      <trkpt lat="58.638357007876039" lon="-3.132095010951161">
        <ele>14.56</ele>
        <time>2019-09-02T14:33:31Z</time>
      </trkpt>
      <trkpt lat="58.63784696906805" lon="-3.134784009307623">
        <ele>17.920000000000002</ele>
        <time>2019-09-02T14:33:40Z</time>
      </trkpt>
      <trkpt lat="58.637810004875064" lon="-3.137638969346881">
        <ele>19.84</ele>
        <time>2019-09-02T14:33:48Z</time>
      </trkpt>
      <trkpt lat="58.637814028188586" lon="-3.141185017302632">
        <ele>19.359999999999999</ele>
        <time>2019-09-02T14:33:58Z</time>
      </trkpt>
      <trkpt lat="58.637791983783245" lon="-3.141490034759045">
        <ele>18.879999999999999</ele>
        <time>2019-09-02T14:33:59Z</time>
      </trkpt>
      <trkpt lat="58.637728029862046" lon="-3.141773007810116">
        <ele>18.879999999999999</ele>
        <time>2019-09-02T14:34:00Z</time>
      </trkpt>
      <trkpt lat="58.637655023485422" lon="-3.142064027488232">
        <ele>18.879999999999999</ele>
        <time>2019-09-02T14:34:01Z</time>
      </trkpt>
      <trkpt lat="58.637578999623656" lon="-3.142366027459502">
        <ele>18.879999999999999</ele>
        <time>2019-09-02T14:34:02Z</time>
      </trkpt>
      <trkpt lat="58.637269036844373" lon="-3.143593976274133">
        <ele>19.359999999999999</ele>
        <time>2019-09-02T14:34:06Z</time>
      </trkpt>
      <trkpt lat="58.637202987447381" lon="-3.143883990123868">
        <ele>19.359999999999999</ele>
        <time>2019-09-02T14:34:07Z</time>
      </trkpt>
      <trkpt lat="58.637166023254395" lon="-3.144206022843719">
        <ele>19.84</ele>
        <time>2019-09-02T14:34:08Z</time>
      </trkpt>
      <trkpt lat="58.637142973020673" lon="-3.144554039463401">
        <ele>19.84</ele>
        <time>2019-09-02T14:34:09Z</time>
      </trkpt>
      <trkpt lat="58.637138027697802" lon="-3.144916975870729">
        <ele>19.84</ele>
        <time>2019-09-02T14:34:10Z</time>
      </trkpt>
      <trkpt lat="58.636945998296142" lon="-3.149240026250482">
        <ele>15.039999999999999</ele>
        <time>2019-09-02T14:34:22Z</time>
      </trkpt>
      <trkpt lat="58.636584989726543" lon="-3.152182996273041">
        <ele>14.08</ele>
        <time>2019-09-02T14:34:31Z</time>
      </trkpt>
      <trkpt lat="58.636481976136565" lon="-3.152770986780524">
        <ele>14.08</ele>
        <time>2019-09-02T14:34:33Z</time>
      </trkpt>
      <trkpt lat="58.636459009721875" lon="-3.153070975095034">
        <ele>14.08</ele>
        <time>2019-09-02T14:34:34Z</time>
      </trkpt>
      <trkpt lat="58.636459009721875" lon="-3.15338202752173">
        <ele>13.6</ele>
        <time>2019-09-02T14:34:35Z</time>
      </trkpt>
      <trkpt lat="58.63649102859199" lon="-3.153686039149761">
        <ele>13.6</ele>
        <time>2019-09-02T14:34:36Z</time>
      </trkpt>
      <trkpt lat="58.636531010270119" lon="-3.153997007757425">
        <ele>13.6</ele>
        <time>2019-09-02T14:34:37Z</time>
      </trkpt>
      <trkpt lat="58.636571997776628" lon="-3.15430898219347">
        <ele>13.6</ele>
        <time>2019-09-02T14:34:38Z</time>
      </trkpt>
      <trkpt lat="58.636752963066101" lon="-3.155830968171358">
        <ele>13.6</ele>
        <time>2019-09-02T14:34:43Z</time>
      </trkpt>
      <trkpt lat="58.636732008308172" lon="-3.156129028648138">
        <ele>14.08</ele>
        <time>2019-09-02T14:34:44Z</time>
      </trkpt>
      <trkpt lat="58.636711975559592" lon="-3.156422981992364">
        <ele>14.56</ele>
        <time>2019-09-02T14:34:45Z</time>
      </trkpt>
      <trkpt lat="58.636370999738574" lon="-3.15952998585999">
        <ele>16.960000000000001</ele>
        <time>2019-09-02T14:34:55Z</time>
      </trkpt>
      <trkpt lat="58.636130020022392" lon="-3.16245099529624">
        <ele>18.399999999999999</ele>
        <time>2019-09-02T14:35:04Z</time>
      </trkpt>
      <trkpt lat="58.636285001412034" lon="-3.163881031796336">
        <ele>21.77</ele>
        <time>2019-09-02T14:35:08Z</time>
      </trkpt>
      <trkpt lat="58.63636395893991" lon="-3.164247991517186">
        <ele>22.25</ele>
        <time>2019-09-02T14:35:09Z</time>
      </trkpt>
      <trkpt lat="58.636458003893495" lon="-3.164605982601643">
        <ele>23.210000000000001</ele>
        <time>2019-09-02T14:35:10Z</time>
      </trkpt>
      <trkpt lat="58.636579960584641" lon="-3.164938995614648">
        <ele>23.690000000000001</ele>
        <time>2019-09-02T14:35:11Z</time>
      </trkpt>
      <trkpt lat="58.636704012751579" lon="-3.165276031941176">
        <ele>24.170000000000002</ele>
        <time>2019-09-02T14:35:12Z</time>
      </trkpt>
      <trkpt lat="58.638032963499427" lon="-3.168614963069558">
        <ele>30.420000000000002</ele>
        <time>2019-09-02T14:35:23Z</time>
      </trkpt>
      <trkpt lat="58.639351017773151" lon="-3.172080963850021">
        <ele>35.710000000000001</ele>
        <time>2019-09-02T14:35:35Z</time>
      </trkpt>
      <trkpt lat="58.640533033758402" lon="-3.174968026578426">
        <ele>42.439999999999998</ele>
        <time>2019-09-02T14:35:47Z</time>
      </trkpt>
      <trkpt lat="58.641771040856838" lon="-3.17800797522068">
        <ele>47.719999999999999</ele>
        <time>2019-09-02T14:35:59Z</time>
      </trkpt>
      <trkpt lat="58.643407020717859" lon="-3.18202399648726">
        <ele>57.340000000000003</ele>
        <time>2019-09-02T14:36:15Z</time>
      </trkpt>
      <trkpt lat="58.644863041117787" lon="-3.185402993112803">
        <ele>64.549999999999997</ele>
        <time>2019-09-02T14:36:29Z</time>
      </trkpt>
      <trkpt lat="58.64499899558723" lon="-3.18556996062398">
        <ele>64.549999999999997</ele>
        <time>2019-09-02T14:36:30Z</time>
      </trkpt>
      <trkpt lat="58.645146014168859" lon="-3.185703987255693">
        <ele>64.549999999999997</ele>
        <time>2019-09-02T14:36:31Z</time>
      </trkpt>
      <trkpt lat="58.645306024700403" lon="-3.185811024159193">
        <ele>64.549999999999997</ele>
        <time>2019-09-02T14:36:32Z</time>
      </trkpt>
      <trkpt lat="58.645467041060328" lon="-3.185917977243662">
        <ele>64.549999999999997</ele>
        <time>2019-09-02T14:36:33Z</time>
      </trkpt>
      <trkpt lat="58.645779015496373" lon="-3.18614998832345">
        <ele>64.549999999999997</ele>
        <time>2019-09-02T14:36:35Z</time>
      </trkpt>
      <trkpt lat="58.645927039906383" lon="-3.18629901856184">
        <ele>64.549999999999997</ele>
        <time>2019-09-02T14:36:36Z</time>
      </trkpt>
      <trkpt lat="58.646068023517728" lon="-3.186479983851314">
        <ele>64.549999999999997</ele>
        <time>2019-09-02T14:36:37Z</time>
      </trkpt>
      <trkpt lat="58.646200960502028" lon="-3.186701014637947">
        <ele>64.549999999999997</ele>
        <time>2019-09-02T14:36:38Z</time>
      </trkpt>
      <trkpt lat="58.646325012668967" lon="-3.186949035152793">
        <ele>64.549999999999997</ele>
        <time>2019-09-02T14:36:39Z</time>
      </trkpt>
      <trkpt lat="58.646442024037242" lon="-3.187223961576819">
        <ele>65.030000000000001</ele>
        <time>2019-09-02T14:36:40Z</time>
      </trkpt>
      <trkpt lat="58.647766029462218" lon="-3.19065903313458">
        <ele>66.469999999999999</ele>
        <time>2019-09-02T14:36:52Z</time>
      </trkpt>
      <trkpt lat="58.647837024182081" lon="-3.190967990085483">
        <ele>65.989999999999995</ele>
        <time>2019-09-02T14:36:53Z</time>
      </trkpt>
      <trkpt lat="58.647870970889926" lon="-3.191313995048404">
        <ele>65.989999999999995</ele>
        <time>2019-09-02T14:36:54Z</time>
      </trkpt>
      <trkpt lat="58.647906007245183" lon="-3.191665029153228">
        <ele>65.510000000000005</ele>
        <time>2019-09-02T14:36:55Z</time>
      </trkpt>
      <trkpt lat="58.647940959781408" lon="-3.192021008580923">
        <ele>65.510000000000005</ele>
        <time>2019-09-02T14:36:56Z</time>
      </trkpt>
      <trkpt lat="58.648314960300922" lon="-3.196474984288216">
        <ele>66.469999999999999</ele>
        <time>2019-09-02T14:37:09Z</time>
      </trkpt>
      <trkpt lat="58.648294005542994" lon="-3.196778995916247">
        <ele>66.950000000000003</ele>
        <time>2019-09-02T14:37:10Z</time>
      </trkpt>
      <trkpt lat="58.648271961137652" lon="-3.197094993665814">
        <ele>66.950000000000003</ele>
        <time>2019-09-02T14:37:11Z</time>
      </trkpt>
      <trkpt lat="58.648226028308272" lon="-3.19740897975862">
        <ele>66.469999999999999</ele>
        <time>2019-09-02T14:37:12Z</time>
      </trkpt>
      <trkpt lat="58.648156961426139" lon="-3.197717014700174">
        <ele>66.469999999999999</ele>
        <time>2019-09-02T14:37:13Z</time>
      </trkpt>
      <trkpt lat="58.648085966706276" lon="-3.198037035763264">
        <ele>65.989999999999995</ele>
        <time>2019-09-02T14:37:14Z</time>
      </trkpt>
      <trkpt lat="58.647178038954735" lon="-3.202082980424166">
        <ele>60.700000000000003</ele>
        <time>2019-09-02T14:37:26Z</time>
      </trkpt>
      <trkpt lat="58.6464580334723" lon="-3.20522602647543">
        <ele>54.450000000000003</ele>
        <time>2019-09-02T14:37:36Z</time>
      </trkpt>
      <trkpt lat="58.645786978304386" lon="-3.207544041797519">
        <ele>49.649999999999999</ele>
        <time>2019-09-02T14:37:43Z</time>
      </trkpt>
      <trkpt lat="58.644805960357189" lon="-3.209295021370053">
        <ele>45.32</ele>
        <time>2019-09-02T14:37:49Z</time>
      </trkpt>
      <trkpt lat="58.643455971032381" lon="-3.211498036980629">
        <ele>35.229999999999997</ele>
        <time>2019-09-02T14:37:57Z</time>
      </trkpt>
      <trkpt lat="58.642026018351316" lon="-3.213734999299049">
        <ele>28.02</ele>
        <time>2019-09-02T14:38:06Z</time>
      </trkpt>
      <trkpt lat="58.640051996335387" lon="-3.216394996270537">
        <ele>30.420000000000002</ele>
        <time>2019-09-02T14:38:18Z</time>
      </trkpt>
      <trkpt lat="58.639081036671996" lon="-3.218831028789282">
        <ele>31.859999999999999</ele>
        <time>2019-09-02T14:38:26Z</time>
      </trkpt>
      <trkpt lat="58.638285007327795" lon="-3.220941005274653">
        <ele>30.899999999999999</ele>
        <time>2019-09-02T14:38:34Z</time>
      </trkpt>
      <trkpt lat="58.638232033699751" lon="-3.221197994425893">
        <ele>30.899999999999999</ele>
        <time>2019-09-02T14:38:35Z</time>
      </trkpt>
      <trkpt lat="58.638177970424294" lon="-3.221468981355429">
        <ele>30.899999999999999</ele>
        <time>2019-09-02T14:38:36Z</time>
      </trkpt>
      <trkpt lat="58.637734986841679" lon="-3.223799988627434">
        <ele>31.859999999999999</ele>
        <time>2019-09-02T14:38:44Z</time>
      </trkpt>
      <trkpt lat="58.637322010472417" lon="-3.226010967046022">
        <ele>30.420000000000002</ele>
        <time>2019-09-02T14:38:51Z</time>
      </trkpt>
      <trkpt lat="58.636758998036385" lon="-3.229062985628843">
        <ele>29.940000000000001</ele>
        <time>2019-09-02T14:39:00Z</time>
      </trkpt>
      <trkpt lat="58.63625499419868" lon="-3.231848962605">
        <ele>33.780000000000001</ele>
        <time>2019-09-02T14:39:09Z</time>
      </trkpt>
      <trkpt lat="58.635780997574329" lon="-3.235110025852919">
        <ele>33.299999999999997</ele>
        <time>2019-09-02T14:39:19Z</time>
      </trkpt>
      <trkpt lat="58.635311024263501" lon="-3.239875975996256">
        <ele>26.57</ele>
        <time>2019-09-02T14:39:34Z</time>
      </trkpt>
      <trkpt lat="58.63505101762712" lon="-3.242876026779413">
        <ele>23.210000000000001</ele>
        <time>2019-09-02T14:39:44Z</time>
      </trkpt>
      <trkpt lat="58.635153025388718" lon="-3.245851015672088">
        <ele>22.25</ele>
        <time>2019-09-02T14:39:53Z</time>
      </trkpt>
      <trkpt lat="58.635161994025111" lon="-3.246442023664713">
        <ele>22.25</ele>
        <time>2019-09-02T14:39:55Z</time>
      </trkpt>
      <trkpt lat="58.635109020397067" lon="-3.246707981452346">
        <ele>22.25</ele>
        <time>2019-09-02T14:39:56Z</time>
      </trkpt>
      <trkpt lat="58.635054035112262" lon="-3.246981985867024">
        <ele>22.25</ele>
        <time>2019-09-02T14:39:57Z</time>
      </trkpt>
      <trkpt lat="58.634975999593735" lon="-3.247239980846643">
        <ele>22.73</ele>
        <time>2019-09-02T14:39:58Z</time>
      </trkpt>
      <trkpt lat="58.634891007095575" lon="-3.247497975826263">
        <ele>22.25</ele>
        <time>2019-09-02T14:39:59Z</time>
      </trkpt>
      <trkpt lat="58.634268986061215" lon="-3.249493958428502">
        <ele>22.73</ele>
        <time>2019-09-02T14:40:07Z</time>
      </trkpt>
      <trkpt lat="58.63423403352499" lon="-3.249777015298605">
        <ele>22.73</ele>
        <time>2019-09-02T14:40:08Z</time>
      </trkpt>
      <trkpt lat="58.634201008826494" lon="-3.250073986127973">
        <ele>22.73</ele>
        <time>2019-09-02T14:40:09Z</time>
      </trkpt>
      <trkpt lat="58.633987018838525" lon="-3.253594972193241">
        <ele>21.289999999999999</ele>
        <time>2019-09-02T14:40:19Z</time>
      </trkpt>
      <trkpt lat="58.633651994168758" lon="-3.258796026930213">
        <ele>17.920000000000002</ele>
        <time>2019-09-02T14:40:33Z</time>
      </trkpt>
      <trkpt lat="58.633522996678948" lon="-3.263168027624488">
        <ele>17.440000000000001</ele>
        <time>2019-09-02T14:40:44Z</time>
      </trkpt>
      <trkpt lat="58.633539006114006" lon="-3.266992019489408">
        <ele>20.809999999999999</ele>
        <time>2019-09-02T14:40:53Z</time>
      </trkpt>
      <trkpt lat="58.633286040276289" lon="-3.271061014384031">
        <ele>22.73</ele>
        <time>2019-09-02T14:41:03Z</time>
      </trkpt>
      <trkpt lat="58.633007006719708" lon="-3.275051973760128">
        <ele>24.170000000000002</ele>
        <time>2019-09-02T14:41:14Z</time>
      </trkpt>
      <trkpt lat="58.632655972614884" lon="-3.280091006308794">
        <ele>27.530000000000001</ele>
        <time>2019-09-02T14:41:29Z</time>
      </trkpt>
      <trkpt lat="58.632377022877336" lon="-3.284130999818444">
        <ele>25.129999999999999</ele>
        <time>2019-09-02T14:41:40Z</time>
      </trkpt>
      <trkpt lat="58.63204400986433" lon="-3.288960987702012">
        <ele>23.210000000000001</ele>
        <time>2019-09-02T14:41:52Z</time>
      </trkpt>
      <trkpt lat="58.631762964650989" lon="-3.293030988425016">
        <ele>23.690000000000001</ele>
        <time>2019-09-02T14:42:03Z</time>
      </trkpt>
      <trkpt lat="58.631331967189908" lon="-3.297145999968052">
        <ele>23.210000000000001</ele>
        <time>2019-09-02T14:42:16Z</time>
      </trkpt>
      <trkpt lat="58.630357990041375" lon="-3.300598002970219">
        <ele>19.84</ele>
        <time>2019-09-02T14:42:27Z</time>
      </trkpt>
      <trkpt lat="58.629773017019033" lon="-3.302629021927714">
        <ele>19.359999999999999</ele>
        <time>2019-09-02T14:42:35Z</time>
      </trkpt>
      <trkpt lat="58.629158036783338" lon="-3.305273009464145">
        <ele>20.809999999999999</ele>
        <time>2019-09-02T14:42:45Z</time>
      </trkpt>
      <trkpt lat="58.629141021519899" lon="-3.305580038577318">
        <ele>20.809999999999999</ele>
        <time>2019-09-02T14:42:46Z</time>
      </trkpt>
      <trkpt lat="58.629124006256461" lon="-3.305892013013363">
        <ele>20.809999999999999</ele>
        <time>2019-09-02T14:42:47Z</time>
      </trkpt>
      <trkpt lat="58.629129035398364" lon="-3.306213039904833">
        <ele>20.809999999999999</ele>
        <time>2019-09-02T14:42:48Z</time>
      </trkpt>
      <trkpt lat="58.629140015691519" lon="-3.306541023775935">
        <ele>20.809999999999999</ele>
        <time>2019-09-02T14:42:49Z</time>
      </trkpt>
      <trkpt lat="58.629311006516218" lon="-3.311398001387715">
        <ele>22.73</ele>
        <time>2019-09-02T14:43:03Z</time>
      </trkpt>
      <trkpt lat="58.629239005967975" lon="-3.314406014978886">
        <ele>24.170000000000002</ele>
        <time>2019-09-02T14:43:11Z</time>
      </trkpt>
      <trkpt lat="58.628990985453129" lon="-3.316906001418829">
        <ele>24.170000000000002</ele>
        <time>2019-09-02T14:43:19Z</time>
      </trkpt>
      <trkpt lat="58.628472983837128" lon="-3.320009987801313">
        <ele>25.609999999999999</ele>
        <time>2019-09-02T14:43:29Z</time>
      </trkpt>
      <trkpt lat="58.627824978902936" lon="-3.323397031053901">
        <ele>27.050000000000001</ele>
        <time>2019-09-02T14:43:40Z</time>
      </trkpt>
      <trkpt lat="58.627096004784107" lon="-3.327206019312143">
        <ele>28.02</ele>
        <time>2019-09-02T14:43:52Z</time>
      </trkpt>
      <trkpt lat="58.625929998233914" lon="-3.333303015679121">
        <ele>28.5</ele>
        <time>2019-09-02T14:44:10Z</time>
      </trkpt>
      <trkpt lat="58.625232959166169" lon="-3.336943024769425">
        <ele>27.050000000000001</ele>
        <time>2019-09-02T14:44:22Z</time>
      </trkpt>
      <trkpt lat="58.624645974487066" lon="-3.339957995340228">
        <ele>25.609999999999999</ele>
        <time>2019-09-02T14:44:33Z</time>
      </trkpt>
      <trkpt lat="58.62448101863265" lon="-3.34060600027442">
        <ele>25.609999999999999</ele>
        <time>2019-09-02T14:44:36Z</time>
      </trkpt>
      <trkpt lat="58.624408012256026" lon="-3.340830970555544">
        <ele>25.609999999999999</ele>
        <time>2019-09-02T14:44:37Z</time>
      </trkpt>
      <trkpt lat="58.624304998666048" lon="-3.340995004400611">
        <ele>25.129999999999999</ele>
        <time>2019-09-02T14:44:38Z</time>
      </trkpt>
      <trkpt lat="58.624206008389592" lon="-3.341153003275394">
        <ele>25.129999999999999</ele>
        <time>2019-09-02T14:44:39Z</time>
      </trkpt>
      <trkpt lat="58.624081034213305" lon="-3.341277977451682">
        <ele>24.649999999999999</ele>
        <time>2019-09-02T14:44:40Z</time>
      </trkpt>
      <trkpt lat="58.623959999531507" lon="-3.341399012133479">
        <ele>24.649999999999999</ele>
        <time>2019-09-02T14:44:41Z</time>
      </trkpt>
      <trkpt lat="58.623842988163233" lon="-3.341516023501754">
        <ele>24.649999999999999</ele>
        <time>2019-09-02T14:44:42Z</time>
      </trkpt>
      <trkpt lat="58.623002031818032" lon="-3.342342982068658">
        <ele>23.210000000000001</ele>
        <time>2019-09-02T14:44:51Z</time>
      </trkpt>
      <trkpt lat="58.622663989663124" lon="-3.342664008960128">
        <ele>21.289999999999999</ele>
        <time>2019-09-02T14:44:59Z</time>
      </trkpt>
      <trkpt lat="58.622446982190013" lon="-3.342869030311704">
        <ele>19.359999999999999</ele>
        <time>2019-09-02T14:45:07Z</time>
      </trkpt>
      <trkpt lat="58.622412029653788" lon="-3.342954022809863">
        <ele>19.359999999999999</ele>
        <time>2019-09-02T14:45:08Z</time>
      </trkpt>
      <trkpt lat="58.622424015775323" lon="-3.343018982559443">
        <ele>18.879999999999999</ele>
        <time>2019-09-02T14:45:09Z</time>
      </trkpt>
      <trkpt lat="58.622438013553619" lon="-3.343096012249589">
        <ele>18.399999999999999</ele>
        <time>2019-09-02T14:45:10Z</time>
      </trkpt>
      <trkpt lat="58.622457962483168" lon="-3.343202965334058">
        <ele>18.399999999999999</ele>
        <time>2019-09-02T14:45:11Z</time>
      </trkpt>
      <trkpt lat="58.622483024373651" lon="-3.34333598613739">
        <ele>17.920000000000002</ele>
        <time>2019-09-02T14:45:12Z</time>
      </trkpt>
      <trkpt lat="58.622511019930243" lon="-3.343486022204161">
        <ele>17.920000000000002</ele>
        <time>2019-09-02T14:45:13Z</time>
      </trkpt>
      <trkpt lat="58.622713023796678" lon="-3.344841962680221">
        <ele>17.920000000000002</ele>
        <time>2019-09-02T14:45:22Z</time>
      </trkpt>
      <trkpt lat="58.622727021574974" lon="-3.344940030947328">
        <ele>17.920000000000002</ele>
        <time>2019-09-02T14:45:23Z</time>
      </trkpt>
      <trkpt lat="58.62274001352489" lon="-3.345029968768358">
        <ele>17.920000000000002</ele>
        <time>2019-09-02T14:45:24Z</time>
      </trkpt>
      <trkpt lat="58.622768009081483" lon="-3.345073973760009">
        <ele>17.920000000000002</ele>
        <time>2019-09-02T14:45:25Z</time>
      </trkpt>
      <trkpt lat="58.622825006023049" lon="-3.345057964324951">
        <ele>17.920000000000002</ele>
        <time>2019-09-02T14:45:26Z</time>
      </trkpt>
      <trkpt lat="58.622894994914532" lon="-3.345039021223784">
        <ele>17.920000000000002</ele>
        <time>2019-09-02T14:45:27Z</time>
      </trkpt>
      <trkpt lat="58.622979987412691" lon="-3.345015970990062">
        <ele>17.920000000000002</ele>
        <time>2019-09-02T14:45:28Z</time>
      </trkpt>
      <trkpt lat="58.623079983517528" lon="-3.344988981261849">
        <ele>18.399999999999999</ele>
        <time>2019-09-02T14:45:29Z</time>
      </trkpt>
      <trkpt lat="58.624270968139172" lon="-3.344685975462198">
        <ele>22.25</ele>
        <time>2019-09-02T14:45:40Z</time>
      </trkpt>
      <trkpt lat="58.624378005042672" lon="-3.344703996554017">
        <ele>22.73</ele>
        <time>2019-09-02T14:45:41Z</time>
      </trkpt>
      <trkpt lat="58.624483030289412" lon="-3.344753030687571">
        <ele>22.73</ele>
        <time>2019-09-02T14:45:42Z</time>
      </trkpt>
      <trkpt lat="58.624587971717119" lon="-3.344852020964027">
        <ele>23.210000000000001</ele>
        <time>2019-09-02T14:45:43Z</time>
      </trkpt>
      <trkpt lat="58.624701965600252" lon="-3.344959979876876">
        <ele>23.690000000000001</ele>
        <time>2019-09-02T14:45:44Z</time>
      </trkpt>
      <trkpt lat="58.62592002376914" lon="-3.34606496617198">
        <ele>27.050000000000001</ele>
        <time>2019-09-02T14:45:54Z</time>
      </trkpt>
      <trkpt lat="58.627277975901961" lon="-3.346956968307495">
        <ele>31.379999999999999</ele>
        <time>2019-09-02T14:46:03Z</time>
      </trkpt>
      <trkpt lat="58.629553997889161" lon="-3.348182989284396">
        <ele>31.859999999999999</ele>
        <time>2019-09-02T14:46:18Z</time>
      </trkpt>
      <trkpt lat="58.631295002996922" lon="-3.349121008068323">
        <ele>33.299999999999997</ele>
        <time>2019-09-02T14:46:30Z</time>
      </trkpt>
      <trkpt lat="58.632940035313368" lon="-3.349956013262272">
        <ele>33.780000000000001</ele>
        <time>2019-09-02T14:46:41Z</time>
      </trkpt>
      <trkpt lat="58.633079007267952" lon="-3.349987026304007">
        <ele>33.780000000000001</ele>
        <time>2019-09-02T14:46:42Z</time>
      </trkpt>
      <trkpt lat="58.633219990879297" lon="-3.349956013262272">
        <ele>33.780000000000001</ele>
        <time>2019-09-02T14:46:43Z</time>
      </trkpt>
      <trkpt lat="58.633363991975784" lon="-3.349917959421873">
        <ele>33.780000000000001</ele>
        <time>2019-09-02T14:46:44Z</time>
      </trkpt>
      <trkpt lat="58.633506987243891" lon="-3.349820980802178">
        <ele>33.780000000000001</ele>
        <time>2019-09-02T14:46:45Z</time>
      </trkpt>
      <trkpt lat="58.6336550116539" lon="-3.349720984697342">
        <ele>33.299999999999997</ele>
        <time>2019-09-02T14:46:46Z</time>
      </trkpt>
      <trkpt lat="58.63554697483778" lon="-3.348378036171198">
        <ele>31.859999999999999</ele>
        <time>2019-09-02T14:46:59Z</time>
      </trkpt>
      <trkpt lat="58.637931039556861" lon="-3.346673995256424">
        <ele>30.899999999999999</ele>
        <time>2019-09-02T14:47:14Z</time>
      </trkpt>
      <trkpt lat="58.640321977436543" lon="-3.344974983483553">
        <ele>32.340000000000003</ele>
        <time>2019-09-02T14:47:29Z</time>
      </trkpt>
      <trkpt lat="58.640448041260242" lon="-3.344841040670872">
        <ele>32.340000000000003</ele>
        <time>2019-09-02T14:47:30Z</time>
      </trkpt>
      <trkpt lat="58.640561029314995" lon="-3.344678012654185">
        <ele>32.82</ele>
        <time>2019-09-02T14:47:31Z</time>
      </trkpt>
      <trkpt lat="58.640676029026508" lon="-3.344513978809118">
        <ele>32.82</ele>
        <time>2019-09-02T14:47:32Z</time>
      </trkpt>
      <trkpt lat="58.64076697267592" lon="-3.344293031841517">
        <ele>33.299999999999997</ele>
        <time>2019-09-02T14:47:33Z</time>
      </trkpt>
      <trkpt lat="58.640854982659221" lon="-3.344068983569741">
        <ele>33.299999999999997</ele>
        <time>2019-09-02T14:47:34Z</time>
      </trkpt>
      <trkpt lat="58.640940980985761" lon="-3.34385097026825">
        <ele>33.299999999999997</ele>
        <time>2019-09-02T14:47:35Z</time>
      </trkpt>
      <trkpt lat="58.640993032604456" lon="-3.343608984723687">
        <ele>33.780000000000001</ele>
        <time>2019-09-02T14:47:36Z</time>
      </trkpt>
      <trkpt lat="58.641029996797442" lon="-3.343364987522364">
        <ele>34.259999999999998</ele>
        <time>2019-09-02T14:47:37Z</time>
      </trkpt>
      <trkpt lat="58.64106603898108" lon="-3.343132976442576">
        <ele>34.740000000000002</ele>
        <time>2019-09-02T14:47:38Z</time>
      </trkpt>
      <trkpt lat="58.641236023977399" lon="-3.342019021511078">
        <ele>37.630000000000003</ele>
        <time>2019-09-02T14:47:45Z</time>
      </trkpt>
      <trkpt lat="58.641252033412457" lon="-3.341915002092719">
        <ele>37.630000000000003</ele>
        <time>2019-09-02T14:47:46Z</time>
      </trkpt>
      <trkpt lat="58.641267037019134" lon="-3.341819029301405">
        <ele>38.109999999999999</ele>
        <time>2019-09-02T14:47:47Z</time>
      </trkpt>
      <trkpt lat="58.641279023140669" lon="-3.341738982126117">
        <ele>38.109999999999999</ele>
        <time>2019-09-02T14:47:48Z</time>
      </trkpt>
      <trkpt lat="58.641359992325306" lon="-3.341738982126117">
        <ele>38.109999999999999</ele>
        <time>2019-09-02T14:47:49Z</time>
      </trkpt>
      <trkpt lat="58.64141003228724" lon="-3.341774018481374">
        <ele>38.590000000000003</ele>
        <time>2019-09-02T14:47:50Z</time>
      </trkpt>
      <trkpt lat="58.641467029228806" lon="-3.341814000159502">
        <ele>38.590000000000003</ele>
        <time>2019-09-02T14:47:51Z</time>
      </trkpt>
      <trkpt lat="58.641536012291908" lon="-3.341861022636294">
        <ele>38.590000000000003</ele>
        <time>2019-09-02T14:47:52Z</time>
      </trkpt>
      <trkpt lat="58.641609018668532" lon="-3.341910978779197">
        <ele>39.07</ele>
        <time>2019-09-02T14:47:53Z</time>
      </trkpt>
      <trkpt lat="58.642372023314238" lon="-3.342438032850623">
        <ele>38.590000000000003</ele>
        <time>2019-09-02T14:48:01Z</time>
      </trkpt>
      <trkpt lat="58.643223037943244" lon="-3.343115039169788">
        <ele>37.630000000000003</ele>
        <time>2019-09-02T14:48:10Z</time>
      </trkpt>
      <trkpt lat="58.643512967973948" lon="-3.343337997794151">
        <ele>37.630000000000003</ele>
        <time>2019-09-02T14:48:13Z</time>
      </trkpt>
      <trkpt lat="58.644552994519472" lon="-3.344082981348038">
        <ele>37.149999999999999</ele>
        <time>2019-09-02T14:48:21Z</time>
      </trkpt>
      <trkpt lat="58.645544992759824" lon="-3.344826037064195">
        <ele>36.189999999999998</ele>
        <time>2019-09-02T14:48:29Z</time>
      </trkpt>
      <trkpt lat="58.645736016333103" lon="-3.345040027052164">
        <ele>35.710000000000001</ele>
        <time>2019-09-02T14:48:31Z</time>
      </trkpt>
      <trkpt lat="58.645830983296037" lon="-3.345167012885213">
        <ele>35.229999999999997</ele>
        <time>2019-09-02T14:48:32Z</time>
      </trkpt>
      <trkpt lat="58.646133989095688" lon="-3.345570014789701">
        <ele>35.229999999999997</ele>
        <time>2019-09-02T14:48:35Z</time>
      </trkpt>
      <trkpt lat="58.646241025999188" lon="-3.345713010057807">
        <ele>35.229999999999997</ele>
        <time>2019-09-02T14:48:36Z</time>
      </trkpt>
      <trkpt lat="58.647646000608802" lon="-3.346973983570933">
        <ele>33.780000000000001</ele>
        <time>2019-09-02T14:48:48Z</time>
      </trkpt>
      <trkpt lat="58.647830989211798" lon="-3.347139023244381">
        <ele>32.82</ele>
        <time>2019-09-02T14:48:50Z</time>
      </trkpt>
      <trkpt lat="58.647899972274899" lon="-3.347263997420669">
        <ele>32.82</ele>
        <time>2019-09-02T14:48:51Z</time>
      </trkpt>
      <trkpt lat="58.647937020286918" lon="-3.347357958555222">
        <ele>32.82</ele>
        <time>2019-09-02T14:48:52Z</time>
      </trkpt>
      <trkpt lat="58.647929979488254" lon="-3.347449991852045">
        <ele>32.340000000000003</ele>
        <time>2019-09-02T14:48:53Z</time>
      </trkpt>
      <trkpt lat="58.647922016680241" lon="-3.347564991563559">
        <ele>32.340000000000003</ele>
        <time>2019-09-02T14:48:54Z</time>
      </trkpt>
      <trkpt lat="58.647911036387086" lon="-3.347712010145187">
        <ele>31.859999999999999</ele>
        <time>2019-09-02T14:48:55Z</time>
      </trkpt>
      <trkpt lat="58.647897960618138" lon="-3.34788903594017">
        <ele>31.859999999999999</ele>
        <time>2019-09-02T14:48:56Z</time>
      </trkpt>
      <trkpt lat="58.647883040830493" lon="-3.348086010664702">
        <ele>31.859999999999999</ele>
        <time>2019-09-02T14:48:57Z</time>
      </trkpt>
      <trkpt lat="58.647881029173732" lon="-3.348304023966193">
        <ele>31.859999999999999</ele>
        <time>2019-09-02T14:48:58Z</time>
      </trkpt>
      <trkpt lat="58.647899972274899" lon="-3.348540980368853">
        <ele>32.340000000000003</ele>
        <time>2019-09-02T14:48:59Z</time>
      </trkpt>
      <trkpt lat="58.647922016680241" lon="-3.34879201836884">
        <ele>32.340000000000003</ele>
        <time>2019-09-02T14:49:00Z</time>
      </trkpt>
      <trkpt lat="58.648243965581059" lon="-3.351421002298594">
        <ele>34.740000000000002</ele>
        <time>2019-09-02T14:49:09Z</time>
      </trkpt>
      <trkpt lat="58.648612014949322" lon="-3.354603024199605">
        <ele>40.030000000000001</ele>
        <time>2019-09-02T14:49:20Z</time>
      </trkpt>
      <trkpt lat="58.648905968293548" lon="-3.357544988393784">
        <ele>46.759999999999998</ele>
        <time>2019-09-02T14:49:30Z</time>
      </trkpt>
      <trkpt lat="58.648944022133946" lon="-3.357800971716642">
        <ele>47.240000000000002</ele>
        <time>2019-09-02T14:49:31Z</time>
      </trkpt>
      <trkpt lat="58.649013005197048" lon="-3.358033988624811">
        <ele>48.200000000000003</ele>
        <time>2019-09-02T14:49:32Z</time>
      </trkpt>
      <trkpt lat="58.64908198826015" lon="-3.35826700553298">
        <ele>49.159999999999997</ele>
        <time>2019-09-02T14:49:33Z</time>
      </trkpt>
      <trkpt lat="58.649148959666491" lon="-3.358493987470865">
        <ele>50.609999999999999</ele>
        <time>2019-09-02T14:49:34Z</time>
      </trkpt>
      <trkpt lat="58.64981297403574" lon="-3.360644029453397">
        <ele>58.299999999999997</ele>
        <time>2019-09-02T14:49:44Z</time>
      </trkpt>
      <trkpt lat="58.649983964860439" lon="-3.361112996935844">
        <ele>58.780000000000001</ele>
        <time>2019-09-02T14:49:46Z</time>
      </trkpt>
      <trkpt lat="58.650687960907817" lon="-3.36245602928102">
        <ele>61.18</ele>
        <time>2019-09-02T14:49:53Z</time>
      </trkpt>
      <trkpt lat="58.651473009958863" lon="-3.364807991310954">
        <ele>63.100000000000001</ele>
        <time>2019-09-02T14:50:03Z</time>
      </trkpt>
      <trkpt lat="58.651579963043332" lon="-3.365021981298924">
        <ele>63.579999999999998</ele>
        <time>2019-09-02T14:50:04Z</time>
      </trkpt>
      <trkpt lat="58.65234699100256" lon="-3.36675401777029">
        <ele>66.950000000000003</ele>
        <time>2019-09-02T14:50:12Z</time>
      </trkpt>
      <trkpt lat="58.652516975998878" lon="-3.367112008854747">
        <ele>66.950000000000003</ele>
        <time>2019-09-02T14:50:14Z</time>
      </trkpt>
      <trkpt lat="58.652617977932096" lon="-3.367286017164588">
        <ele>66.950000000000003</ele>
        <time>2019-09-02T14:50:15Z</time>
      </trkpt>
      <trkpt lat="58.652744963765144" lon="-3.367503024637699">
        <ele>66.950000000000003</ele>
        <time>2019-09-02T14:50:16Z</time>
      </trkpt>
      <trkpt lat="58.653965033590794" lon="-3.36881697177887">
        <ele>63.579999999999998</ele>
        <time>2019-09-02T14:50:24Z</time>
      </trkpt>
      <trkpt lat="58.656273996457458" lon="-3.371305977925658">
        <ele>58.780000000000001</ele>
        <time>2019-09-02T14:50:38Z</time>
      </trkpt>
      <trkpt lat="58.657169016078115" lon="-3.372276015579701">
        <ele>58.299999999999997</ele>
        <time>2019-09-02T14:50:46Z</time>
      </trkpt>
      <trkpt lat="58.657240010797977" lon="-3.372438959777355">
        <ele>58.299999999999997</ele>
        <time>2019-09-02T14:50:47Z</time>
      </trkpt>
      <trkpt lat="58.657317040488124" lon="-3.372615985572338">
        <ele>58.299999999999997</ele>
        <time>2019-09-02T14:50:48Z</time>
      </trkpt>
      <trkpt lat="58.657390968874097" lon="-3.37281396612525">
        <ele>58.299999999999997</ele>
        <time>2019-09-02T14:50:49Z</time>
      </trkpt>
      <trkpt lat="58.657434973865747" lon="-3.373025022447109">
        <ele>58.299999999999997</ele>
        <time>2019-09-02T14:50:50Z</time>
      </trkpt>
      <trkpt lat="58.657475961372256" lon="-3.373219985514879">
        <ele>58.780000000000001</ele>
        <time>2019-09-02T14:50:51Z</time>
      </trkpt>
      <trkpt lat="58.657480990514159" lon="-3.37343598715961">
        <ele>59.259999999999998</ele>
        <time>2019-09-02T14:50:52Z</time>
      </trkpt>
      <trkpt lat="58.657472021877766" lon="-3.373655006289482">
        <ele>59.740000000000002</ele>
        <time>2019-09-02T14:50:53Z</time>
      </trkpt>
      <trkpt lat="58.65746196359396" lon="-3.373892968520522">
        <ele>60.219999999999999</ele>
        <time>2019-09-02T14:50:54Z</time>
      </trkpt>
      <trkpt lat="58.657379988580942" lon="-3.375912001356483">
        <ele>64.069999999999993</ele>
        <time>2019-09-02T14:51:02Z</time>
      </trkpt>
      <trkpt lat="58.657417958602309" lon="-3.376116016879678">
        <ele>65.030000000000001</ele>
        <time>2019-09-02T14:51:03Z</time>
      </trkpt>
      <trkpt lat="58.657450983300805" lon="-3.376290025189519">
        <ele>65.510000000000005</ele>
        <time>2019-09-02T14:51:04Z</time>
      </trkpt>
      <trkpt lat="58.657491970807314" lon="-3.376418016850948">
        <ele>65.989999999999995</ele>
        <time>2019-09-02T14:51:05Z</time>
      </trkpt>
      <trkpt lat="58.6575479619205" lon="-3.37652999907732">
        <ele>66.950000000000003</ele>
        <time>2019-09-02T14:51:06Z</time>
      </trkpt>
      <trkpt lat="58.657613005489111" lon="-3.376594036817551">
        <ele>67.430000000000007</ele>
        <time>2019-09-02T14:51:07Z</time>
      </trkpt>
      <trkpt lat="58.657703027129173" lon="-3.376625971868634">
        <ele>68.390000000000001</ele>
        <time>2019-09-02T14:51:08Z</time>
      </trkpt>
      <trkpt lat="58.657801011577249" lon="-3.376660002395511">
        <ele>68.870000000000005</ele>
        <time>2019-09-02T14:51:09Z</time>
      </trkpt>
      <trkpt lat="58.657902013510466" lon="-3.376664025709033">
        <ele>69.349999999999994</ele>
        <time>2019-09-02T14:51:10Z</time>
      </trkpt>
      <trkpt lat="58.658001003786922" lon="-3.376582972705364">
        <ele>69.829999999999998</ele>
        <time>2019-09-02T14:51:11Z</time>
      </trkpt>
      <trkpt lat="58.658100999891758" lon="-3.376502003520727">
        <ele>70.790000000000006</ele>
        <time>2019-09-02T14:51:12Z</time>
      </trkpt>
      <trkpt lat="58.658217005431652" lon="-3.376407958567143">
        <ele>71.269999999999996</ele>
        <time>2019-09-02T14:51:13Z</time>
      </trkpt>
      <trkpt lat="58.658295962959528" lon="-3.376249959692359">
        <ele>71.269999999999996</ele>
        <time>2019-09-02T14:51:14Z</time>
      </trkpt>
      <trkpt lat="58.658390007913113" lon="-3.376061031594873">
        <ele>72.239999999999995</ele>
        <time>2019-09-02T14:51:15Z</time>
      </trkpt>
      <trkpt lat="58.65849201567471" lon="-3.375858021900058">
        <ele>72.719999999999999</ele>
        <time>2019-09-02T14:51:16Z</time>
      </trkpt>
      <trkpt lat="58.659339006990194" lon="-3.373454008251429">
        <ele>77.040000000000006</ele>
        <time>2019-09-02T14:51:25Z</time>
      </trkpt>
      <trkpt lat="58.66014501079917" lon="-3.371674027293921">
        <ele>80.409999999999997</ele>
        <time>2019-09-02T14:51:33Z</time>
      </trkpt>
      <trkpt lat="58.660249030217528" lon="-3.371533965691924">
        <ele>80.890000000000001</ele>
        <time>2019-09-02T14:51:34Z</time>
      </trkpt>
      <trkpt lat="58.66034097969532" lon="-3.371408991515636">
        <ele>81.370000000000005</ele>
        <time>2019-09-02T14:51:35Z</time>
      </trkpt>
      <trkpt lat="58.660439969971776" lon="-3.371318969875574">
        <ele>81.849999999999994</ele>
        <time>2019-09-02T14:51:36Z</time>
      </trkpt>
      <trkpt lat="58.66055597551167" lon="-3.371305977925658">
        <ele>82.329999999999998</ele>
        <time>2019-09-02T14:51:37Z</time>
      </trkpt>
      <trkpt lat="58.660682961344719" lon="-3.371292985975742">
        <ele>82.810000000000002</ele>
        <time>2019-09-02T14:51:38Z</time>
      </trkpt>
      <trkpt lat="58.660816987976432" lon="-3.371280999854207">
        <ele>83.290000000000006</ele>
        <time>2019-09-02T14:51:39Z</time>
      </trkpt>
      <trkpt lat="58.660941962152719" lon="-3.37132902815938">
        <ele>83.290000000000006</ele>
        <time>2019-09-02T14:51:40Z</time>
      </trkpt>
      <trkpt lat="58.661058973520994" lon="-3.37137496098876">
        <ele>84.25</ele>
        <time>2019-09-02T14:51:41Z</time>
      </trkpt>
      <trkpt lat="58.661179002374411" lon="-3.371421983465552">
        <ele>84.730000000000004</ele>
        <time>2019-09-02T14:51:42Z</time>
      </trkpt>
      <trkpt lat="58.661297019571066" lon="-3.371527008712292">
        <ele>85.209999999999994</ele>
        <time>2019-09-02T14:51:43Z</time>
      </trkpt>
      <trkpt lat="58.661407995969057" lon="-3.371637985110283">
        <ele>85.689999999999998</ele>
        <time>2019-09-02T14:51:44Z</time>
      </trkpt>
      <trkpt lat="58.661503968760371" lon="-3.37175901979208">
        <ele>86.180000000000007</ele>
        <time>2019-09-02T14:51:45Z</time>
      </trkpt>
      <trkpt lat="58.661586027592421" lon="-3.371884999796748">
        <ele>86.180000000000007</ele>
        <time>2019-09-02T14:51:46Z</time>
      </trkpt>
      <trkpt lat="58.661657022312284" lon="-3.371992958709598">
        <ele>86.180000000000007</ele>
        <time>2019-09-02T14:51:47Z</time>
      </trkpt>
      <trkpt lat="58.661715025082231" lon="-3.372081974521279">
        <ele>85.689999999999998</ele>
        <time>2019-09-02T14:51:48Z</time>
      </trkpt>
      <trkpt lat="58.662162031978369" lon="-3.372765015810728">
        <ele>84.730000000000004</ele>
        <time>2019-09-02T14:51:55Z</time>
      </trkpt>
      <trkpt lat="58.663088986650109" lon="-3.373703034594655">
        <ele>85.689999999999998</ele>
        <time>2019-09-02T14:52:03Z</time>
      </trkpt>
      <trkpt lat="58.664305033162236" lon="-3.374779019504786">
        <ele>85.689999999999998</ele>
        <time>2019-09-02T14:52:14Z</time>
      </trkpt>
      <trkpt lat="58.665705984458327" lon="-3.375963969156146">
        <ele>84.25</ele>
        <time>2019-09-02T14:52:24Z</time>
      </trkpt>
      <trkpt lat="58.666756991297007" lon="-3.376516001299024">
        <ele>85.689999999999998</ele>
        <time>2019-09-02T14:52:33Z</time>
      </trkpt>
      <trkpt lat="58.666824968531728" lon="-3.376532010734081">
        <ele>85.689999999999998</ele>
        <time>2019-09-02T14:52:34Z</time>
      </trkpt>
      <trkpt lat="58.666874002665281" lon="-3.376479037106037">
        <ele>85.689999999999998</ele>
        <time>2019-09-02T14:52:35Z</time>
      </trkpt>
      <trkpt lat="58.666923958808184" lon="-3.376387003809214">
        <ele>85.689999999999998</ele>
        <time>2019-09-02T14:52:36Z</time>
      </trkpt>
      <trkpt lat="58.666971987113357" lon="-3.376278961077333">
        <ele>85.689999999999998</ele>
        <time>2019-09-02T14:52:37Z</time>
      </trkpt>
      <trkpt lat="58.666976010426879" lon="-3.3761200401932">
        <ele>85.689999999999998</ele>
        <time>2019-09-02T14:52:38Z</time>
      </trkpt>
      <trkpt lat="58.666980033740401" lon="-3.375931028276682">
        <ele>86.659999999999997</ele>
        <time>2019-09-02T14:52:39Z</time>
      </trkpt>
      <trkpt lat="58.666984979063272" lon="-3.375729024410248">
        <ele>87.140000000000001</ele>
        <time>2019-09-02T14:52:40Z</time>
      </trkpt>
      <trkpt lat="58.667032001540065" lon="-3.37515695951879">
        <ele>89.540000000000006</ele>
        <time>2019-09-02T14:52:43Z</time>
      </trkpt>
      <trkpt lat="58.667056979611516" lon="-3.375015975907445">
        <ele>90.019999999999996</ele>
        <time>2019-09-02T14:52:44Z</time>
      </trkpt>
      <trkpt lat="58.667113976553082" lon="-3.374946992844343">
        <ele>90.980000000000004</ele>
        <time>2019-09-02T14:52:45Z</time>
      </trkpt>
      <trkpt lat="58.66717298515141" lon="-3.374878009781241">
        <ele>91.459999999999994</ele>
        <time>2019-09-02T14:52:46Z</time>
      </trkpt>
      <trkpt lat="58.667244985699654" lon="-3.374863006174564">
        <ele>91.939999999999998</ele>
        <time>2019-09-02T14:52:47Z</time>
      </trkpt>
      <trkpt lat="58.667337018996477" lon="-3.374863006174564">
        <ele>92.420000000000002</ele>
        <time>2019-09-02T14:52:48Z</time>
      </trkpt>
      <trkpt lat="58.667443972080946" lon="-3.374892007559538">
        <ele>93.390000000000001</ele>
        <time>2019-09-02T14:52:49Z</time>
      </trkpt>
      <trkpt lat="58.667561989277601" lon="-3.374972976744175">
        <ele>93.870000000000005</ele>
        <time>2019-09-02T14:52:50Z</time>
      </trkpt>
      <trkpt lat="58.667689980939031" lon="-3.375059980899096">
        <ele>94.829999999999998</ele>
        <time>2019-09-02T14:52:51Z</time>
      </trkpt>
      <trkpt lat="58.667821995913982" lon="-3.375150002539158">
        <ele>95.790000000000006</ele>
        <time>2019-09-02T14:52:52Z</time>
      </trkpt>
      <trkpt lat="58.66794697009027" lon="-3.375272965058684">
        <ele>96.269999999999996</ele>
        <time>2019-09-02T14:52:53Z</time>
      </trkpt>
      <trkpt lat="58.668064987286925" lon="-3.3754120208323">
        <ele>97.230000000000004</ele>
        <time>2019-09-02T14:52:54Z</time>
      </trkpt>
      <trkpt lat="58.668162971735001" lon="-3.375597009435296">
        <ele>97.709999999999994</ele>
        <time>2019-09-02T14:52:55Z</time>
      </trkpt>
      <trkpt lat="58.66824503056705" lon="-3.375797001644969">
        <ele>98.670000000000002</ele>
        <time>2019-09-02T14:52:56Z</time>
      </trkpt>
      <trkpt lat="58.668318958953023" lon="-3.375994982197881">
        <ele>99.629999999999995</ele>
        <time>2019-09-02T14:52:57Z</time>
      </trkpt>
      <trkpt lat="58.668377967551351" lon="-3.376193968579173">
        <ele>100.11</ele>
        <time>2019-09-02T14:52:58Z</time>
      </trkpt>
      <trkpt lat="58.668608972802758" lon="-3.376924032345414">
        <ele>102.52</ele>
        <time>2019-09-02T14:53:03Z</time>
      </trkpt>
      <trkpt lat="58.668670998886228" lon="-3.37702201679349">
        <ele>103</ele>
        <time>2019-09-02T14:53:04Z</time>
      </trkpt>
      <trkpt lat="58.668731013312936" lon="-3.377115977928042">
        <ele>103.48</ele>
        <time>2019-09-02T14:53:05Z</time>
      </trkpt>
      <trkpt lat="58.668821034952998" lon="-3.377145985141397">
        <ele>103.48</ele>
        <time>2019-09-02T14:53:06Z</time>
      </trkpt>
      <trkpt lat="58.668907033279538" lon="-3.37717398069799">
        <ele>103.95999999999999</ele>
        <time>2019-09-02T14:53:07Z</time>
      </trkpt>
      <trkpt lat="58.668991019949317" lon="-3.377201976254582">
        <ele>104.92</ele>
        <time>2019-09-02T14:53:08Z</time>
      </trkpt>
      <trkpt lat="58.669076012447476" lon="-3.377211028710008">
        <ele>105.40000000000001</ele>
        <time>2019-09-02T14:53:09Z</time>
      </trkpt>
      <trkpt lat="58.669153964146972" lon="-3.377172974869609">
        <ele>105.40000000000001</ele>
        <time>2019-09-02T14:53:10Z</time>
      </trkpt>
      <trkpt lat="58.669224036857486" lon="-3.377138022333384">
        <ele>105.88</ele>
        <time>2019-09-02T14:53:11Z</time>
      </trkpt>
      <trkpt lat="58.669287990778685" lon="-3.377106003463268">
        <ele>106.36</ele>
        <time>2019-09-02T14:53:12Z</time>
      </trkpt>
      <trkpt lat="58.669345993548632" lon="-3.377075996249914">
        <ele>106.36</ele>
        <time>2019-09-02T14:53:13Z</time>
      </trkpt>
      <trkpt lat="58.669400978833437" lon="-3.377049006521702">
        <ele>106.36</ele>
        <time>2019-09-02T14:53:14Z</time>
      </trkpt>
      <trkpt lat="58.670237995684147" lon="-3.376523964107037">
        <ele>107.81</ele>
        <time>2019-09-02T14:53:27Z</time>
      </trkpt>
      <trkpt lat="58.670554999262094" lon="-3.376321960240603">
        <ele>107.31999999999999</ele>
        <time>2019-09-02T14:53:38Z</time>
      </trkpt>
      <trkpt lat="58.670554999262094" lon="-3.376321960240603">
        <ele>107.31999999999999</ele>
        <time>2019-09-02T14:53:57Z</time>
      </trkpt>
      <trkpt lat="58.670554999262094" lon="-3.376321960240603">
        <ele>107.31999999999999</ele>
        <time>2019-09-02T14:54:46Z</time>
      </trkpt>
      <trkpt lat="58.670575032010674" lon="-3.376468978822231">
        <ele>99.150000000000006</ele>
        <time>2019-09-02T15:01:31Z</time>
      </trkpt>
      <trkpt lat="58.670568997040391" lon="-3.376424973830581">
        <ele>100.11</ele>
        <time>2019-09-02T15:01:59Z</time>
      </trkpt>
      <trkpt lat="58.670584000647068" lon="-3.376446012407541">
        <ele>101.08</ele>
        <time>2019-09-02T15:02:33Z</time>
      </trkpt>
      <trkpt lat="58.670491967350245" lon="-3.376362025737763">
        <ele>102.04000000000001</ele>
        <time>2019-09-02T15:02:39Z</time>
      </trkpt>
      <trkpt lat="58.670470006763935" lon="-3.376376023516059">
        <ele>102.04000000000001</ele>
        <time>2019-09-02T15:02:40Z</time>
      </trkpt>
      <trkpt lat="58.670447040349245" lon="-3.376391027122736">
        <ele>101.56</ele>
        <time>2019-09-02T15:02:41Z</time>
      </trkpt>
      <trkpt lat="58.670421978458762" lon="-3.376407036557794">
        <ele>102.04000000000001</ele>
        <time>2019-09-02T15:02:42Z</time>
      </trkpt>
      <trkpt lat="58.670391971245408" lon="-3.376425979658961">
        <ele>101.56</ele>
        <time>2019-09-02T15:02:43Z</time>
      </trkpt>
      <trkpt lat="58.670359030365944" lon="-3.376447018235922">
        <ele>101.56</ele>
        <time>2019-09-02T15:02:44Z</time>
      </trkpt>
      <trkpt lat="58.670170018449426" lon="-3.376567969098687">
        <ele>101.08</ele>
        <time>2019-09-02T15:02:49Z</time>
      </trkpt>
      <trkpt lat="58.67011402733624" lon="-3.376604011282325">
        <ele>101.08</ele>
        <time>2019-09-02T15:02:50Z</time>
      </trkpt>
      <trkpt lat="58.670058958232403" lon="-3.37663896381855">
        <ele>101.08</ele>
        <time>2019-09-02T15:02:51Z</time>
      </trkpt>
      <trkpt lat="58.669738015159965" lon="-3.376844990998507">
        <ele>100.11</ele>
        <time>2019-09-02T15:02:58Z</time>
      </trkpt>
      <trkpt lat="58.669482031837106" lon="-3.377008019015193">
        <ele>100.11</ele>
        <time>2019-09-02T15:03:03Z</time>
      </trkpt>
      <trkpt lat="58.669352028518915" lon="-3.377073984593153">
        <ele>100.11</ele>
        <time>2019-09-02T15:03:06Z</time>
      </trkpt>
      <trkpt lat="58.668984984979033" lon="-3.377200970426202">
        <ele>100.11</ele>
        <time>2019-09-02T15:03:12Z</time>
      </trkpt>
      <trkpt lat="58.668903009966016" lon="-3.377172974869609">
        <ele>100.11</ele>
        <time>2019-09-02T15:03:13Z</time>
      </trkpt>
      <trkpt lat="58.668823968619108" lon="-3.377146990969777">
        <ele>100.11</ele>
        <time>2019-09-02T15:03:14Z</time>
      </trkpt>
      <trkpt lat="58.668750040233135" lon="-3.377122012898326">
        <ele>100.11</ele>
        <time>2019-09-02T15:03:15Z</time>
      </trkpt>
      <trkpt lat="58.668681979179382" lon="-3.377040037885308">
        <ele>100.11</ele>
        <time>2019-09-02T15:03:16Z</time>
      </trkpt>
      <trkpt lat="58.668622970581055" lon="-3.376945992931724">
        <ele>100.11</ele>
        <time>2019-09-02T15:03:17Z</time>
      </trkpt>
      <trkpt lat="58.668565973639488" lon="-3.37682998739183">
        <ele>100.11</ele>
        <time>2019-09-02T15:03:18Z</time>
      </trkpt>
      <trkpt lat="58.66852599196136" lon="-3.376695038750768">
        <ele>100.11</ele>
        <time>2019-09-02T15:03:19Z</time>
      </trkpt>
      <trkpt lat="58.668199013918638" lon="-3.375683007761836">
        <ele>98.670000000000002</ele>
        <time>2019-09-02T15:03:26Z</time>
      </trkpt>
      <trkpt lat="58.668158026412129" lon="-3.37558401748538">
        <ele>98.189999999999998</ele>
        <time>2019-09-02T15:03:27Z</time>
      </trkpt>
      <trkpt lat="58.66801000200212" lon="-3.375346977263689">
        <ele>97.230000000000004</ele>
        <time>2019-09-02T15:03:30Z</time>
      </trkpt>
      <trkpt lat="58.66745101287961" lon="-3.374897036701441">
        <ele>93.870000000000005</ele>
        <time>2019-09-02T15:03:38Z</time>
      </trkpt>
      <trkpt lat="58.667284967377782" lon="-3.374863006174564">
        <ele>92.900000000000006</ele>
        <time>2019-09-02T15:03:41Z</time>
      </trkpt>
      <trkpt lat="58.667237022891641" lon="-3.374863006174564">
        <ele>92.420000000000002</ele>
        <time>2019-09-02T15:03:42Z</time>
      </trkpt>
      <trkpt lat="58.667185977101326" lon="-3.374863006174564">
        <ele>92.420000000000002</ele>
        <time>2019-09-02T15:03:43Z</time>
      </trkpt>
      <trkpt lat="58.667141972109675" lon="-3.374913968145847">
        <ele>91.939999999999998</ele>
        <time>2019-09-02T15:03:44Z</time>
      </trkpt>
      <trkpt lat="58.667092015966773" lon="-3.374972976744175">
        <ele>91.459999999999994</ele>
        <time>2019-09-02T15:03:45Z</time>
      </trkpt>
      <trkpt lat="58.667048010975122" lon="-3.375064004212618">
        <ele>90.980000000000004</ele>
        <time>2019-09-02T15:03:46Z</time>
      </trkpt>
      <trkpt lat="58.667025966569781" lon="-3.375190990045667">
        <ele>90.5</ele>
        <time>2019-09-02T15:03:47Z</time>
      </trkpt>
      <trkpt lat="58.66700098849833" lon="-3.375331973657012">
        <ele>90.5</ele>
        <time>2019-09-02T15:03:48Z</time>
      </trkpt>
      <trkpt lat="58.666990008205175" lon="-3.37549801915884">
        <ele>90.019999999999996</ele>
        <time>2019-09-02T15:03:49Z</time>
      </trkpt>
      <trkpt lat="58.666985984891653" lon="-3.375672027468681">
        <ele>89.540000000000006</ele>
        <time>2019-09-02T15:03:50Z</time>
      </trkpt>
      <trkpt lat="58.666981961578131" lon="-3.375847041606903">
        <ele>89.060000000000002</ele>
        <time>2019-09-02T15:03:51Z</time>
      </trkpt>
      <trkpt lat="58.666975004598498" lon="-3.376161027699709">
        <ele>88.099999999999994</ele>
        <time>2019-09-02T15:03:53Z</time>
      </trkpt>
      <trkpt lat="58.666970981284976" lon="-3.376297987997532">
        <ele>87.620000000000005</ele>
        <time>2019-09-02T15:03:54Z</time>
      </trkpt>
      <trkpt lat="58.666920019313693" lon="-3.376394966617227">
        <ele>86.659999999999997</ele>
        <time>2019-09-02T15:03:55Z</time>
      </trkpt>
      <trkpt lat="58.66687098518014" lon="-3.376484988257289">
        <ele>86.180000000000007</ele>
        <time>2019-09-02T15:03:56Z</time>
      </trkpt>
      <trkpt lat="58.666814994066954" lon="-3.37652999907732">
        <ele>85.689999999999998</ele>
        <time>2019-09-02T15:03:57Z</time>
      </trkpt>
      <trkpt lat="58.666747016832232" lon="-3.376513989642263">
        <ele>85.209999999999994</ele>
        <time>2019-09-02T15:03:58Z</time>
      </trkpt>
      <trkpt lat="58.666668981313705" lon="-3.376495968550444">
        <ele>84.25</ele>
        <time>2019-09-02T15:03:59Z</time>
      </trkpt>
      <trkpt lat="58.666581977158785" lon="-3.376475013792515">
        <ele>83.769999999999996</ele>
        <time>2019-09-02T15:04:00Z</time>
      </trkpt>
      <trkpt lat="58.665605988353491" lon="-3.375901021063328">
        <ele>79.930000000000007</ele>
        <time>2019-09-02T15:04:09Z</time>
      </trkpt>
      <trkpt lat="58.664351971819997" lon="-3.374820007011294">
        <ele>81.370000000000005</ele>
        <time>2019-09-02T15:04:20Z</time>
      </trkpt>
      <trkpt lat="58.662696965038776" lon="-3.373356023803353">
        <ele>81.370000000000005</ele>
        <time>2019-09-02T15:04:33Z</time>
      </trkpt>
      <trkpt lat="58.662206958979368" lon="-3.372832993045449">
        <ele>80.890000000000001</ele>
        <time>2019-09-02T15:04:37Z</time>
      </trkpt>
      <trkpt lat="58.662096988409758" lon="-3.372665019705892">
        <ele>80.890000000000001</ele>
        <time>2019-09-02T15:04:38Z</time>
      </trkpt>
      <trkpt lat="58.661214960739017" lon="-3.371445033699274">
        <ele>80.409999999999997</ele>
        <time>2019-09-02T15:04:47Z</time>
      </trkpt>
      <trkpt lat="58.661118987947702" lon="-3.371398011222482">
        <ele>79.930000000000007</ele>
        <time>2019-09-02T15:04:48Z</time>
      </trkpt>
      <trkpt lat="58.661023015156388" lon="-3.371360963210464">
        <ele>79.930000000000007</ele>
        <time>2019-09-02T15:04:49Z</time>
      </trkpt>
      <trkpt lat="58.660636022686958" lon="-3.371298015117645">
        <ele>79.450000000000003</ele>
        <time>2019-09-02T15:04:53Z</time>
      </trkpt>
      <trkpt lat="58.660541977733374" lon="-3.371307989582419">
        <ele>79.450000000000003</ele>
        <time>2019-09-02T15:04:54Z</time>
      </trkpt>
      <trkpt lat="58.660456985235214" lon="-3.371316958218813">
        <ele>78.969999999999999</ele>
        <time>2019-09-02T15:04:55Z</time>
      </trkpt>
      <trkpt lat="58.660381967201829" lon="-3.371354006230831">
        <ele>78.969999999999999</ele>
        <time>2019-09-02T15:04:56Z</time>
      </trkpt>
      <trkpt lat="58.660314995795488" lon="-3.371444027870894">
        <ele>78.480000000000004</ele>
        <time>2019-09-02T15:04:57Z</time>
      </trkpt>
      <trkpt lat="58.660242995247245" lon="-3.371542012318969">
        <ele>78</ele>
        <time>2019-09-02T15:04:58Z</time>
      </trkpt>
      <trkpt lat="58.660163031890988" lon="-3.371648965403438">
        <ele>78</ele>
        <time>2019-09-02T15:04:59Z</time>
      </trkpt>
      <trkpt lat="58.66008197888732" lon="-3.37175901979208">
        <ele>77.519999999999996</ele>
        <time>2019-09-02T15:05:00Z</time>
      </trkpt>
      <trkpt lat="58.660000003874302" lon="-3.371869996190071">
        <ele>77.040000000000006</ele>
        <time>2019-09-02T15:05:01Z</time>
      </trkpt>
      <trkpt lat="58.659268012270331" lon="-3.373661963269115">
        <ele>73.680000000000007</ele>
        <time>2019-09-02T15:05:12Z</time>
      </trkpt>
      <trkpt lat="58.658257992938161" lon="-3.376325983554125">
        <ele>68.870000000000005</ele>
        <time>2019-09-02T15:05:27Z</time>
      </trkpt>
      <trkpt lat="58.658095970749855" lon="-3.37650602683425">
        <ele>67.909999999999997</ele>
        <time>2019-09-02T15:05:29Z</time>
      </trkpt>
      <trkpt lat="58.658013995736837" lon="-3.37657199241221">
        <ele>67.430000000000007</ele>
        <time>2019-09-02T15:05:30Z</time>
      </trkpt>
      <trkpt lat="58.657936966046691" lon="-3.37663502432406">
        <ele>66.950000000000003</ele>
        <time>2019-09-02T15:05:31Z</time>
      </trkpt>
      <trkpt lat="58.657861026003957" lon="-3.376682968810201">
        <ele>66.469999999999999</ele>
        <time>2019-09-02T15:05:32Z</time>
      </trkpt>
      <trkpt lat="58.657787013798952" lon="-3.376655979081988">
        <ele>65.989999999999995</ele>
        <time>2019-09-02T15:05:33Z</time>
      </trkpt>
      <trkpt lat="58.657715013250709" lon="-3.376629995182157">
        <ele>65.989999999999995</ele>
        <time>2019-09-02T15:05:34Z</time>
      </trkpt>
      <trkpt lat="58.657639995217323" lon="-3.376603005453944">
        <ele>65.510000000000005</ele>
        <time>2019-09-02T15:05:35Z</time>
      </trkpt>
      <trkpt lat="58.657562965527177" lon="-3.376560006290674">
        <ele>65.030000000000001</ele>
        <time>2019-09-02T15:05:36Z</time>
      </trkpt>
      <trkpt lat="58.657506974413991" lon="-3.376448024064302">
        <ele>64.549999999999997</ele>
        <time>2019-09-02T15:05:37Z</time>
      </trkpt>
      <trkpt lat="58.657465986907482" lon="-3.376364959403873">
        <ele>64.069999999999993</ele>
        <time>2019-09-02T15:05:38Z</time>
      </trkpt>
      <trkpt lat="58.657432962208986" lon="-3.376192962750793">
        <ele>64.069999999999993</ele>
        <time>2019-09-02T15:05:39Z</time>
      </trkpt>
      <trkpt lat="58.657403960824013" lon="-3.376039993017912">
        <ele>63.579999999999998</ele>
        <time>2019-09-02T15:05:40Z</time>
      </trkpt>
      <trkpt lat="58.657380994409323" lon="-3.375875037163496">
        <ele>63.100000000000001</ele>
        <time>2019-09-02T15:05:41Z</time>
      </trkpt>
      <trkpt lat="58.657389041036367" lon="-3.375678984448314">
        <ele>63.100000000000001</ele>
        <time>2019-09-02T15:05:42Z</time>
      </trkpt>
      <trkpt lat="58.657398009672761" lon="-3.375464994460344">
        <ele>62.619999999999997</ele>
        <time>2019-09-02T15:05:43Z</time>
      </trkpt>
      <trkpt lat="58.657476967200637" lon="-3.37352299131453">
        <ele>58.299999999999997</ele>
        <time>2019-09-02T15:05:51Z</time>
      </trkpt>
      <trkpt lat="58.657484007999301" lon="-3.373340014368296">
        <ele>57.82</ele>
        <time>2019-09-02T15:05:52Z</time>
      </trkpt>
      <trkpt lat="58.657464981079102" lon="-3.373171035200357">
        <ele>57.340000000000003</ele>
        <time>2019-09-02T15:05:53Z</time>
      </trkpt>
      <trkpt lat="58.657432962208986" lon="-3.373015969991684">
        <ele>57.340000000000003</ele>
        <time>2019-09-02T15:05:54Z</time>
      </trkpt>
      <trkpt lat="58.657399015501142" lon="-3.372852019965649">
        <ele>56.859999999999999</ele>
        <time>2019-09-02T15:05:55Z</time>
      </trkpt>
      <trkpt lat="58.657350987195969" lon="-3.372693015262485">
        <ele>56.369999999999997</ele>
        <time>2019-09-02T15:05:56Z</time>
      </trkpt>
      <trkpt lat="58.657288961112499" lon="-3.372551025822759">
        <ele>55.890000000000001</ele>
        <time>2019-09-02T15:05:57Z</time>
      </trkpt>
      <trkpt lat="58.657230036333203" lon="-3.372414987534285">
        <ele>55.890000000000001</ele>
        <time>2019-09-02T15:05:58Z</time>
      </trkpt>
      <trkpt lat="58.657173039391637" lon="-3.372284984216094">
        <ele>55.409999999999997</ele>
        <time>2019-09-02T15:05:59Z</time>
      </trkpt>
      <trkpt lat="58.657105984166265" lon="-3.372202003374696">
        <ele>55.409999999999997</ele>
        <time>2019-09-02T15:06:00Z</time>
      </trkpt>
      <trkpt lat="58.657030966132879" lon="-3.372122040018439">
        <ele>55.409999999999997</ele>
        <time>2019-09-02T15:06:01Z</time>
      </trkpt>
      <trkpt lat="58.656953014433384" lon="-3.372036963701248">
        <ele>55.409999999999997</ele>
        <time>2019-09-02T15:06:02Z</time>
      </trkpt>
      <trkpt lat="58.656863998621702" lon="-3.371941996738315">
        <ele>55.409999999999997</ele>
        <time>2019-09-02T15:06:03Z</time>
      </trkpt>
      <trkpt lat="58.655975013971329" lon="-3.370984029024839">
        <ele>55.890000000000001</ele>
        <time>2019-09-02T15:06:10Z</time>
      </trkpt>
      <trkpt lat="58.65367703139782" lon="-3.368507008999586">
        <ele>58.780000000000001</ele>
        <time>2019-09-02T15:06:28Z</time>
      </trkpt>
      <trkpt lat="58.65262602455914" lon="-3.367298003286123">
        <ele>63.100000000000001</ele>
        <time>2019-09-02T15:06:37Z</time>
      </trkpt>
      <trkpt lat="58.652541032060981" lon="-3.367152996361256">
        <ele>63.579999999999998</ele>
        <time>2019-09-02T15:06:38Z</time>
      </trkpt>
      <trkpt lat="58.65245302207768" lon="-3.367002038285136">
        <ele>63.579999999999998</ele>
        <time>2019-09-02T15:06:39Z</time>
      </trkpt>
      <trkpt lat="58.652376998215914" lon="-3.366826018318534">
        <ele>64.069999999999993</ele>
        <time>2019-09-02T15:06:40Z</time>
      </trkpt>
      <trkpt lat="58.652299968525767" lon="-3.366640023887157">
        <ele>64.069999999999993</ele>
        <time>2019-09-02T15:06:41Z</time>
      </trkpt>
      <trkpt lat="58.651518020778894" lon="-3.364898012951016">
        <ele>61.18</ele>
        <time>2019-09-02T15:06:50Z</time>
      </trkpt>
      <trkpt lat="58.651435961946845" lon="-3.364703971892595">
        <ele>60.700000000000003</ele>
        <time>2019-09-02T15:06:51Z</time>
      </trkpt>
      <trkpt lat="58.651368990540504" lon="-3.364477995783091">
        <ele>60.700000000000003</ele>
        <time>2019-09-02T15:06:52Z</time>
      </trkpt>
      <trkpt lat="58.651301013305783" lon="-3.364250008016825">
        <ele>60.219999999999999</ele>
        <time>2019-09-02T15:06:53Z</time>
      </trkpt>
      <trkpt lat="58.650533985346556" lon="-3.36213399656117">
        <ele>58.299999999999997</ele>
        <time>2019-09-02T15:07:03Z</time>
      </trkpt>
      <trkpt lat="58.649811968207359" lon="-3.360642017796636">
        <ele>56.859999999999999</ele>
        <time>2019-09-02T15:07:11Z</time>
      </trkpt>
      <trkpt lat="58.649737033993006" lon="-3.36043699644506">
        <ele>56.369999999999997</ele>
        <time>2019-09-02T15:07:12Z</time>
      </trkpt>
      <trkpt lat="58.648978974670172" lon="-3.357918988913298">
        <ele>50.609999999999999</ele>
        <time>2019-09-02T15:07:24Z</time>
      </trkpt>
      <trkpt lat="58.648896999657154" lon="-3.357455972582102">
        <ele>49.159999999999997</ele>
        <time>2019-09-02T15:07:26Z</time>
      </trkpt>
      <trkpt lat="58.648873027414083" lon="-3.357210969552398">
        <ele>48.200000000000003</ele>
        <time>2019-09-02T15:07:27Z</time>
      </trkpt>
      <trkpt lat="58.648561974987388" lon="-3.354100026190281">
        <ele>40.030000000000001</ele>
        <time>2019-09-02T15:07:39Z</time>
      </trkpt>
      <trkpt lat="58.648142963647842" lon="-3.350598989054561">
        <ele>33.299999999999997</ele>
        <time>2019-09-02T15:07:51Z</time>
      </trkpt>
      <trkpt lat="58.647895026952028" lon="-3.348467973992229">
        <ele>32.340000000000003</ele>
        <time>2019-09-02T15:08:01Z</time>
      </trkpt>
      <trkpt lat="58.647881029173732" lon="-3.348120963200927">
        <ele>31.859999999999999</ele>
        <time>2019-09-02T15:08:03Z</time>
      </trkpt>
      <trkpt lat="58.647893015295267" lon="-3.34795399568975">
        <ele>31.859999999999999</ele>
        <time>2019-09-02T15:08:04Z</time>
      </trkpt>
      <trkpt lat="58.647903995588422" lon="-3.347797002643347">
        <ele>31.859999999999999</ele>
        <time>2019-09-02T15:08:05Z</time>
      </trkpt>
      <trkpt lat="58.647937020286918" lon="-3.347329962998629">
        <ele>30.420000000000002</ele>
        <time>2019-09-02T15:08:09Z</time>
      </trkpt>
      <trkpt lat="58.647899972274899" lon="-3.347262991592288">
        <ele>29.940000000000001</ele>
        <time>2019-09-02T15:08:10Z</time>
      </trkpt>
      <trkpt lat="58.647853033617139" lon="-3.347179004922509">
        <ele>29.460000000000001</ele>
        <time>2019-09-02T15:08:11Z</time>
      </trkpt>
      <trkpt lat="58.647783966735005" lon="-3.347097029909492">
        <ele>29.460000000000001</ele>
        <time>2019-09-02T15:08:12Z</time>
      </trkpt>
      <trkpt lat="58.647693023085594" lon="-3.347015976905823">
        <ele>28.98</ele>
        <time>2019-09-02T15:08:13Z</time>
      </trkpt>
      <trkpt lat="58.646670011803508" lon="-3.34610603749752">
        <ele>29.940000000000001</ele>
        <time>2019-09-02T15:08:21Z</time>
      </trkpt>
      <trkpt lat="58.646043967455626" lon="-3.345449985936284">
        <ele>31.379999999999999</ele>
        <time>2019-09-02T15:08:26Z</time>
      </trkpt>
      <trkpt lat="58.645652029663324" lon="-3.344927038997412">
        <ele>32.340000000000003</ele>
        <time>2019-09-02T15:08:30Z</time>
      </trkpt>
      <trkpt lat="58.64555899053812" lon="-3.344837017357349">
        <ele>32.340000000000003</ele>
        <time>2019-09-02T15:08:31Z</time>
      </trkpt>
      <trkpt lat="58.645461006090045" lon="-3.344758981838822">
        <ele>32.340000000000003</ele>
        <time>2019-09-02T15:08:32Z</time>
      </trkpt>
      <trkpt lat="58.644337998703122" lon="-3.343929005786777">
        <ele>32.82</ele>
        <time>2019-09-02T15:08:41Z</time>
      </trkpt>
      <trkpt lat="58.642941992729902" lon="-3.342884033918381">
        <ele>33.780000000000001</ele>
        <time>2019-09-02T15:08:52Z</time>
      </trkpt>
      <trkpt lat="58.641784032806754" lon="-3.342032013460994">
        <ele>35.710000000000001</ele>
        <time>2019-09-02T15:09:04Z</time>
      </trkpt>
      <trkpt lat="58.641424030065536" lon="-3.341783992946148">
        <ele>36.189999999999998</ele>
        <time>2019-09-02T15:09:12Z</time>
      </trkpt>
      <trkpt lat="58.641280028969049" lon="-3.341730013489723">
        <ele>36.189999999999998</ele>
        <time>2019-09-02T15:09:18Z</time>
      </trkpt>
      <trkpt lat="58.641271982342005" lon="-3.341786004602909">
        <ele>36.189999999999998</ele>
        <time>2019-09-02T15:09:19Z</time>
      </trkpt>
      <trkpt lat="58.641259996220469" lon="-3.341864040121436">
        <ele>36.189999999999998</ele>
        <time>2019-09-02T15:09:20Z</time>
      </trkpt>
      <trkpt lat="58.641072995960712" lon="-3.343083020299673">
        <ele>34.259999999999998</ele>
        <time>2019-09-02T15:09:29Z</time>
      </trkpt>
      <trkpt lat="58.640709975734353" lon="-3.344438960775733">
        <ele>31.379999999999999</ele>
        <time>2019-09-02T15:09:37Z</time>
      </trkpt>
      <trkpt lat="58.640624983236194" lon="-3.344585979357362">
        <ele>30.899999999999999</ele>
        <time>2019-09-02T15:09:38Z</time>
      </trkpt>
      <trkpt lat="58.640532027930021" lon="-3.344719000160694">
        <ele>30.420000000000002</ele>
        <time>2019-09-02T15:09:39Z</time>
      </trkpt>
      <trkpt lat="58.640436977148056" lon="-3.344855960458517">
        <ele>30.420000000000002</ele>
        <time>2019-09-02T15:09:40Z</time>
      </trkpt>
      <trkpt lat="58.640326000750065" lon="-3.344971965998411">
        <ele>29.940000000000001</ele>
        <time>2019-09-02T15:09:41Z</time>
      </trkpt>
      <trkpt lat="58.640204966068268" lon="-3.345057964324951">
        <ele>29.460000000000001</ele>
        <time>2019-09-02T15:09:42Z</time>
      </trkpt>
      <trkpt lat="58.6400789860636" lon="-3.345147985965014">
        <ele>29.460000000000001</ele>
        <time>2019-09-02T15:09:43Z</time>
      </trkpt>
      <trkpt lat="58.63872597925365" lon="-3.346114000305533">
        <ele>27.530000000000001</ele>
        <time>2019-09-02T15:09:53Z</time>
      </trkpt>
      <trkpt lat="58.637278005480766" lon="-3.347138017416">
        <ele>27.050000000000001</ele>
        <time>2019-09-02T15:10:05Z</time>
      </trkpt>
      <trkpt lat="58.635311024263501" lon="-3.348550032824278">
        <ele>28.02</ele>
        <time>2019-09-02T15:10:21Z</time>
      </trkpt>
      <trkpt lat="58.634853037074208" lon="-3.348884973675013">
        <ele>28.98</ele>
        <time>2019-09-02T15:10:27Z</time>
      </trkpt>
      <trkpt lat="58.634763015434146" lon="-3.348951023072004">
        <ele>29.460000000000001</ele>
        <time>2019-09-02T15:10:29Z</time>
      </trkpt>
      <trkpt lat="58.634227998554707" lon="-3.349334998056293">
        <ele>29.940000000000001</ele>
        <time>2019-09-02T15:10:35Z</time>
      </trkpt>
      <trkpt lat="58.633280005306005" lon="-3.349943021312356">
        <ele>31.859999999999999</ele>
        <time>2019-09-02T15:10:43Z</time>
      </trkpt>
      <trkpt lat="58.633167017251253" lon="-3.349967999383807">
        <ele>31.859999999999999</ele>
        <time>2019-09-02T15:10:44Z</time>
      </trkpt>
      <trkpt lat="58.633054029196501" lon="-3.349991971626878">
        <ele>31.859999999999999</ele>
        <time>2019-09-02T15:10:45Z</time>
      </trkpt>
      <trkpt lat="58.632940035313368" lon="-3.349956013262272">
        <ele>31.859999999999999</ele>
        <time>2019-09-02T15:10:46Z</time>
      </trkpt>
      <trkpt lat="58.632822018116713" lon="-3.349915025755763">
        <ele>32.340000000000003</ele>
        <time>2019-09-02T15:10:47Z</time>
      </trkpt>
      <trkpt lat="58.632696038112044" lon="-3.349871020764113">
        <ele>32.340000000000003</ele>
        <time>2019-09-02T15:10:48Z</time>
      </trkpt>
      <trkpt lat="58.631414026021957" lon="-3.349184961989522">
        <ele>30.899999999999999</ele>
        <time>2019-09-02T15:10:58Z</time>
      </trkpt>
      <trkpt lat="58.629719959571958" lon="-3.348273010924459">
        <ele>29.940000000000001</ele>
        <time>2019-09-02T15:11:13Z</time>
      </trkpt>
      <trkpt lat="58.628419004380703" lon="-3.347571026533842">
        <ele>28.02</ele>
        <time>2019-09-02T15:11:24Z</time>
      </trkpt>
      <trkpt lat="58.626441964879632" lon="-3.346489006653428">
        <ele>28.5</ele>
        <time>2019-09-02T15:11:40Z</time>
      </trkpt>
      <trkpt lat="58.625131035223603" lon="-3.345364993438125">
        <ele>26.57</ele>
        <time>2019-09-02T15:11:51Z</time>
      </trkpt>
      <trkpt lat="58.624384962022305" lon="-3.344705002382398">
        <ele>25.129999999999999</ele>
        <time>2019-09-02T15:11:58Z</time>
      </trkpt>
      <trkpt lat="58.624286977574229" lon="-3.34468899294734">
        <ele>25.129999999999999</ele>
        <time>2019-09-02T15:11:59Z</time>
      </trkpt>
      <trkpt lat="58.62417901866138" lon="-3.344673989340663">
        <ele>25.129999999999999</ele>
        <time>2019-09-02T15:12:00Z</time>
      </trkpt>
      <trkpt lat="58.623101022094488" lon="-3.344983030110598">
        <ele>22.73</ele>
        <time>2019-09-02T15:12:09Z</time>
      </trkpt>
      <trkpt lat="58.622864987701178" lon="-3.345046984031797">
        <ele>22.25</ele>
        <time>2019-09-02T15:12:12Z</time>
      </trkpt>
      <trkpt lat="58.622803967446089" lon="-3.345063999295235">
        <ele>21.77</ele>
        <time>2019-09-02T15:12:13Z</time>
      </trkpt>
      <trkpt lat="58.622750993818045" lon="-3.345077997073531">
        <ele>21.289999999999999</ele>
        <time>2019-09-02T15:12:14Z</time>
      </trkpt>
      <trkpt lat="58.622729033231735" lon="-3.344956040382385">
        <ele>21.289999999999999</ele>
        <time>2019-09-02T15:12:15Z</time>
      </trkpt>
      <trkpt lat="58.622712017968297" lon="-3.344836011528969">
        <ele>21.289999999999999</ele>
        <time>2019-09-02T15:12:16Z</time>
      </trkpt>
      <trkpt lat="58.622693996876478" lon="-3.344710031524301">
        <ele>20.809999999999999</ele>
        <time>2019-09-02T15:12:17Z</time>
      </trkpt>
      <trkpt lat="58.622675975784659" lon="-3.344585979357362">
        <ele>20.809999999999999</ele>
        <time>2019-09-02T15:12:18Z</time>
      </trkpt>
      <trkpt lat="58.622639011591673" lon="-3.344329996034503">
        <ele>20.809999999999999</ele>
        <time>2019-09-02T15:12:20Z</time>
      </trkpt>
      <trkpt lat="58.622617973014712" lon="-3.344191024079919">
        <ele>20.32</ele>
        <time>2019-09-02T15:12:21Z</time>
      </trkpt>
      <trkpt lat="58.622598024085164" lon="-3.344048028811812">
        <ele>19.84</ele>
        <time>2019-09-02T15:12:22Z</time>
      </trkpt>
      <trkpt lat="58.622576985508204" lon="-3.343906961381435">
        <ele>19.359999999999999</ele>
        <time>2019-09-02T15:12:23Z</time>
      </trkpt>
      <trkpt lat="58.622557036578655" lon="-3.34376597777009">
        <ele>18.879999999999999</ele>
        <time>2019-09-02T15:12:24Z</time>
      </trkpt>
      <trkpt lat="58.622452011331916" lon="-3.343167006969452">
        <ele>16</ele>
        <time>2019-09-02T15:12:32Z</time>
      </trkpt>
      <trkpt lat="58.622419992461801" lon="-3.343000039458275">
        <ele>15.039999999999999</ele>
        <time>2019-09-02T15:12:46Z</time>
      </trkpt>
      <trkpt lat="58.622399037703872" lon="-3.342916974797845">
        <ele>14.56</ele>
        <time>2019-09-02T15:12:54Z</time>
      </trkpt>
      <trkpt lat="58.622360983863473" lon="-3.342951005324721">
        <ele>14.56</ele>
        <time>2019-09-02T15:12:55Z</time>
      </trkpt>
      <trkpt lat="58.622300969436765" lon="-3.343008002266288">
        <ele>14.08</ele>
        <time>2019-09-02T15:12:56Z</time>
      </trkpt>
      <trkpt lat="58.622223017737269" lon="-3.343080002814531">
        <ele>14.08</ele>
        <time>2019-09-02T15:12:57Z</time>
      </trkpt>
      <trkpt lat="58.622132996097207" lon="-3.34316298365593">
        <ele>13.6</ele>
        <time>2019-09-02T15:12:58Z</time>
      </trkpt>
      <trkpt lat="58.621119037270546" lon="-3.344105025753379">
        <ele>12.15</ele>
        <time>2019-09-02T15:13:06Z</time>
      </trkpt>
      <trkpt lat="58.61968900077045" lon="-3.345431964844465">
        <ele>7.83</ele>
        <time>2019-09-02T15:13:15Z</time>
      </trkpt>
      <trkpt lat="58.618281008675694" lon="-3.34664398804307">
        <ele>3.5</ele>
        <time>2019-09-02T15:13:26Z</time>
      </trkpt>
      <trkpt lat="58.61816399730742" lon="-3.34673099219799">
        <ele>3.5</ele>
        <time>2019-09-02T15:13:27Z</time>
      </trkpt>
      <trkpt lat="58.61803499981761" lon="-3.346743984147906">
        <ele>3.5</ele>
        <time>2019-09-02T15:13:28Z</time>
      </trkpt>
      <trkpt lat="58.617910025641322" lon="-3.346733003854752">
        <ele>3.5</ele>
        <time>2019-09-02T15:13:29Z</time>
      </trkpt>
      <trkpt lat="58.617783961817622" lon="-3.346721017733216">
        <ele>3.5</ele>
        <time>2019-09-02T15:13:30Z</time>
      </trkpt>
      <trkpt lat="58.617653036490083" lon="-3.346704002469778">
        <ele>3.5</ele>
        <time>2019-09-02T15:13:31Z</time>
      </trkpt>
      <trkpt lat="58.617534013465047" lon="-3.346619009971619">
        <ele>3.5</ele>
        <time>2019-09-02T15:13:32Z</time>
      </trkpt>
      <trkpt lat="58.61741398461163" lon="-3.346533011645079">
        <ele>3.5</ele>
        <time>2019-09-02T15:13:33Z</time>
      </trkpt>
      <trkpt lat="58.61597103998065" lon="-3.345317970961332">
        <ele>2.54</ele>
        <time>2019-09-02T15:13:46Z</time>
      </trkpt>
      <trkpt lat="58.615530990064144" lon="-3.3446029946208">
        <ele>3.98</ele>
        <time>2019-09-02T15:13:52Z</time>
      </trkpt>
      <trkpt lat="58.614676035940647" lon="-3.344011986628175">
        <ele>5.91</ele>
        <time>2019-09-02T15:14:00Z</time>
      </trkpt>
      <trkpt lat="58.612949028611183" lon="-3.34344101138413">
        <ele>7.83</ele>
        <time>2019-09-02T15:14:11Z</time>
      </trkpt>
      <trkpt lat="58.610911974683404" lon="-3.343084026128054">
        <ele>10.23</ele>
        <time>2019-09-02T15:14:23Z</time>
      </trkpt>
      <trkpt lat="58.609053958207369" lon="-3.343685008585453">
        <ele>12.15</ele>
        <time>2019-09-02T15:14:34Z</time>
      </trkpt>
      <trkpt lat="58.607192002236843" lon="-3.344486989080906">
        <ele>11.19</ele>
        <time>2019-09-02T15:14:45Z</time>
      </trkpt>
      <trkpt lat="58.604998961091042" lon="-3.346534017473459">
        <ele>6.39</ele>
        <time>2019-09-02T15:14:59Z</time>
      </trkpt>
      <trkpt lat="58.602534011006355" lon="-3.348649023100734">
        <ele>5.91</ele>
        <time>2019-09-02T15:15:15Z</time>
      </trkpt>
      <trkpt lat="58.600363014265895" lon="-3.350517014041543">
        <ele>4.94</ele>
        <time>2019-09-02T15:15:28Z</time>
      </trkpt>
      <trkpt lat="58.59889199025929" lon="-3.352238992229104">
        <ele>5.91</ele>
        <time>2019-09-02T15:15:38Z</time>
      </trkpt>
      <trkpt lat="58.597374027594924" lon="-3.355046007782221">
        <ele>6.39</ele>
        <time>2019-09-02T15:15:49Z</time>
      </trkpt>
      <trkpt lat="58.595496984198689" lon="-3.359712967649102">
        <ele>7.83</ele>
        <time>2019-09-02T15:16:05Z</time>
      </trkpt>
      <trkpt lat="58.594454023987055" lon="-3.363469988107681">
        <ele>8.789999999999999</ele>
        <time>2019-09-02T15:16:17Z</time>
      </trkpt>
      <trkpt lat="58.59399301931262" lon="-3.366580009460449">
        <ele>8.789999999999999</ele>
        <time>2019-09-02T15:16:26Z</time>
      </trkpt>
      <trkpt lat="58.593405028805137" lon="-3.369746021926403">
        <ele>7.35</ele>
        <time>2019-09-02T15:16:36Z</time>
      </trkpt>
      <trkpt lat="58.593038991093636" lon="-3.372099995613098">
        <ele>7.83</ele>
        <time>2019-09-02T15:16:44Z</time>
      </trkpt>
      <trkpt lat="58.593032034114003" lon="-3.37238104082644">
        <ele>7.83</ele>
        <time>2019-09-02T15:16:45Z</time>
      </trkpt>
      <trkpt lat="58.593042008578777" lon="-3.372656973078847">
        <ele>8.310000000000001</ele>
        <time>2019-09-02T15:16:46Z</time>
      </trkpt>
      <trkpt lat="58.59304997138679" lon="-3.372888984158635">
        <ele>8.310000000000001</ele>
        <time>2019-09-02T15:16:47Z</time>
      </trkpt>
      <trkpt lat="58.593114009127021" lon="-3.373173968866468">
        <ele>8.310000000000001</ele>
        <time>2019-09-02T15:16:48Z</time>
      </trkpt>
      <trkpt lat="58.593172011896968" lon="-3.373433975502849">
        <ele>8.789999999999999</ele>
        <time>2019-09-02T15:16:49Z</time>
      </trkpt>
      <trkpt lat="58.593231020495296" lon="-3.373695993795991">
        <ele>8.789999999999999</ele>
        <time>2019-09-02T15:16:50Z</time>
      </trkpt>
      <trkpt lat="58.593292040750384" lon="-3.373958012089133">
        <ele>8.789999999999999</ele>
        <time>2019-09-02T15:16:51Z</time>
      </trkpt>
      <trkpt lat="58.59337099827826" lon="-3.374207960441709">
        <ele>8.789999999999999</ele>
        <time>2019-09-02T15:16:52Z</time>
      </trkpt>
      <trkpt lat="58.593747010454535" lon="-3.375366004183888">
        <ele>8.789999999999999</ele>
        <time>2019-09-02T15:16:57Z</time>
      </trkpt>
      <trkpt lat="58.593781040981412" lon="-3.375587034970522">
        <ele>8.310000000000001</ele>
        <time>2019-09-02T15:16:58Z</time>
      </trkpt>
      <trkpt lat="58.59380098991096" lon="-3.375742016360164">
        <ele>8.310000000000001</ele>
        <time>2019-09-02T15:16:59Z</time>
      </trkpt>
      <trkpt lat="58.593789003789425" lon="-3.376009985804558">
        <ele>8.310000000000001</ele>
        <time>2019-09-02T15:17:00Z</time>
      </trkpt>
      <trkpt lat="58.593780035153031" lon="-3.376220036298037">
        <ele>8.310000000000001</ele>
        <time>2019-09-02T15:17:01Z</time>
      </trkpt>
      <trkpt lat="58.593720020726323" lon="-3.376376023516059">
        <ele>7.83</ele>
        <time>2019-09-02T15:17:02Z</time>
      </trkpt>
      <trkpt lat="58.593645002692938" lon="-3.376553971320391">
        <ele>7.83</ele>
        <time>2019-09-02T15:17:03Z</time>
      </trkpt>
      <trkpt lat="58.59356302767992" lon="-3.376748012378812">
        <ele>7.83</ele>
        <time>2019-09-02T15:17:04Z</time>
      </trkpt>
      <trkpt lat="58.592990962788463" lon="-3.378135971724987">
        <ele>8.310000000000001</ele>
        <time>2019-09-02T15:17:11Z</time>
      </trkpt>
      <trkpt lat="58.592922985553741" lon="-3.378307968378067">
        <ele>8.789999999999999</ele>
        <time>2019-09-02T15:17:12Z</time>
      </trkpt>
      <trkpt lat="58.592858025804162" lon="-3.378473008051515">
        <ele>8.789999999999999</ele>
        <time>2019-09-02T15:17:13Z</time>
      </trkpt>
      <trkpt lat="58.592793988063931" lon="-3.378635030239821">
        <ele>9.27</ele>
        <time>2019-09-02T15:17:14Z</time>
      </trkpt>
      <trkpt lat="58.5927489772439" lon="-3.378747012466192">
        <ele>9.27</ele>
        <time>2019-09-02T15:17:15Z</time>
      </trkpt>
      <trkpt lat="58.592720981687307" lon="-3.378956979140639">
        <ele>9.27</ele>
        <time>2019-09-02T15:17:16Z</time>
      </trkpt>
      <trkpt lat="58.592693991959095" lon="-3.379149008542299">
        <ele>9.27</ele>
        <time>2019-09-02T15:17:17Z</time>
      </trkpt>
      <trkpt lat="58.59268200583756" lon="-3.379352018237114">
        <ele>9.27</ele>
        <time>2019-09-02T15:17:18Z</time>
      </trkpt>
      <trkpt lat="58.592676976695657" lon="-3.379571959376335">
        <ele>9.75</ele>
        <time>2019-09-02T15:17:19Z</time>
      </trkpt>
      <trkpt lat="58.592672031372786" lon="-3.379782009869814">
        <ele>9.75</ele>
        <time>2019-09-02T15:17:20Z</time>
      </trkpt>
      <trkpt lat="58.59266297891736" lon="-3.38016296736896">
        <ele>9.75</ele>
        <time>2019-09-02T15:17:22Z</time>
      </trkpt>
      <trkpt lat="58.592631965875626" lon="-3.380365977063775">
        <ele>10.23</ele>
        <time>2019-09-02T15:17:23Z</time>
      </trkpt>
      <trkpt lat="58.592601036652923" lon="-3.38056898675859">
        <ele>10.23</ele>
        <time>2019-09-02T15:17:24Z</time>
      </trkpt>
      <trkpt lat="58.592534987255931" lon="-3.38099998421967">
        <ele>10.23</ele>
        <time>2019-09-02T15:17:26Z</time>
      </trkpt>
      <trkpt lat="58.592461980879307" lon="-3.381182961165905">
        <ele>10.23</ele>
        <time>2019-09-02T15:17:27Z</time>
      </trkpt>
      <trkpt lat="58.592385035008192" lon="-3.381372978910804">
        <ele>10.710000000000001</ele>
        <time>2019-09-02T15:17:28Z</time>
      </trkpt>
      <trkpt lat="58.592291995882988" lon="-3.38153600692749">
        <ele>10.710000000000001</ele>
        <time>2019-09-02T15:17:29Z</time>
      </trkpt>
      <trkpt lat="58.592191999778152" lon="-3.381685959175229">
        <ele>11.19</ele>
        <time>2019-09-02T15:17:30Z</time>
      </trkpt>
      <trkpt lat="58.592093009501696" lon="-3.381834989413619">
        <ele>11.19</ele>
        <time>2019-09-02T15:17:31Z</time>
      </trkpt>
      <trkpt lat="58.591261021792889" lon="-3.382900999858975">
        <ele>17.440000000000001</ele>
        <time>2019-09-02T15:17:40Z</time>
      </trkpt>
      <trkpt lat="58.590894984081388" lon="-3.383392011746764">
        <ele>21.77</ele>
        <time>2019-09-02T15:17:45Z</time>
      </trkpt>
      <trkpt lat="58.590839998796582" lon="-3.38346702978015">
        <ele>22.25</ele>
        <time>2019-09-02T15:17:46Z</time>
      </trkpt>
      <trkpt lat="58.590803034603596" lon="-3.383584963157773">
        <ele>22.73</ele>
        <time>2019-09-02T15:17:47Z</time>
      </trkpt>
      <trkpt lat="58.590767998248339" lon="-3.383699962869287">
        <ele>23.690000000000001</ele>
        <time>2019-09-02T15:17:48Z</time>
      </trkpt>
      <trkpt lat="58.590760035440326" lon="-3.383828960359097">
        <ele>24.170000000000002</ele>
        <time>2019-09-02T15:17:49Z</time>
      </trkpt>
      <trkpt lat="58.5907700099051" lon="-3.383959969505668">
        <ele>24.649999999999999</ele>
        <time>2019-09-02T15:17:50Z</time>
      </trkpt>
      <trkpt lat="58.590791970491409" lon="-3.384076980873942">
        <ele>25.129999999999999</ele>
        <time>2019-09-02T15:17:51Z</time>
      </trkpt>
      <trkpt lat="58.59083304181695" lon="-3.384198015555739">
        <ele>26.09</ele>
        <time>2019-09-02T15:17:52Z</time>
      </trkpt>
      <trkpt lat="58.590876962989569" lon="-3.384329024702311">
        <ele>26.57</ele>
        <time>2019-09-02T15:17:53Z</time>
      </trkpt>
      <trkpt lat="58.591419020667672" lon="-3.386100959032774">
        <ele>26.57</ele>
        <time>2019-09-02T15:18:03Z</time>
      </trkpt>
      <trkpt lat="58.592063002288342" lon="-3.388200961053371">
        <ele>28.5</ele>
        <time>2019-09-02T15:18:14Z</time>
      </trkpt>
      <trkpt lat="58.59253398142755" lon="-3.389767035841942">
        <ele>28.98</ele>
        <time>2019-09-02T15:18:25Z</time>
      </trkpt>
      <trkpt lat="58.592564994469285" lon="-3.389870971441269">
        <ele>28.98</ele>
        <time>2019-09-02T15:18:26Z</time>
      </trkpt>
      <trkpt lat="58.592645963653922" lon="-3.390147993341088">
        <ele>28.98</ele>
        <time>2019-09-02T15:18:29Z</time>
      </trkpt>
      <trkpt lat="58.592672031372786" lon="-3.390238014981151">
        <ele>28.98</ele>
        <time>2019-09-02T15:18:30Z</time>
      </trkpt>
      <trkpt lat="58.592978976666927" lon="-3.391249040141702">
        <ele>28.98</ele>
        <time>2019-09-02T15:18:37Z</time>
      </trkpt>
      <trkpt lat="58.593136975541711" lon="-3.391785984858871">
        <ele>28.5</ele>
        <time>2019-09-02T15:18:40Z</time>
      </trkpt>
      <trkpt lat="58.593195984140038" lon="-3.391968961805105">
        <ele>28.02</ele>
        <time>2019-09-02T15:18:41Z</time>
      </trkpt>
      <trkpt lat="58.593253986909986" lon="-3.392154034227133">
        <ele>27.530000000000001</ele>
        <time>2019-09-02T15:18:42Z</time>
      </trkpt>
      <trkpt lat="58.593311989679933" lon="-3.392333993688226">
        <ele>27.050000000000001</ele>
        <time>2019-09-02T15:18:43Z</time>
      </trkpt>
      <trkpt lat="58.593372004106641" lon="-3.392521999776363">
        <ele>27.050000000000001</ele>
        <time>2019-09-02T15:18:44Z</time>
      </trkpt>
      <trkpt lat="58.593970974907279" lon="-3.394496021792293">
        <ele>27.530000000000001</ele>
        <time>2019-09-02T15:18:55Z</time>
      </trkpt>
      <trkpt lat="58.594034006819129" lon="-3.394702970981598">
        <ele>27.530000000000001</ele>
        <time>2019-09-02T15:18:56Z</time>
      </trkpt>
      <trkpt lat="58.59410097822547" lon="-3.394926013424993">
        <ele>27.530000000000001</ele>
        <time>2019-09-02T15:18:57Z</time>
      </trkpt>
      <trkpt lat="58.594902958720922" lon="-3.397589027881622">
        <ele>31.859999999999999</ele>
        <time>2019-09-02T15:19:09Z</time>
      </trkpt>
      <trkpt lat="58.595410985872149" lon="-3.399345958605409">
        <ele>33.299999999999997</ele>
        <time>2019-09-02T15:19:18Z</time>
      </trkpt>
      <trkpt lat="58.595444010570645" lon="-3.399576041847467">
        <ele>33.780000000000001</ele>
        <time>2019-09-02T15:19:19Z</time>
      </trkpt>
      <trkpt lat="58.595464965328574" lon="-3.399812998250127">
        <ele>34.259999999999998</ele>
        <time>2019-09-02T15:19:20Z</time>
      </trkpt>
      <trkpt lat="58.595486003905535" lon="-3.400053977966309">
        <ele>34.740000000000002</ele>
        <time>2019-09-02T15:19:21Z</time>
      </trkpt>
      <trkpt lat="58.595492960885167" lon="-3.400300992652774">
        <ele>34.740000000000002</ele>
        <time>2019-09-02T15:19:22Z</time>
      </trkpt>
      <trkpt lat="58.595438981428742" lon="-3.403198029845953">
        <ele>35.710000000000001</ele>
        <time>2019-09-02T15:19:32Z</time>
      </trkpt>
      <trkpt lat="58.595396988093853" lon="-3.407656028866768">
        <ele>39.549999999999997</ele>
        <time>2019-09-02T15:19:46Z</time>
      </trkpt>
      <trkpt lat="58.595299003645778" lon="-3.410979034379125">
        <ele>43.880000000000003</ele>
        <time>2019-09-02T15:19:58Z</time>
      </trkpt>
      <trkpt lat="58.595143016427755" lon="-3.41524600982666">
        <ele>47.240000000000002</ele>
        <time>2019-09-02T15:20:11Z</time>
      </trkpt>
      <trkpt lat="58.594976970925927" lon="-3.419841974973679">
        <ele>46.759999999999998</ele>
        <time>2019-09-02T15:20:26Z</time>
      </trkpt>
      <trkpt lat="58.594826012849808" lon="-3.424061005935073">
        <ele>44.840000000000003</ele>
        <time>2019-09-02T15:20:38Z</time>
      </trkpt>
      <trkpt lat="58.594687962904572" lon="-3.427909975871444">
        <ele>45.32</ele>
        <time>2019-09-02T15:20:50Z</time>
      </trkpt>
      <trkpt lat="58.594559971243143" lon="-3.431744026020169">
        <ele>43.399999999999999</ele>
        <time>2019-09-02T15:21:04Z</time>
      </trkpt>
      <trkpt lat="58.594413036480546" lon="-3.435600036755204">
        <ele>40.030000000000001</ele>
        <time>2019-09-02T15:21:18Z</time>
      </trkpt>
      <trkpt lat="58.594279009848833" lon="-3.439216995611787">
        <ele>34.740000000000002</ele>
        <time>2019-09-02T15:21:31Z</time>
      </trkpt>
      <trkpt lat="58.594149006530643" lon="-3.442947026342154">
        <ele>28.5</ele>
        <time>2019-09-02T15:21:43Z</time>
      </trkpt>
      <trkpt lat="58.593980027362704" lon="-3.447896037250757">
        <ele>20.809999999999999</ele>
        <time>2019-09-02T15:21:57Z</time>
      </trkpt>
      <trkpt lat="58.593801995739341" lon="-3.453247966244817">
        <ele>23.690000000000001</ele>
        <time>2019-09-02T15:22:12Z</time>
      </trkpt>
      <trkpt lat="58.593696970492601" lon="-3.455961020663381">
        <ele>24.649999999999999</ele>
        <time>2019-09-02T15:22:21Z</time>
      </trkpt>
      <trkpt lat="58.593539977446198" lon="-3.460293039679527">
        <ele>24.170000000000002</ele>
        <time>2019-09-02T15:22:33Z</time>
      </trkpt>
      <trkpt lat="58.593359012156725" lon="-3.465356966480613">
        <ele>28.98</ele>
        <time>2019-09-02T15:22:47Z</time>
      </trkpt>
      <trkpt lat="58.59322196803987" lon="-3.469175007194281">
        <ele>37.630000000000003</ele>
        <time>2019-09-02T15:22:58Z</time>
      </trkpt>
      <trkpt lat="58.593131024390459" lon="-3.471712041646242">
        <ele>44.359999999999999</ele>
        <time>2019-09-02T15:23:07Z</time>
      </trkpt>
      <trkpt lat="58.592972019687295" lon="-3.47615797072649">
        <ele>48.68</ele>
        <time>2019-09-02T15:23:20Z</time>
      </trkpt>
      <trkpt lat="58.59283497557044" lon="-3.479993026703596">
        <ele>46.280000000000001</ele>
        <time>2019-09-02T15:23:31Z</time>
      </trkpt>
      <trkpt lat="58.59272500500083" lon="-3.483083015307784">
        <ele>43.880000000000003</ele>
        <time>2019-09-02T15:23:41Z</time>
      </trkpt>
      <trkpt lat="58.592572035267949" lon="-3.487358959391713">
        <ele>40.030000000000001</ele>
        <time>2019-09-02T15:23:53Z</time>
      </trkpt>
      <trkpt lat="58.592414036393166" lon="-3.491689972579479">
        <ele>36.670000000000002</ele>
        <time>2019-09-02T15:24:06Z</time>
      </trkpt>
      <trkpt lat="58.592475978657603" lon="-3.494200017303228">
        <ele>34.740000000000002</ele>
        <time>2019-09-02T15:24:14Z</time>
      </trkpt>
      <trkpt lat="58.592536998912692" lon="-3.494445020332933">
        <ele>34.740000000000002</ele>
        <time>2019-09-02T15:24:15Z</time>
      </trkpt>
      <trkpt lat="58.592613022774458" lon="-3.494695974513888">
        <ele>35.229999999999997</ele>
        <time>2019-09-02T15:24:16Z</time>
      </trkpt>
      <trkpt lat="58.592693991959095" lon="-3.494961010292172">
        <ele>35.229999999999997</ele>
        <time>2019-09-02T15:24:17Z</time>
      </trkpt>
      <trkpt lat="58.59279197640717" lon="-3.495282959192991">
        <ele>35.229999999999997</ele>
        <time>2019-09-02T15:24:18Z</time>
      </trkpt>
      <trkpt lat="58.593639973551035" lon="-3.497526962310076">
        <ele>36.189999999999998</ele>
        <time>2019-09-02T15:24:26Z</time>
      </trkpt>
      <trkpt lat="58.593719014897943" lon="-3.497822005301714">
        <ele>36.189999999999998</ele>
        <time>2019-09-02T15:24:27Z</time>
      </trkpt>
      <trkpt lat="58.59377701766789" lon="-3.498147977516055">
        <ele>36.189999999999998</ele>
        <time>2019-09-02T15:24:28Z</time>
      </trkpt>
      <trkpt lat="58.594027971848845" lon="-3.500522989779711">
        <ele>35.229999999999997</ele>
        <time>2019-09-02T15:24:36Z</time>
      </trkpt>
      <trkpt lat="58.594309017062187" lon="-3.502849973738194">
        <ele>33.299999999999997</ele>
        <time>2019-09-02T15:24:46Z</time>
      </trkpt>
      <trkpt lat="58.594376994296908" lon="-3.503294968977571">
        <ele>32.340000000000003</ele>
        <time>2019-09-02T15:24:48Z</time>
      </trkpt>
      <trkpt lat="58.594417981803417" lon="-3.503538966178894">
        <ele>32.340000000000003</ele>
        <time>2019-09-02T15:24:49Z</time>
      </trkpt>
      <trkpt lat="58.595104040578008" lon="-3.505439981818199">
        <ele>28.02</ele>
        <time>2019-09-02T15:24:57Z</time>
      </trkpt>
      <trkpt lat="58.595507964491844" lon="-3.506491994485259">
        <ele>25.129999999999999</ele>
        <time>2019-09-02T15:25:02Z</time>
      </trkpt>
      <trkpt lat="58.595553981140256" lon="-3.50670799612999">
        <ele>24.649999999999999</ele>
        <time>2019-09-02T15:25:03Z</time>
      </trkpt>
      <trkpt lat="58.595598991960287" lon="-3.506919974461198">
        <ele>24.170000000000002</ele>
        <time>2019-09-02T15:25:04Z</time>
      </trkpt>
      <trkpt lat="58.595621036365628" lon="-3.507144022732973">
        <ele>23.690000000000001</ele>
        <time>2019-09-02T15:25:05Z</time>
      </trkpt>
      <trkpt lat="58.595613995566964" lon="-3.507375027984381">
        <ele>23.210000000000001</ele>
        <time>2019-09-02T15:25:06Z</time>
      </trkpt>
      <trkpt lat="58.595607038587332" lon="-3.507604021579027">
        <ele>22.73</ele>
        <time>2019-09-02T15:25:07Z</time>
      </trkpt>
      <trkpt lat="58.595579965040088" lon="-3.507809964939952">
        <ele>21.77</ele>
        <time>2019-09-02T15:25:08Z</time>
      </trkpt>
      <trkpt lat="58.595521962270141" lon="-3.508011968806386">
        <ele>21.289999999999999</ele>
        <time>2019-09-02T15:25:09Z</time>
      </trkpt>
      <trkpt lat="58.595464965328574" lon="-3.508211961016059">
        <ele>20.809999999999999</ele>
        <time>2019-09-02T15:25:10Z</time>
      </trkpt>
      <trkpt lat="58.595408974215388" lon="-3.508408013731241">
        <ele>20.809999999999999</ele>
        <time>2019-09-02T15:25:11Z</time>
      </trkpt>
      <trkpt lat="58.595337979495525" lon="-3.508575987070799">
        <ele>20.32</ele>
        <time>2019-09-02T15:25:12Z</time>
      </trkpt>
      <trkpt lat="58.59526002779603" lon="-3.508728034794331">
        <ele>19.84</ele>
        <time>2019-09-02T15:25:13Z</time>
      </trkpt>
      <trkpt lat="58.595180986449122" lon="-3.508877987042069">
        <ele>19.84</ele>
        <time>2019-09-02T15:25:14Z</time>
      </trkpt>
      <trkpt lat="58.594126040115952" lon="-3.510696021839976">
        <ele>16.48</ele>
        <time>2019-09-02T15:25:25Z</time>
      </trkpt>
      <trkpt lat="58.593340991064906" lon="-3.512026984244585">
        <ele>12.630000000000001</ele>
        <time>2019-09-02T15:25:34Z</time>
      </trkpt>
      <trkpt lat="58.592311022803187" lon="-3.514007041230798">
        <ele>8.789999999999999</ele>
        <time>2019-09-02T15:25:47Z</time>
      </trkpt>
      <trkpt lat="58.591841971501708" lon="-3.515718961134553">
        <ele>6.39</ele>
        <time>2019-09-02T15:25:56Z</time>
      </trkpt>
      <trkpt lat="58.591735018417239" lon="-3.516339976340532">
        <ele>4.46</ele>
        <time>2019-09-02T15:26:02Z</time>
      </trkpt>
      <trkpt lat="58.591692019253969" lon="-3.516662009060383">
        <ele>3.98</ele>
        <time>2019-09-02T15:26:12Z</time>
      </trkpt>
      <trkpt lat="58.591655977070332" lon="-3.516926039010286">
        <ele>4.46</ele>
        <time>2019-09-02T15:26:42Z</time>
      </trkpt>
      <trkpt lat="58.591635022312403" lon="-3.517026035115123">
        <ele>4.46</ele>
        <time>2019-09-02T15:26:43Z</time>
      </trkpt>
      <trkpt lat="58.591642985120416" lon="-3.517522998154163">
        <ele>4.94</ele>
        <time>2019-09-02T15:26:51Z</time>
      </trkpt>
      <trkpt lat="58.591839959844947" lon="-3.517933040857315">
        <ele>1.58</ele>
        <time>2019-09-02T15:27:06Z</time>
      </trkpt>
      <trkpt lat="58.591892011463642" lon="-3.518062960356474">
        <ele>1.58</ele>
        <time>2019-09-02T15:27:16Z</time>
      </trkpt>
      <trkpt lat="58.591989995911717" lon="-3.518302012234926">
        <ele>2.54</ele>
        <time>2019-09-02T15:27:25Z</time>
      </trkpt>
      <trkpt lat="58.592113964259624" lon="-3.51837501861155">
        <ele>2.54</ele>
        <time>2019-09-02T15:27:37Z</time>
      </trkpt>
      <trkpt lat="58.592113964259624" lon="-3.51837501861155">
        <ele>2.54</ele>
        <time>2019-09-02T15:28:03Z</time>
      </trkpt>
      <trkpt lat="58.592113964259624" lon="-3.51837501861155">
        <ele>2.06</ele>
        <time>2019-09-02T15:28:51Z</time>
      </trkpt>
      <trkpt lat="58.592113964259624" lon="-3.51837501861155">
        <ele>3.02</ele>
        <time>2019-09-02T15:29:37Z</time>
      </trkpt>
      <trkpt lat="58.592113964259624" lon="-3.51837501861155">
        <ele>3.98</ele>
        <time>2019-09-02T15:30:21Z</time>
      </trkpt>
      <trkpt lat="58.592113964259624" lon="-3.51837501861155">
        <ele>4.46</ele>
        <time>2019-09-02T15:31:08Z</time>
      </trkpt>
      <trkpt lat="58.592113964259624" lon="-3.51837501861155">
        <ele>4.46</ele>
        <time>2019-09-02T15:31:51Z</time>
      </trkpt>
      <trkpt lat="58.592113964259624" lon="-3.51837501861155">
        <ele>4.46</ele>
        <time>2019-09-02T15:32:16Z</time>
      </trkpt>
      <trkpt lat="58.592113964259624" lon="-3.51837501861155">
        <ele>4.46</ele>
        <time>2019-09-02T15:32:46Z</time>
      </trkpt>
    </trkseg>
  </trk>

</gpx>